Wetterdaten: Samstag, 04.11.2017
Datum Zeit Temp. A. Temp. A. max Feuchte A. Luftdruck Regen Wind Richtung Richtung Sonnenschein ET UV Solar Taupunkt Windchill Windböen
04.11.2017 00:00 1,9 °C 1,9 °C 96 % 1013,5 hPa 0,0 mm 0,0 km/h (0 Bft) S-SW 205 ° 0 min 0,000 mm 0,0 UV-I 0 W/m² 1,3 °C 1,9 °C 0,0 km/h (0 Bft)
04.11.2017 00:01 2,0 °C 2,1 °C 96 % 1013,5 hPa 0,0 mm 0,0 km/h (0 Bft) S-SW 205 ° 0 min 0,000 mm 0,0 UV-I 0 W/m² 1,4 °C 2,0 °C 0,0 km/h (0 Bft)
04.11.2017 00:02 2,1 °C 2,1 °C 96 % 1013,5 hPa 0,0 mm 0,0 km/h (0 Bft) S-SW 205 ° 0 min 0,000 mm 0,0 UV-I 0 W/m² 1,5 °C 2,1 °C 0,0 km/h (0 Bft)
04.11.2017 00:03 2,1 °C 2,1 °C 96 % 1013,5 hPa 0,0 mm 0,0 km/h (0 Bft) S-SW 205 ° 0 min 0,000 mm 0,0 UV-I 0 W/m² 1,5 °C 2,1 °C 0,0 km/h (0 Bft)
04.11.2017 00:04 2,2 °C 2,2 °C 96 % 1013,5 hPa 0,0 mm 0,0 km/h (0 Bft) S-SW 205 ° 0 min 0,000 mm 0,0 UV-I 0 W/m² 1,6 °C 2,2 °C 0,0 km/h (0 Bft)
04.11.2017 00:05 2,3 °C 2,3 °C 96 % 1013,5 hPa 0,0 mm 0,0 km/h (0 Bft) S-SW 205 ° 0 min 0,000 mm 0,0 UV-I 0 W/m² 1,7 °C 2,3 °C 0,0 km/h (0 Bft)
04.11.2017 00:06 2,3 °C 2,3 °C 96 % 1013,5 hPa 0,0 mm 0,0 km/h (0 Bft) S-SW 205 ° 0 min 0,000 mm 0,0 UV-I 0 W/m² 1,7 °C 2,3 °C 0,0 km/h (0 Bft)
04.11.2017 00:07 2,3 °C 2,3 °C 96 % 1013,5 hPa 0,0 mm 0,0 km/h (0 Bft) S-SW 205 ° 0 min 0,000 mm 0,0 UV-I 0 W/m² 1,7 °C 2,3 °C 0,0 km/h (0 Bft)
04.11.2017 00:08 2,2 °C 2,3 °C 96 % 1013,5 hPa 0,0 mm 0,0 km/h (0 Bft) S-SW 205 ° 0 min 0,000 mm 0,0 UV-I 0 W/m² 1,6 °C 2,2 °C 0,0 km/h (0 Bft)
04.11.2017 00:09 2,1 °C 2,2 °C 96 % 1013,5 hPa 0,0 mm 0,0 km/h (0 Bft) S-SW 205 ° 0 min 0,000 mm 0,0 UV-I 0 W/m² 1,5 °C 2,1 °C 0,0 km/h (0 Bft)
04.11.2017 00:10 2,0 °C 2,1 °C 96 % 1013,5 hPa 0,0 mm 0,0 km/h (0 Bft) S-SW 205 ° 0 min 0,000 mm 0,0 UV-I 0 W/m² 1,4 °C 2,0 °C 0,0 km/h (0 Bft)
04.11.2017 00:11 1,9 °C 2,0 °C 96 % 1013,5 hPa 0,0 mm 0,0 km/h (0 Bft) S-SW 205 ° 0 min 0,000 mm 0,0 UV-I 0 W/m² 1,3 °C 1,9 °C 0,0 km/h (0 Bft)
04.11.2017 00:12 1,9 °C 1,9 °C 96 % 1013,5 hPa 0,0 mm 0,0 km/h (0 Bft) S-SW 205 ° 0 min 0,000 mm 0,0 UV-I 0 W/m² 1,3 °C 1,9 °C 0,0 km/h (0 Bft)
04.11.2017 00:13 1,9 °C 1,9 °C 96 % 1013,5 hPa 0,0 mm 0,0 km/h (0 Bft) S-SW 205 ° 0 min 0,000 mm 0,0 UV-I 0 W/m² 1,3 °C 1,9 °C 0,0 km/h (0 Bft)
04.11.2017 00:14 2,0 °C 2,0 °C 96 % 1013,5 hPa 0,0 mm 0,0 km/h (0 Bft) S-SW 205 ° 0 min 0,000 mm 0,0 UV-I 0 W/m² 1,4 °C 2,0 °C 0,0 km/h (0 Bft)
04.11.2017 00:15 2,0 °C 2,1 °C 96 % 1013,5 hPa 0,0 mm 0,0 km/h (0 Bft) S-SW 205 ° 0 min 0,000 mm 0,0 UV-I 0 W/m² 1,4 °C 2,0 °C 0,0 km/h (0 Bft)
04.11.2017 00:16 2,0 °C 2,1 °C 96 % 1013,5 hPa 0,0 mm 0,0 km/h (0 Bft) S-SW 205 ° 0 min 0,000 mm 0,0 UV-I 0 W/m² 1,4 °C 2,0 °C 0,0 km/h (0 Bft)
04.11.2017 00:17 2,0 °C 2,0 °C 96 % 1013,5 hPa 0,0 mm 0,0 km/h (0 Bft) S-SW 205 ° 0 min 0,000 mm 0,0 UV-I 0 W/m² 1,4 °C 2,0 °C 0,0 km/h (0 Bft)
04.11.2017 00:18 1,9 °C 2,0 °C 96 % 1013,5 hPa 0,0 mm 0,0 km/h (0 Bft) S-SW 205 ° 0 min 0,000 mm 0,0 UV-I 0 W/m² 1,3 °C 1,9 °C 0,0 km/h (0 Bft)
04.11.2017 00:19 1,9 °C 1,9 °C 96 % 1013,5 hPa 0,0 mm 0,0 km/h (0 Bft) S-SW 205 ° 0 min 0,000 mm 0,0 UV-I 0 W/m² 1,3 °C 1,9 °C 0,0 km/h (0 Bft)
04.11.2017 00:20 1,9 °C 1,9 °C 96 % 1013,5 hPa 0,0 mm 0,0 km/h (0 Bft) S-SW 205 ° 0 min 0,000 mm 0,0 UV-I 0 W/m² 1,3 °C 1,9 °C 0,0 km/h (0 Bft)
04.11.2017 00:21 1,9 °C 1,9 °C 96 % 1013,5 hPa 0,0 mm 0,0 km/h (0 Bft) S-SW 205 ° 0 min 0,000 mm 0,0 UV-I 0 W/m² 1,3 °C 1,9 °C 0,0 km/h (0 Bft)
04.11.2017 00:22 2,0 °C 2,0 °C 96 % 1013,5 hPa 0,0 mm 0,0 km/h (0 Bft) S-SW 205 ° 0 min 0,000 mm 0,0 UV-I 0 W/m² 1,4 °C 2,0 °C 0,0 km/h (0 Bft)
04.11.2017 00:23 2,0 °C 2,1 °C 96 % 1013,5 hPa 0,0 mm 0,0 km/h (0 Bft) S-SW 205 ° 0 min 0,000 mm 0,0 UV-I 0 W/m² 1,4 °C 2,0 °C 0,0 km/h (0 Bft)
04.11.2017 00:24 2,0 °C 2,0 °C 96 % 1013,5 hPa 0,0 mm 0,0 km/h (0 Bft) S-SW 205 ° 0 min 0,000 mm 0,0 UV-I 0 W/m² 1,4 °C 2,0 °C 0,0 km/h (0 Bft)
04.11.2017 00:25 1,9 °C 2,0 °C 96 % 1013,5 hPa 0,0 mm 0,0 km/h (0 Bft) S-SW 205 ° 0 min 0,000 mm 0,0 UV-I 0 W/m² 1,3 °C 1,9 °C 0,0 km/h (0 Bft)
04.11.2017 00:26 1,9 °C 2,0 °C 96 % 1013,5 hPa 0,0 mm 0,0 km/h (0 Bft) S-SW 205 ° 0 min 0,000 mm 0,0 UV-I 0 W/m² 1,3 °C 1,9 °C 0,0 km/h (0 Bft)
04.11.2017 00:27 2,0 °C 2,0 °C 96 % 1013,5 hPa 0,0 mm 0,0 km/h (0 Bft) S-SW 205 ° 0 min 0,000 mm 0,0 UV-I 0 W/m² 1,4 °C 2,0 °C 0,0 km/h (0 Bft)
04.11.2017 00:28 2,1 °C 2,1 °C 96 % 1013,5 hPa 0,0 mm 0,0 km/h (0 Bft) S-SW 205 ° 0 min 0,000 mm 0,0 UV-I 0 W/m² 1,5 °C 2,1 °C 0,0 km/h (0 Bft)
04.11.2017 00:29 2,2 °C 2,2 °C 96 % 1013,6 hPa 0,0 mm 0,0 km/h (0 Bft) S-SW 205 ° 0 min 0,000 mm 0,0 UV-I 0 W/m² 1,6 °C 2,2 °C 0,0 km/h (0 Bft)
04.11.2017 00:30 2,2 °C 2,2 °C 96 % 1013,6 hPa 0,0 mm 0,0 km/h (0 Bft) S-SW 205 ° 0 min 0,000 mm 0,0 UV-I 0 W/m² 1,6 °C 2,2 °C 0,0 km/h (0 Bft)
04.11.2017 00:31 2,2 °C 2,2 °C 96 % 1013,5 hPa 0,0 mm 0,0 km/h (0 Bft) S-SW 205 ° 0 min 0,000 mm 0,0 UV-I 0 W/m² 1,6 °C 2,2 °C 0,0 km/h (0 Bft)
04.11.2017 00:32 2,2 °C 2,2 °C 96 % 1013,5 hPa 0,0 mm 0,0 km/h (0 Bft) S-SW 205 ° 0 min 0,000 mm 0,0 UV-I 0 W/m² 1,6 °C 2,2 °C 0,0 km/h (0 Bft)
04.11.2017 00:33 2,2 °C 2,2 °C 96 % 1013,5 hPa 0,0 mm 0,0 km/h (0 Bft) S-SW 205 ° 0 min 0,000 mm 0,0 UV-I 0 W/m² 1,6 °C 2,2 °C 0,0 km/h (0 Bft)
04.11.2017 00:34 2,2 °C 2,2 °C 96 % 1013,5 hPa 0,0 mm 0,0 km/h (0 Bft) S-SW 205 ° 0 min 0,000 mm 0,0 UV-I 0 W/m² 1,6 °C 2,2 °C 0,0 km/h (0 Bft)
04.11.2017 00:35 2,2 °C 2,2 °C 96 % 1013,5 hPa 0,0 mm 0,0 km/h (0 Bft) S-SW 205 ° 0 min 0,000 mm 0,0 UV-I 0 W/m² 1,6 °C 2,2 °C 0,0 km/h (0 Bft)
04.11.2017 00:36 2,2 °C 2,2 °C 96 % 1013,5 hPa 0,0 mm 0,0 km/h (0 Bft) S-SW 205 ° 0 min 0,000 mm 0,0 UV-I 0 W/m² 1,6 °C 2,2 °C 0,0 km/h (0 Bft)
04.11.2017 00:37 2,1 °C 2,2 °C 96 % 1013,5 hPa 0,0 mm 0,0 km/h (0 Bft) S-SW 205 ° 0 min 0,000 mm 0,0 UV-I 0 W/m² 1,5 °C 2,1 °C 0,0 km/h (0 Bft)
04.11.2017 00:38 2,1 °C 2,1 °C 96 % 1013,5 hPa 0,0 mm 0,0 km/h (0 Bft) S-SW 205 ° 0 min 0,000 mm 0,0 UV-I 0 W/m² 1,5 °C 2,1 °C 0,0 km/h (0 Bft)
04.11.2017 00:39 1,9 °C 2,1 °C 96 % 1013,5 hPa 0,0 mm 0,0 km/h (0 Bft) S-SW 205 ° 0 min 0,000 mm 0,0 UV-I 0 W/m² 1,3 °C 1,9 °C 0,0 km/h (0 Bft)
04.11.2017 00:40 1,9 °C 1,9 °C 96 % 1013,5 hPa 0,0 mm 0,0 km/h (0 Bft) S-SW 205 ° 0 min 0,000 mm 0,0 UV-I 0 W/m² 1,3 °C 1,9 °C 0,0 km/h (0 Bft)
04.11.2017 00:41 1,8 °C 1,9 °C 96 % 1013,5 hPa 0,0 mm 0,0 km/h (0 Bft) S-SW 205 ° 0 min 0,000 mm 0,0 UV-I 0 W/m² 1,2 °C 1,8 °C 0,0 km/h (0 Bft)
04.11.2017 00:42 1,8 °C 1,8 °C 96 % 1013,5 hPa 0,0 mm 0,0 km/h (0 Bft) S-SW 205 ° 0 min 0,000 mm 0,0 UV-I 0 W/m² 1,2 °C 1,8 °C 0,0 km/h (0 Bft)
04.11.2017 00:43 1,8 °C 1,8 °C 96 % 1013,5 hPa 0,0 mm 0,0 km/h (0 Bft) S-SW 205 ° 0 min 0,000 mm 0,0 UV-I 0 W/m² 1,2 °C 1,8 °C 0,0 km/h (0 Bft)
04.11.2017 00:44 1,8 °C 1,8 °C 96 % 1013,4 hPa 0,0 mm 0,0 km/h (0 Bft) S-SW 205 ° 0 min 0,000 mm 0,0 UV-I 0 W/m² 1,2 °C 1,8 °C 0,0 km/h (0 Bft)
04.11.2017 00:45 1,9 °C 1,9 °C 96 % 1013,4 hPa 0,0 mm 0,0 km/h (0 Bft) S-SW 205 ° 0 min 0,000 mm 0,0 UV-I 0 W/m² 1,3 °C 1,9 °C 0,0 km/h (0 Bft)
04.11.2017 00:46 2,1 °C 2,1 °C 96 % 1013,4 hPa 0,0 mm 0,0 km/h (0 Bft) S-SW 205 ° 0 min 0,000 mm 0,0 UV-I 0 W/m² 1,5 °C 2,1 °C 0,0 km/h (0 Bft)
04.11.2017 00:47 2,2 °C 2,2 °C 96 % 1013,4 hPa 0,0 mm 0,0 km/h (0 Bft) S-SW 205 ° 0 min 0,000 mm 0,0 UV-I 0 W/m² 1,6 °C 2,2 °C 0,0 km/h (0 Bft)
04.11.2017 00:48 2,1 °C 2,2 °C 96 % 1013,5 hPa 0,0 mm 0,0 km/h (0 Bft) S-SW 205 ° 0 min 0,000 mm 0,0 UV-I 0 W/m² 1,5 °C 2,1 °C 0,0 km/h (0 Bft)
04.11.2017 00:49 1,9 °C 2,1 °C 96 % 1013,4 hPa 0,0 mm 0,0 km/h (0 Bft) S-SW 205 ° 0 min 0,000 mm 0,0 UV-I 0 W/m² 1,3 °C 1,9 °C 0,0 km/h (0 Bft)
04.11.2017 00:50 1,8 °C 1,9 °C 96 % 1013,4 hPa 0,0 mm 0,0 km/h (0 Bft) S-SW 205 ° 0 min 0,000 mm 0,0 UV-I 0 W/m² 1,2 °C 1,8 °C 0,0 km/h (0 Bft)
04.11.2017 00:51 1,7 °C 1,8 °C 96 % 1013,5 hPa 0,0 mm 0,0 km/h (0 Bft) S-SW 205 ° 0 min 0,000 mm 0,0 UV-I 0 W/m² 1,1 °C 1,7 °C 0,0 km/h (0 Bft)
04.11.2017 00:52 1,6 °C 1,7 °C 96 % 1013,4 hPa 0,0 mm 0,0 km/h (0 Bft) S-SW 205 ° 0 min 0,000 mm 0,0 UV-I 0 W/m² 1,0 °C 1,6 °C 0,0 km/h (0 Bft)
04.11.2017 00:53 1,6 °C 1,6 °C 96 % 1013,4 hPa 0,0 mm 0,0 km/h (0 Bft) S-SW 205 ° 0 min 0,000 mm 0,0 UV-I 0 W/m² 1,0 °C 1,6 °C 0,0 km/h (0 Bft)
04.11.2017 00:54 1,6 °C 1,6 °C 96 % 1013,4 hPa 0,0 mm 0,0 km/h (0 Bft) S-SW 205 ° 0 min 0,000 mm 0,0 UV-I 0 W/m² 1,0 °C 1,6 °C 0,0 km/h (0 Bft)
04.11.2017 00:55 1,7 °C 1,7 °C 96 % 1013,4 hPa 0,0 mm 0,0 km/h (0 Bft) S-SW 205 ° 0 min 0,000 mm 0,0 UV-I 0 W/m² 1,1 °C 1,7 °C 0,0 km/h (0 Bft)
04.11.2017 00:56 1,8 °C 1,8 °C 96 % 1013,4 hPa 0,0 mm 0,0 km/h (0 Bft) S-SW 205 ° 0 min 0,000 mm 0,0 UV-I 0 W/m² 1,2 °C 1,8 °C 0,0 km/h (0 Bft)
04.11.2017 00:57 1,9 °C 1,9 °C 96 % 1013,5 hPa 0,0 mm 0,0 km/h (0 Bft) S-SW 205 ° 0 min 0,000 mm 0,0 UV-I 0 W/m² 1,3 °C 1,9 °C 0,0 km/h (0 Bft)
04.11.2017 00:58 1,9 °C 1,9 °C 96 % 1013,5 hPa 0,0 mm 0,0 km/h (0 Bft) S-SW 205 ° 0 min 0,000 mm 0,0 UV-I 0 W/m² 1,3 °C 1,9 °C 0,0 km/h (0 Bft)
04.11.2017 00:59 1,8 °C 1,9 °C 96 % 1013,5 hPa 0,0 mm 0,0 km/h (0 Bft) S-SW 205 ° 0 min 0,000 mm 0,0 UV-I 0 W/m² 1,2 °C 1,8 °C 0,0 km/h (0 Bft)
04.11.2017 01:00 1,7 °C 1,8 °C 96 % 1013,4 hPa 0,0 mm 0,0 km/h (0 Bft) S-SW 205 ° 0 min 0,000 mm 0,0 UV-I 0 W/m² 1,1 °C 1,7 °C 0,0 km/h (0 Bft)
04.11.2017 01:01 1,6 °C 1,7 °C 96 % 1013,4 hPa 0,0 mm 0,0 km/h (0 Bft) S-SW 205 ° 0 min 0,000 mm 0,0 UV-I 0 W/m² 1,0 °C 1,6 °C 0,0 km/h (0 Bft)
04.11.2017 01:02 1,6 °C 1,6 °C 96 % 1013,5 hPa 0,0 mm 0,0 km/h (0 Bft) S-SW 205 ° 0 min 0,000 mm 0,0 UV-I 0 W/m² 1,0 °C 1,6 °C 0,0 km/h (0 Bft)
04.11.2017 01:03 1,5 °C 1,6 °C 96 % 1013,5 hPa 0,0 mm 0,0 km/h (0 Bft) S-SW 205 ° 0 min 0,000 mm 0,0 UV-I 0 W/m² 0,9 °C 1,5 °C 0,0 km/h (0 Bft)
04.11.2017 01:04 1,6 °C 1,6 °C 96 % 1013,5 hPa 0,0 mm 0,0 km/h (0 Bft) S-SW 205 ° 0 min 0,000 mm 0,0 UV-I 0 W/m² 1,0 °C 1,6 °C 0,0 km/h (0 Bft)
04.11.2017 01:05 1,7 °C 1,7 °C 96 % 1013,4 hPa 0,0 mm 0,0 km/h (0 Bft) S-SW 205 ° 0 min 0,000 mm 0,0 UV-I 0 W/m² 1,1 °C 1,7 °C 0,0 km/h (0 Bft)
04.11.2017 01:06 1,7 °C 1,7 °C 96 % 1013,4 hPa 0,0 mm 0,0 km/h (0 Bft) S-SW 205 ° 0 min 0,000 mm 0,0 UV-I 0 W/m² 1,1 °C 1,7 °C 0,0 km/h (0 Bft)
04.11.2017 01:07 1,7 °C 1,7 °C 96 % 1013,4 hPa 0,0 mm 0,0 km/h (0 Bft) S-SW 205 ° 0 min 0,000 mm 0,0 UV-I 0 W/m² 1,1 °C 1,7 °C 0,0 km/h (0 Bft)
04.11.2017 01:08 1,6 °C 1,7 °C 96 % 1013,4 hPa 0,0 mm 0,0 km/h (0 Bft) S-SW 205 ° 0 min 0,000 mm 0,0 UV-I 0 W/m² 1,0 °C 1,6 °C 0,0 km/h (0 Bft)
04.11.2017 01:09 1,4 °C 1,6 °C 96 % 1013,5 hPa 0,0 mm 0,0 km/h (0 Bft) S-SW 205 ° 0 min 0,000 mm 0,0 UV-I 0 W/m² 0,8 °C 1,4 °C 0,0 km/h (0 Bft)
04.11.2017 01:10 1,3 °C 1,4 °C 96 % 1013,5 hPa 0,0 mm 0,0 km/h (0 Bft) S-SW 205 ° 0 min 0,000 mm 0,0 UV-I 0 W/m² 0,7 °C 1,3 °C 0,0 km/h (0 Bft)
04.11.2017 01:11 1,3 °C 1,3 °C 96 % 1013,5 hPa 0,0 mm 0,0 km/h (0 Bft) S-SW 205 ° 0 min 0,000 mm 0,0 UV-I 0 W/m² 0,7 °C 1,3 °C 0,0 km/h (0 Bft)
04.11.2017 01:12 1,4 °C 1,4 °C 96 % 1013,4 hPa 0,0 mm 0,0 km/h (0 Bft) S-SW 205 ° 0 min 0,000 mm 0,0 UV-I 0 W/m² 0,8 °C 1,4 °C 0,0 km/h (0 Bft)
04.11.2017 01:13 1,5 °C 1,5 °C 96 % 1013,4 hPa 0,0 mm 0,0 km/h (0 Bft) S-SW 205 ° 0 min 0,000 mm 0,0 UV-I 0 W/m² 0,9 °C 1,5 °C 0,0 km/h (0 Bft)
04.11.2017 01:14 1,7 °C 1,7 °C 96 % 1013,4 hPa 0,0 mm 0,0 km/h (0 Bft) S-SW 205 ° 0 min 0,000 mm 0,0 UV-I 0 W/m² 1,1 °C 1,7 °C 0,0 km/h (0 Bft)
04.11.2017 01:15 1,8 °C 1,8 °C 96 % 1013,5 hPa 0,0 mm 0,0 km/h (0 Bft) S-SW 205 ° 0 min 0,000 mm 0,0 UV-I 0 W/m² 1,2 °C 1,8 °C 0,0 km/h (0 Bft)
04.11.2017 01:16 1,8 °C 1,9 °C 96 % 1013,5 hPa 0,0 mm 0,0 km/h (0 Bft) S-SW 205 ° 0 min 0,000 mm 0,0 UV-I 0 W/m² 1,2 °C 1,8 °C 0,0 km/h (0 Bft)
04.11.2017 01:17 1,8 °C 1,8 °C 96 % 1013,4 hPa 0,0 mm 0,0 km/h (0 Bft) S-SW 205 ° 0 min 0,000 mm 0,0 UV-I 0 W/m² 1,2 °C 1,8 °C 0,0 km/h (0 Bft)
04.11.2017 01:18 1,7 °C 1,8 °C 96 % 1013,4 hPa 0,0 mm 0,0 km/h (0 Bft) S-SW 205 ° 0 min 0,000 mm 0,0 UV-I 0 W/m² 1,1 °C 1,7 °C 0,0 km/h (0 Bft)
04.11.2017 01:19 1,6 °C 1,7 °C 96 % 1013,5 hPa 0,0 mm 0,0 km/h (0 Bft) S-SW 205 ° 0 min 0,000 mm 0,0 UV-I 0 W/m² 1,0 °C 1,6 °C 0,0 km/h (0 Bft)
04.11.2017 01:20 1,5 °C 1,6 °C 96 % 1013,5 hPa 0,0 mm 0,0 km/h (0 Bft) S-SW 205 ° 0 min 0,000 mm 0,0 UV-I 0 W/m² 0,9 °C 1,5 °C 0,0 km/h (0 Bft)
04.11.2017 01:21 1,6 °C 1,6 °C 96 % 1013,4 hPa 0,0 mm 0,0 km/h (0 Bft) S-SW 205 ° 0 min 0,000 mm 0,0 UV-I 0 W/m² 1,0 °C 1,6 °C 0,0 km/h (0 Bft)
04.11.2017 01:22 1,5 °C 1,6 °C 96 % 1013,4 hPa 0,0 mm 0,0 km/h (0 Bft) S-SW 205 ° 0 min 0,000 mm 0,0 UV-I 0 W/m² 0,9 °C 1,5 °C 0,0 km/h (0 Bft)
04.11.2017 01:23 1,4 °C 1,5 °C 96 % 1013,5 hPa 0,0 mm 0,0 km/h (0 Bft) S-SW 205 ° 0 min 0,000 mm 0,0 UV-I 0 W/m² 0,8 °C 1,4 °C 0,0 km/h (0 Bft)
04.11.2017 01:24 1,4 °C 1,4 °C 96 % 1013,5 hPa 0,0 mm 0,0 km/h (0 Bft) S-SW 205 ° 0 min 0,000 mm 0,0 UV-I 0 W/m² 0,8 °C 1,4 °C 0,0 km/h (0 Bft)
04.11.2017 01:25 1,6 °C 1,6 °C 96 % 1013,5 hPa 0,0 mm 0,0 km/h (0 Bft) S-SW 205 ° 0 min 0,000 mm 0,0 UV-I 0 W/m² 1,0 °C 1,6 °C 0,0 km/h (0 Bft)
04.11.2017 01:26 1,8 °C 1,8 °C 96 % 1013,5 hPa 0,0 mm 0,0 km/h (0 Bft) S-SW 205 ° 0 min 0,000 mm 0,0 UV-I 0 W/m² 1,2 °C 1,8 °C 0,0 km/h (0 Bft)
04.11.2017 01:27 1,8 °C 1,9 °C 96 % 1013,5 hPa 0,0 mm 0,0 km/h (0 Bft) S-SW 205 ° 0 min 0,000 mm 0,0 UV-I 0 W/m² 1,2 °C 1,8 °C 0,0 km/h (0 Bft)
04.11.2017 01:28 1,6 °C 1,8 °C 96 % 1013,5 hPa 0,0 mm 0,0 km/h (0 Bft) S-SW 205 ° 0 min 0,000 mm 0,0 UV-I 0 W/m² 1,0 °C 1,6 °C 0,0 km/h (0 Bft)
04.11.2017 01:29 1,3 °C 1,6 °C 96 % 1013,5 hPa 0,0 mm 0,0 km/h (0 Bft) S-SW 205 ° 0 min 0,000 mm 0,0 UV-I 0 W/m² 0,7 °C 1,3 °C 0,0 km/h (0 Bft)
04.11.2017 01:30 1,0 °C 1,3 °C 96 % 1013,5 hPa 0,0 mm 0,0 km/h (0 Bft) S-SW 205 ° 0 min 0,000 mm 0,0 UV-I 0 W/m² 0,4 °C 1,0 °C 0,0 km/h (0 Bft)
04.11.2017 01:31 0,9 °C 1,0 °C 96 % 1013,5 hPa 0,0 mm 0,0 km/h (0 Bft) S-SW 205 ° 0 min 0,000 mm 0,0 UV-I 0 W/m² 0,3 °C 0,9 °C 0,0 km/h (0 Bft)
04.11.2017 01:32 0,8 °C 0,9 °C 95 % 1013,6 hPa 0,0 mm 0,0 km/h (0 Bft) S-SW 205 ° 0 min 0,000 mm 0,0 UV-I 0 W/m² 0,1 °C 0,8 °C 0,0 km/h (0 Bft)
04.11.2017 01:33 0,9 °C 0,9 °C 95 % 1013,6 hPa 0,0 mm 0,0 km/h (0 Bft) S-SW 205 ° 0 min 0,000 mm 0,0 UV-I 0 W/m² 0,2 °C 0,9 °C 0,0 km/h (0 Bft)
04.11.2017 01:34 1,0 °C 1,0 °C 96 % 1013,5 hPa 0,0 mm 0,0 km/h (0 Bft) S-SW 205 ° 0 min 0,000 mm 0,0 UV-I 0 W/m² 0,4 °C 1,0 °C 0,0 km/h (0 Bft)
04.11.2017 01:35 1,2 °C 1,2 °C 96 % 1013,6 hPa 0,0 mm 0,0 km/h (0 Bft) S-SW 205 ° 0 min 0,000 mm 0,0 UV-I 0 W/m² 0,6 °C 1,2 °C 0,0 km/h (0 Bft)
04.11.2017 01:36 1,2 °C 1,2 °C 96 % 1013,6 hPa 0,0 mm 0,0 km/h (0 Bft) S-SW 205 ° 0 min 0,000 mm 0,0 UV-I 0 W/m² 0,6 °C 1,2 °C 0,0 km/h (0 Bft)
04.11.2017 01:37 1,2 °C 1,2 °C 96 % 1013,6 hPa 0,0 mm 0,0 km/h (0 Bft) S-SW 205 ° 0 min 0,000 mm 0,0 UV-I 0 W/m² 0,6 °C 1,2 °C 0,0 km/h (0 Bft)
04.11.2017 01:38 1,2 °C 1,2 °C 96 % 1013,6 hPa 0,0 mm 0,0 km/h (0 Bft) S-SW 205 ° 0 min 0,000 mm 0,0 UV-I 0 W/m² 0,6 °C 1,2 °C 0,0 km/h (0 Bft)
04.11.2017 01:39 1,2 °C 1,2 °C 96 % 1013,6 hPa 0,0 mm 0,0 km/h (0 Bft) S-SW 205 ° 0 min 0,000 mm 0,0 UV-I 0 W/m² 0,6 °C 1,2 °C 0,0 km/h (0 Bft)
04.11.2017 01:40 1,3 °C 1,3 °C 96 % 1013,6 hPa 0,0 mm 0,0 km/h (0 Bft) S-SW 205 ° 0 min 0,000 mm 0,0 UV-I 0 W/m² 0,7 °C 1,3 °C 0,0 km/h (0 Bft)
04.11.2017 01:41 1,3 °C 1,3 °C 96 % 1013,6 hPa 0,0 mm 0,0 km/h (0 Bft) S-SW 205 ° 0 min 0,000 mm 0,0 UV-I 0 W/m² 0,7 °C 1,3 °C 0,0 km/h (0 Bft)
04.11.2017 01:42 1,3 °C 1,3 °C 96 % 1013,6 hPa 0,0 mm 0,0 km/h (0 Bft) S-SW 205 ° 0 min 0,000 mm 0,0 UV-I 0 W/m² 0,7 °C 1,3 °C 0,0 km/h (0 Bft)
04.11.2017 01:43 1,2 °C 1,3 °C 96 % 1013,6 hPa 0,0 mm 0,0 km/h (0 Bft) S-SW 205 ° 0 min 0,000 mm 0,0 UV-I 0 W/m² 0,6 °C 1,2 °C 0,0 km/h (0 Bft)
04.11.2017 01:44 1,1 °C 1,2 °C 96 % 1013,6 hPa 0,0 mm 0,0 km/h (0 Bft) S-SW 205 ° 0 min 0,000 mm 0,0 UV-I 0 W/m² 0,5 °C 1,1 °C 0,0 km/h (0 Bft)
04.11.2017 01:45 0,9 °C 1,1 °C 96 % 1013,6 hPa 0,0 mm 0,0 km/h (0 Bft) S-SW 205 ° 0 min 0,000 mm 0,0 UV-I 0 W/m² 0,3 °C 0,9 °C 0,0 km/h (0 Bft)
04.11.2017 01:46 0,9 °C 0,9 °C 96 % 1013,6 hPa 0,0 mm 0,0 km/h (0 Bft) S-SW 205 ° 0 min 0,000 mm 0,0 UV-I 0 W/m² 0,3 °C 0,9 °C 0,0 km/h (0 Bft)
04.11.2017 01:47 0,9 °C 0,9 °C 96 % 1013,6 hPa 0,0 mm 0,0 km/h (0 Bft) S-SW 205 ° 0 min 0,000 mm 0,0 UV-I 0 W/m² 0,3 °C 0,9 °C 0,0 km/h (0 Bft)
04.11.2017 01:48 0,9 °C 0,9 °C 96 % 1013,5 hPa 0,0 mm 0,0 km/h (0 Bft) S-SW 205 ° 0 min 0,000 mm 0,0 UV-I 0 W/m² 0,3 °C 0,9 °C 0,0 km/h (0 Bft)
04.11.2017 01:49 1,1 °C 1,1 °C 96 % 1013,5 hPa 0,0 mm 0,0 km/h (0 Bft) S-SW 205 ° 0 min 0,000 mm 0,0 UV-I 0 W/m² 0,5 °C 1,1 °C 0,0 km/h (0 Bft)
04.11.2017 01:50 1,3 °C 1,3 °C 96 % 1013,5 hPa 0,0 mm 0,0 km/h (0 Bft) S-SW 205 ° 0 min 0,000 mm 0,0 UV-I 0 W/m² 0,7 °C 1,3 °C 0,0 km/h (0 Bft)
04.11.2017 01:51 1,3 °C 1,3 °C 96 % 1013,5 hPa 0,0 mm 0,0 km/h (0 Bft) S-SW 205 ° 0 min 0,000 mm 0,0 UV-I 0 W/m² 0,7 °C 1,3 °C 0,0 km/h (0 Bft)
04.11.2017 01:52 1,3 °C 1,3 °C 96 % 1013,5 hPa 0,0 mm 0,0 km/h (0 Bft) S-SW 205 ° 0 min 0,000 mm 0,0 UV-I 0 W/m² 0,7 °C 1,3 °C 0,0 km/h (0 Bft)
04.11.2017 01:53 1,4 °C 1,4 °C 96 % 1013,5 hPa 0,0 mm 0,0 km/h (0 Bft) S-SW 205 ° 0 min 0,000 mm 0,0 UV-I 0 W/m² 0,8 °C 1,4 °C 0,0 km/h (0 Bft)
04.11.2017 01:54 1,4 °C 1,4 °C 96 % 1013,5 hPa 0,0 mm 0,0 km/h (0 Bft) S-SW 205 ° 0 min 0,000 mm 0,0 UV-I 0 W/m² 0,8 °C 1,4 °C 0,0 km/h (0 Bft)
04.11.2017 01:55 1,4 °C 1,4 °C 96 % 1013,5 hPa 0,0 mm 0,0 km/h (0 Bft) S-SW 205 ° 0 min 0,000 mm 0,0 UV-I 0 W/m² 0,8 °C 1,4 °C 0,0 km/h (0 Bft)
04.11.2017 01:56 1,5 °C 1,5 °C 96 % 1013,5 hPa 0,0 mm 0,0 km/h (0 Bft) S-SW 205 ° 0 min 0,000 mm 0,0 UV-I 0 W/m² 0,9 °C 1,5 °C 0,0 km/h (0 Bft)
04.11.2017 01:57 1,7 °C 1,7 °C 96 % 1013,5 hPa 0,0 mm 0,0 km/h (0 Bft) S-SW 205 ° 0 min 0,000 mm 0,0 UV-I 0 W/m² 1,1 °C 1,7 °C 0,0 km/h (0 Bft)
04.11.2017 01:58 1,8 °C 1,8 °C 96 % 1013,5 hPa 0,0 mm 0,0 km/h (0 Bft) S-SW 205 ° 0 min 0,000 mm 0,0 UV-I 0 W/m² 1,2 °C 1,8 °C 0,0 km/h (0 Bft)
04.11.2017 01:59 1,8 °C 1,8 °C 96 % 1013,5 hPa 0,0 mm 0,0 km/h (0 Bft) S-SW 205 ° 0 min 0,000 mm 0,0 UV-I 0 W/m² 1,2 °C 1,8 °C 0,0 km/h (0 Bft)
04.11.2017 02:00 1,8 °C 1,8 °C 96 % 1013,5 hPa 0,0 mm 0,0 km/h (0 Bft) S-SW 205 ° 0 min 0,000 mm 0,0 UV-I 0 W/m² 1,2 °C 1,8 °C 0,0 km/h (0 Bft)
04.11.2017 02:01 1,8 °C 1,8 °C 96 % 1013,5 hPa 0,0 mm 0,0 km/h (0 Bft) S-SW 205 ° 0 min 0,000 mm 0,0 UV-I 0 W/m² 1,2 °C 1,8 °C 0,0 km/h (0 Bft)
04.11.2017 02:02 1,6 °C 1,8 °C 96 % 1013,5 hPa 0,0 mm 0,0 km/h (0 Bft) S-SW 205 ° 0 min 0,000 mm 0,0 UV-I 0 W/m² 1,0 °C 1,6 °C 0,0 km/h (0 Bft)
04.11.2017 02:03 1,5 °C 1,6 °C 96 % 1013,5 hPa 0,0 mm 0,0 km/h (0 Bft) S-SW 205 ° 0 min 0,000 mm 0,0 UV-I 0 W/m² 0,9 °C 1,5 °C 0,0 km/h (0 Bft)
04.11.2017 02:04 1,4 °C 1,5 °C 96 % 1013,5 hPa 0,0 mm 0,0 km/h (0 Bft) S-SW 205 ° 0 min 0,000 mm 0,0 UV-I 0 W/m² 0,8 °C 1,4 °C 0,0 km/h (0 Bft)
04.11.2017 02:05 1,4 °C 1,4 °C 96 % 1013,5 hPa 0,0 mm 0,0 km/h (0 Bft) S-SW 205 ° 0 min 0,000 mm 0,0 UV-I 0 W/m² 0,8 °C 1,4 °C 0,0 km/h (0 Bft)
04.11.2017 02:06 1,3 °C 1,4 °C 96 % 1013,5 hPa 0,0 mm 0,0 km/h (0 Bft) S-SW 205 ° 0 min 0,000 mm 0,0 UV-I 0 W/m² 0,7 °C 1,3 °C 0,0 km/h (0 Bft)
04.11.2017 02:07 1,4 °C 1,4 °C 96 % 1013,5 hPa 0,0 mm 0,0 km/h (0 Bft) S-SW 205 ° 0 min 0,000 mm 0,0 UV-I 0 W/m² 0,8 °C 1,4 °C 0,0 km/h (0 Bft)
04.11.2017 02:08 1,4 °C 1,4 °C 96 % 1013,4 hPa 0,0 mm 0,0 km/h (0 Bft) S-SW 205 ° 0 min 0,000 mm 0,0 UV-I 0 W/m² 0,8 °C 1,4 °C 0,0 km/h (0 Bft)
04.11.2017 02:09 1,4 °C 1,4 °C 96 % 1013,5 hPa 0,0 mm 0,0 km/h (0 Bft) S-SW 205 ° 0 min 0,000 mm 0,0 UV-I 0 W/m² 0,8 °C 1,4 °C 0,0 km/h (0 Bft)
04.11.2017 02:10 1,4 °C 1,4 °C 96 % 1013,5 hPa 0,0 mm 0,0 km/h (0 Bft) S-SW 205 ° 0 min 0,000 mm 0,0 UV-I 0 W/m² 0,8 °C 1,4 °C 0,0 km/h (0 Bft)
04.11.2017 02:11 1,5 °C 1,5 °C 96 % 1013,5 hPa 0,0 mm 0,0 km/h (0 Bft) S-SW 205 ° 0 min 0,000 mm 0,0 UV-I 0 W/m² 0,9 °C 1,5 °C 0,0 km/h (0 Bft)
04.11.2017 02:12 1,5 °C 1,6 °C 96 % 1013,5 hPa 0,0 mm 0,0 km/h (0 Bft) S-SW 205 ° 0 min 0,000 mm 0,0 UV-I 0 W/m² 0,9 °C 1,5 °C 0,0 km/h (0 Bft)
04.11.2017 02:13 1,6 °C 1,6 °C 96 % 1013,5 hPa 0,0 mm 0,0 km/h (0 Bft) S-SW 205 ° 0 min 0,000 mm 0,0 UV-I 0 W/m² 1,0 °C 1,6 °C 0,0 km/h (0 Bft)
04.11.2017 02:14 1,6 °C 1,6 °C 96 % 1013,4 hPa 0,0 mm 0,0 km/h (0 Bft) S-SW 205 ° 0 min 0,000 mm 0,0 UV-I 0 W/m² 1,0 °C 1,6 °C 0,0 km/h (0 Bft)
04.11.2017 02:15 1,6 °C 1,7 °C 96 % 1013,4 hPa 0,0 mm 0,0 km/h (0 Bft) S-SW 205 ° 0 min 0,000 mm 0,0 UV-I 0 W/m² 1,0 °C 1,6 °C 0,0 km/h (0 Bft)
04.11.2017 02:16 1,5 °C 1,6 °C 96 % 1013,5 hPa 0,0 mm 0,0 km/h (0 Bft) S-SW 205 ° 0 min 0,000 mm 0,0 UV-I 0 W/m² 0,9 °C 1,5 °C 0,0 km/h (0 Bft)
04.11.2017 02:17 1,4 °C 1,5 °C 96 % 1013,5 hPa 0,0 mm 0,0 km/h (0 Bft) S-SW 205 ° 0 min 0,000 mm 0,0 UV-I 0 W/m² 0,8 °C 1,4 °C 0,0 km/h (0 Bft)
04.11.2017 02:18 1,3 °C 1,4 °C 96 % 1013,5 hPa 0,0 mm 0,0 km/h (0 Bft) S-SW 205 ° 0 min 0,000 mm 0,0 UV-I 0 W/m² 0,7 °C 1,3 °C 0,0 km/h (0 Bft)
04.11.2017 02:19 1,3 °C 1,3 °C 96 % 1013,5 hPa 0,0 mm 0,0 km/h (0 Bft) S-SW 205 ° 0 min 0,000 mm 0,0 UV-I 0 W/m² 0,7 °C 1,3 °C 0,0 km/h (0 Bft)
04.11.2017 02:20 1,3 °C 1,3 °C 96 % 1013,4 hPa 0,0 mm 0,0 km/h (0 Bft) S-SW 205 ° 0 min 0,000 mm 0,0 UV-I 0 W/m² 0,7 °C 1,3 °C 0,0 km/h (0 Bft)
04.11.2017 02:21 1,4 °C 1,4 °C 96 % 1013,4 hPa 0,0 mm 0,0 km/h (0 Bft) S-SW 205 ° 0 min 0,000 mm 0,0 UV-I 0 W/m² 0,8 °C 1,4 °C 0,0 km/h (0 Bft)
04.11.2017 02:22 1,6 °C 1,6 °C 96 % 1013,4 hPa 0,0 mm 0,0 km/h (0 Bft) S-SW 205 ° 0 min 0,000 mm 0,0 UV-I 0 W/m² 1,0 °C 1,6 °C 0,0 km/h (0 Bft)
04.11.2017 02:23 1,7 °C 1,7 °C 96 % 1013,4 hPa 0,0 mm 0,0 km/h (0 Bft) S-SW 205 ° 0 min 0,000 mm 0,0 UV-I 0 W/m² 1,1 °C 1,7 °C 0,0 km/h (0 Bft)
04.11.2017 02:24 1,8 °C 1,8 °C 96 % 1013,4 hPa 0,0 mm 0,0 km/h (0 Bft) S-SW 205 ° 0 min 0,000 mm 0,0 UV-I 0 W/m² 1,2 °C 1,8 °C 0,0 km/h (0 Bft)
04.11.2017 02:25 1,7 °C 1,8 °C 96 % 1013,4 hPa 0,0 mm 0,0 km/h (0 Bft) S-SW 205 ° 0 min 0,000 mm 0,0 UV-I 0 W/m² 1,1 °C 1,7 °C 0,0 km/h (0 Bft)
04.11.2017 02:26 1,5 °C 1,7 °C 96 % 1013,4 hPa 0,0 mm 0,0 km/h (0 Bft) S-SW 205 ° 0 min 0,000 mm 0,0 UV-I 0 W/m² 0,9 °C 1,5 °C 0,0 km/h (0 Bft)
04.11.2017 02:27 1,3 °C 1,5 °C 96 % 1013,5 hPa 0,0 mm 0,0 km/h (0 Bft) S-SW 205 ° 0 min 0,000 mm 0,0 UV-I 0 W/m² 0,7 °C 1,3 °C 0,0 km/h (0 Bft)
04.11.2017 02:28 1,3 °C 1,3 °C 96 % 1013,5 hPa 0,0 mm 0,0 km/h (0 Bft) S-SW 205 ° 0 min 0,000 mm 0,0 UV-I 0 W/m² 0,7 °C 1,3 °C 0,0 km/h (0 Bft)
04.11.2017 02:29 1,3 °C 1,3 °C 96 % 1013,5 hPa 0,0 mm 0,0 km/h (0 Bft) S-SW 205 ° 0 min 0,000 mm 0,0 UV-I 0 W/m² 0,7 °C 1,3 °C 0,0 km/h (0 Bft)
04.11.2017 02:30 1,3 °C 1,3 °C 96 % 1013,4 hPa 0,0 mm 0,0 km/h (0 Bft) S-SW 205 ° 0 min 0,000 mm 0,0 UV-I 0 W/m² 0,7 °C 1,3 °C 0,0 km/h (0 Bft)
04.11.2017 02:31 1,4 °C 1,4 °C 96 % 1013,5 hPa 0,0 mm 0,0 km/h (0 Bft) S-SW 205 ° 0 min 0,000 mm 0,0 UV-I 0 W/m² 0,8 °C 1,4 °C 0,0 km/h (0 Bft)
04.11.2017 02:32 1,5 °C 1,5 °C 96 % 1013,5 hPa 0,0 mm 0,0 km/h (0 Bft) S-SW 205 ° 0 min 0,000 mm 0,0 UV-I 0 W/m² 0,9 °C 1,5 °C 0,0 km/h (0 Bft)
04.11.2017 02:33 1,6 °C 1,6 °C 96 % 1013,5 hPa 0,0 mm 0,0 km/h (0 Bft) S-SW 205 ° 0 min 0,000 mm 0,0 UV-I 0 W/m² 1,0 °C 1,6 °C 0,0 km/h (0 Bft)
04.11.2017 02:34 1,7 °C 1,7 °C 96 % 1013,5 hPa 0,0 mm 0,0 km/h (0 Bft) S-SW 205 ° 0 min 0,000 mm 0,0 UV-I 0 W/m² 1,1 °C 1,7 °C 0,0 km/h (0 Bft)
04.11.2017 02:35 1,7 °C 1,8 °C 96 % 1013,5 hPa 0,0 mm 0,0 km/h (0 Bft) S-SW 205 ° 0 min 0,000 mm 0,0 UV-I 0 W/m² 1,1 °C 1,7 °C 0,0 km/h (0 Bft)
04.11.2017 02:36 1,5 °C 1,7 °C 96 % 1013,4 hPa 0,0 mm 0,0 km/h (0 Bft) S-SW 205 ° 0 min 0,000 mm 0,0 UV-I 0 W/m² 0,9 °C 1,5 °C 0,0 km/h (0 Bft)
04.11.2017 02:37 1,4 °C 1,5 °C 96 % 1013,4 hPa 0,0 mm 0,0 km/h (0 Bft) S-SW 205 ° 0 min 0,000 mm 0,0 UV-I 0 W/m² 0,8 °C 1,4 °C 0,0 km/h (0 Bft)
04.11.2017 02:38 1,3 °C 1,4 °C 96 % 1013,4 hPa 0,0 mm 0,0 km/h (0 Bft) S-SW 205 ° 0 min 0,000 mm 0,0 UV-I 0 W/m² 0,7 °C 1,3 °C 0,0 km/h (0 Bft)
04.11.2017 02:39 1,3 °C 1,3 °C 96 % 1013,4 hPa 0,0 mm 0,0 km/h (0 Bft) S-SW 205 ° 0 min 0,000 mm 0,0 UV-I 0 W/m² 0,7 °C 1,3 °C 0,0 km/h (0 Bft)
04.11.2017 02:40 1,3 °C 1,3 °C 96 % 1013,4 hPa 0,0 mm 0,0 km/h (0 Bft) S-SW 205 ° 0 min 0,000 mm 0,0 UV-I 0 W/m² 0,7 °C 1,3 °C 0,0 km/h (0 Bft)
04.11.2017 02:41 1,3 °C 1,3 °C 96 % 1013,4 hPa 0,0 mm 0,0 km/h (0 Bft) S-SW 205 ° 0 min 0,000 mm 0,0 UV-I 0 W/m² 0,7 °C 1,3 °C 0,0 km/h (0 Bft)
04.11.2017 02:42 1,3 °C 1,3 °C 96 % 1013,4 hPa 0,0 mm 0,0 km/h (0 Bft) S-SW 205 ° 0 min 0,000 mm 0,0 UV-I 0 W/m² 0,7 °C 1,3 °C 0,0 km/h (0 Bft)
04.11.2017 02:43 1,4 °C 1,4 °C 96 % 1013,4 hPa 0,0 mm 0,0 km/h (0 Bft) S-SW 205 ° 0 min 0,000 mm 0,0 UV-I 0 W/m² 0,8 °C 1,4 °C 0,0 km/h (0 Bft)
04.11.2017 02:44 1,4 °C 1,4 °C 96 % 1013,4 hPa 0,0 mm 0,0 km/h (0 Bft) S-SW 205 ° 0 min 0,000 mm 0,0 UV-I 0 W/m² 0,8 °C 1,4 °C 0,0 km/h (0 Bft)
04.11.2017 02:45 1,6 °C 1,6 °C 96 % 1013,4 hPa 0,0 mm 0,0 km/h (0 Bft) S-SW 205 ° 0 min 0,000 mm 0,0 UV-I 0 W/m² 1,0 °C 1,6 °C 0,0 km/h (0 Bft)
04.11.2017 02:46 1,7 °C 1,7 °C 96 % 1013,4 hPa 0,0 mm 0,0 km/h (0 Bft) S-SW 205 ° 0 min 0,000 mm 0,0 UV-I 0 W/m² 1,1 °C 1,7 °C 0,0 km/h (0 Bft)
04.11.2017 02:47 1,7 °C 1,7 °C 96 % 1013,4 hPa 0,0 mm 0,0 km/h (0 Bft) S-SW 205 ° 0 min 0,000 mm 0,0 UV-I 0 W/m² 1,1 °C 1,7 °C 0,0 km/h (0 Bft)
04.11.2017 02:48 1,6 °C 1,7 °C 96 % 1013,4 hPa 0,0 mm 0,0 km/h (0 Bft) S-SW 205 ° 0 min 0,000 mm 0,0 UV-I 0 W/m² 1,0 °C 1,6 °C 0,0 km/h (0 Bft)
04.11.2017 02:49 1,6 °C 1,6 °C 96 % 1013,4 hPa 0,0 mm 0,0 km/h (0 Bft) S-SW 205 ° 0 min 0,000 mm 0,0 UV-I 0 W/m² 1,0 °C 1,6 °C 0,0 km/h (0 Bft)
04.11.2017 02:50 1,4 °C 1,6 °C 96 % 1013,4 hPa 0,0 mm 0,0 km/h (0 Bft) S-SW 205 ° 0 min 0,000 mm 0,0 UV-I 0 W/m² 0,8 °C 1,4 °C 0,0 km/h (0 Bft)
04.11.2017 02:51 1,4 °C 1,4 °C 96 % 1013,4 hPa 0,0 mm 0,0 km/h (0 Bft) S-SW 205 ° 0 min 0,000 mm 0,0 UV-I 0 W/m² 0,8 °C 1,4 °C 0,0 km/h (0 Bft)
04.11.2017 02:52 1,4 °C 1,4 °C 96 % 1013,4 hPa 0,0 mm 0,0 km/h (0 Bft) S-SW 205 ° 0 min 0,000 mm 0,0 UV-I 0 W/m² 0,8 °C 1,4 °C 0,0 km/h (0 Bft)
04.11.2017 02:53 1,4 °C 1,4 °C 96 % 1013,4 hPa 0,0 mm 0,0 km/h (0 Bft) S-SW 205 ° 0 min 0,000 mm 0,0 UV-I 0 W/m² 0,8 °C 1,4 °C 0,0 km/h (0 Bft)
04.11.2017 02:54 1,4 °C 1,4 °C 96 % 1013,4 hPa 0,0 mm 0,0 km/h (0 Bft) S-SW 205 ° 0 min 0,000 mm 0,0 UV-I 0 W/m² 0,8 °C 1,4 °C 0,0 km/h (0 Bft)
04.11.2017 02:55 1,4 °C 1,4 °C 96 % 1013,4 hPa 0,0 mm 0,0 km/h (0 Bft) S-SW 205 ° 0 min 0,000 mm 0,0 UV-I 0 W/m² 0,8 °C 1,4 °C 0,0 km/h (0 Bft)
04.11.2017 02:56 1,4 °C 1,4 °C 96 % 1013,4 hPa 0,0 mm 0,0 km/h (0 Bft) S-SW 205 ° 0 min 0,000 mm 0,0 UV-I 0 W/m² 0,8 °C 1,4 °C 0,0 km/h (0 Bft)
04.11.2017 02:57 1,3 °C 1,4 °C 96 % 1013,4 hPa 0,0 mm 0,0 km/h (0 Bft) S-SW 205 ° 0 min 0,000 mm 0,0 UV-I 0 W/m² 0,7 °C 1,3 °C 0,0 km/h (0 Bft)
04.11.2017 02:58 1,3 °C 1,3 °C 96 % 1013,4 hPa 0,0 mm 0,0 km/h (0 Bft) S-SW 205 ° 0 min 0,000 mm 0,0 UV-I 0 W/m² 0,7 °C 1,3 °C 0,0 km/h (0 Bft)
04.11.2017 02:59 1,2 °C 1,3 °C 96 % 1013,4 hPa 0,0 mm 0,0 km/h (0 Bft) S-SW 205 ° 0 min 0,000 mm 0,0 UV-I 0 W/m² 0,6 °C 1,2 °C 0,0 km/h (0 Bft)
04.11.2017 03:00 1,2 °C 1,2 °C 96 % 1013,4 hPa 0,0 mm 0,0 km/h (0 Bft) S-SW 205 ° 0 min 0,000 mm 0,0 UV-I 0 W/m² 0,6 °C 1,2 °C 0,0 km/h (0 Bft)
04.11.2017 03:01 1,2 °C 1,2 °C 96 % 1013,4 hPa 0,0 mm 0,0 km/h (0 Bft) S-SW 205 ° 0 min 0,000 mm 0,0 UV-I 0 W/m² 0,6 °C 1,2 °C 0,0 km/h (0 Bft)
04.11.2017 03:02 1,2 °C 1,2 °C 96 % 1013,4 hPa 0,0 mm 0,0 km/h (0 Bft) S-SW 205 ° 0 min 0,000 mm 0,0 UV-I 0 W/m² 0,6 °C 1,2 °C 0,0 km/h (0 Bft)
04.11.2017 03:03 1,3 °C 1,3 °C 96 % 1013,4 hPa 0,0 mm 0,0 km/h (0 Bft) S-SW 205 ° 0 min 0,000 mm 0,0 UV-I 0 W/m² 0,7 °C 1,3 °C 0,0 km/h (0 Bft)
04.11.2017 03:04 1,3 °C 1,3 °C 96 % 1013,4 hPa 0,0 mm 0,0 km/h (0 Bft) S-SW 205 ° 0 min 0,000 mm 0,0 UV-I 0 W/m² 0,7 °C 1,3 °C 0,0 km/h (0 Bft)
04.11.2017 03:05 1,3 °C 1,3 °C 96 % 1013,4 hPa 0,0 mm 0,0 km/h (0 Bft) S-SW 205 ° 0 min 0,000 mm 0,0 UV-I 0 W/m² 0,7 °C 1,3 °C 0,0 km/h (0 Bft)
04.11.2017 03:06 1,4 °C 1,4 °C 96 % 1013,4 hPa 0,0 mm 0,0 km/h (0 Bft) S-SW 205 ° 0 min 0,000 mm 0,0 UV-I 0 W/m² 0,8 °C 1,4 °C 0,0 km/h (0 Bft)
04.11.2017 03:07 1,4 °C 1,4 °C 96 % 1013,4 hPa 0,0 mm 0,0 km/h (0 Bft) S-SW 205 ° 0 min 0,000 mm 0,0 UV-I 0 W/m² 0,8 °C 1,4 °C 0,0 km/h (0 Bft)
04.11.2017 03:08 1,4 °C 1,4 °C 96 % 1013,4 hPa 0,0 mm 0,0 km/h (0 Bft) S-SW 205 ° 0 min 0,000 mm 0,0 UV-I 0 W/m² 0,8 °C 1,4 °C 0,0 km/h (0 Bft)
04.11.2017 03:09 1,4 °C 1,4 °C 96 % 1013,4 hPa 0,0 mm 0,0 km/h (0 Bft) S-SW 205 ° 0 min 0,000 mm 0,0 UV-I 0 W/m² 0,8 °C 1,4 °C 0,0 km/h (0 Bft)
04.11.2017 03:10 1,6 °C 1,6 °C 96 % 1013,4 hPa 0,0 mm 0,0 km/h (0 Bft) S-SW 205 ° 0 min 0,000 mm 0,0 UV-I 0 W/m² 1,0 °C 1,6 °C 0,0 km/h (0 Bft)
04.11.2017 03:11 1,6 °C 1,6 °C 96 % 1013,5 hPa 0,0 mm 0,0 km/h (0 Bft) S-SW 205 ° 0 min 0,000 mm 0,0 UV-I 0 W/m² 1,0 °C 1,6 °C 0,0 km/h (0 Bft)
04.11.2017 03:12 1,6 °C 1,6 °C 96 % 1013,5 hPa 0,0 mm 0,0 km/h (0 Bft) S-SW 205 ° 0 min 0,000 mm 0,0 UV-I 0 W/m² 1,0 °C 1,6 °C 0,0 km/h (0 Bft)
04.11.2017 03:13 1,4 °C 1,6 °C 96 % 1013,5 hPa 0,0 mm 0,0 km/h (0 Bft) S-SW 205 ° 0 min 0,000 mm 0,0 UV-I 0 W/m² 0,8 °C 1,4 °C 0,0 km/h (0 Bft)
04.11.2017 03:14 1,3 °C 1,4 °C 96 % 1013,5 hPa 0,0 mm 0,0 km/h (0 Bft) S-SW 205 ° 0 min 0,000 mm 0,0 UV-I 0 W/m² 0,7 °C 1,3 °C 0,0 km/h (0 Bft)
04.11.2017 03:15 1,3 °C 1,3 °C 96 % 1013,5 hPa 0,0 mm 0,0 km/h (0 Bft) S-SW 205 ° 0 min 0,000 mm 0,0 UV-I 0 W/m² 0,7 °C 1,3 °C 0,0 km/h (0 Bft)
04.11.2017 03:16 1,3 °C 1,3 °C 96 % 1013,5 hPa 0,0 mm 0,0 km/h (0 Bft) S-SW 205 ° 0 min 0,000 mm 0,0 UV-I 0 W/m² 0,7 °C 1,3 °C 0,0 km/h (0 Bft)
04.11.2017 03:17 1,3 °C 1,3 °C 96 % 1013,5 hPa 0,0 mm 0,0 km/h (0 Bft) S-SW 205 ° 0 min 0,000 mm 0,0 UV-I 0 W/m² 0,7 °C 1,3 °C 0,0 km/h (0 Bft)
04.11.2017 03:18 1,4 °C 1,4 °C 96 % 1013,5 hPa 0,0 mm 0,0 km/h (0 Bft) S-SW 205 ° 0 min 0,000 mm 0,0 UV-I 0 W/m² 0,8 °C 1,4 °C 0,0 km/h (0 Bft)
04.11.2017 03:19 1,4 °C 1,4 °C 96 % 1013,5 hPa 0,0 mm 0,0 km/h (0 Bft) S-SW 205 ° 0 min 0,000 mm 0,0 UV-I 0 W/m² 0,8 °C 1,4 °C 0,0 km/h (0 Bft)
04.11.2017 03:20 1,6 °C 1,6 °C 96 % 1013,5 hPa 0,0 mm 0,1 km/h (0 Bft) S-SW 205 ° 0 min 0,000 mm 0,0 UV-I 0 W/m² 1,0 °C 1,6 °C 1,6 km/h (1 Bft)
04.11.2017 03:21 1,5 °C 1,6 °C 96 % 1013,5 hPa 0,0 mm 0,0 km/h (0 Bft) S-SW 205 ° 0 min 0,000 mm 0,0 UV-I 0 W/m² 0,9 °C 1,5 °C 0,0 km/h (0 Bft)
04.11.2017 03:22 1,6 °C 1,6 °C 96 % 1013,5 hPa 0,0 mm 0,0 km/h (0 Bft) S-SW 205 ° 0 min 0,000 mm 0,0 UV-I 0 W/m² 1,0 °C 1,6 °C 0,0 km/h (0 Bft)
04.11.2017 03:23 1,7 °C 1,7 °C 96 % 1013,5 hPa 0,0 mm 0,0 km/h (0 Bft) S-SW 205 ° 0 min 0,000 mm 0,0 UV-I 0 W/m² 1,1 °C 1,7 °C 0,0 km/h (0 Bft)
04.11.2017 03:24 1,8 °C 1,8 °C 96 % 1013,5 hPa 0,0 mm 0,0 km/h (0 Bft) S-SW 205 ° 0 min 0,000 mm 0,0 UV-I 0 W/m² 1,2 °C 1,8 °C 0,0 km/h (0 Bft)
04.11.2017 03:25 1,8 °C 1,8 °C 96 % 1013,5 hPa 0,0 mm 0,0 km/h (0 Bft) S-SW 205 ° 0 min 0,000 mm 0,0 UV-I 0 W/m² 1,2 °C 1,8 °C 0,0 km/h (0 Bft)
04.11.2017 03:26 1,8 °C 1,9 °C 96 % 1013,5 hPa 0,0 mm 0,0 km/h (0 Bft) S-SW 205 ° 0 min 0,000 mm 0,0 UV-I 0 W/m² 1,2 °C 1,8 °C 0,0 km/h (0 Bft)
04.11.2017 03:27 1,8 °C 1,8 °C 96 % 1013,5 hPa 0,0 mm 0,0 km/h (0 Bft) S-SW 205 ° 0 min 0,000 mm 0,0 UV-I 0 W/m² 1,2 °C 1,8 °C 0,0 km/h (0 Bft)
04.11.2017 03:28 1,8 °C 1,8 °C 96 % 1013,5 hPa 0,0 mm 0,0 km/h (0 Bft) S-SW 205 ° 0 min 0,000 mm 0,0 UV-I 0 W/m² 1,2 °C 1,8 °C 0,0 km/h (0 Bft)
04.11.2017 03:29 1,7 °C 1,8 °C 96 % 1013,5 hPa 0,0 mm 0,0 km/h (0 Bft) S-SW 205 ° 0 min 0,000 mm 0,0 UV-I 0 W/m² 1,1 °C 1,7 °C 0,0 km/h (0 Bft)
04.11.2017 03:30 1,6 °C 1,7 °C 96 % 1013,6 hPa 0,0 mm 0,0 km/h (0 Bft) S-SW 205 ° 0 min 0,000 mm 0,0 UV-I 0 W/m² 1,0 °C 1,6 °C 0,0 km/h (0 Bft)
04.11.2017 03:31 1,5 °C 1,6 °C 96 % 1013,6 hPa 0,0 mm 0,0 km/h (0 Bft) S-SW 205 ° 0 min 0,000 mm 0,0 UV-I 0 W/m² 0,9 °C 1,5 °C 0,0 km/h (0 Bft)
04.11.2017 03:32 1,4 °C 1,5 °C 96 % 1013,5 hPa 0,0 mm 0,0 km/h (0 Bft) S-SW 205 ° 0 min 0,000 mm 0,0 UV-I 0 W/m² 0,8 °C 1,4 °C 0,0 km/h (0 Bft)
04.11.2017 03:33 1,4 °C 1,4 °C 96 % 1013,6 hPa 0,0 mm 0,0 km/h (0 Bft) S-SW 205 ° 0 min 0,000 mm 0,0 UV-I 0 W/m² 0,8 °C 1,4 °C 0,0 km/h (0 Bft)
04.11.2017 03:34 1,4 °C 1,4 °C 96 % 1013,6 hPa 0,0 mm 0,0 km/h (0 Bft) S-SW 205 ° 0 min 0,000 mm 0,0 UV-I 0 W/m² 0,8 °C 1,4 °C 0,0 km/h (0 Bft)
04.11.2017 03:35 1,6 °C 1,6 °C 96 % 1013,6 hPa 0,0 mm 0,0 km/h (0 Bft) S-SW 205 ° 0 min 0,000 mm 0,0 UV-I 0 W/m² 1,0 °C 1,6 °C 0,0 km/h (0 Bft)
04.11.2017 03:36 1,7 °C 1,7 °C 96 % 1013,6 hPa 0,0 mm 0,0 km/h (0 Bft) S-SW 205 ° 0 min 0,000 mm 0,0 UV-I 0 W/m² 1,1 °C 1,7 °C 0,0 km/h (0 Bft)
04.11.2017 03:37 1,8 °C 1,8 °C 96 % 1013,6 hPa 0,0 mm 0,0 km/h (0 Bft) S-SW 205 ° 0 min 0,000 mm 0,0 UV-I 0 W/m² 1,2 °C 1,8 °C 0,0 km/h (0 Bft)
04.11.2017 03:38 1,8 °C 1,8 °C 96 % 1013,6 hPa 0,0 mm 0,0 km/h (0 Bft) S-SW 205 ° 0 min 0,000 mm 0,0 UV-I 0 W/m² 1,2 °C 1,8 °C 0,0 km/h (0 Bft)
04.11.2017 03:39 1,8 °C 1,8 °C 96 % 1013,7 hPa 0,0 mm 0,0 km/h (0 Bft) S-SW 205 ° 0 min 0,000 mm 0,0 UV-I 0 W/m² 1,2 °C 1,8 °C 0,0 km/h (0 Bft)
04.11.2017 03:40 1,8 °C 1,8 °C 96 % 1013,7 hPa 0,0 mm 0,0 km/h (0 Bft) S-SW 205 ° 0 min 0,000 mm 0,0 UV-I 0 W/m² 1,2 °C 1,8 °C 0,0 km/h (0 Bft)
04.11.2017 03:41 1,8 °C 1,8 °C 96 % 1013,7 hPa 0,0 mm 0,0 km/h (0 Bft) S-SW 205 ° 0 min 0,000 mm 0,0 UV-I 0 W/m² 1,2 °C 1,8 °C 0,0 km/h (0 Bft)
04.11.2017 03:42 1,8 °C 1,8 °C 96 % 1013,7 hPa 0,0 mm 0,0 km/h (0 Bft) S-SW 205 ° 0 min 0,000 mm 0,0 UV-I 0 W/m² 1,2 °C 1,8 °C 0,0 km/h (0 Bft)
04.11.2017 03:43 1,9 °C 1,9 °C 96 % 1013,7 hPa 0,0 mm 0,0 km/h (0 Bft) S-SW 205 ° 0 min 0,000 mm 0,0 UV-I 0 W/m² 1,3 °C 1,9 °C 0,0 km/h (0 Bft)
04.11.2017 03:44 2,0 °C 2,0 °C 96 % 1013,7 hPa 0,0 mm 0,0 km/h (0 Bft) S-SW 205 ° 0 min 0,000 mm 0,0 UV-I 0 W/m² 1,4 °C 2,0 °C 0,0 km/h (0 Bft)
04.11.2017 03:45 2,0 °C 2,1 °C 96 % 1013,7 hPa 0,0 mm 0,0 km/h (0 Bft) S-SW 205 ° 0 min 0,000 mm 0,0 UV-I 0 W/m² 1,4 °C 2,0 °C 0,0 km/h (0 Bft)
04.11.2017 03:46 2,1 °C 2,1 °C 96 % 1013,7 hPa 0,0 mm 0,1 km/h (0 Bft) S-SW 205 ° 0 min 0,000 mm 0,0 UV-I 0 W/m² 1,5 °C 2,1 °C 1,6 km/h (1 Bft)
04.11.2017 03:47 2,1 °C 2,1 °C 96 % 1013,6 hPa 0,0 mm 0,2 km/h (0 Bft) S-SW 205 ° 0 min 0,000 mm 0,0 UV-I 0 W/m² 1,5 °C 2,1 °C 1,6 km/h (1 Bft)
04.11.2017 03:48 2,2 °C 2,2 °C 96 % 1013,6 hPa 0,0 mm 0,0 km/h (0 Bft) S-SW 205 ° 0 min 0,000 mm 0,0 UV-I 0 W/m² 1,6 °C 2,2 °C 0,0 km/h (0 Bft)
04.11.2017 03:49 2,2 °C 2,2 °C 96 % 1013,6 hPa 0,0 mm 0,0 km/h (0 Bft) S-SW 205 ° 0 min 0,000 mm 0,0 UV-I 0 W/m² 1,6 °C 2,2 °C 0,0 km/h (0 Bft)
04.11.2017 03:50 2,2 °C 2,3 °C 96 % 1013,6 hPa 0,0 mm 0,6 km/h (0 Bft) S-SW 205 ° 0 min 0,000 mm 0,0 UV-I 0 W/m² 1,6 °C 2,2 °C 3,2 km/h (1 Bft)
04.11.2017 03:51 2,0 °C 2,2 °C 96 % 1013,6 hPa 0,0 mm 2,4 km/h (1 Bft) W-SW 252 ° 0 min 0,000 mm 0,0 UV-I 0 W/m² 1,4 °C 2,0 °C 6,4 km/h (2 Bft)
04.11.2017 03:52 1,8 °C 2,0 °C 96 % 1013,6 hPa 0,0 mm 2,0 km/h (1 Bft) W 273 ° 0 min 0,000 mm 0,0 UV-I 0 W/m² 1,2 °C 1,8 °C 4,8 km/h (1 Bft)
04.11.2017 03:53 1,7 °C 1,8 °C 96 % 1013,7 hPa 0,0 mm 0,3 km/h (0 Bft) W 273 ° 0 min 0,000 mm 0,0 UV-I 0 W/m² 1,1 °C 1,7 °C 1,6 km/h (1 Bft)
04.11.2017 03:54 1,7 °C 1,7 °C 96 % 1013,7 hPa 0,0 mm 0,0 km/h (0 Bft) W 273 ° 0 min 0,000 mm 0,0 UV-I 0 W/m² 1,1 °C 1,7 °C 0,0 km/h (0 Bft)
04.11.2017 03:55 1,7 °C 1,8 °C 96 % 1013,7 hPa 0,0 mm 0,5 km/h (0 Bft) SW 217 ° 0 min 0,000 mm 0,0 UV-I 0 W/m² 1,1 °C 1,7 °C 3,2 km/h (1 Bft)
04.11.2017 03:56 1,8 °C 1,8 °C 96 % 1013,7 hPa 0,0 mm 0,6 km/h (0 Bft) SW 217 ° 0 min 0,000 mm 0,0 UV-I 0 W/m² 1,2 °C 1,8 °C 1,6 km/h (1 Bft)
04.11.2017 03:57 1,9 °C 1,9 °C 96 % 1013,7 hPa 0,0 mm 0,0 km/h (0 Bft) SW 217 ° 0 min 0,000 mm 0,0 UV-I 0 W/m² 1,3 °C 1,9 °C 0,0 km/h (0 Bft)
04.11.2017 03:58 2,0 °C 2,0 °C 96 % 1013,8 hPa 0,0 mm 0,0 km/h (0 Bft) SW 217 ° 0 min 0,000 mm 0,0 UV-I 0 W/m² 1,4 °C 2,0 °C 0,0 km/h (0 Bft)
04.11.2017 03:59 2,1 °C 2,1 °C 96 % 1013,7 hPa 0,0 mm 0,0 km/h (0 Bft) SW 217 ° 0 min 0,000 mm 0,0 UV-I 0 W/m² 1,5 °C 2,1 °C 0,0 km/h (0 Bft)
04.11.2017 04:00 2,1 °C 2,2 °C 96 % 1013,7 hPa 0,0 mm 0,0 km/h (0 Bft) SW 217 ° 0 min 0,000 mm 0,0 UV-I 0 W/m² 1,5 °C 2,1 °C 0,0 km/h (0 Bft)
04.11.2017 04:01 1,9 °C 2,1 °C 96 % 1013,8 hPa 0,0 mm 0,0 km/h (0 Bft) SW 217 ° 0 min 0,000 mm 0,0 UV-I 0 W/m² 1,3 °C 1,9 °C 0,0 km/h (0 Bft)
04.11.2017 04:02 1,8 °C 1,9 °C 96 % 1013,7 hPa 0,0 mm 0,0 km/h (0 Bft) SW 217 ° 0 min 0,000 mm 0,0 UV-I 0 W/m² 1,2 °C 1,8 °C 0,0 km/h (0 Bft)
04.11.2017 04:03 1,8 °C 1,8 °C 96 % 1013,7 hPa 0,0 mm 0,0 km/h (0 Bft) SW 217 ° 0 min 0,000 mm 0,0 UV-I 0 W/m² 1,2 °C 1,8 °C 0,0 km/h (0 Bft)
04.11.2017 04:04 1,8 °C 1,9 °C 96 % 1013,7 hPa 0,0 mm 0,0 km/h (0 Bft) SW 217 ° 0 min 0,000 mm 0,0 UV-I 0 W/m² 1,2 °C 1,8 °C 0,0 km/h (0 Bft)
04.11.2017 04:05 1,8 °C 1,8 °C 96 % 1013,7 hPa 0,0 mm 0,0 km/h (0 Bft) SW 217 ° 0 min 0,000 mm 0,0 UV-I 0 W/m² 1,2 °C 1,8 °C 0,0 km/h (0 Bft)
04.11.2017 04:06 1,9 °C 1,9 °C 96 % 1013,7 hPa 0,0 mm 1,9 km/h (1 Bft) S-SW 213 ° 0 min 0,000 mm 0,0 UV-I 0 W/m² 1,3 °C 1,9 °C 3,2 km/h (1 Bft)
04.11.2017 04:07 2,1 °C 2,1 °C 96 % 1013,7 hPa 0,0 mm 0,1 km/h (0 Bft) S-SW 213 ° 0 min 0,000 mm 0,0 UV-I 0 W/m² 1,5 °C 2,1 °C 1,6 km/h (1 Bft)
04.11.2017 04:08 2,1 °C 2,1 °C 96 % 1013,7 hPa 0,0 mm 0,0 km/h (0 Bft) S-SW 213 ° 0 min 0,000 mm 0,0 UV-I 0 W/m² 1,5 °C 2,1 °C 0,0 km/h (0 Bft)
04.11.2017 04:09 2,1 °C 2,2 °C 96 % 1013,7 hPa 0,0 mm 0,0 km/h (0 Bft) S-SW 213 ° 0 min 0,000 mm 0,0 UV-I 0 W/m² 1,5 °C 2,1 °C 0,0 km/h (0 Bft)
04.11.2017 04:10 2,1 °C 2,1 °C 96 % 1013,7 hPa 0,0 mm 1,9 km/h (1 Bft) S 169 ° 0 min 0,000 mm 0,0 UV-I 0 W/m² 1,5 °C 2,1 °C 6,4 km/h (2 Bft)
04.11.2017 04:11 2,2 °C 2,2 °C 96 % 1013,7 hPa 0,0 mm 1,1 km/h (1 Bft) S 169 ° 0 min 0,000 mm 0,0 UV-I 0 W/m² 1,6 °C 2,2 °C 6,4 km/h (2 Bft)
04.11.2017 04:12 2,2 °C 2,2 °C 96 % 1013,7 hPa 0,0 mm 0,0 km/h (0 Bft) S 169 ° 0 min 0,000 mm 0,0 UV-I 0 W/m² 1,6 °C 2,2 °C 0,0 km/h (0 Bft)
04.11.2017 04:13 2,1 °C 2,2 °C 96 % 1013,7 hPa 0,0 mm 0,9 km/h (0 Bft) S 169 ° 0 min 0,000 mm 0,0 UV-I 0 W/m² 1,5 °C 2,1 °C 3,2 km/h (1 Bft)
04.11.2017 04:14 2,1 °C 2,1 °C 96 % 1013,7 hPa 0,0 mm 0,4 km/h (0 Bft) S 169 ° 0 min 0,000 mm 0,0 UV-I 0 W/m² 1,5 °C 2,1 °C 1,6 km/h (1 Bft)
04.11.2017 04:15 2,1 °C 2,1 °C 96 % 1013,7 hPa 0,0 mm 0,0 km/h (0 Bft) S 169 ° 0 min 0,000 mm 0,0 UV-I 0 W/m² 1,5 °C 2,1 °C 0,0 km/h (0 Bft)
04.11.2017 04:16 1,9 °C 2,1 °C 96 % 1013,7 hPa 0,0 mm 1,2 km/h (1 Bft) S 169 ° 0 min 0,000 mm 0,0 UV-I 0 W/m² 1,3 °C 1,9 °C 3,2 km/h (1 Bft)
04.11.2017 04:17 2,0 °C 2,0 °C 96 % 1013,7 hPa 0,0 mm 0,1 km/h (0 Bft) S 169 ° 0 min 0,000 mm 0,0 UV-I 0 W/m² 1,4 °C 2,0 °C 1,6 km/h (1 Bft)
04.11.2017 04:18 1,9 °C 2,0 °C 96 % 1013,7 hPa 0,0 mm 0,0 km/h (0 Bft) S 169 ° 0 min 0,000 mm 0,0 UV-I 0 W/m² 1,3 °C 1,9 °C 0,0 km/h (0 Bft)
04.11.2017 04:19 1,9 °C 1,9 °C 96 % 1013,7 hPa 0,0 mm 0,0 km/h (0 Bft) S 169 ° 0 min 0,000 mm 0,0 UV-I 0 W/m² 1,3 °C 1,9 °C 0,0 km/h (0 Bft)
04.11.2017 04:20 2,0 °C 2,0 °C 96 % 1013,7 hPa 0,0 mm 0,0 km/h (0 Bft) S 169 ° 0 min 0,000 mm 0,0 UV-I 0 W/m² 1,4 °C 2,0 °C 0,0 km/h (0 Bft)
04.11.2017 04:21 2,1 °C 2,1 °C 96 % 1013,6 hPa 0,0 mm 1,1 km/h (1 Bft) S-SO 163 ° 0 min 0,000 mm 0,0 UV-I 0 W/m² 1,5 °C 2,1 °C 4,8 km/h (1 Bft)
04.11.2017 04:22 2,1 °C 2,1 °C 96 % 1013,7 hPa 0,0 mm 0,6 km/h (0 Bft) S-SO 163 ° 0 min 0,000 mm 0,0 UV-I 0 W/m² 1,5 °C 2,1 °C 1,6 km/h (1 Bft)
04.11.2017 04:23 2,2 °C 2,2 °C 96 % 1013,7 hPa 0,0 mm 0,1 km/h (0 Bft) S-SO 163 ° 0 min 0,000 mm 0,0 UV-I 0 W/m² 1,6 °C 2,2 °C 1,6 km/h (1 Bft)
04.11.2017 04:24 2,3 °C 2,3 °C 96 % 1013,7 hPa 0,0 mm 0,9 km/h (0 Bft) S-SO 163 ° 0 min 0,000 mm 0,0 UV-I 0 W/m² 1,7 °C 2,3 °C 3,2 km/h (1 Bft)
04.11.2017 04:25 2,3 °C 2,3 °C 96 % 1013,7 hPa 0,0 mm 0,3 km/h (0 Bft) S-SO 163 ° 0 min 0,000 mm 0,0 UV-I 0 W/m² 1,7 °C 2,3 °C 1,6 km/h (1 Bft)
04.11.2017 04:26 2,3 °C 2,3 °C 96 % 1013,7 hPa 0,0 mm 0,0 km/h (0 Bft) S-SO 163 ° 0 min 0,000 mm 0,0 UV-I 0 W/m² 1,7 °C 2,3 °C 0,0 km/h (0 Bft)
04.11.2017 04:27 2,3 °C 2,3 °C 96 % 1013,7 hPa 0,0 mm 0,0 km/h (0 Bft) S-SO 163 ° 0 min 0,000 mm 0,0 UV-I 0 W/m² 1,7 °C 2,3 °C 0,0 km/h (0 Bft)
04.11.2017 04:28 2,2 °C 2,3 °C 96 % 1013,7 hPa 0,0 mm 0,0 km/h (0 Bft) S-SO 163 ° 0 min 0,000 mm 0,0 UV-I 0 W/m² 1,6 °C 2,2 °C 0,0 km/h (0 Bft)
04.11.2017 04:29 2,1 °C 2,2 °C 96 % 1013,7 hPa 0,0 mm 0,0 km/h (0 Bft) S-SO 163 ° 0 min 0,000 mm 0,0 UV-I 0 W/m² 1,5 °C 2,1 °C 0,0 km/h (0 Bft)
04.11.2017 04:30 2,1 °C 2,1 °C 96 % 1013,8 hPa 0,0 mm 0,0 km/h (0 Bft) S-SO 163 ° 0 min 0,000 mm 0,0 UV-I 0 W/m² 1,5 °C 2,1 °C 0,0 km/h (0 Bft)
04.11.2017 04:31 2,0 °C 2,1 °C 96 % 1013,7 hPa 0,0 mm 0,0 km/h (0 Bft) S-SO 163 ° 0 min 0,000 mm 0,0 UV-I 0 W/m² 1,4 °C 2,0 °C 0,0 km/h (0 Bft)
04.11.2017 04:32 1,9 °C 2,0 °C 96 % 1013,8 hPa 0,0 mm 0,0 km/h (0 Bft) S-SO 163 ° 0 min 0,000 mm 0,0 UV-I 0 W/m² 1,3 °C 1,9 °C 0,0 km/h (0 Bft)
04.11.2017 04:33 1,9 °C 1,9 °C 96 % 1013,8 hPa 0,0 mm 0,0 km/h (0 Bft) S-SO 163 ° 0 min 0,000 mm 0,0 UV-I 0 W/m² 1,3 °C 1,9 °C 0,0 km/h (0 Bft)
04.11.2017 04:34 2,0 °C 2,0 °C 96 % 1013,8 hPa 0,0 mm 0,0 km/h (0 Bft) S-SO 163 ° 0 min 0,000 mm 0,0 UV-I 0 W/m² 1,4 °C 2,0 °C 0,0 km/h (0 Bft)
04.11.2017 04:35 2,0 °C 2,1 °C 96 % 1013,7 hPa 0,0 mm 0,0 km/h (0 Bft) S-SO 163 ° 0 min 0,000 mm 0,0 UV-I 0 W/m² 1,4 °C 2,0 °C 0,0 km/h (0 Bft)
04.11.2017 04:36 1,9 °C 2,0 °C 96 % 1013,7 hPa 0,0 mm 0,0 km/h (0 Bft) S-SO 163 ° 0 min 0,000 mm 0,0 UV-I 0 W/m² 1,3 °C 1,9 °C 0,0 km/h (0 Bft)
04.11.2017 04:37 1,9 °C 1,9 °C 96 % 1013,7 hPa 0,0 mm 0,0 km/h (0 Bft) S-SO 163 ° 0 min 0,000 mm 0,0 UV-I 0 W/m² 1,3 °C 1,9 °C 0,0 km/h (0 Bft)
04.11.2017 04:38 2,0 °C 2,0 °C 96 % 1013,7 hPa 0,0 mm 0,0 km/h (0 Bft) S-SO 163 ° 0 min 0,000 mm 0,0 UV-I 0 W/m² 1,4 °C 2,0 °C 0,0 km/h (0 Bft)
04.11.2017 04:39 2,0 °C 2,0 °C 96 % 1013,7 hPa 0,0 mm 0,0 km/h (0 Bft) S-SO 163 ° 0 min 0,000 mm 0,0 UV-I 0 W/m² 1,4 °C 2,0 °C 0,0 km/h (0 Bft)
04.11.2017 04:40 2,0 °C 2,0 °C 96 % 1013,7 hPa 0,0 mm 0,0 km/h (0 Bft) S-SO 163 ° 0 min 0,000 mm 0,0 UV-I 0 W/m² 1,4 °C 2,0 °C 0,0 km/h (0 Bft)
04.11.2017 04:41 2,0 °C 2,0 °C 96 % 1013,7 hPa 0,0 mm 0,0 km/h (0 Bft) S-SO 163 ° 0 min 0,000 mm 0,0 UV-I 0 W/m² 1,4 °C 2,0 °C 0,0 km/h (0 Bft)
04.11.2017 04:42 2,1 °C 2,1 °C 96 % 1013,8 hPa 0,0 mm 0,0 km/h (0 Bft) S-SO 163 ° 0 min 0,000 mm 0,0 UV-I 0 W/m² 1,5 °C 2,1 °C 0,0 km/h (0 Bft)
04.11.2017 04:43 2,1 °C 2,1 °C 96 % 1013,7 hPa 0,0 mm 0,0 km/h (0 Bft) S-SO 163 ° 0 min 0,000 mm 0,0 UV-I 0 W/m² 1,5 °C 2,1 °C 0,0 km/h (0 Bft)
04.11.2017 04:44 2,1 °C 2,1 °C 96 % 1013,7 hPa 0,0 mm 0,0 km/h (0 Bft) S-SO 163 ° 0 min 0,000 mm 0,0 UV-I 0 W/m² 1,5 °C 2,1 °C 0,0 km/h (0 Bft)
04.11.2017 04:45 2,1 °C 2,1 °C 96 % 1013,7 hPa 0,0 mm 0,0 km/h (0 Bft) S-SO 163 ° 0 min 0,000 mm 0,0 UV-I 0 W/m² 1,5 °C 2,1 °C 0,0 km/h (0 Bft)
04.11.2017 04:46 2,0 °C 2,1 °C 96 % 1013,7 hPa 0,0 mm 0,0 km/h (0 Bft) S-SO 163 ° 0 min 0,000 mm 0,0 UV-I 0 W/m² 1,4 °C 2,0 °C 0,0 km/h (0 Bft)
04.11.2017 04:47 1,9 °C 2,1 °C 96 % 1013,7 hPa 0,0 mm 0,0 km/h (0 Bft) S-SO 163 ° 0 min 0,000 mm 0,0 UV-I 0 W/m² 1,3 °C 1,9 °C 0,0 km/h (0 Bft)
04.11.2017 04:48 1,8 °C 1,9 °C 96 % 1013,8 hPa 0,0 mm 0,0 km/h (0 Bft) S-SO 163 ° 0 min 0,000 mm 0,0 UV-I 0 W/m² 1,2 °C 1,8 °C 0,0 km/h (0 Bft)
04.11.2017 04:49 1,8 °C 1,8 °C 96 % 1013,7 hPa 0,0 mm 0,0 km/h (0 Bft) S-SO 163 ° 0 min 0,000 mm 0,0 UV-I 0 W/m² 1,2 °C 1,8 °C 0,0 km/h (0 Bft)
04.11.2017 04:50 1,7 °C 1,8 °C 96 % 1013,8 hPa 0,0 mm 0,0 km/h (0 Bft) S-SO 163 ° 0 min 0,000 mm 0,0 UV-I 0 W/m² 1,1 °C 1,7 °C 0,0 km/h (0 Bft)
04.11.2017 04:51 1,7 °C 1,8 °C 96 % 1013,8 hPa 0,0 mm 0,0 km/h (0 Bft) S-SO 163 ° 0 min 0,000 mm 0,0 UV-I 0 W/m² 1,1 °C 1,7 °C 0,0 km/h (0 Bft)
04.11.2017 04:52 1,8 °C 1,8 °C 96 % 1013,7 hPa 0,0 mm 0,0 km/h (0 Bft) S-SO 163 ° 0 min 0,000 mm 0,0 UV-I 0 W/m² 1,2 °C 1,8 °C 0,0 km/h (0 Bft)
04.11.2017 04:53 1,8 °C 1,8 °C 96 % 1013,7 hPa 0,0 mm 0,0 km/h (0 Bft) S-SO 163 ° 0 min 0,000 mm 0,0 UV-I 0 W/m² 1,2 °C 1,8 °C 0,0 km/h (0 Bft)
04.11.2017 04:54 1,9 °C 1,9 °C 96 % 1013,7 hPa 0,0 mm 0,0 km/h (0 Bft) S-SO 163 ° 0 min 0,000 mm 0,0 UV-I 0 W/m² 1,3 °C 1,9 °C 0,0 km/h (0 Bft)
04.11.2017 04:55 1,9 °C 1,9 °C 96 % 1013,7 hPa 0,0 mm 0,0 km/h (0 Bft) S-SO 163 ° 0 min 0,000 mm 0,0 UV-I 0 W/m² 1,3 °C 1,9 °C 0,0 km/h (0 Bft)
04.11.2017 04:56 1,9 °C 1,9 °C 96 % 1013,7 hPa 0,0 mm 0,0 km/h (0 Bft) S-SO 163 ° 0 min 0,000 mm 0,0 UV-I 0 W/m² 1,3 °C 1,9 °C 0,0 km/h (0 Bft)
04.11.2017 04:57 2,0 °C 2,0 °C 96 % 1013,7 hPa 0,0 mm 0,0 km/h (0 Bft) S-SO 163 ° 0 min 0,000 mm 0,0 UV-I 0 W/m² 1,4 °C 2,0 °C 0,0 km/h (0 Bft)
04.11.2017 04:58 2,0 °C 2,0 °C 96 % 1013,7 hPa 0,0 mm 0,0 km/h (0 Bft) S-SO 163 ° 0 min 0,000 mm 0,0 UV-I 0 W/m² 1,4 °C 2,0 °C 0,0 km/h (0 Bft)
04.11.2017 04:59 2,1 °C 2,1 °C 96 % 1013,7 hPa 0,0 mm 0,0 km/h (0 Bft) S-SO 163 ° 0 min 0,000 mm 0,0 UV-I 0 W/m² 1,5 °C 2,1 °C 0,0 km/h (0 Bft)
04.11.2017 05:00 2,1 °C 2,1 °C 96 % 1013,7 hPa 0,0 mm 0,0 km/h (0 Bft) S-SO 163 ° 0 min 0,000 mm 0,0 UV-I 0 W/m² 1,5 °C 2,1 °C 0,0 km/h (0 Bft)
04.11.2017 05:01 2,1 °C 2,1 °C 96 % 1013,7 hPa 0,0 mm 0,0 km/h (0 Bft) S-SO 163 ° 0 min 0,000 mm 0,0 UV-I 0 W/m² 1,5 °C 2,1 °C 0,0 km/h (0 Bft)
04.11.2017 05:02 2,2 °C 2,2 °C 96 % 1013,7 hPa 0,0 mm 0,0 km/h (0 Bft) S-SO 163 ° 0 min 0,000 mm 0,0 UV-I 0 W/m² 1,6 °C 2,2 °C 0,0 km/h (0 Bft)
04.11.2017 05:03 2,2 °C 2,2 °C 96 % 1013,7 hPa 0,0 mm 0,0 km/h (0 Bft) S-SO 163 ° 0 min 0,000 mm 0,0 UV-I 0 W/m² 1,6 °C 2,2 °C 0,0 km/h (0 Bft)
04.11.2017 05:04 2,2 °C 2,2 °C 96 % 1013,7 hPa 0,0 mm 0,0 km/h (0 Bft) S-SO 163 ° 0 min 0,000 mm 0,0 UV-I 0 W/m² 1,6 °C 2,2 °C 0,0 km/h (0 Bft)
04.11.2017 05:05 2,2 °C 2,2 °C 96 % 1013,7 hPa 0,0 mm 0,0 km/h (0 Bft) S-SO 163 ° 0 min 0,000 mm 0,0 UV-I 0 W/m² 1,6 °C 2,2 °C 0,0 km/h (0 Bft)
04.11.2017 05:06 2,2 °C 2,2 °C 96 % 1013,8 hPa 0,0 mm 0,0 km/h (0 Bft) S-SO 163 ° 0 min 0,000 mm 0,0 UV-I 0 W/m² 1,6 °C 2,2 °C 0,0 km/h (0 Bft)
04.11.2017 05:07 2,1 °C 2,2 °C 96 % 1013,8 hPa 0,0 mm 0,0 km/h (0 Bft) S-SO 163 ° 0 min 0,000 mm 0,0 UV-I 0 W/m² 1,5 °C 2,1 °C 0,0 km/h (0 Bft)
04.11.2017 05:08 2,1 °C 2,1 °C 96 % 1013,8 hPa 0,0 mm 0,0 km/h (0 Bft) S-SO 163 ° 0 min 0,000 mm 0,0 UV-I 0 W/m² 1,5 °C 2,1 °C 0,0 km/h (0 Bft)
04.11.2017 05:09 2,1 °C 2,1 °C 96 % 1013,7 hPa 0,0 mm 0,0 km/h (0 Bft) S-SO 163 ° 0 min 0,000 mm 0,0 UV-I 0 W/m² 1,5 °C 2,1 °C 0,0 km/h (0 Bft)
04.11.2017 05:10 2,1 °C 2,1 °C 96 % 1013,7 hPa 0,0 mm 0,0 km/h (0 Bft) S-SO 163 ° 0 min 0,000 mm 0,0 UV-I 0 W/m² 1,5 °C 2,1 °C 0,0 km/h (0 Bft)
04.11.2017 05:11 2,1 °C 2,1 °C 96 % 1013,8 hPa 0,0 mm 0,0 km/h (0 Bft) S-SO 163 ° 0 min 0,000 mm 0,0 UV-I 0 W/m² 1,5 °C 2,1 °C 0,0 km/h (0 Bft)
04.11.2017 05:12 2,1 °C 2,1 °C 96 % 1013,8 hPa 0,0 mm 0,0 km/h (0 Bft) S-SO 163 ° 0 min 0,000 mm 0,0 UV-I 0 W/m² 1,5 °C 2,1 °C 0,0 km/h (0 Bft)
04.11.2017 05:13 2,0 °C 2,1 °C 96 % 1013,8 hPa 0,0 mm 0,0 km/h (0 Bft) S-SO 163 ° 0 min 0,000 mm 0,0 UV-I 0 W/m² 1,4 °C 2,0 °C 0,0 km/h (0 Bft)
04.11.2017 05:14 1,9 °C 2,0 °C 96 % 1013,9 hPa 0,0 mm 0,0 km/h (0 Bft) S-SO 163 ° 0 min 0,000 mm 0,0 UV-I 0 W/m² 1,3 °C 1,9 °C 0,0 km/h (0 Bft)
04.11.2017 05:15 1,8 °C 1,9 °C 96 % 1013,9 hPa 0,0 mm 0,0 km/h (0 Bft) S-SO 163 ° 0 min 0,000 mm 0,0 UV-I 0 W/m² 1,2 °C 1,8 °C 0,0 km/h (0 Bft)
04.11.2017 05:16 1,8 °C 1,8 °C 96 % 1014,0 hPa 0,0 mm 0,0 km/h (0 Bft) S-SO 163 ° 0 min 0,000 mm 0,0 UV-I 0 W/m² 1,2 °C 1,8 °C 0,0 km/h (0 Bft)
04.11.2017 05:17 1,7 °C 1,8 °C 96 % 1013,9 hPa 0,0 mm 0,0 km/h (0 Bft) S-SO 163 ° 0 min 0,000 mm 0,0 UV-I 0 W/m² 1,1 °C 1,7 °C 0,0 km/h (0 Bft)
04.11.2017 05:18 1,8 °C 1,8 °C 96 % 1013,9 hPa 0,0 mm 1,4 km/h (1 Bft) S-SO 163 ° 0 min 0,000 mm 0,0 UV-I 0 W/m² 1,2 °C 1,8 °C 3,2 km/h (1 Bft)
04.11.2017 05:19 1,8 °C 1,8 °C 96 % 1013,9 hPa 0,0 mm 1,0 km/h (0 Bft) S-SO 163 ° 0 min 0,000 mm 0,0 UV-I 0 W/m² 1,2 °C 1,8 °C 3,2 km/h (1 Bft)
04.11.2017 05:20 1,8 °C 1,8 °C 96 % 1013,8 hPa 0,0 mm 0,0 km/h (0 Bft) S-SO 163 ° 0 min 0,000 mm 0,0 UV-I 0 W/m² 1,2 °C 1,8 °C 0,0 km/h (0 Bft)
04.11.2017 05:21 1,8 °C 1,8 °C 96 % 1013,9 hPa 0,0 mm 0,0 km/h (0 Bft) S-SO 163 ° 0 min 0,000 mm 0,0 UV-I 0 W/m² 1,2 °C 1,8 °C 0,0 km/h (0 Bft)
04.11.2017 05:22 1,8 °C 1,8 °C 96 % 1013,7 hPa 0,0 mm 0,0 km/h (0 Bft) S-SO 163 ° 0 min 0,000 mm 0,0 UV-I 0 W/m² 1,2 °C 1,8 °C 0,0 km/h (0 Bft)
04.11.2017 05:23 1,8 °C 1,9 °C 96 % 1013,9 hPa 0,0 mm 0,9 km/h (0 Bft) S-SO 163 ° 0 min 0,000 mm 0,0 UV-I 0 W/m² 1,2 °C 1,8 °C 3,2 km/h (1 Bft)
04.11.2017 05:24 1,7 °C 1,8 °C 96 % 1013,8 hPa 0,0 mm 0,2 km/h (0 Bft) S-SO 163 ° 0 min 0,000 mm 0,0 UV-I 0 W/m² 1,1 °C 1,7 °C 1,6 km/h (1 Bft)
04.11.2017 05:25 1,6 °C 1,7 °C 96 % 1013,8 hPa 0,0 mm 0,0 km/h (0 Bft) S-SO 163 ° 0 min 0,000 mm 0,0 UV-I 0 W/m² 1,0 °C 1,6 °C 0,0 km/h (0 Bft)
04.11.2017 05:26 1,5 °C 1,6 °C 96 % 1013,7 hPa 0,0 mm 0,0 km/h (0 Bft) S-SO 163 ° 0 min 0,000 mm 0,0 UV-I 0 W/m² 0,9 °C 1,5 °C 0,0 km/h (0 Bft)
04.11.2017 05:27 1,4 °C 1,5 °C 96 % 1013,7 hPa 0,0 mm 0,0 km/h (0 Bft) S-SO 163 ° 0 min 0,000 mm 0,0 UV-I 0 W/m² 0,8 °C 1,4 °C 0,0 km/h (0 Bft)
04.11.2017 05:28 1,4 °C 1,4 °C 96 % 1013,8 hPa 0,0 mm 0,0 km/h (0 Bft) S-SO 163 ° 0 min 0,000 mm 0,0 UV-I 0 W/m² 0,8 °C 1,4 °C 0,0 km/h (0 Bft)
04.11.2017 05:29 1,3 °C 1,4 °C 96 % 1013,8 hPa 0,0 mm 0,0 km/h (0 Bft) S-SO 163 ° 0 min 0,000 mm 0,0 UV-I 0 W/m² 0,7 °C 1,3 °C 0,0 km/h (0 Bft)
04.11.2017 05:30 1,3 °C 1,3 °C 96 % 1013,8 hPa 0,0 mm 0,0 km/h (0 Bft) S-SO 163 ° 0 min 0,000 mm 0,0 UV-I 0 W/m² 0,7 °C 1,3 °C 0,0 km/h (0 Bft)
04.11.2017 05:31 1,3 °C 1,3 °C 96 % 1013,8 hPa 0,0 mm 0,0 km/h (0 Bft) S-SO 163 ° 0 min 0,000 mm 0,0 UV-I 0 W/m² 0,7 °C 1,3 °C 0,0 km/h (0 Bft)
04.11.2017 05:32 1,3 °C 1,3 °C 96 % 1013,8 hPa 0,0 mm 0,0 km/h (0 Bft) S-SO 163 ° 0 min 0,000 mm 0,0 UV-I 0 W/m² 0,7 °C 1,3 °C 0,0 km/h (0 Bft)
04.11.2017 05:33 1,2 °C 1,3 °C 96 % 1013,8 hPa 0,0 mm 0,0 km/h (0 Bft) S-SO 163 ° 0 min 0,000 mm 0,0 UV-I 0 W/m² 0,6 °C 1,2 °C 0,0 km/h (0 Bft)
04.11.2017 05:34 1,3 °C 1,3 °C 96 % 1013,9 hPa 0,0 mm 0,0 km/h (0 Bft) S-SO 163 ° 0 min 0,000 mm 0,0 UV-I 0 W/m² 0,7 °C 1,3 °C 0,0 km/h (0 Bft)
04.11.2017 05:35 1,3 °C 1,3 °C 96 % 1013,8 hPa 0,0 mm 0,0 km/h (0 Bft) S-SO 163 ° 0 min 0,000 mm 0,0 UV-I 0 W/m² 0,7 °C 1,3 °C 0,0 km/h (0 Bft)
04.11.2017 05:36 1,5 °C 1,5 °C 96 % 1013,8 hPa 0,0 mm 0,0 km/h (0 Bft) S-SO 163 ° 0 min 0,000 mm 0,0 UV-I 0 W/m² 0,9 °C 1,5 °C 0,0 km/h (0 Bft)
04.11.2017 05:37 1,6 °C 1,6 °C 96 % 1013,8 hPa 0,0 mm 0,0 km/h (0 Bft) S-SO 163 ° 0 min 0,000 mm 0,0 UV-I 0 W/m² 1,0 °C 1,6 °C 0,0 km/h (0 Bft)
04.11.2017 05:38 1,7 °C 1,7 °C 96 % 1013,8 hPa 0,0 mm 0,0 km/h (0 Bft) S-SO 163 ° 0 min 0,000 mm 0,0 UV-I 0 W/m² 1,1 °C 1,7 °C 0,0 km/h (0 Bft)
04.11.2017 05:39 1,7 °C 1,7 °C 96 % 1013,8 hPa 0,0 mm 0,0 km/h (0 Bft) S-SO 163 ° 0 min 0,000 mm 0,0 UV-I 0 W/m² 1,1 °C 1,7 °C 0,0 km/h (0 Bft)
04.11.2017 05:40 1,7 °C 1,7 °C 96 % 1013,8 hPa 0,0 mm 0,0 km/h (0 Bft) S-SO 163 ° 0 min 0,000 mm 0,0 UV-I 0 W/m² 1,1 °C 1,7 °C 0,0 km/h (0 Bft)
04.11.2017 05:41 1,7 °C 1,7 °C 96 % 1013,9 hPa 0,0 mm 0,0 km/h (0 Bft) S-SO 163 ° 0 min 0,000 mm 0,0 UV-I 0 W/m² 1,1 °C 1,7 °C 0,0 km/h (0 Bft)
04.11.2017 05:42 1,7 °C 1,7 °C 96 % 1013,8 hPa 0,0 mm 0,0 km/h (0 Bft) S-SO 163 ° 0 min 0,000 mm 0,0 UV-I 0 W/m² 1,1 °C 1,7 °C 0,0 km/h (0 Bft)
04.11.2017 05:43 1,8 °C 1,8 °C 96 % 1013,8 hPa 0,0 mm 0,0 km/h (0 Bft) S-SO 163 ° 0 min 0,000 mm 0,0 UV-I 0 W/m² 1,2 °C 1,8 °C 0,0 km/h (0 Bft)
04.11.2017 05:44 1,8 °C 1,8 °C 96 % 1013,8 hPa 0,0 mm 0,0 km/h (0 Bft) S-SO 163 ° 0 min 0,000 mm 0,0 UV-I 0 W/m² 1,2 °C 1,8 °C 0,0 km/h (0 Bft)
04.11.2017 05:45 1,8 °C 1,8 °C 96 % 1013,9 hPa 0,0 mm 0,0 km/h (0 Bft) S-SO 163 ° 0 min 0,000 mm 0,0 UV-I 0 W/m² 1,2 °C 1,8 °C 0,0 km/h (0 Bft)
04.11.2017 05:46 1,7 °C 1,8 °C 96 % 1013,9 hPa 0,0 mm 0,0 km/h (0 Bft) S-SO 163 ° 0 min 0,000 mm 0,0 UV-I 0 W/m² 1,1 °C 1,7 °C 0,0 km/h (0 Bft)
04.11.2017 05:47 1,6 °C 1,7 °C 96 % 1013,8 hPa 0,0 mm 0,0 km/h (0 Bft) S-SO 163 ° 0 min 0,000 mm 0,0 UV-I 0 W/m² 1,0 °C 1,6 °C 0,0 km/h (0 Bft)
04.11.2017 05:48 1,6 °C 1,6 °C 96 % 1013,8 hPa 0,0 mm 0,0 km/h (0 Bft) S-SO 163 ° 0 min 0,000 mm 0,0 UV-I 0 W/m² 1,0 °C 1,6 °C 0,0 km/h (0 Bft)
04.11.2017 05:49 1,6 °C 1,6 °C 96 % 1013,8 hPa 0,0 mm 0,0 km/h (0 Bft) S-SO 163 ° 0 min 0,000 mm 0,0 UV-I 0 W/m² 1,0 °C 1,6 °C 0,0 km/h (0 Bft)
04.11.2017 05:50 1,7 °C 1,7 °C 96 % 1013,8 hPa 0,0 mm 1,5 km/h (1 Bft) S-SO 163 ° 0 min 0,000 mm 0,0 UV-I 0 W/m² 1,1 °C 1,7 °C 6,4 km/h (2 Bft)
04.11.2017 05:51 1,7 °C 1,7 °C 96 % 1013,8 hPa 0,0 mm 0,0 km/h (0 Bft) S-SO 163 ° 0 min 0,000 mm 0,0 UV-I 0 W/m² 1,1 °C 1,7 °C 0,0 km/h (0 Bft)
04.11.2017 05:52 1,8 °C 1,8 °C 96 % 1013,8 hPa 0,0 mm 0,0 km/h (0 Bft) S-SO 163 ° 0 min 0,000 mm 0,0 UV-I 0 W/m² 1,2 °C 1,8 °C 0,0 km/h (0 Bft)
04.11.2017 05:53 1,8 °C 1,8 °C 96 % 1013,8 hPa 0,0 mm 0,0 km/h (0 Bft) S-SO 163 ° 0 min 0,000 mm 0,0 UV-I 0 W/m² 1,2 °C 1,8 °C 0,0 km/h (0 Bft)
04.11.2017 05:54 1,8 °C 1,8 °C 96 % 1013,8 hPa 0,0 mm 0,0 km/h (0 Bft) S-SO 163 ° 0 min 0,000 mm 0,0 UV-I 0 W/m² 1,2 °C 1,8 °C 0,0 km/h (0 Bft)
04.11.2017 05:55 1,7 °C 1,8 °C 96 % 1013,8 hPa 0,0 mm 0,0 km/h (0 Bft) S-SO 163 ° 0 min 0,000 mm 0,0 UV-I 0 W/m² 1,1 °C 1,7 °C 0,0 km/h (0 Bft)
04.11.2017 05:56 1,6 °C 1,7 °C 96 % 1013,8 hPa 0,0 mm 0,0 km/h (0 Bft) S-SO 163 ° 0 min 0,000 mm 0,0 UV-I 0 W/m² 1,0 °C 1,6 °C 0,0 km/h (0 Bft)
04.11.2017 05:57 1,6 °C 1,6 °C 96 % 1013,8 hPa 0,0 mm 0,0 km/h (0 Bft) S-SO 163 ° 0 min 0,000 mm 0,0 UV-I 0 W/m² 1,0 °C 1,6 °C 0,0 km/h (0 Bft)
04.11.2017 05:58 1,6 °C 1,6 °C 96 % 1013,9 hPa 0,0 mm 0,0 km/h (0 Bft) S-SO 163 ° 0 min 0,000 mm 0,0 UV-I 0 W/m² 1,0 °C 1,6 °C 0,0 km/h (0 Bft)
04.11.2017 05:59 1,7 °C 1,7 °C 96 % 1013,9 hPa 0,0 mm 0,0 km/h (0 Bft) S-SO 163 ° 0 min 0,000 mm 0,0 UV-I 0 W/m² 1,1 °C 1,7 °C 0,0 km/h (0 Bft)
04.11.2017 06:00 1,7 °C 1,7 °C 96 % 1013,9 hPa 0,0 mm 0,0 km/h (0 Bft) S-SO 163 ° 0 min 0,000 mm 0,0 UV-I 0 W/m² 1,1 °C 1,7 °C 0,0 km/h (0 Bft)
04.11.2017 06:01 1,7 °C 1,7 °C 96 % 1013,9 hPa 0,0 mm 0,0 km/h (0 Bft) S-SO 163 ° 0 min 0,000 mm 0,0 UV-I 0 W/m² 1,1 °C 1,7 °C 0,0 km/h (0 Bft)
04.11.2017 06:02 1,7 °C 1,8 °C 96 % 1013,8 hPa 0,0 mm 0,0 km/h (0 Bft) S-SO 163 ° 0 min 0,000 mm 0,0 UV-I 0 W/m² 1,1 °C 1,7 °C 0,0 km/h (0 Bft)
04.11.2017 06:03 1,8 °C 1,8 °C 96 % 1013,9 hPa 0,0 mm 0,0 km/h (0 Bft) S-SO 163 ° 0 min 0,000 mm 0,0 UV-I 0 W/m² 1,2 °C 1,8 °C 0,0 km/h (0 Bft)
04.11.2017 06:04 1,8 °C 1,8 °C 96 % 1013,8 hPa 0,0 mm 0,5 km/h (0 Bft) S-SO 163 ° 0 min 0,000 mm 0,0 UV-I 0 W/m² 1,2 °C 1,8 °C 1,6 km/h (1 Bft)
04.11.2017 06:05 1,9 °C 1,9 °C 96 % 1013,8 hPa 0,0 mm 0,0 km/h (0 Bft) S-SO 163 ° 0 min 0,000 mm 0,0 UV-I 0 W/m² 1,3 °C 1,9 °C 0,0 km/h (0 Bft)
04.11.2017 06:06 2,0 °C 2,0 °C 96 % 1013,8 hPa 0,0 mm 0,0 km/h (0 Bft) S-SO 163 ° 0 min 0,000 mm 0,0 UV-I 0 W/m² 1,4 °C 2,0 °C 0,0 km/h (0 Bft)
04.11.2017 06:07 2,0 °C 2,0 °C 96 % 1013,9 hPa 0,0 mm 0,0 km/h (0 Bft) S-SO 163 ° 0 min 0,000 mm 0,0 UV-I 0 W/m² 1,4 °C 2,0 °C 0,0 km/h (0 Bft)
04.11.2017 06:08 2,1 °C 2,1 °C 96 % 1013,9 hPa 0,0 mm 0,0 km/h (0 Bft) S-SO 163 ° 0 min 0,000 mm 0,0 UV-I 0 W/m² 1,5 °C 2,1 °C 0,0 km/h (0 Bft)
04.11.2017 06:09 2,1 °C 2,1 °C 96 % 1013,9 hPa 0,0 mm 0,0 km/h (0 Bft) S-SO 163 ° 0 min 0,000 mm 0,0 UV-I 0 W/m² 1,5 °C 2,1 °C 0,0 km/h (0 Bft)
04.11.2017 06:10 2,1 °C 2,1 °C 96 % 1013,9 hPa 0,0 mm 0,0 km/h (0 Bft) S-SO 163 ° 0 min 0,000 mm 0,0 UV-I 0 W/m² 1,5 °C 2,1 °C 0,0 km/h (0 Bft)
04.11.2017 06:11 2,1 °C 2,1 °C 96 % 1013,9 hPa 0,0 mm 0,0 km/h (0 Bft) S-SO 163 ° 0 min 0,000 mm 0,0 UV-I 0 W/m² 1,5 °C 2,1 °C 0,0 km/h (0 Bft)
04.11.2017 06:12 2,0 °C 2,1 °C 96 % 1013,9 hPa 0,0 mm 0,0 km/h (0 Bft) S-SO 163 ° 0 min 0,000 mm 0,0 UV-I 0 W/m² 1,4 °C 2,0 °C 0,0 km/h (0 Bft)
04.11.2017 06:13 1,9 °C 2,0 °C 96 % 1013,9 hPa 0,0 mm 0,0 km/h (0 Bft) S-SO 163 ° 0 min 0,000 mm 0,0 UV-I 0 W/m² 1,3 °C 1,9 °C 0,0 km/h (0 Bft)
04.11.2017 06:14 1,8 °C 1,9 °C 96 % 1013,9 hPa 0,0 mm 0,0 km/h (0 Bft) S-SO 163 ° 0 min 0,000 mm 0,0 UV-I 0 W/m² 1,2 °C 1,8 °C 0,0 km/h (0 Bft)
04.11.2017 06:15 1,8 °C 1,8 °C 96 % 1014,0 hPa 0,0 mm 0,0 km/h (0 Bft) S-SO 163 ° 0 min 0,000 mm 0,0 UV-I 0 W/m² 1,2 °C 1,8 °C 0,0 km/h (0 Bft)
04.11.2017 06:16 1,8 °C 1,8 °C 96 % 1013,9 hPa 0,0 mm 0,0 km/h (0 Bft) S-SO 163 ° 0 min 0,000 mm 0,0 UV-I 0 W/m² 1,2 °C 1,8 °C 0,0 km/h (0 Bft)
04.11.2017 06:17 1,8 °C 1,8 °C 96 % 1014,0 hPa 0,0 mm 0,0 km/h (0 Bft) S-SO 163 ° 0 min 0,000 mm 0,0 UV-I 0 W/m² 1,2 °C 1,8 °C 0,0 km/h (0 Bft)
04.11.2017 06:18 1,8 °C 1,8 °C 96 % 1014,0 hPa 0,0 mm 0,0 km/h (0 Bft) S-SO 163 ° 0 min 0,000 mm 0,0 UV-I 0 W/m² 1,2 °C 1,8 °C 0,0 km/h (0 Bft)
04.11.2017 06:19 1,8 °C 1,9 °C 96 % 1014,0 hPa 0,0 mm 0,0 km/h (0 Bft) S-SO 163 ° 0 min 0,000 mm 0,0 UV-I 0 W/m² 1,2 °C 1,8 °C 0,0 km/h (0 Bft)
04.11.2017 06:20 1,9 °C 1,9 °C 96 % 1014,0 hPa 0,0 mm 0,0 km/h (0 Bft) S-SO 163 ° 0 min 0,000 mm 0,0 UV-I 0 W/m² 1,3 °C 1,9 °C 0,0 km/h (0 Bft)
04.11.2017 06:21 1,9 °C 1,9 °C 96 % 1014,0 hPa 0,0 mm 0,0 km/h (0 Bft) S-SO 163 ° 0 min 0,000 mm 0,0 UV-I 0 W/m² 1,3 °C 1,9 °C 0,0 km/h (0 Bft)
04.11.2017 06:22 2,0 °C 2,0 °C 96 % 1014,0 hPa 0,0 mm 0,0 km/h (0 Bft) S-SO 163 ° 0 min 0,000 mm 0,0 UV-I 0 W/m² 1,4 °C 2,0 °C 0,0 km/h (0 Bft)
04.11.2017 06:23 2,1 °C 2,1 °C 96 % 1014,0 hPa 0,0 mm 0,0 km/h (0 Bft) S-SO 163 ° 0 min 0,000 mm 0,0 UV-I 0 W/m² 1,5 °C 2,1 °C 0,0 km/h (0 Bft)
04.11.2017 06:24 2,1 °C 2,1 °C 96 % 1014,0 hPa 0,0 mm 0,0 km/h (0 Bft) S-SO 163 ° 0 min 0,000 mm 0,0 UV-I 0 W/m² 1,5 °C 2,1 °C 0,0 km/h (0 Bft)
04.11.2017 06:25 2,0 °C 2,1 °C 96 % 1014,0 hPa 0,0 mm 0,0 km/h (0 Bft) S-SO 163 ° 0 min 0,000 mm 0,0 UV-I 0 W/m² 1,4 °C 2,0 °C 0,0 km/h (0 Bft)
04.11.2017 06:26 1,9 °C 2,0 °C 96 % 1014,0 hPa 0,0 mm 0,0 km/h (0 Bft) S-SO 163 ° 0 min 0,000 mm 0,0 UV-I 0 W/m² 1,3 °C 1,9 °C 0,0 km/h (0 Bft)
04.11.2017 06:27 1,9 °C 1,9 °C 96 % 1014,0 hPa 0,0 mm 0,0 km/h (0 Bft) S-SO 163 ° 0 min 0,000 mm 0,0 UV-I 0 W/m² 1,3 °C 1,9 °C 0,0 km/h (0 Bft)
04.11.2017 06:28 1,9 °C 1,9 °C 96 % 1014,0 hPa 0,0 mm 0,0 km/h (0 Bft) S-SO 163 ° 0 min 0,000 mm 0,0 UV-I 0 W/m² 1,3 °C 1,9 °C 0,0 km/h (0 Bft)
04.11.2017 06:29 2,0 °C 2,0 °C 96 % 1013,9 hPa 0,0 mm 1,5 km/h (1 Bft) S-SO 163 ° 0 min 0,000 mm 0,0 UV-I 0 W/m² 1,4 °C 2,0 °C 3,2 km/h (1 Bft)
04.11.2017 06:30 2,1 °C 2,1 °C 96 % 1014,0 hPa 0,0 mm 0,5 km/h (0 Bft) S-SO 163 ° 0 min 0,000 mm 0,0 UV-I 0 W/m² 1,5 °C 2,1 °C 3,2 km/h (1 Bft)
04.11.2017 06:31 2,1 °C 2,1 °C 96 % 1014,0 hPa 0,0 mm 0,0 km/h (0 Bft) S-SO 163 ° 0 min 0,000 mm 0,0 UV-I 0 W/m² 1,5 °C 2,1 °C 0,0 km/h (0 Bft)
04.11.2017 06:32 2,0 °C 2,1 °C 96 % 1014,0 hPa 0,0 mm 0,0 km/h (0 Bft) S-SO 163 ° 0 min 0,000 mm 0,0 UV-I 0 W/m² 1,4 °C 2,0 °C 0,0 km/h (0 Bft)
04.11.2017 06:33 1,9 °C 2,0 °C 96 % 1013,9 hPa 0,0 mm 0,0 km/h (0 Bft) S-SO 163 ° 0 min 0,000 mm 0,0 UV-I 0 W/m² 1,3 °C 1,9 °C 0,0 km/h (0 Bft)
04.11.2017 06:34 1,9 °C 1,9 °C 96 % 1013,9 hPa 0,0 mm 0,0 km/h (0 Bft) S-SO 163 ° 0 min 0,000 mm 0,0 UV-I 0 W/m² 1,3 °C 1,9 °C 0,0 km/h (0 Bft)
04.11.2017 06:35 1,8 °C 1,9 °C 95 % 1013,9 hPa 0,0 mm 0,0 km/h (0 Bft) S-SO 163 ° 0 min 0,000 mm 0,0 UV-I 0 W/m² 1,1 °C 1,8 °C 0,0 km/h (0 Bft)
04.11.2017 06:36 1,8 °C 1,8 °C 95 % 1014,0 hPa 0,0 mm 0,0 km/h (0 Bft) S-SO 163 ° 0 min 0,000 mm 0,0 UV-I 0 W/m² 1,1 °C 1,8 °C 0,0 km/h (0 Bft)
04.11.2017 06:37 1,8 °C 1,8 °C 95 % 1013,9 hPa 0,0 mm 0,0 km/h (0 Bft) S-SO 163 ° 0 min 0,000 mm 0,0 UV-I 0 W/m² 1,1 °C 1,8 °C 0,0 km/h (0 Bft)
04.11.2017 06:38 1,8 °C 1,8 °C 95 % 1013,9 hPa 0,0 mm 0,0 km/h (0 Bft) S-SO 163 ° 0 min 0,000 mm 0,0 UV-I 0 W/m² 1,1 °C 1,8 °C 0,0 km/h (0 Bft)
04.11.2017 06:39 1,8 °C 1,9 °C 96 % 1013,9 hPa 0,0 mm 0,0 km/h (0 Bft) S-SO 163 ° 0 min 0,000 mm 0,0 UV-I 0 W/m² 1,2 °C 1,8 °C 0,0 km/h (0 Bft)
04.11.2017 06:40 1,8 °C 1,8 °C 95 % 1014,0 hPa 0,0 mm 0,0 km/h (0 Bft) S-SO 163 ° 0 min 0,000 mm 0,0 UV-I 0 W/m² 1,1 °C 1,8 °C 0,0 km/h (0 Bft)
04.11.2017 06:41 1,8 °C 1,9 °C 96 % 1014,0 hPa 0,0 mm 0,0 km/h (0 Bft) S-SO 163 ° 0 min 0,000 mm 0,0 UV-I 0 W/m² 1,2 °C 1,8 °C 0,0 km/h (0 Bft)
04.11.2017 06:42 1,8 °C 1,8 °C 95 % 1014,0 hPa 0,0 mm 0,0 km/h (0 Bft) S-SO 163 ° 0 min 0,000 mm 0,0 UV-I 0 W/m² 1,1 °C 1,8 °C 0,0 km/h (0 Bft)
04.11.2017 06:43 1,8 °C 1,8 °C 95 % 1014,0 hPa 0,0 mm 0,0 km/h (0 Bft) S-SO 163 ° 0 min 0,000 mm 0,0 UV-I 0 W/m² 1,1 °C 1,8 °C 0,0 km/h (0 Bft)
04.11.2017 06:44 1,8 °C 1,8 °C 95 % 1014,0 hPa 0,0 mm 0,0 km/h (0 Bft) S-SO 163 ° 0 min 0,000 mm 0,0 UV-I 0 W/m² 1,1 °C 1,8 °C 0,0 km/h (0 Bft)
04.11.2017 06:45 1,8 °C 1,8 °C 95 % 1014,0 hPa 0,0 mm 0,0 km/h (0 Bft) S-SO 163 ° 0 min 0,000 mm 0,0 UV-I 0 W/m² 1,1 °C 1,8 °C 0,0 km/h (0 Bft)
04.11.2017 06:46 1,8 °C 1,8 °C 95 % 1014,1 hPa 0,0 mm 0,0 km/h (0 Bft) S-SO 163 ° 0 min 0,000 mm 0,0 UV-I 0 W/m² 1,1 °C 1,8 °C 0,0 km/h (0 Bft)
04.11.2017 06:47 1,7 °C 1,8 °C 95 % 1014,0 hPa 0,0 mm 0,0 km/h (0 Bft) S-SO 163 ° 0 min 0,000 mm 0,0 UV-I 0 W/m² 1,0 °C 1,7 °C 0,0 km/h (0 Bft)
04.11.2017 06:48 1,7 °C 1,7 °C 95 % 1014,1 hPa 0,0 mm 0,0 km/h (0 Bft) S-SO 163 ° 0 min 0,000 mm 0,0 UV-I 0 W/m² 1,0 °C 1,7 °C 0,0 km/h (0 Bft)
04.11.2017 06:49 1,7 °C 1,7 °C 95 % 1014,1 hPa 0,0 mm 0,0 km/h (0 Bft) S-SO 163 ° 0 min 0,000 mm 0,0 UV-I 0 W/m² 1,0 °C 1,7 °C 0,0 km/h (0 Bft)
04.11.2017 06:50 1,7 °C 1,7 °C 95 % 1014,1 hPa 0,0 mm 0,0 km/h (0 Bft) S-SO 163 ° 0 min 0,000 mm 0,0 UV-I 0 W/m² 1,0 °C 1,7 °C 0,0 km/h (0 Bft)
04.11.2017 06:51 1,8 °C 1,8 °C 95 % 1014,2 hPa 0,0 mm 0,0 km/h (0 Bft) S-SO 163 ° 0 min 0,000 mm 0,0 UV-I 0 W/m² 1,1 °C 1,8 °C 0,0 km/h (0 Bft)
04.11.2017 06:52 1,8 °C 1,8 °C 96 % 1014,1 hPa 0,0 mm 0,0 km/h (0 Bft) S-SO 163 ° 0 min 0,000 mm 0,0 UV-I 0 W/m² 1,2 °C 1,8 °C 0,0 km/h (0 Bft)
04.11.2017 06:53 1,8 °C 1,8 °C 96 % 1014,1 hPa 0,0 mm 0,0 km/h (0 Bft) S-SO 163 ° 0 min 0,000 mm 0,0 UV-I 0 W/m² 1,2 °C 1,8 °C 0,0 km/h (0 Bft)
04.11.2017 06:54 1,9 °C 1,9 °C 96 % 1014,1 hPa 0,0 mm 0,0 km/h (0 Bft) S-SO 163 ° 0 min 0,000 mm 0,0 UV-I 0 W/m² 1,3 °C 1,9 °C 0,0 km/h (0 Bft)
04.11.2017 06:55 1,9 °C 1,9 °C 96 % 1014,1 hPa 0,0 mm 0,0 km/h (0 Bft) S-SO 163 ° 0 min 0,000 mm 0,0 UV-I 0 W/m² 1,3 °C 1,9 °C 0,0 km/h (0 Bft)
04.11.2017 06:56 1,8 °C 1,9 °C 96 % 1014,1 hPa 0,0 mm 0,0 km/h (0 Bft) S-SO 163 ° 0 min 0,000 mm 0,0 UV-I 0 W/m² 1,2 °C 1,8 °C 0,0 km/h (0 Bft)
04.11.2017 06:57 1,8 °C 1,8 °C 96 % 1014,1 hPa 0,0 mm 0,0 km/h (0 Bft) S-SO 163 ° 0 min 0,000 mm 0,0 UV-I 0 W/m² 1,2 °C 1,8 °C 0,0 km/h (0 Bft)
04.11.2017 06:58 1,8 °C 1,9 °C 96 % 1014,1 hPa 0,0 mm 0,0 km/h (0 Bft) S-SO 163 ° 0 min 0,000 mm 0,0 UV-I 0 W/m² 1,2 °C 1,8 °C 0,0 km/h (0 Bft)
04.11.2017 06:59 1,9 °C 1,9 °C 96 % 1014,1 hPa 0,0 mm 0,0 km/h (0 Bft) S-SO 163 ° 0 min 0,000 mm 0,0 UV-I 0 W/m² 1,3 °C 1,9 °C 0,0 km/h (0 Bft)
04.11.2017 07:00 1,9 °C 1,9 °C 96 % 1014,1 hPa 0,0 mm 0,0 km/h (0 Bft) S-SO 163 ° 0 min 0,000 mm 0,0 UV-I 0 W/m² 1,3 °C 1,9 °C 0,0 km/h (0 Bft)
04.11.2017 07:01 1,9 °C 1,9 °C 96 % 1014,2 hPa 0,0 mm 0,0 km/h (0 Bft) S-SO 163 ° 0 min 0,000 mm 0,0 UV-I 0 W/m² 1,3 °C 1,9 °C 0,0 km/h (0 Bft)
04.11.2017 07:02 1,9 °C 1,9 °C 95 % 1014,2 hPa 0,0 mm 0,0 km/h (0 Bft) S-SO 163 ° 0 min 0,000 mm 0,0 UV-I 5 W/m² 1,2 °C 1,9 °C 0,0 km/h (0 Bft)
04.11.2017 07:03 1,9 °C 1,9 °C 96 % 1014,2 hPa 0,0 mm 0,0 km/h (0 Bft) S-SO 163 ° 0 min 0,000 mm 0,0 UV-I 5 W/m² 1,3 °C 1,9 °C 0,0 km/h (0 Bft)
04.11.2017 07:04 1,9 °C 1,9 °C 96 % 1014,2 hPa 0,0 mm 1,2 km/h (1 Bft) S-SO 163 ° 0 min 0,000 mm 0,0 UV-I 5 W/m² 1,3 °C 1,9 °C 3,2 km/h (1 Bft)
04.11.2017 07:05 2,0 °C 2,0 °C 96 % 1014,2 hPa 0,0 mm 2,8 km/h (1 Bft) S-SO 157 ° 0 min 0,000 mm 0,0 UV-I 5 W/m² 1,4 °C 2,0 °C 6,4 km/h (2 Bft)
04.11.2017 07:06 2,1 °C 2,1 °C 96 % 1014,2 hPa 0,0 mm 0,6 km/h (0 Bft) S-SO 157 ° 0 min 0,000 mm 0,0 UV-I 5 W/m² 1,5 °C 2,1 °C 1,6 km/h (1 Bft)
04.11.2017 07:07 2,1 °C 2,2 °C 96 % 1014,2 hPa 0,0 mm 0,2 km/h (0 Bft) S-SO 157 ° 0 min 0,000 mm 0,0 UV-I 5 W/m² 1,5 °C 2,1 °C 1,6 km/h (1 Bft)
04.11.2017 07:08 2,2 °C 2,2 °C 96 % 1014,2 hPa 0,0 mm 0,1 km/h (0 Bft) S-SO 157 ° 0 min 0,000 mm 0,0 UV-I 7 W/m² 1,6 °C 2,2 °C 1,6 km/h (1 Bft)
04.11.2017 07:09 2,1 °C 2,2 °C 96 % 1014,3 hPa 0,0 mm 0,0 km/h (0 Bft) S-SO 157 ° 0 min 0,000 mm 0,0 UV-I 7 W/m² 1,5 °C 2,1 °C 0,0 km/h (0 Bft)
04.11.2017 07:10 2,1 °C 2,1 °C 96 % 1014,3 hPa 0,0 mm 0,0 km/h (0 Bft) S-SO 157 ° 0 min 0,000 mm 0,0 UV-I 5 W/m² 1,5 °C 2,1 °C 0,0 km/h (0 Bft)
04.11.2017 07:11 1,9 °C 2,1 °C 96 % 1014,3 hPa 0,0 mm 0,0 km/h (0 Bft) S-SO 157 ° 0 min 0,000 mm 0,0 UV-I 5 W/m² 1,3 °C 1,9 °C 0,0 km/h (0 Bft)
04.11.2017 07:12 1,9 °C 1,9 °C 95 % 1014,3 hPa 0,0 mm 2,0 km/h (1 Bft) S-SO 157 ° 0 min 0,000 mm 0,0 UV-I 5 W/m² 1,2 °C 1,9 °C 3,2 km/h (1 Bft)
04.11.2017 07:13 1,9 °C 1,9 °C 95 % 1014,3 hPa 0,0 mm 2,4 km/h (1 Bft) S-SO 157 ° 0 min 0,000 mm 0,0 UV-I 7 W/m² 1,2 °C 1,9 °C 3,2 km/h (1 Bft)
04.11.2017 07:14 2,1 °C 2,1 °C 95 % 1014,3 hPa 0,0 mm 1,0 km/h (0 Bft) S-SO 157 ° 0 min 0,000 mm 0,0 UV-I 7 W/m² 1,4 °C 2,1 °C 3,2 km/h (1 Bft)
04.11.2017 07:15 2,1 °C 2,1 °C 95 % 1014,3 hPa 0,0 mm 0,1 km/h (0 Bft) S-SO 157 ° 0 min 0,000 mm 0,0 UV-I 7 W/m² 1,4 °C 2,1 °C 1,6 km/h (1 Bft)
04.11.2017 07:16 2,1 °C 2,1 °C 95 % 1014,2 hPa 0,0 mm 0,0 km/h (0 Bft) S-SO 157 ° 0 min 0,000 mm 0,0 UV-I 7 W/m² 1,4 °C 2,1 °C 0,0 km/h (0 Bft)
04.11.2017 07:17 2,1 °C 2,1 °C 95 % 1014,3 hPa 0,0 mm 0,0 km/h (0 Bft) S-SO 157 ° 0 min 0,000 mm 0,0 UV-I 7 W/m² 1,4 °C 2,1 °C 0,0 km/h (0 Bft)
04.11.2017 07:18 1,9 °C 2,1 °C 95 % 1014,3 hPa 0,0 mm 0,0 km/h (0 Bft) S-SO 157 ° 0 min 0,000 mm 0,0 UV-I 9 W/m² 1,2 °C 1,9 °C 0,0 km/h (0 Bft)
04.11.2017 07:19 1,9 °C 1,9 °C 95 % 1014,3 hPa 0,0 mm 0,0 km/h (0 Bft) S-SO 157 ° 0 min 0,000 mm 0,0 UV-I 9 W/m² 1,2 °C 1,9 °C 0,0 km/h (0 Bft)
04.11.2017 07:20 1,9 °C 1,9 °C 95 % 1014,2 hPa 0,0 mm 0,0 km/h (0 Bft) S-SO 157 ° 0 min 0,000 mm 0,0 UV-I 9 W/m² 1,2 °C 1,9 °C 0,0 km/h (0 Bft)
04.11.2017 07:21 1,9 °C 1,9 °C 95 % 1014,3 hPa 0,0 mm 0,0 km/h (0 Bft) S-SO 157 ° 0 min 0,000 mm 0,0 UV-I 9 W/m² 1,2 °C 1,9 °C 0,0 km/h (0 Bft)
04.11.2017 07:22 1,9 °C 1,9 °C 95 % 1014,3 hPa 0,0 mm 0,0 km/h (0 Bft) S-SO 157 ° 0 min 0,000 mm 0,0 UV-I 11 W/m² 1,2 °C 1,9 °C 0,0 km/h (0 Bft)
04.11.2017 07:23 1,9 °C 1,9 °C 95 % 1014,3 hPa 0,0 mm 0,0 km/h (0 Bft) S-SO 157 ° 0 min 0,000 mm 0,0 UV-I 11 W/m² 1,2 °C 1,9 °C 0,0 km/h (0 Bft)
04.11.2017 07:24 1,8 °C 1,9 °C 95 % 1014,3 hPa 0,0 mm 0,0 km/h (0 Bft) S-SO 157 ° 0 min 0,000 mm 0,0 UV-I 12 W/m² 1,1 °C 1,8 °C 0,0 km/h (0 Bft)
04.11.2017 07:25 1,8 °C 1,9 °C 95 % 1014,3 hPa 0,0 mm 0,0 km/h (0 Bft) S-SO 157 ° 0 min 0,000 mm 0,0 UV-I 12 W/m² 1,1 °C 1,8 °C 0,0 km/h (0 Bft)
04.11.2017 07:26 1,9 °C 1,9 °C 95 % 1014,3 hPa 0,0 mm 0,0 km/h (0 Bft) S-SO 157 ° 0 min 0,000 mm 0,0 UV-I 12 W/m² 1,2 °C 1,9 °C 0,0 km/h (0 Bft)
04.11.2017 07:27 1,9 °C 1,9 °C 95 % 1014,3 hPa 0,0 mm 1,7 km/h (1 Bft) S-SO 157 ° 0 min 0,000 mm 0,0 UV-I 14 W/m² 1,2 °C 1,9 °C 4,8 km/h (1 Bft)
04.11.2017 07:28 2,1 °C 2,1 °C 95 % 1014,3 hPa 0,0 mm 3,3 km/h (1 Bft) SO 133 ° 0 min 0,000 mm 0,0 UV-I 16 W/m² 1,4 °C 2,1 °C 4,8 km/h (1 Bft)
04.11.2017 07:29 2,2 °C 2,2 °C 95 % 1014,3 hPa 0,0 mm 0,1 km/h (0 Bft) SO 132 ° 0 min 0,000 mm 0,0 UV-I 16 W/m² 1,5 °C 2,2 °C 1,6 km/h (1 Bft)
04.11.2017 07:30 2,3 °C 2,3 °C 96 % 1014,3 hPa 0,0 mm 1,6 km/h (1 Bft) SO 133 ° 0 min 0,000 mm 0,0 UV-I 18 W/m² 1,7 °C 2,3 °C 3,2 km/h (1 Bft)
04.11.2017 07:31 2,2 °C 2,3 °C 96 % 1014,3 hPa 0,0 mm 1,3 km/h (1 Bft) SO 133 ° 0 min 0,000 mm 0,0 UV-I 19 W/m² 1,6 °C 2,2 °C 3,2 km/h (1 Bft)
04.11.2017 07:32 2,2 °C 2,2 °C 95 % 1014,4 hPa 0,0 mm 1,7 km/h (1 Bft) SO 133 ° 0 min 0,000 mm 0,0 UV-I 21 W/m² 1,5 °C 2,2 °C 3,2 km/h (1 Bft)
04.11.2017 07:33 2,0 °C 2,2 °C 95 % 1014,4 hPa 0,0 mm 0,5 km/h (0 Bft) S-SO 159 ° 0 min 0,000 mm 0,0 UV-I 23 W/m² 1,3 °C 2,0 °C 3,2 km/h (1 Bft)
04.11.2017 07:34 1,9 °C 2,0 °C 95 % 1014,4 hPa 0,0 mm 0,7 km/h (0 Bft) S-SO 159 ° 0 min 0,000 mm 0,0 UV-I 26 W/m² 1,2 °C 1,9 °C 3,2 km/h (1 Bft)
04.11.2017 07:35 1,9 °C 2,0 °C 95 % 1014,4 hPa 0,0 mm 3,1 km/h (1 Bft) S-SO 154 ° 0 min 0,000 mm 0,0 UV-I 28 W/m² 1,2 °C 1,9 °C 4,8 km/h (1 Bft)
04.11.2017 07:36 2,1 °C 2,1 °C 95 % 1014,4 hPa 0,0 mm 0,3 km/h (0 Bft) S-SO 154 ° 0 min 0,000 mm 0,0 UV-I 30 W/m² 1,4 °C 2,1 °C 1,6 km/h (1 Bft)
04.11.2017 07:37 2,1 °C 2,1 °C 95 % 1014,4 hPa 0,0 mm 0,0 km/h (0 Bft) S-SO 154 ° 0 min 0,000 mm 0,0 UV-I 32 W/m² 1,4 °C 2,1 °C 0,0 km/h (0 Bft)
04.11.2017 07:38 2,1 °C 2,1 °C 95 % 1014,4 hPa 0,0 mm 0,0 km/h (0 Bft) S-SO 154 ° 0 min 0,000 mm 0,0 UV-I 33 W/m² 1,4 °C 2,1 °C 0,0 km/h (0 Bft)
04.11.2017 07:39 2,1 °C 2,1 °C 95 % 1014,5 hPa 0,0 mm 0,0 km/h (0 Bft) S-SO 154 ° 0 min 0,000 mm 0,0 UV-I 33 W/m² 1,4 °C 2,1 °C 0,0 km/h (0 Bft)
04.11.2017 07:40 2,0 °C 2,1 °C 95 % 1014,4 hPa 0,0 mm 2,0 km/h (1 Bft) S-SO 154 ° 0 min 0,000 mm 0,0 UV-I 37 W/m² 1,3 °C 2,0 °C 4,8 km/h (1 Bft)
04.11.2017 07:41 2,0 °C 2,1 °C 95 % 1014,4 hPa 0,0 mm 1,3 km/h (1 Bft) W-NW 292 ° 0 min 0,000 mm 0,0 UV-I 39 W/m² 1,3 °C 2,0 °C 4,8 km/h (1 Bft)
04.11.2017 07:42 2,2 °C 2,2 °C 95 % 1014,5 hPa 0,0 mm 1,5 km/h (1 Bft) W-NW 293 ° 0 min 0,000 mm 0,0 UV-I 40 W/m² 1,5 °C 2,2 °C 4,8 km/h (1 Bft)
04.11.2017 07:43 2,3 °C 2,3 °C 95 % 1014,5 hPa 0,0 mm 0,8 km/h (0 Bft) W-NW 293 ° 0 min 0,000 mm 0,0 UV-I 42 W/m² 1,6 °C 2,3 °C 1,6 km/h (1 Bft)
04.11.2017 07:44 2,2 °C 2,3 °C 95 % 1014,5 hPa 0,0 mm 0,0 km/h (0 Bft) W-NW 293 ° 0 min 0,000 mm 0,0 UV-I 42 W/m² 1,5 °C 2,2 °C 0,0 km/h (0 Bft)
04.11.2017 07:45 2,2 °C 2,3 °C 95 % 1014,6 hPa 0,0 mm 0,4 km/h (0 Bft) W-NW 293 ° 0 min 0,000 mm 0,0 UV-I 46 W/m² 1,5 °C 2,2 °C 1,6 km/h (1 Bft)
04.11.2017 07:46 2,2 °C 2,2 °C 95 % 1014,6 hPa 0,0 mm 0,0 km/h (0 Bft) W-NW 293 ° 0 min 0,000 mm 0,0 UV-I 47 W/m² 1,5 °C 2,2 °C 0,0 km/h (0 Bft)
04.11.2017 07:47 2,2 °C 2,2 °C 95 % 1014,6 hPa 0,0 mm 0,0 km/h (0 Bft) W-NW 293 ° 0 min 0,000 mm 0,0 UV-I 47 W/m² 1,5 °C 2,2 °C 0,0 km/h (0 Bft)
04.11.2017 07:48 2,2 °C 2,2 °C 95 % 1014,6 hPa 0,0 mm 0,0 km/h (0 Bft) W-NW 293 ° 0 min 0,000 mm 0,0 UV-I 49 W/m² 1,5 °C 2,2 °C 0,0 km/h (0 Bft)
04.11.2017 07:49 2,2 °C 2,2 °C 95 % 1014,6 hPa 0,0 mm 0,5 km/h (0 Bft) W-NW 293 ° 0 min 0,000 mm 0,0 UV-I 51 W/m² 1,5 °C 2,2 °C 1,6 km/h (1 Bft)
04.11.2017 07:50 2,2 °C 2,3 °C 95 % 1014,6 hPa 0,0 mm 0,0 km/h (0 Bft) W-NW 293 ° 0 min 0,000 mm 0,0 UV-I 53 W/m² 1,5 °C 2,2 °C 0,0 km/h (0 Bft)
04.11.2017 07:51 2,3 °C 2,3 °C 95 % 1014,6 hPa 0,0 mm 0,0 km/h (0 Bft) W-NW 293 ° 0 min 0,000 mm 0,0 UV-I 54 W/m² 1,6 °C 2,3 °C 0,0 km/h (0 Bft)
04.11.2017 07:52 2,3 °C 2,3 °C 95 % 1014,6 hPa 0,0 mm 0,0 km/h (0 Bft) W-NW 293 ° 0 min 0,000 mm 0,0 UV-I 56 W/m² 1,6 °C 2,3 °C 0,0 km/h (0 Bft)
04.11.2017 07:54 2,6 °C 2,6 °C 95 % 1014,6 hPa 0,0 mm 0,7 km/h (0 Bft) SW 217 ° 0 min 0,000 mm 0,0 UV-I 58 W/m² 1,9 °C 2,6 °C 3,2 km/h (1 Bft)
04.11.2017 07:55 2,6 °C 2,6 °C 95 % 1014,6 hPa 0,0 mm 1,1 km/h (1 Bft) W-SW 243 ° 0 min 0,000 mm 0,0 UV-I 58 W/m² 1,9 °C 2,6 °C 3,2 km/h (1 Bft)
04.11.2017 07:56 2,7 °C 2,7 °C 95 % 1014,6 hPa 0,0 mm 1,2 km/h (1 Bft) W-SW 248 ° 0 min 0,000 mm 0,0 UV-I 58 W/m² 2,0 °C 2,7 °C 4,8 km/h (1 Bft)
04.11.2017 07:57 2,7 °C 2,7 °C 95 % 1014,6 hPa 0,0 mm 1,4 km/h (1 Bft) W-SW 248 ° 0 min 0,000 mm 0,0 UV-I 58 W/m² 2,0 °C 2,7 °C 3,2 km/h (1 Bft)
04.11.2017 07:58 2,8 °C 2,8 °C 95 % 1014,6 hPa 0,0 mm 0,0 km/h (0 Bft) W-SW 248 ° 0 min 0,000 mm 0,0 UV-I 58 W/m² 2,1 °C 2,8 °C 0,0 km/h (0 Bft)
04.11.2017 07:59 2,8 °C 2,8 °C 95 % 1014,6 hPa 0,0 mm 0,0 km/h (0 Bft) W-SW 248 ° 0 min 0,000 mm 0,0 UV-I 58 W/m² 2,1 °C 2,8 °C 0,0 km/h (0 Bft)
04.11.2017 08:00 2,8 °C 2,8 °C 95 % 1014,6 hPa 0,0 mm 0,0 km/h (0 Bft) W-SW 248 ° 0 min 0,000 mm 0,0 UV-I 58 W/m² 2,1 °C 2,8 °C 0,0 km/h (0 Bft)
04.11.2017 08:01 3,0 °C 3,0 °C 95 % 1014,6 hPa 0,0 mm 0,0 km/h (0 Bft) W-SW 248 ° 0 min 0,000 mm 0,0 UV-I 60 W/m² 2,3 °C 3,0 °C 0,0 km/h (0 Bft)
04.11.2017 08:02 3,1 °C 3,1 °C 95 % 1014,7 hPa 0,0 mm 0,0 km/h (0 Bft) W-SW 248 ° 0 min 0,000 mm 0,0 UV-I 62 W/m² 2,4 °C 3,1 °C 0,0 km/h (0 Bft)
04.11.2017 08:03 3,2 °C 3,2 °C 95 % 1014,7 hPa 0,0 mm 0,0 km/h (0 Bft) W-SW 248 ° 0 min 0,000 mm 0,0 UV-I 62 W/m² 2,5 °C 3,2 °C 0,0 km/h (0 Bft)
04.11.2017 08:04 3,2 °C 3,2 °C 95 % 1014,7 hPa 0,0 mm 0,0 km/h (0 Bft) W-SW 248 ° 0 min 0,000 mm 0,0 UV-I 63 W/m² 2,5 °C 3,2 °C 0,0 km/h (0 Bft)
04.11.2017 08:05 3,2 °C 3,2 °C 94 % 1014,7 hPa 0,0 mm 0,0 km/h (0 Bft) W-SW 248 ° 0 min 0,000 mm 0,0 UV-I 63 W/m² 2,3 °C 3,2 °C 0,0 km/h (0 Bft)
04.11.2017 08:06 3,3 °C 3,3 °C 94 % 1014,7 hPa 0,0 mm 0,0 km/h (0 Bft) W-SW 248 ° 0 min 0,000 mm 0,0 UV-I 65 W/m² 2,4 °C 3,3 °C 0,0 km/h (0 Bft)
04.11.2017 08:07 3,6 °C 3,6 °C 95 % 1014,7 hPa 0,0 mm 1,9 km/h (1 Bft) S 185 ° 0 min 0,000 mm 0,0 UV-I 65 W/m² 2,9 °C 3,6 °C 3,2 km/h (1 Bft)
04.11.2017 08:08 3,6 °C 3,6 °C 94 % 1014,7 hPa 0,0 mm 0,0 km/h (0 Bft) S 185 ° 0 min 0,000 mm 0,0 UV-I 67 W/m² 2,7 °C 3,6 °C 0,0 km/h (0 Bft)
04.11.2017 08:09 3,6 °C 3,7 °C 94 % 1014,7 hPa 0,0 mm 0,0 km/h (0 Bft) S 185 ° 0 min 0,000 mm 0,0 UV-I 69 W/m² 2,7 °C 3,6 °C 0,0 km/h (0 Bft)
04.11.2017 08:10 3,6 °C 3,6 °C 94 % 1014,6 hPa 0,0 mm 0,0 km/h (0 Bft) S 185 ° 0 min 0,000 mm 0,0 UV-I 70 W/m² 2,7 °C 3,6 °C 0,0 km/h (0 Bft)
04.11.2017 08:11 3,6 °C 3,6 °C 93 % 1014,7 hPa 0,0 mm 0,0 km/h (0 Bft) S 185 ° 0 min 0,000 mm 0,0 UV-I 72 W/m² 2,6 °C 3,6 °C 0,0 km/h (0 Bft)
04.11.2017 08:12 3,7 °C 3,7 °C 94 % 1014,7 hPa 0,0 mm 0,0 km/h (0 Bft) S 185 ° 0 min 0,000 mm 0,0 UV-I 74 W/m² 2,8 °C 3,7 °C 0,0 km/h (0 Bft)
04.11.2017 08:13 3,7 °C 3,7 °C 93 % 1014,8 hPa 0,0 mm 0,0 km/h (0 Bft) S 185 ° 0 min 0,000 mm 0,0 UV-I 74 W/m² 2,7 °C 3,7 °C 0,0 km/h (0 Bft)
04.11.2017 08:14 3,7 °C 3,7 °C 93 % 1014,7 hPa 0,0 mm 0,6 km/h (0 Bft) S 185 ° 0 min 0,000 mm 0,0 UV-I 76 W/m² 2,7 °C 3,7 °C 3,2 km/h (1 Bft)
04.11.2017 08:15 3,7 °C 3,7 °C 93 % 1014,7 hPa 0,0 mm 0,9 km/h (0 Bft) S 185 ° 0 min 0,000 mm 0,0 UV-I 76 W/m² 2,7 °C 3,7 °C 3,2 km/h (1 Bft)
04.11.2017 08:16 3,7 °C 3,7 °C 93 % 1014,7 hPa 0,0 mm 0,0 km/h (0 Bft) S 185 ° 0 min 0,000 mm 0,0 UV-I 76 W/m² 2,7 °C 3,7 °C 0,0 km/h (0 Bft)
04.11.2017 08:17 3,6 °C 3,7 °C 93 % 1014,8 hPa 0,0 mm 0,0 km/h (0 Bft) S 185 ° 0 min 0,000 mm 0,0 UV-I 76 W/m² 2,6 °C 3,6 °C 0,0 km/h (0 Bft)
04.11.2017 08:18 3,6 °C 3,6 °C 93 % 1014,8 hPa 0,2 mm 0,0 km/h (0 Bft) S 185 ° 0 min 0,000 mm 0,0 UV-I 76 W/m² 2,6 °C 3,6 °C 0,0 km/h (0 Bft)
04.11.2017 08:19 3,7 °C 3,7 °C 94 % 1014,8 hPa 0,0 mm 0,0 km/h (0 Bft) S 185 ° 0 min 0,000 mm 0,0 UV-I 76 W/m² 2,8 °C 3,7 °C 0,0 km/h (0 Bft)
04.11.2017 08:20 3,6 °C 3,7 °C 94 % 1014,7 hPa 0,0 mm 0,0 km/h (0 Bft) S 185 ° 0 min 0,000 mm 0,0 UV-I 74 W/m² 2,7 °C 3,6 °C 0,0 km/h (0 Bft)
04.11.2017 08:21 3,7 °C 3,7 °C 94 % 1014,7 hPa 0,0 mm 0,0 km/h (0 Bft) S 185 ° 0 min 0,000 mm 0,0 UV-I 72 W/m² 2,8 °C 3,7 °C 0,0 km/h (0 Bft)
04.11.2017 08:22 3,7 °C 3,7 °C 94 % 1014,7 hPa 0,0 mm 0,0 km/h (0 Bft) S 185 ° 0 min 0,000 mm 0,0 UV-I 72 W/m² 2,8 °C 3,7 °C 0,0 km/h (0 Bft)
04.11.2017 08:23 3,7 °C 3,7 °C 94 % 1014,7 hPa 0,0 mm 0,0 km/h (0 Bft) S 185 ° 0 min 0,000 mm 0,0 UV-I 70 W/m² 2,8 °C 3,7 °C 0,0 km/h (0 Bft)
04.11.2017 08:24 3,7 °C 3,8 °C 94 % 1014,7 hPa 0,0 mm 0,0 km/h (0 Bft) S 185 ° 0 min 0,000 mm 0,0 UV-I 70 W/m² 2,8 °C 3,7 °C 0,0 km/h (0 Bft)
04.11.2017 08:25 3,8 °C 3,8 °C 93 % 1014,8 hPa 0,0 mm 0,0 km/h (0 Bft) S 185 ° 0 min 0,000 mm 0,0 UV-I 70 W/m² 2,8 °C 3,8 °C 0,0 km/h (0 Bft)
04.11.2017 08:26 3,8 °C 3,8 °C 94 % 1014,7 hPa 0,0 mm 0,0 km/h (0 Bft) S 185 ° 0 min 0,000 mm 0,0 UV-I 69 W/m² 2,9 °C 3,8 °C 0,0 km/h (0 Bft)
04.11.2017 08:27 3,9 °C 3,9 °C 94 % 1014,8 hPa 0,0 mm 0,0 km/h (0 Bft) S 185 ° 0 min 0,000 mm 0,0 UV-I 69 W/m² 3,0 °C 3,9 °C 0,0 km/h (0 Bft)
04.11.2017 08:28 4,1 °C 4,1 °C 94 % 1014,8 hPa 0,0 mm 0,0 km/h (0 Bft) S 185 ° 0 min 0,000 mm 0,0 UV-I 69 W/m² 3,2 °C 4,1 °C 0,0 km/h (0 Bft)
04.11.2017 08:29 4,2 °C 4,2 °C 94 % 1014,8 hPa 0,0 mm 0,0 km/h (0 Bft) S 185 ° 0 min 0,000 mm 0,0 UV-I 69 W/m² 3,3 °C 4,2 °C 0,0 km/h (0 Bft)
04.11.2017 08:30 4,2 °C 4,2 °C 94 % 1014,8 hPa 0,0 mm 0,0 km/h (0 Bft) S 185 ° 0 min 0,000 mm 0,0 UV-I 69 W/m² 3,3 °C 4,2 °C 0,0 km/h (0 Bft)
04.11.2017 08:31 4,2 °C 4,2 °C 94 % 1014,8 hPa 0,0 mm 0,0 km/h (0 Bft) S 185 ° 0 min 0,000 mm 0,0 UV-I 69 W/m² 3,3 °C 4,2 °C 0,0 km/h (0 Bft)
04.11.2017 08:32 4,2 °C 4,2 °C 94 % 1014,8 hPa 0,0 mm 0,0 km/h (0 Bft) S 185 ° 0 min 0,000 mm 0,0 UV-I 69 W/m² 3,3 °C 4,2 °C 0,0 km/h (0 Bft)
04.11.2017 08:33 4,2 °C 4,2 °C 94 % 1014,8 hPa 0,0 mm 0,0 km/h (0 Bft) S 185 ° 0 min 0,000 mm 0,0 UV-I 69 W/m² 3,3 °C 4,2 °C 0,0 km/h (0 Bft)
04.11.2017 08:34 4,3 °C 4,3 °C 94 % 1014,8 hPa 0,0 mm 0,0 km/h (0 Bft) S 185 ° 0 min 0,000 mm 0,0 UV-I 67 W/m² 3,4 °C 4,3 °C 0,0 km/h (0 Bft)
04.11.2017 08:35 4,3 °C 4,3 °C 94 % 1014,8 hPa 0,0 mm 0,0 km/h (0 Bft) S 185 ° 0 min 0,000 mm 0,0 UV-I 67 W/m² 3,4 °C 4,3 °C 0,0 km/h (0 Bft)
04.11.2017 08:36 4,3 °C 4,3 °C 94 % 1014,8 hPa 0,0 mm 0,0 km/h (0 Bft) S 185 ° 0 min 0,000 mm 0,0 UV-I 67 W/m² 3,4 °C 4,3 °C 0,0 km/h (0 Bft)
04.11.2017 08:37 4,4 °C 4,4 °C 94 % 1014,8 hPa 0,0 mm 0,0 km/h (0 Bft) S 185 ° 0 min 0,000 mm 0,0 UV-I 65 W/m² 3,5 °C 4,4 °C 0,0 km/h (0 Bft)
04.11.2017 08:38 4,5 °C 4,5 °C 94 % 1014,8 hPa 0,0 mm 0,0 km/h (0 Bft) S 185 ° 0 min 0,000 mm 0,0 UV-I 63 W/m² 3,6 °C 4,5 °C 0,0 km/h (0 Bft)
04.11.2017 08:39 4,6 °C 4,6 °C 93 % 1014,8 hPa 0,0 mm 0,0 km/h (0 Bft) S 185 ° 0 min 0,000 mm 0,0 UV-I 63 W/m² 3,6 °C 4,6 °C 0,0 km/h (0 Bft)
04.11.2017 08:40 4,6 °C 4,6 °C 93 % 1014,8 hPa 0,0 mm 0,0 km/h (0 Bft) S 185 ° 0 min 0,000 mm 0,0 UV-I 62 W/m² 3,6 °C 4,6 °C 0,0 km/h (0 Bft)
04.11.2017 08:41 4,7 °C 4,7 °C 93 % 1014,9 hPa 0,0 mm 0,0 km/h (0 Bft) S 185 ° 0 min 0,000 mm 0,0 UV-I 62 W/m² 3,7 °C 4,7 °C 0,0 km/h (0 Bft)
04.11.2017 08:42 4,8 °C 4,8 °C 93 % 1014,9 hPa 0,0 mm 0,0 km/h (0 Bft) S 185 ° 0 min 0,000 mm 0,0 UV-I 60 W/m² 3,8 °C 4,8 °C 0,0 km/h (0 Bft)
04.11.2017 08:43 4,8 °C 4,8 °C 93 % 1014,9 hPa 0,0 mm 0,0 km/h (0 Bft) S 185 ° 0 min 0,000 mm 0,0 UV-I 60 W/m² 3,8 °C 4,8 °C 0,0 km/h (0 Bft)
04.11.2017 08:44 4,8 °C 4,8 °C 93 % 1014,9 hPa 0,0 mm 0,0 km/h (0 Bft) S 185 ° 0 min 0,000 mm 0,0 UV-I 58 W/m² 3,8 °C 4,8 °C 0,0 km/h (0 Bft)
04.11.2017 08:45 4,9 °C 4,9 °C 93 % 1014,9 hPa 0,0 mm 0,0 km/h (0 Bft) S 185 ° 0 min 0,000 mm 0,0 UV-I 58 W/m² 3,9 °C 4,9 °C 0,0 km/h (0 Bft)
04.11.2017 08:46 4,9 °C 4,9 °C 93 % 1014,9 hPa 0,0 mm 0,0 km/h (0 Bft) S 185 ° 0 min 0,000 mm 0,0 UV-I 58 W/m² 3,9 °C 4,9 °C 0,0 km/h (0 Bft)
04.11.2017 08:47 5,0 °C 5,0 °C 92 % 1014,9 hPa 0,0 mm 0,0 km/h (0 Bft) S 185 ° 0 min 0,000 mm 0,0 UV-I 58 W/m² 3,8 °C 5,0 °C 0,0 km/h (0 Bft)
04.11.2017 08:48 5,1 °C 5,1 °C 92 % 1014,9 hPa 0,0 mm 0,0 km/h (0 Bft) S 185 ° 0 min 0,000 mm 0,0 UV-I 58 W/m² 3,9 °C 5,1 °C 0,0 km/h (0 Bft)
04.11.2017 08:49 5,1 °C 5,1 °C 92 % 1014,9 hPa 0,0 mm 0,0 km/h (0 Bft) S 185 ° 0 min 0,000 mm 0,0 UV-I 58 W/m² 3,9 °C 5,1 °C 0,0 km/h (0 Bft)
04.11.2017 08:50 5,2 °C 5,2 °C 92 % 1014,9 hPa 0,0 mm 0,0 km/h (0 Bft) S 185 ° 0 min 0,000 mm 0,0 UV-I 58 W/m² 4,0 °C 5,2 °C 0,0 km/h (0 Bft)
04.11.2017 08:51 5,2 °C 5,2 °C 92 % 1014,9 hPa 0,0 mm 0,0 km/h (0 Bft) S 185 ° 0 min 0,000 mm 0,0 UV-I 58 W/m² 4,0 °C 5,2 °C 0,0 km/h (0 Bft)
04.11.2017 08:52 5,2 °C 5,2 °C 92 % 1014,9 hPa 0,0 mm 0,0 km/h (0 Bft) S 185 ° 0 min 0,000 mm 0,0 UV-I 58 W/m² 4,0 °C 5,2 °C 0,0 km/h (0 Bft)
04.11.2017 08:53 5,2 °C 5,3 °C 92 % 1014,9 hPa 0,0 mm 0,0 km/h (0 Bft) S 185 ° 0 min 0,000 mm 0,0 UV-I 58 W/m² 4,0 °C 5,2 °C 0,0 km/h (0 Bft)
04.11.2017 08:54 5,3 °C 5,3 °C 92 % 1014,9 hPa 0,0 mm 0,0 km/h (0 Bft) S 185 ° 0 min 0,000 mm 0,5 UV-I 60 W/m² 4,1 °C 5,3 °C 0,0 km/h (0 Bft)
04.11.2017 08:55 5,3 °C 5,3 °C 92 % 1014,9 hPa 0,0 mm 0,0 km/h (0 Bft) S 185 ° 0 min 0,000 mm 0,5 UV-I 60 W/m² 4,1 °C 5,3 °C 0,0 km/h (0 Bft)
04.11.2017 08:56 5,3 °C 5,3 °C 92 % 1014,9 hPa 0,0 mm 0,0 km/h (0 Bft) S 185 ° 0 min 0,000 mm 0,5 UV-I 60 W/m² 4,1 °C 5,3 °C 0,0 km/h (0 Bft)
04.11.2017 08:57 5,3 °C 5,3 °C 92 % 1014,9 hPa 0,0 mm 0,0 km/h (0 Bft) S 185 ° 0 min 0,000 mm 0,5 UV-I 62 W/m² 4,1 °C 5,3 °C 0,0 km/h (0 Bft)
04.11.2017 08:58 5,3 °C 5,3 °C 93 % 1014,9 hPa 0,0 mm 0,0 km/h (0 Bft) S 185 ° 0 min 0,000 mm 0,5 UV-I 62 W/m² 4,3 °C 5,3 °C 0,0 km/h (0 Bft)
04.11.2017 08:59 5,2 °C 5,3 °C 92 % 1014,9 hPa 0,0 mm 0,0 km/h (0 Bft) S 185 ° 0 min 0,000 mm 0,5 UV-I 63 W/m² 4,0 °C 5,2 °C 0,0 km/h (0 Bft)
04.11.2017 09:00 5,3 °C 5,3 °C 92 % 1014,9 hPa 0,0 mm 0,0 km/h (0 Bft) S 185 ° 0 min 0,000 mm 0,5 UV-I 63 W/m² 4,1 °C 5,3 °C 0,0 km/h (0 Bft)
04.11.2017 09:01 5,3 °C 5,3 °C 93 % 1014,9 hPa 0,0 mm 0,0 km/h (0 Bft) S 185 ° 0 min 0,025 mm 0,5 UV-I 65 W/m² 4,3 °C 5,3 °C 0,0 km/h (0 Bft)
04.11.2017 09:02 5,3 °C 5,3 °C 93 % 1014,9 hPa 0,0 mm 0,0 km/h (0 Bft) S 185 ° 0 min 0,000 mm 0,6 UV-I 69 W/m² 4,3 °C 5,3 °C 0,0 km/h (0 Bft)
04.11.2017 09:03 5,3 °C 5,3 °C 92 % 1014,9 hPa 0,0 mm 0,0 km/h (0 Bft) S 185 ° 0 min 0,000 mm 0,6 UV-I 72 W/m² 4,1 °C 5,3 °C 0,0 km/h (0 Bft)
04.11.2017 09:04 5,3 °C 5,3 °C 93 % 1014,9 hPa 0,0 mm 0,0 km/h (0 Bft) S 185 ° 0 min 0,000 mm 0,6 UV-I 74 W/m² 4,3 °C 5,3 °C 0,0 km/h (0 Bft)
04.11.2017 09:05 5,3 °C 5,3 °C 93 % 1014,9 hPa 0,0 mm 0,0 km/h (0 Bft) S 185 ° 0 min 0,000 mm 0,6 UV-I 76 W/m² 4,3 °C 5,3 °C 0,0 km/h (0 Bft)
04.11.2017 09:06 5,3 °C 5,3 °C 93 % 1014,9 hPa 0,0 mm 0,0 km/h (0 Bft) S 185 ° 0 min 0,000 mm 0,6 UV-I 77 W/m² 4,3 °C 5,3 °C 0,0 km/h (0 Bft)
04.11.2017 09:07 5,4 °C 5,4 °C 93 % 1014,9 hPa 0,0 mm 0,0 km/h (0 Bft) S 185 ° 0 min 0,000 mm 0,6 UV-I 79 W/m² 4,4 °C 5,4 °C 0,0 km/h (0 Bft)
04.11.2017 09:08 5,4 °C 5,4 °C 93 % 1014,8 hPa 0,0 mm 0,0 km/h (0 Bft) S 185 ° 0 min 0,000 mm 0,6 UV-I 81 W/m² 4,4 °C 5,4 °C 0,0 km/h (0 Bft)
04.11.2017 09:09 5,4 °C 5,4 °C 93 % 1014,9 hPa 0,0 mm 0,0 km/h (0 Bft) S 185 ° 0 min 0,000 mm 0,7 UV-I 83 W/m² 4,4 °C 5,4 °C 0,0 km/h (0 Bft)
04.11.2017 09:10 5,4 °C 5,5 °C 93 % 1014,9 hPa 0,0 mm 0,0 km/h (0 Bft) S 185 ° 0 min 0,000 mm 0,7 UV-I 83 W/m² 4,4 °C 5,4 °C 0,0 km/h (0 Bft)
04.11.2017 09:11 5,5 °C 5,5 °C 93 % 1014,9 hPa 0,0 mm 0,0 km/h (0 Bft) S 185 ° 0 min 0,000 mm 0,7 UV-I 84 W/m² 4,5 °C 5,5 °C 0,0 km/h (0 Bft)
04.11.2017 09:12 5,5 °C 5,6 °C 93 % 1014,9 hPa 0,0 mm 0,0 km/h (0 Bft) S 185 ° 0 min 0,000 mm 0,7 UV-I 84 W/m² 4,5 °C 5,5 °C 0,0 km/h (0 Bft)
04.11.2017 09:13 5,6 °C 5,6 °C 93 % 1014,9 hPa 0,0 mm 0,0 km/h (0 Bft) S 185 ° 0 min 0,000 mm 0,7 UV-I 88 W/m² 4,6 °C 5,6 °C 0,0 km/h (0 Bft)
04.11.2017 09:14 5,6 °C 5,6 °C 93 % 1014,9 hPa 0,0 mm 0,0 km/h (0 Bft) S 185 ° 0 min 0,000 mm 0,7 UV-I 90 W/m² 4,6 °C 5,6 °C 0,0 km/h (0 Bft)
04.11.2017 09:15 5,7 °C 5,7 °C 93 % 1014,9 hPa 0,0 mm 0,0 km/h (0 Bft) S 185 ° 0 min 0,000 mm 0,7 UV-I 90 W/m² 4,7 °C 5,7 °C 0,0 km/h (0 Bft)
04.11.2017 09:16 5,8 °C 5,8 °C 93 % 1014,9 hPa 0,0 mm 0,0 km/h (0 Bft) S 185 ° 0 min 0,000 mm 0,8 UV-I 91 W/m² 4,8 °C 5,8 °C 0,0 km/h (0 Bft)
04.11.2017 09:17 5,9 °C 5,9 °C 92 % 1015,0 hPa 0,0 mm 0,0 km/h (0 Bft) S 185 ° 0 min 0,000 mm 0,8 UV-I 93 W/m² 4,7 °C 5,9 °C 0,0 km/h (0 Bft)
04.11.2017 09:18 6,1 °C 6,1 °C 92 % 1014,9 hPa 0,0 mm 0,0 km/h (0 Bft) S 185 ° 0 min 0,000 mm 0,8 UV-I 95 W/m² 4,9 °C 6,1 °C 0,0 km/h (0 Bft)
04.11.2017 09:19 6,2 °C 6,2 °C 92 % 1014,9 hPa 0,0 mm 0,0 km/h (0 Bft) S 185 ° 0 min 0,000 mm 0,8 UV-I 97 W/m² 5,0 °C 6,2 °C 0,0 km/h (0 Bft)
04.11.2017 09:20 6,3 °C 6,3 °C 91 % 1014,9 hPa 0,0 mm 0,3 km/h (0 Bft) S 185 ° 0 min 0,000 mm 0,8 UV-I 98 W/m² 4,9 °C 6,3 °C 1,6 km/h (1 Bft)
04.11.2017 09:21 6,4 °C 6,4 °C 91 % 1014,9 hPa 0,0 mm 0,1 km/h (0 Bft) S 185 ° 0 min 0,000 mm 0,8 UV-I 100 W/m² 5,0 °C 6,4 °C 1,6 km/h (1 Bft)
04.11.2017 09:22 6,5 °C 6,5 °C 91 % 1014,9 hPa 0,0 mm 0,0 km/h (0 Bft) S 185 ° 0 min 0,000 mm 0,8 UV-I 100 W/m² 5,1 °C 6,5 °C 0,0 km/h (0 Bft)
04.11.2017 09:23 6,5 °C 6,6 °C 92 % 1014,9 hPa 0,0 mm 0,0 km/h (0 Bft) S 185 ° 0 min 0,000 mm 0,8 UV-I 102 W/m² 5,3 °C 6,5 °C 0,0 km/h (0 Bft)
04.11.2017 09:24 6,5 °C 6,5 °C 92 % 1014,9 hPa 0,0 mm 0,6 km/h (0 Bft) S 185 ° 0 min 0,000 mm 0,8 UV-I 104 W/m² 5,3 °C 6,5 °C 3,2 km/h (1 Bft)
04.11.2017 09:25 6,6 °C 6,6 °C 91 % 1014,9 hPa 0,0 mm 4,1 km/h (1 Bft) W-SW 255 ° 0 min 0,000 mm 0,8 UV-I 107 W/m² 5,2 °C 6,6 °C 6,4 km/h (2 Bft)
04.11.2017 09:26 6,6 °C 6,6 °C 91 % 1015,0 hPa 0,0 mm 0,5 km/h (0 Bft) W-SW 255 ° 0 min 0,000 mm 0,8 UV-I 107 W/m² 5,2 °C 6,6 °C 3,2 km/h (1 Bft)
04.11.2017 09:27 6,6 °C 6,6 °C 91 % 1014,9 hPa 0,0 mm 0,0 km/h (0 Bft) W-SW 255 ° 0 min 0,000 mm 0,9 UV-I 109 W/m² 5,2 °C 6,6 °C 0,0 km/h (0 Bft)
04.11.2017 09:28 6,6 °C 6,6 °C 91 % 1015,0 hPa 0,0 mm 0,0 km/h (0 Bft) W-SW 255 ° 0 min 0,000 mm 0,9 UV-I 113 W/m² 5,2 °C 6,6 °C 0,0 km/h (0 Bft)
04.11.2017 09:29 6,6 °C 6,6 °C 90 % 1014,9 hPa 0,0 mm 0,0 km/h (0 Bft) W-SW 255 ° 0 min 0,000 mm 0,9 UV-I 114 W/m² 5,1 °C 6,6 °C 0,0 km/h (0 Bft)
04.11.2017 09:30 6,6 °C 6,6 °C 90 % 1014,9 hPa 0,0 mm 0,0 km/h (0 Bft) W-SW 255 ° 0 min 0,000 mm 0,9 UV-I 116 W/m² 5,1 °C 6,6 °C 0,0 km/h (0 Bft)
04.11.2017 09:31 6,6 °C 6,6 °C 91 % 1014,9 hPa 0,0 mm 0,0 km/h (0 Bft) W-SW 255 ° 0 min 0,000 mm 0,9 UV-I 121 W/m² 5,2 °C 6,6 °C 0,0 km/h (0 Bft)
04.11.2017 09:32 6,6 °C 6,6 °C 91 % 1014,9 hPa 0,0 mm 0,0 km/h (0 Bft) W-SW 255 ° 0 min 0,000 mm 0,9 UV-I 121 W/m² 5,2 °C 6,6 °C 0,0 km/h (0 Bft)
04.11.2017 09:33 6,7 °C 6,7 °C 91 % 1014,9 hPa 0,0 mm 0,0 km/h (0 Bft) W-SW 255 ° 0 min 0,000 mm 0,9 UV-I 123 W/m² 5,3 °C 6,7 °C 0,0 km/h (0 Bft)
04.11.2017 09:34 6,7 °C 6,7 °C 91 % 1014,8 hPa 0,0 mm 0,0 km/h (0 Bft) W-SW 255 ° 0 min 0,000 mm 0,9 UV-I 125 W/m² 5,3 °C 6,7 °C 0,0 km/h (0 Bft)
04.11.2017 09:35 6,7 °C 6,7 °C 91 % 1014,8 hPa 0,0 mm 0,0 km/h (0 Bft) W-SW 255 ° 0 min 0,000 mm 0,9 UV-I 127 W/m² 5,3 °C 6,7 °C 0,0 km/h (0 Bft)
04.11.2017 09:36 6,7 °C 6,7 °C 91 % 1014,9 hPa 0,0 mm 0,0 km/h (0 Bft) W-SW 255 ° 0 min 0,000 mm 0,9 UV-I 127 W/m² 5,3 °C 6,7 °C 0,0 km/h (0 Bft)
04.11.2017 09:37 6,8 °C 6,8 °C 91 % 1014,9 hPa 0,0 mm 0,0 km/h (0 Bft) W-SW 255 ° 0 min 0,000 mm 0,9 UV-I 128 W/m² 5,4 °C 6,8 °C 0,0 km/h (0 Bft)
04.11.2017 09:38 6,8 °C 6,8 °C 91 % 1014,8 hPa 0,0 mm 0,0 km/h (0 Bft) W-SW 255 ° 0 min 0,000 mm 0,9 UV-I 128 W/m² 5,4 °C 6,8 °C 0,0 km/h (0 Bft)
04.11.2017 09:39 6,9 °C 6,9 °C 91 % 1014,8 hPa 0,0 mm 0,0 km/h (0 Bft) W-SW 255 ° 0 min 0,000 mm 0,9 UV-I 127 W/m² 5,5 °C 6,9 °C 0,0 km/h (0 Bft)
04.11.2017 09:40 6,9 °C 6,9 °C 92 % 1014,8 hPa 0,0 mm 0,0 km/h (0 Bft) W-SW 255 ° 0 min 0,000 mm 0,9 UV-I 127 W/m² 5,7 °C 6,9 °C 0,0 km/h (0 Bft)
04.11.2017 09:41 7,0 °C 7,0 °C 91 % 1014,8 hPa 0,0 mm 0,0 km/h (0 Bft) W-SW 255 ° 0 min 0,000 mm 0,9 UV-I 125 W/m² 5,6 °C 7,0 °C 0,0 km/h (0 Bft)
04.11.2017 09:42 7,1 °C 7,1 °C 91 % 1014,8 hPa 0,0 mm 0,0 km/h (0 Bft) W-SW 255 ° 0 min 0,000 mm 0,9 UV-I 123 W/m² 5,7 °C 7,1 °C 0,0 km/h (0 Bft)
04.11.2017 09:43 7,1 °C 7,1 °C 91 % 1014,9 hPa 0,0 mm 0,0 km/h (0 Bft) W-SW 255 ° 0 min 0,000 mm 0,9 UV-I 121 W/m² 5,7 °C 7,1 °C 0,0 km/h (0 Bft)
04.11.2017 09:44 7,1 °C 7,2 °C 90 % 1014,8 hPa 0,0 mm 0,0 km/h (0 Bft) W-SW 255 ° 0 min 0,000 mm 0,9 UV-I 121 W/m² 5,6 °C 7,1 °C 0,0 km/h (0 Bft)
04.11.2017 09:45 7,2 °C 7,2 °C 90 % 1014,8 hPa 0,0 mm 0,0 km/h (0 Bft) W-SW 255 ° 0 min 0,000 mm 0,9 UV-I 120 W/m² 5,7 °C 7,2 °C 0,0 km/h (0 Bft)
04.11.2017 09:46 7,2 °C 7,2 °C 90 % 1014,8 hPa 0,0 mm 0,0 km/h (0 Bft) W-SW 255 ° 0 min 0,000 mm 0,9 UV-I 120 W/m² 5,7 °C 7,2 °C 0,0 km/h (0 Bft)
04.11.2017 09:47 7,3 °C 7,3 °C 90 % 1014,8 hPa 0,0 mm 0,0 km/h (0 Bft) W-SW 255 ° 0 min 0,000 mm 0,9 UV-I 118 W/m² 5,8 °C 7,3 °C 0,0 km/h (0 Bft)
04.11.2017 09:48 7,4 °C 7,4 °C 90 % 1014,8 hPa 0,0 mm 0,0 km/h (0 Bft) W-SW 255 ° 0 min 0,000 mm 0,9 UV-I 114 W/m² 5,9 °C 7,4 °C 0,0 km/h (0 Bft)
04.11.2017 09:49 7,4 °C 7,4 °C 90 % 1014,8 hPa 0,0 mm 0,0 km/h (0 Bft) W-SW 255 ° 0 min 0,000 mm 0,9 UV-I 114 W/m² 5,9 °C 7,4 °C 0,0 km/h (0 Bft)
04.11.2017 09:50 7,5 °C 7,5 °C 90 % 1014,8 hPa 0,0 mm 0,0 km/h (0 Bft) W-SW 255 ° 0 min 0,000 mm 0,9 UV-I 114 W/m² 6,0 °C 7,5 °C 0,0 km/h (0 Bft)
04.11.2017 09:51 7,6 °C 7,6 °C 90 % 1014,8 hPa 0,0 mm 0,0 km/h (0 Bft) W-SW 255 ° 0 min 0,000 mm 0,9 UV-I 114 W/m² 6,1 °C 7,6 °C 0,0 km/h (0 Bft)
04.11.2017 09:52 7,7 °C 7,7 °C 91 % 1014,9 hPa 0,0 mm 0,0 km/h (0 Bft) W-SW 255 ° 0 min 0,000 mm 0,9 UV-I 114 W/m² 6,3 °C 7,7 °C 0,0 km/h (0 Bft)
04.11.2017 09:53 7,7 °C 7,7 °C 91 % 1014,8 hPa 0,0 mm 0,0 km/h (0 Bft) W-SW 255 ° 0 min 0,000 mm 0,9 UV-I 114 W/m² 6,3 °C 7,7 °C 0,0 km/h (0 Bft)
04.11.2017 09:54 7,7 °C 7,7 °C 91 % 1014,8 hPa 0,0 mm 0,0 km/h (0 Bft) W-SW 255 ° 0 min 0,000 mm 1,0 UV-I 116 W/m² 6,3 °C 7,7 °C 0,0 km/h (0 Bft)
04.11.2017 09:55 7,7 °C 7,7 °C 90 % 1014,8 hPa 0,0 mm 0,0 km/h (0 Bft) W-SW 255 ° 0 min 0,000 mm 1,0 UV-I 118 W/m² 6,2 °C 7,7 °C 0,0 km/h (0 Bft)
04.11.2017 09:56 7,8 °C 7,8 °C 90 % 1014,8 hPa 0,0 mm 0,0 km/h (0 Bft) W-SW 255 ° 0 min 0,000 mm 1,0 UV-I 118 W/m² 6,3 °C 7,8 °C 0,0 km/h (0 Bft)
04.11.2017 09:57 7,8 °C 7,8 °C 90 % 1014,7 hPa 0,0 mm 0,0 km/h (0 Bft) W-SW 255 ° 0 min 0,000 mm 1,0 UV-I 118 W/m² 6,3 °C 7,8 °C 0,0 km/h (0 Bft)
04.11.2017 09:58 7,9 °C 7,9 °C 90 % 1014,8 hPa 0,0 mm 0,0 km/h (0 Bft) W-SW 255 ° 0 min 0,000 mm 1,0 UV-I 118 W/m² 6,4 °C 7,9 °C 0,0 km/h (0 Bft)
04.11.2017 09:59 7,9 °C 7,9 °C 90 % 1014,8 hPa 0,0 mm 0,0 km/h (0 Bft) W-SW 255 ° 0 min 0,000 mm 1,0 UV-I 118 W/m² 6,4 °C 7,9 °C 0,0 km/h (0 Bft)
04.11.2017 10:00 7,9 °C 7,9 °C 91 % 1014,7 hPa 0,0 mm 0,0 km/h (0 Bft) W-SW 255 ° 0 min 0,051 mm 1,0 UV-I 118 W/m² 6,5 °C 7,9 °C 0,0 km/h (0 Bft)
04.11.2017 10:01 7,9 °C 7,9 °C 91 % 1014,7 hPa 0,0 mm 0,0 km/h (0 Bft) W-SW 255 ° 0 min 0,000 mm 1,0 UV-I 120 W/m² 6,5 °C 7,9 °C 0,0 km/h (0 Bft)
04.11.2017 10:02 8,0 °C 8,0 °C 90 % 1014,8 hPa 0,0 mm 0,0 km/h (0 Bft) W-SW 255 ° 0 min 0,000 mm 1,0 UV-I 120 W/m² 6,5 °C 8,0 °C 0,0 km/h (0 Bft)
04.11.2017 10:03 8,0 °C 8,0 °C 90 % 1014,8 hPa 0,0 mm 0,0 km/h (0 Bft) W-SW 255 ° 0 min 0,000 mm 1,0 UV-I 120 W/m² 6,5 °C 8,0 °C 0,0 km/h (0 Bft)
04.11.2017 10:04 8,0 °C 8,0 °C 90 % 1014,8 hPa 0,0 mm 0,0 km/h (0 Bft) W-SW 255 ° 0 min 0,000 mm 1,0 UV-I 120 W/m² 6,5 °C 8,0 °C 0,0 km/h (0 Bft)
04.11.2017 10:05 8,1 °C 8,1 °C 90 % 1014,8 hPa 0,0 mm 0,0 km/h (0 Bft) W-SW 255 ° 0 min 0,000 mm 1,0 UV-I 120 W/m² 6,6 °C 8,1 °C 0,0 km/h (0 Bft)
04.11.2017 10:06 8,2 °C 8,2 °C 90 % 1014,8 hPa 0,0 mm 0,0 km/h (0 Bft) W-SW 255 ° 0 min 0,000 mm 1,0 UV-I 121 W/m² 6,7 °C 8,2 °C 0,0 km/h (0 Bft)
04.11.2017 10:07 8,3 °C 8,3 °C 90 % 1014,7 hPa 0,0 mm 0,0 km/h (0 Bft) W-SW 255 ° 0 min 0,000 mm 1,1 UV-I 123 W/m² 6,8 °C 8,3 °C 0,0 km/h (0 Bft)
04.11.2017 10:08 8,3 °C 8,3 °C 90 % 1014,7 hPa 0,0 mm 0,0 km/h (0 Bft) W-SW 255 ° 0 min 0,000 mm 1,1 UV-I 123 W/m² 6,8 °C 8,3 °C 0,0 km/h (0 Bft)
04.11.2017 10:09 8,3 °C 8,3 °C 91 % 1014,7 hPa 0,0 mm 2,6 km/h (1 Bft) W-NW 290 ° 0 min 0,000 mm 1,1 UV-I 121 W/m² 6,9 °C 8,3 °C 4,8 km/h (1 Bft)
04.11.2017 10:10 8,3 °C 8,3 °C 90 % 1014,7 hPa 0,0 mm 0,9 km/h (0 Bft) W-NW 290 ° 0 min 0,000 mm 1,1 UV-I 120 W/m² 6,8 °C 8,3 °C 3,2 km/h (1 Bft)
04.11.2017 10:11 8,4 °C 8,4 °C 90 % 1014,8 hPa 0,0 mm 0,0 km/h (0 Bft) W-NW 290 ° 0 min 0,000 mm 1,1 UV-I 120 W/m² 6,9 °C 8,4 °C 0,0 km/h (0 Bft)
04.11.2017 10:12 8,5 °C 8,5 °C 89 % 1014,8 hPa 0,0 mm 0,0 km/h (0 Bft) W-NW 290 ° 0 min 0,000 mm 1,1 UV-I 118 W/m² 6,8 °C 8,5 °C 0,0 km/h (0 Bft)
04.11.2017 10:13 8,6 °C 8,6 °C 89 % 1014,7 hPa 0,0 mm 0,0 km/h (0 Bft) W-NW 290 ° 0 min 0,000 mm 1,1 UV-I 118 W/m² 6,9 °C 8,6 °C 0,0 km/h (0 Bft)
04.11.2017 10:14 8,6 °C 8,6 °C 89 % 1014,7 hPa 0,0 mm 0,0 km/h (0 Bft) W-NW 290 ° 0 min 0,000 mm 1,1 UV-I 118 W/m² 6,9 °C 8,6 °C 0,0 km/h (0 Bft)
04.11.2017 10:15 8,6 °C 8,6 °C 87 % 1014,7 hPa 0,0 mm 0,0 km/h (0 Bft) W-NW 290 ° 0 min 0,000 mm 1,1 UV-I 118 W/m² 6,6 °C 8,6 °C 0,0 km/h (0 Bft)
04.11.2017 10:16 8,7 °C 8,7 °C 88 % 1014,7 hPa 0,0 mm 0,0 km/h (0 Bft) W-NW 290 ° 0 min 0,000 mm 1,1 UV-I 120 W/m² 6,8 °C 8,7 °C 0,0 km/h (0 Bft)
04.11.2017 10:17 8,7 °C 8,7 °C 89 % 1014,6 hPa 0,0 mm 0,0 km/h (0 Bft) W-NW 290 ° 0 min 0,000 mm 1,1 UV-I 120 W/m² 7,0 °C 8,7 °C 0,0 km/h (0 Bft)
04.11.2017 10:18 8,7 °C 8,7 °C 88 % 1014,7 hPa 0,0 mm 0,0 km/h (0 Bft) W-NW 290 ° 0 min 0,000 mm 1,1 UV-I 120 W/m² 6,8 °C 8,7 °C 0,0 km/h (0 Bft)
04.11.2017 10:19 8,7 °C 8,7 °C 89 % 1014,7 hPa 0,0 mm 0,0 km/h (0 Bft) W-NW 290 ° 0 min 0,000 mm 1,1 UV-I 120 W/m² 7,0 °C 8,7 °C 0,0 km/h (0 Bft)
04.11.2017 10:20 8,7 °C 8,7 °C 88 % 1014,7 hPa 0,0 mm 0,0 km/h (0 Bft) W-NW 290 ° 0 min 0,000 mm 1,1 UV-I 120 W/m² 6,8 °C 8,7 °C 0,0 km/h (0 Bft)
04.11.2017 10:21 8,8 °C 8,8 °C 87 % 1014,7 hPa 0,0 mm 0,0 km/h (0 Bft) W-NW 290 ° 0 min 0,000 mm 1,1 UV-I 118 W/m² 6,8 °C 8,8 °C 0,0 km/h (0 Bft)
04.11.2017 10:22 8,8 °C 8,8 °C 86 % 1014,7 hPa 0,0 mm 0,0 km/h (0 Bft) W-NW 290 ° 0 min 0,000 mm 1,1 UV-I 116 W/m² 6,6 °C 8,8 °C 0,0 km/h (0 Bft)
04.11.2017 10:23 8,9 °C 8,9 °C 86 % 1014,7 hPa 0,0 mm 0,0 km/h (0 Bft) W-NW 290 ° 0 min 0,000 mm 1,1 UV-I 114 W/m² 6,7 °C 8,9 °C 0,0 km/h (0 Bft)
04.11.2017 10:24 8,9 °C 8,9 °C 87 % 1014,7 hPa 0,0 mm 0,0 km/h (0 Bft) W-NW 290 ° 0 min 0,000 mm 1,1 UV-I 114 W/m² 6,9 °C 8,9 °C 0,0 km/h (0 Bft)
04.11.2017 10:25 8,9 °C 8,9 °C 87 % 1014,7 hPa 0,0 mm 0,0 km/h (0 Bft) W-NW 290 ° 0 min 0,000 mm 1,1 UV-I 113 W/m² 6,9 °C 8,9 °C 0,0 km/h (0 Bft)
04.11.2017 10:26 8,9 °C 8,9 °C 87 % 1014,7 hPa 0,0 mm 0,0 km/h (0 Bft) W-NW 290 ° 0 min 0,000 mm 1,1 UV-I 113 W/m² 6,9 °C 8,9 °C 0,0 km/h (0 Bft)
04.11.2017 10:27 8,9 °C 8,9 °C 86 % 1014,7 hPa 0,0 mm 0,0 km/h (0 Bft) W-NW 290 ° 0 min 0,000 mm 1,1 UV-I 111 W/m² 6,7 °C 8,9 °C 0,0 km/h (0 Bft)
04.11.2017 10:28 9,0 °C 9,0 °C 88 % 1014,7 hPa 0,0 mm 0,0 km/h (0 Bft) W-NW 290 ° 0 min 0,000 mm 1,1 UV-I 109 W/m² 7,1 °C 9,0 °C 0,0 km/h (0 Bft)
04.11.2017 10:29 9,1 °C 9,1 °C 87 % 1014,7 hPa 0,0 mm 0,0 km/h (0 Bft) W-NW 290 ° 0 min 0,000 mm 1,1 UV-I 109 W/m² 7,1 °C 9,1 °C 0,0 km/h (0 Bft)
04.11.2017 10:30 9,0 °C 9,1 °C 87 % 1014,7 hPa 0,0 mm 0,0 km/h (0 Bft) W-NW 290 ° 0 min 0,000 mm 1,1 UV-I 109 W/m² 7,0 °C 9,0 °C 0,0 km/h (0 Bft)
04.11.2017 10:31 9,0 °C 9,1 °C 86 % 1014,7 hPa 0,0 mm 0,0 km/h (0 Bft) W-NW 290 ° 0 min 0,000 mm 1,2 UV-I 109 W/m² 6,8 °C 9,0 °C 0,0 km/h (0 Bft)
04.11.2017 10:32 9,0 °C 9,1 °C 85 % 1014,7 hPa 0,0 mm 0,0 km/h (0 Bft) W-NW 289 ° 0 min 0,000 mm 1,2 UV-I 111 W/m² 6,6 °C 9,0 °C 0,0 km/h (0 Bft)
04.11.2017 10:33 9,1 °C 9,1 °C 84 % 1014,7 hPa 0,0 mm 0,0 km/h (0 Bft) W-NW 289 ° 0 min 0,000 mm 1,2 UV-I 113 W/m² 6,5 °C 9,1 °C 0,0 km/h (0 Bft)
04.11.2017 10:34 9,1 °C 9,1 °C 84 % 1014,7 hPa 0,0 mm 0,5 km/h (0 Bft) W-NW 289 ° 0 min 0,000 mm 1,2 UV-I 114 W/m² 6,5 °C 9,1 °C 1,6 km/h (1 Bft)
04.11.2017 10:35 9,2 °C 9,2 °C 84 % 1014,7 hPa 0,0 mm 0,0 km/h (0 Bft) W-NW 289 ° 0 min 0,000 mm 1,2 UV-I 116 W/m² 6,6 °C 9,2 °C 0,0 km/h (0 Bft)
04.11.2017 10:36 9,2 °C 9,2 °C 84 % 1014,7 hPa 0,0 mm 0,0 km/h (0 Bft) W-NW 289 ° 0 min 0,000 mm 1,2 UV-I 118 W/m² 6,6 °C 9,2 °C 0,0 km/h (0 Bft)
04.11.2017 10:37 9,1 °C 9,2 °C 85 % 1014,8 hPa 0,0 mm 0,0 km/h (0 Bft) W-NW 289 ° 0 min 0,000 mm 1,3 UV-I 123 W/m² 6,7 °C 9,1 °C 0,0 km/h (0 Bft)
04.11.2017 10:38 9,2 °C 9,2 °C 86 % 1014,7 hPa 0,0 mm 0,0 km/h (0 Bft) W-NW 290 ° 0 min 0,000 mm 1,3 UV-I 125 W/m² 7,0 °C 9,2 °C 0,0 km/h (0 Bft)
04.11.2017 10:39 9,2 °C 9,2 °C 84 % 1014,7 hPa 0,0 mm 0,0 km/h (0 Bft) W-NW 290 ° 0 min 0,000 mm 1,3 UV-I 134 W/m² 6,6 °C 9,2 °C 0,0 km/h (0 Bft)
04.11.2017 10:40 9,2 °C 9,2 °C 84 % 1014,7 hPa 0,0 mm 0,0 km/h (0 Bft) W-NW 290 ° 0 min 0,000 mm 1,3 UV-I 132 W/m² 6,6 °C 9,2 °C 0,0 km/h (0 Bft)
04.11.2017 10:41 9,2 °C 9,2 °C 84 % 1014,7 hPa 0,0 mm 0,0 km/h (0 Bft) W-NW 290 ° 0 min 0,000 mm 1,3 UV-I 130 W/m² 6,6 °C 9,2 °C 0,0 km/h (0 Bft)
04.11.2017 10:42 9,3 °C 9,3 °C 84 % 1014,7 hPa 0,0 mm 0,0 km/h (0 Bft) W-NW 290 ° 0 min 0,000 mm 1,3 UV-I 132 W/m² 6,7 °C 9,3 °C 0,0 km/h (0 Bft)
04.11.2017 10:43 9,3 °C 9,4 °C 84 % 1014,7 hPa 0,0 mm 0,7 km/h (0 Bft) W-NW 289 ° 0 min 0,000 mm 1,3 UV-I 135 W/m² 6,7 °C 9,3 °C 1,6 km/h (1 Bft)
04.11.2017 10:44 9,4 °C 9,4 °C 84 % 1014,7 hPa 0,0 mm 0,3 km/h (0 Bft) W-NW 289 ° 0 min 0,000 mm 1,3 UV-I 137 W/m² 6,8 °C 9,4 °C 1,6 km/h (1 Bft)
04.11.2017 10:45 9,6 °C 9,6 °C 84 % 1014,7 hPa 0,0 mm 0,0 km/h (0 Bft) W-NW 289 ° 0 min 0,000 mm 1,3 UV-I 139 W/m² 7,0 °C 9,6 °C 0,0 km/h (0 Bft)
04.11.2017 10:46 9,6 °C 9,6 °C 83 % 1014,8 hPa 0,0 mm 0,0 km/h (0 Bft) W-NW 289 ° 0 min 0,000 mm 1,3 UV-I 141 W/m² 6,9 °C 9,6 °C 0,0 km/h (0 Bft)
04.11.2017 10:47 9,8 °C 9,8 °C 83 % 1014,7 hPa 0,0 mm 0,0 km/h (0 Bft) W-NW 289 ° 0 min 0,000 mm 1,3 UV-I 139 W/m² 7,1 °C 9,8 °C 0,0 km/h (0 Bft)
04.11.2017 10:48 9,9 °C 9,9 °C 83 % 1014,7 hPa 0,0 mm 0,0 km/h (0 Bft) W-NW 289 ° 0 min 0,000 mm 1,3 UV-I 139 W/m² 7,2 °C 9,9 °C 0,0 km/h (0 Bft)
04.11.2017 10:49 9,9 °C 9,9 °C 83 % 1014,7 hPa 0,0 mm 0,0 km/h (0 Bft) W-NW 290 ° 0 min 0,000 mm 1,3 UV-I 139 W/m² 7,2 °C 9,9 °C 0,0 km/h (0 Bft)
04.11.2017 10:50 10,0 °C 10,0 °C 81 % 1014,7 hPa 0,0 mm 1,3 km/h (1 Bft) W-NW 289 ° 0 min 0,000 mm 1,3 UV-I 139 W/m² 6,9 °C 10,0 °C 3,2 km/h (1 Bft)
04.11.2017 10:51 10,2 °C 10,2 °C 81 % 1014,8 hPa 0,0 mm 0,4 km/h (0 Bft) W-NW 289 ° 0 min 0,000 mm 1,3 UV-I 139 W/m² 7,1 °C 10,2 °C 1,6 km/h (1 Bft)
04.11.2017 10:52 10,3 °C 10,3 °C 81 % 1014,8 hPa 0,0 mm 0,0 km/h (0 Bft) W-NW 289 ° 0 min 0,000 mm 1,3 UV-I 139 W/m² 7,2 °C 10,3 °C 0,0 km/h (0 Bft)
04.11.2017 10:53 10,4 °C 10,4 °C 80 % 1014,7 hPa 0,0 mm 0,0 km/h (0 Bft) W-NW 289 ° 0 min 0,000 mm 1,3 UV-I 141 W/m² 7,1 °C 10,4 °C 0,0 km/h (0 Bft)
04.11.2017 10:54 10,4 °C 10,4 °C 80 % 1014,7 hPa 0,0 mm 2,5 km/h (1 Bft) W-NW 289 ° 0 min 0,000 mm 1,3 UV-I 139 W/m² 7,1 °C 10,4 °C 4,8 km/h (1 Bft)
04.11.2017 10:55 10,4 °C 10,4 °C 80 % 1014,6 hPa 0,0 mm 1,1 km/h (1 Bft) W-NW 289 ° 0 min 0,000 mm 1,3 UV-I 139 W/m² 7,1 °C 10,4 °C 3,2 km/h (1 Bft)
04.11.2017 10:56 10,4 °C 10,4 °C 83 % 1014,7 hPa 0,0 mm 0,0 km/h (0 Bft) W-NW 289 ° 0 min 0,000 mm 1,3 UV-I 141 W/m² 7,6 °C 10,4 °C 0,0 km/h (0 Bft)
04.11.2017 10:57 10,4 °C 10,4 °C 82 % 1014,7 hPa 0,0 mm 0,0 km/h (0 Bft) W-NW 289 ° 0 min 0,000 mm 1,3 UV-I 146 W/m² 7,5 °C 10,4 °C 0,0 km/h (0 Bft)
04.11.2017 10:58 10,4 °C 10,4 °C 83 % 1014,7 hPa 0,0 mm 0,0 km/h (0 Bft) W-NW 289 ° 0 min 0,000 mm 1,3 UV-I 151 W/m² 7,6 °C 10,4 °C 0,0 km/h (0 Bft)
04.11.2017 10:59 10,5 °C 10,5 °C 83 % 1014,7 hPa 0,0 mm 0,0 km/h (0 Bft) W-NW 289 ° 0 min 0,000 mm 1,3 UV-I 165 W/m² 7,7 °C 10,5 °C 0,0 km/h (0 Bft)
04.11.2017 11:00 10,6 °C 10,6 °C 84 % 1014,7 hPa 0,0 mm 0,3 km/h (0 Bft) W-NW 289 ° 0 min 0,000 mm 1,4 UV-I 172 W/m² 8,0 °C 10,6 °C 1,6 km/h (1 Bft)
04.11.2017 11:01 10,6 °C 10,6 °C 83 % 1014,7 hPa 0,0 mm 0,0 km/h (0 Bft) W-NW 289 ° 0 min 0,051 mm 1,4 UV-I 176 W/m² 7,8 °C 10,6 °C 0,0 km/h (0 Bft)
04.11.2017 11:02 10,7 °C 10,7 °C 83 % 1014,6 hPa 0,0 mm 0,0 km/h (0 Bft) W-NW 289 ° 0 min 0,000 mm 1,4 UV-I 179 W/m² 7,9 °C 10,7 °C 0,0 km/h (0 Bft)
04.11.2017 11:03 10,7 °C 10,7 °C 83 % 1014,6 hPa 0,0 mm 0,0 km/h (0 Bft) W-NW 289 ° 0 min 0,000 mm 1,4 UV-I 181 W/m² 7,9 °C 10,7 °C 0,0 km/h (0 Bft)
04.11.2017 11:04 10,7 °C 10,8 °C 83 % 1014,6 hPa 0,0 mm 0,0 km/h (0 Bft) W-NW 289 ° 0 min 0,000 mm 1,4 UV-I 185 W/m² 7,9 °C 10,7 °C 0,0 km/h (0 Bft)
04.11.2017 11:05 10,8 °C 10,8 °C 82 % 1014,7 hPa 0,0 mm 0,0 km/h (0 Bft) W-NW 289 ° 0 min 0,000 mm 1,4 UV-I 186 W/m² 7,9 °C 10,8 °C 0,0 km/h (0 Bft)
04.11.2017 11:06 10,9 °C 10,9 °C 84 % 1014,7 hPa 0,0 mm 0,0 km/h (0 Bft) W-NW 289 ° 0 min 0,000 mm 1,4 UV-I 188 W/m² 8,3 °C 10,9 °C 0,0 km/h (0 Bft)
04.11.2017 11:07 10,9 °C 10,9 °C 85 % 1014,7 hPa 0,0 mm 0,0 km/h (0 Bft) W-NW 289 ° 0 min 0,000 mm 1,4 UV-I 190 W/m² 8,5 °C 10,9 °C 0,0 km/h (0 Bft)
04.11.2017 11:08 10,9 °C 11,0 °C 85 % 1014,6 hPa 0,0 mm 0,0 km/h (0 Bft) W-NW 289 ° 0 min 0,000 mm 1,4 UV-I 188 W/m² 8,5 °C 10,9 °C 0,0 km/h (0 Bft)
04.11.2017 11:09 10,9 °C 11,0 °C 83 % 1014,6 hPa 0,0 mm 0,0 km/h (0 Bft) W-NW 289 ° 0 min 0,000 mm 1,4 UV-I 188 W/m² 8,1 °C 10,9 °C 0,0 km/h (0 Bft)
04.11.2017 11:10 11,0 °C 11,0 °C 81 % 1014,6 hPa 0,0 mm 0,0 km/h (0 Bft) W-NW 289 ° 0 min 0,000 mm 1,4 UV-I 186 W/m² 7,9 °C 11,0 °C 0,0 km/h (0 Bft)
04.11.2017 11:11 11,1 °C 11,1 °C 79 % 1014,6 hPa 0,0 mm 0,0 km/h (0 Bft) W-NW 289 ° 0 min 0,000 mm 1,4 UV-I 185 W/m² 7,6 °C 11,1 °C 0,0 km/h (0 Bft)
04.11.2017 11:12 11,1 °C 11,1 °C 79 % 1014,6 hPa 0,0 mm 0,0 km/h (0 Bft) W-NW 289 ° 0 min 0,000 mm 1,4 UV-I 185 W/m² 7,6 °C 11,1 °C 0,0 km/h (0 Bft)
04.11.2017 11:13 11,2 °C 11,2 °C 80 % 1014,5 hPa 0,0 mm 0,0 km/h (0 Bft) W-NW 289 ° 0 min 0,000 mm 1,4 UV-I 185 W/m² 7,9 °C 11,2 °C 0,0 km/h (0 Bft)
04.11.2017 11:14 11,3 °C 11,3 °C 79 % 1014,6 hPa 0,0 mm 0,0 km/h (0 Bft) W-NW 289 ° 0 min 0,000 mm 1,4 UV-I 186 W/m² 7,8 °C 11,3 °C 0,0 km/h (0 Bft)
04.11.2017 11:15 11,3 °C 11,3 °C 79 % 1014,5 hPa 0,0 mm 0,0 km/h (0 Bft) W-NW 289 ° 0 min 0,000 mm 1,4 UV-I 186 W/m² 7,8 °C 11,3 °C 0,0 km/h (0 Bft)
04.11.2017 11:16 11,4 °C 11,4 °C 80 % 1014,5 hPa 0,0 mm 0,0 km/h (0 Bft) W-NW 289 ° 0 min 0,000 mm 1,4 UV-I 190 W/m² 8,1 °C 11,4 °C 0,0 km/h (0 Bft)
04.11.2017 11:17 11,4 °C 11,4 °C 76 % 1014,5 hPa 0,0 mm 0,0 km/h (0 Bft) W-NW 289 ° 0 min 0,000 mm 1,4 UV-I 193 W/m² 7,3 °C 11,4 °C 0,0 km/h (0 Bft)
04.11.2017 11:18 11,5 °C 11,5 °C 78 % 1014,5 hPa 0,0 mm 0,0 km/h (0 Bft) W-NW 289 ° 0 min 0,000 mm 1,4 UV-I 193 W/m² 7,8 °C 11,5 °C 0,0 km/h (0 Bft)
04.11.2017 11:19 11,5 °C 11,5 °C 77 % 1014,5 hPa 0,0 mm 0,0 km/h (0 Bft) W-NW 289 ° 0 min 0,000 mm 1,4 UV-I 193 W/m² 7,6 °C 11,5 °C 0,0 km/h (0 Bft)
04.11.2017 11:20 11,6 °C 11,6 °C 77 % 1014,4 hPa 0,0 mm 0,0 km/h (0 Bft) W-NW 289 ° 0 min 0,000 mm 1,4 UV-I 192 W/m² 7,7 °C 11,6 °C 0,0 km/h (0 Bft)
04.11.2017 11:21 11,6 °C 11,6 °C 77 % 1014,4 hPa 0,0 mm 0,0 km/h (0 Bft) W-NW 289 ° 0 min 0,000 mm 1,4 UV-I 190 W/m² 7,7 °C 11,6 °C 0,0 km/h (0 Bft)
04.11.2017 11:22 11,6 °C 11,6 °C 77 % 1014,4 hPa 0,0 mm 0,0 km/h (0 Bft) W-NW 289 ° 0 min 0,000 mm 1,4 UV-I 188 W/m² 7,7 °C 11,6 °C 0,0 km/h (0 Bft)
04.11.2017 11:23 11,7 °C 11,7 °C 76 % 1014,4 hPa 0,0 mm 0,0 km/h (0 Bft) W-NW 289 ° 0 min 0,000 mm 1,4 UV-I 186 W/m² 7,6 °C 11,7 °C 0,0 km/h (0 Bft)
04.11.2017 11:24 11,7 °C 11,7 °C 76 % 1014,4 hPa 0,0 mm 0,0 km/h (0 Bft) W-NW 289 ° 0 min 0,000 mm 1,4 UV-I 186 W/m² 7,6 °C 11,7 °C 0,0 km/h (0 Bft)
04.11.2017 11:25 11,8 °C 11,8 °C 79 % 1014,4 hPa 0,0 mm 0,0 km/h (0 Bft) W-NW 289 ° 0 min 0,000 mm 1,4 UV-I 186 W/m² 8,3 °C 11,8 °C 0,0 km/h (0 Bft)
04.11.2017 11:26 11,8 °C 11,8 °C 79 % 1014,4 hPa 0,0 mm 0,0 km/h (0 Bft) W-NW 289 ° 0 min 0,000 mm 1,4 UV-I 186 W/m² 8,3 °C 11,8 °C 0,0 km/h (0 Bft)
04.11.2017 11:27 11,9 °C 11,9 °C 78 % 1014,4 hPa 0,0 mm 0,0 km/h (0 Bft) W-NW 289 ° 0 min 0,000 mm 1,4 UV-I 188 W/m² 8,2 °C 11,9 °C 0,0 km/h (0 Bft)
04.11.2017 11:28 12,0 °C 12,0 °C 79 % 1014,3 hPa 0,0 mm 0,0 km/h (0 Bft) W-NW 289 ° 0 min 0,000 mm 1,4 UV-I 195 W/m² 8,5 °C 12,0 °C 0,0 km/h (0 Bft)
04.11.2017 11:29 12,1 °C 12,1 °C 78 % 1014,3 hPa 0,0 mm 0,0 km/h (0 Bft) W-NW 289 ° 0 min 0,000 mm 1,4 UV-I 199 W/m² 8,4 °C 12,1 °C 0,0 km/h (0 Bft)
04.11.2017 11:30 12,1 °C 12,1 °C 78 % 1014,4 hPa 0,0 mm 0,0 km/h (0 Bft) W-NW 289 ° 0 min 0,000 mm 1,5 UV-I 204 W/m² 8,4 °C 12,1 °C 0,0 km/h (0 Bft)
04.11.2017 11:31 12,2 °C 12,2 °C 79 % 1014,3 hPa 0,0 mm 0,0 km/h (0 Bft) W-NW 289 ° 0 min 0,000 mm 1,5 UV-I 206 W/m² 8,7 °C 12,2 °C 0,0 km/h (0 Bft)
04.11.2017 11:32 12,2 °C 12,3 °C 80 % 1014,3 hPa 0,0 mm 0,0 km/h (0 Bft) W-NW 289 ° 0 min 0,000 mm 1,5 UV-I 206 W/m² 8,9 °C 12,2 °C 0,0 km/h (0 Bft)
04.11.2017 11:33 12,3 °C 12,3 °C 80 % 1014,3 hPa 0,0 mm 0,0 km/h (0 Bft) W-NW 289 ° 0 min 0,000 mm 1,5 UV-I 206 W/m² 8,9 °C 12,3 °C 0,0 km/h (0 Bft)
04.11.2017 11:34 12,3 °C 12,3 °C 78 % 1014,3 hPa 0,0 mm 0,0 km/h (0 Bft) W-NW 289 ° 0 min 0,000 mm 1,5 UV-I 206 W/m² 8,6 °C 12,3 °C 0,0 km/h (0 Bft)
04.11.2017 11:35 12,4 °C 12,4 °C 78 % 1014,3 hPa 0,0 mm 0,0 km/h (0 Bft) W-NW 289 ° 0 min 0,000 mm 1,5 UV-I 207 W/m² 8,7 °C 12,4 °C 0,0 km/h (0 Bft)
04.11.2017 11:36 12,4 °C 12,5 °C 75 % 1014,3 hPa 0,0 mm 0,0 km/h (0 Bft) W-NW 289 ° 0 min 0,000 mm 1,5 UV-I 207 W/m² 8,1 °C 12,4 °C 0,0 km/h (0 Bft)
04.11.2017 11:37 12,6 °C 12,6 °C 75 % 1014,2 hPa 0,0 mm 0,0 km/h (0 Bft) W-NW 289 ° 0 min 0,000 mm 1,5 UV-I 206 W/m² 8,3 °C 12,6 °C 0,0 km/h (0 Bft)
04.11.2017 11:38 12,7 °C 12,7 °C 73 % 1014,3 hPa 0,0 mm 0,0 km/h (0 Bft) W-NW 289 ° 0 min 0,000 mm 1,5 UV-I 206 W/m² 8,0 °C 12,7 °C 0,0 km/h (0 Bft)
04.11.2017 11:39 12,7 °C 12,8 °C 77 % 1014,2 hPa 0,0 mm 0,0 km/h (0 Bft) W-NW 289 ° 0 min 0,000 mm 1,5 UV-I 204 W/m² 8,8 °C 12,7 °C 0,0 km/h (0 Bft)
04.11.2017 11:40 12,8 °C 12,8 °C 78 % 1014,1 hPa 0,0 mm 0,0 km/h (0 Bft) W-NW 289 ° 0 min 0,000 mm 1,5 UV-I 206 W/m² 9,1 °C 12,8 °C 0,0 km/h (0 Bft)
04.11.2017 11:41 12,8 °C 12,8 °C 76 % 1014,1 hPa 0,0 mm 0,0 km/h (0 Bft) W-NW 289 ° 0 min 0,000 mm 1,5 UV-I 204 W/m² 8,7 °C 12,8 °C 0,0 km/h (0 Bft)
04.11.2017 11:42 12,8 °C 12,8 °C 79 % 1014,1 hPa 0,0 mm 0,0 km/h (0 Bft) W-NW 289 ° 0 min 0,000 mm 1,5 UV-I 204 W/m² 9,2 °C 12,8 °C 0,0 km/h (0 Bft)
04.11.2017 11:43 12,8 °C 12,8 °C 75 % 1014,1 hPa 0,0 mm 1,1 km/h (1 Bft) W-NW 289 ° 0 min 0,000 mm 1,5 UV-I 206 W/m² 8,5 °C 12,8 °C 3,2 km/h (1 Bft)
04.11.2017 11:44 12,9 °C 12,9 °C 70 % 1014,1 hPa 0,0 mm 2,5 km/h (1 Bft) W-NW 289 ° 0 min 0,000 mm 1,5 UV-I 207 W/m² 7,6 °C 12,9 °C 3,2 km/h (1 Bft)
04.11.2017 11:45 13,1 °C 13,1 °C 75 % 1014,1 hPa 0,0 mm 0,8 km/h (0 Bft) W-NW 289 ° 0 min 0,000 mm 1,5 UV-I 207 W/m² 8,8 °C 13,1 °C 1,6 km/h (1 Bft)
04.11.2017 11:46 13,2 °C 13,2 °C 75 % 1014,1 hPa 0,0 mm 0,4 km/h (0 Bft) W-NW 289 ° 0 min 0,000 mm 1,5 UV-I 207 W/m² 8,9 °C 13,2 °C 1,6 km/h (1 Bft)
04.11.2017 11:47 13,3 °C 13,3 °C 70 % 1014,1 hPa 0,0 mm 0,4 km/h (0 Bft) W-NW 289 ° 0 min 0,000 mm 1,5 UV-I 206 W/m² 7,9 °C 13,3 °C 1,6 km/h (1 Bft)
04.11.2017 11:48 13,3 °C 13,3 °C 68 % 1014,1 hPa 0,0 mm 0,0 km/h (0 Bft) W-NW 289 ° 0 min 0,000 mm 1,5 UV-I 202 W/m² 7,5 °C 13,3 °C 0,0 km/h (0 Bft)
04.11.2017 11:49 13,4 °C 13,4 °C 71 % 1014,1 hPa 0,0 mm 0,0 km/h (0 Bft) W-NW 289 ° 0 min 0,000 mm 1,5 UV-I 199 W/m² 8,3 °C 13,4 °C 0,0 km/h (0 Bft)
04.11.2017 11:50 13,5 °C 13,5 °C 69 % 1014,0 hPa 0,0 mm 0,1 km/h (0 Bft) W-NW 289 ° 0 min 0,000 mm 1,5 UV-I 195 W/m² 7,9 °C 13,5 °C 1,6 km/h (1 Bft)
04.11.2017 11:51 13,6 °C 13,6 °C 68 % 1014,0 hPa 0,0 mm 0,4 km/h (0 Bft) W-NW 289 ° 0 min 0,000 mm 1,6 UV-I 193 W/m² 7,8 °C 13,6 °C 1,6 km/h (1 Bft)
04.11.2017 11:52 13,6 °C 13,6 °C 65 % 1014,0 hPa 0,0 mm 1,0 km/h (0 Bft) W-NW 289 ° 0 min 0,000 mm 1,6 UV-I 192 W/m² 7,1 °C 13,6 °C 3,2 km/h (1 Bft)
04.11.2017 11:53 13,7 °C 13,7 °C 66 % 1014,0 hPa 0,0 mm 3,2 km/h (1 Bft) S-SW 200 ° 0 min 0,000 mm 1,6 UV-I 190 W/m² 7,5 °C 13,7 °C 4,8 km/h (1 Bft)
04.11.2017 11:54 13,7 °C 13,7 °C 65 % 1014,0 hPa 0,0 mm 1,0 km/h (0 Bft) S-SW 199 ° 0 min 0,000 mm 1,6 UV-I 188 W/m² 7,2 °C 13,7 °C 3,2 km/h (1 Bft)
04.11.2017 11:55 13,7 °C 13,7 °C 67 % 1014,0 hPa 0,0 mm 0,0 km/h (0 Bft) S-SW 199 ° 0 min 0,000 mm 1,6 UV-I 185 W/m² 7,7 °C 13,7 °C 0,0 km/h (0 Bft)
04.11.2017 11:56 13,8 °C 13,8 °C 64 % 1014,0 hPa 0,0 mm 0,1 km/h (0 Bft) S-SW 199 ° 0 min 0,000 mm 1,5 UV-I 179 W/m² 7,1 °C 13,8 °C 1,6 km/h (1 Bft)
04.11.2017 11:57 13,8 °C 13,8 °C 67 % 1014,0 hPa 0,0 mm 0,4 km/h (0 Bft) S-SW 200 ° 0 min 0,000 mm 1,5 UV-I 169 W/m² 7,8 °C 13,8 °C 1,6 km/h (1 Bft)
04.11.2017 11:58 13,8 °C 13,8 °C 70 % 1014,0 hPa 0,0 mm 1,9 km/h (1 Bft) S-SW 200 ° 0 min 0,000 mm 1,5 UV-I 163 W/m² 8,4 °C 13,8 °C 4,8 km/h (1 Bft)
04.11.2017 11:59 13,8 °C 13,8 °C 64 % 1014,0 hPa 0,0 mm 0,5 km/h (0 Bft) S-SW 201 ° 0 min 0,000 mm 1,5 UV-I 160 W/m² 7,1 °C 13,8 °C 3,2 km/h (1 Bft)
04.11.2017 12:00 13,9 °C 13,9 °C 64 % 1014,0 hPa 0,0 mm 2,4 km/h (1 Bft) S-SW 201 ° 0 min 0,000 mm 1,5 UV-I 158 W/m² 7,2 °C 13,9 °C 3,2 km/h (1 Bft)
04.11.2017 12:01 13,9 °C 13,9 °C 69 % 1014,0 hPa 0,0 mm 1,7 km/h (1 Bft) S-SW 201 ° 0 min 0,102 mm 1,5 UV-I 158 W/m² 8,3 °C 13,9 °C 3,2 km/h (1 Bft)
04.11.2017 12:02 13,9 °C 13,9 °C 64 % 1013,9 hPa 0,0 mm 3,4 km/h (1 Bft) SW 234 ° 0 min 0,000 mm 1,5 UV-I 162 W/m² 7,2 °C 13,9 °C 6,4 km/h (2 Bft)
04.11.2017 12:03 14,0 °C 14,0 °C 64 % 1013,9 hPa 0,0 mm 3,2 km/h (1 Bft) W-SW 252 ° 0 min 0,000 mm 1,5 UV-I 163 W/m² 7,3 °C 14,0 °C 4,8 km/h (1 Bft)
04.11.2017 12:04 14,0 °C 14,0 °C 66 % 1013,9 hPa 0,0 mm 4,2 km/h (1 Bft) W 260 ° 0 min 0,000 mm 1,5 UV-I 163 W/m² 7,7 °C 14,0 °C 9,7 km/h (2 Bft)
04.11.2017 12:05 14,0 °C 14,0 °C 63 % 1013,9 hPa 0,0 mm 3,3 km/h (1 Bft) W 260 ° 0 min 0,000 mm 1,5 UV-I 162 W/m² 7,1 °C 14,0 °C 4,8 km/h (1 Bft)
04.11.2017 12:06 14,0 °C 14,0 °C 64 % 1013,9 hPa 0,0 mm 2,9 km/h (1 Bft) W 260 ° 0 min 0,000 mm 1,5 UV-I 163 W/m² 7,3 °C 14,0 °C 4,8 km/h (1 Bft)
04.11.2017 12:07 14,0 °C 14,1 °C 65 % 1013,8 hPa 0,0 mm 3,6 km/h (1 Bft) W 261 ° 0 min 0,000 mm 1,5 UV-I 167 W/m² 7,5 °C 14,0 °C 6,4 km/h (2 Bft)
04.11.2017 12:08 14,0 °C 14,1 °C 64 % 1013,9 hPa 0,0 mm 1,1 km/h (1 Bft) W 261 ° 0 min 0,000 mm 1,5 UV-I 172 W/m² 7,3 °C 14,0 °C 3,2 km/h (1 Bft)
04.11.2017 12:09 14,1 °C 14,1 °C 64 % 1013,9 hPa 0,0 mm 1,4 km/h (1 Bft) W 261 ° 0 min 0,000 mm 1,6 UV-I 176 W/m² 7,4 °C 14,1 °C 3,2 km/h (1 Bft)
04.11.2017 12:10 14,1 °C 14,1 °C 66 % 1013,9 hPa 0,0 mm 2,8 km/h (1 Bft) W 261 ° 0 min 0,000 mm 1,6 UV-I 178 W/m² 7,8 °C 14,1 °C 4,8 km/h (1 Bft)
04.11.2017 12:11 14,1 °C 14,1 °C 65 % 1013,8 hPa 0,0 mm 1,2 km/h (1 Bft) W 261 ° 0 min 0,000 mm 1,6 UV-I 179 W/m² 7,6 °C 14,1 °C 3,2 km/h (1 Bft)
04.11.2017 12:12 14,1 °C 14,2 °C 64 % 1013,8 hPa 0,0 mm 3,5 km/h (1 Bft) S 180 ° 0 min 0,000 mm 1,6 UV-I 179 W/m² 7,4 °C 14,1 °C 8,0 km/h (2 Bft)
04.11.2017 12:13 14,2 °C 14,2 °C 61 % 1013,7 hPa 0,0 mm 3,8 km/h (1 Bft) S 188 ° 0 min 0,000 mm 1,6 UV-I 176 W/m² 6,8 °C 14,2 °C 8,0 km/h (2 Bft)
04.11.2017 12:14 14,2 °C 14,2 °C 63 % 1013,7 hPa 0,0 mm 2,4 km/h (1 Bft) W-SW 256 ° 0 min 0,000 mm 1,6 UV-I 174 W/m² 7,3 °C 14,2 °C 4,8 km/h (1 Bft)
04.11.2017 12:15 14,3 °C 14,3 °C 61 % 1013,7 hPa 0,0 mm 1,8 km/h (1 Bft) W 265 ° 0 min 0,000 mm 1,6 UV-I 174 W/m² 6,9 °C 14,3 °C 4,8 km/h (1 Bft)
04.11.2017 12:16 14,3 °C 14,3 °C 63 % 1013,7 hPa 0,0 mm 2,2 km/h (1 Bft) W 265 ° 0 min 0,000 mm 1,6 UV-I 178 W/m² 7,4 °C 14,3 °C 3,2 km/h (1 Bft)
04.11.2017 12:17 14,3 °C 14,3 °C 63 % 1013,7 hPa 0,0 mm 3,7 km/h (1 Bft) W 265 ° 0 min 0,000 mm 1,6 UV-I 178 W/m² 7,4 °C 14,3 °C 4,8 km/h (1 Bft)
04.11.2017 12:18 14,3 °C 14,4 °C 64 % 1013,7 hPa 0,0 mm 1,8 km/h (1 Bft) W 265 ° 0 min 0,000 mm 1,6 UV-I 178 W/m² 7,6 °C 14,3 °C 3,2 km/h (1 Bft)
04.11.2017 12:19 14,4 °C 14,4 °C 63 % 1013,8 hPa 0,0 mm 0,8 km/h (0 Bft) W 265 ° 0 min 0,000 mm 1,6 UV-I 178 W/m² 7,4 °C 14,4 °C 3,2 km/h (1 Bft)
04.11.2017 12:20 14,4 °C 14,4 °C 60 % 1013,7 hPa 0,0 mm 0,9 km/h (0 Bft) W 265 ° 0 min 0,000 mm 1,6 UV-I 176 W/m² 6,7 °C 14,4 °C 3,2 km/h (1 Bft)
04.11.2017 12:21 14,4 °C 14,4 °C 66 % 1013,7 hPa 0,0 mm 3,4 km/h (1 Bft) W 272 ° 0 min 0,000 mm 1,6 UV-I 169 W/m² 8,1 °C 14,4 °C 4,8 km/h (1 Bft)
04.11.2017 12:22 14,5 °C 14,5 °C 60 % 1013,7 hPa 0,0 mm 0,6 km/h (0 Bft) W 272 ° 0 min 0,000 mm 1,6 UV-I 163 W/m² 6,8 °C 14,5 °C 3,2 km/h (1 Bft)
04.11.2017 12:23 14,6 °C 14,6 °C 61 % 1013,6 hPa 0,0 mm 0,0 km/h (0 Bft) W 272 ° 0 min 0,000 mm 1,6 UV-I 158 W/m² 7,2 °C 14,6 °C 0,0 km/h (0 Bft)
04.11.2017 12:24 14,5 °C 14,6 °C 61 % 1013,6 hPa 0,0 mm 2,7 km/h (1 Bft) S-SW 209 ° 0 min 0,000 mm 1,6 UV-I 153 W/m² 7,1 °C 14,5 °C 4,8 km/h (1 Bft)
04.11.2017 12:25 14,5 °C 14,6 °C 61 % 1013,6 hPa 0,0 mm 3,7 km/h (1 Bft) W 260 ° 0 min 0,000 mm 1,6 UV-I 149 W/m² 7,1 °C 14,5 °C 6,4 km/h (2 Bft)
04.11.2017 12:26 14,5 °C 14,5 °C 61 % 1013,6 hPa 0,0 mm 4,4 km/h (1 Bft) W 261 ° 0 min 0,000 mm 1,5 UV-I 137 W/m² 7,1 °C 14,5 °C 6,4 km/h (2 Bft)
04.11.2017 12:27 14,6 °C 14,6 °C 61 % 1013,6 hPa 0,0 mm 5,3 km/h (1 Bft) W 269 ° 0 min 0,000 mm 1,5 UV-I 137 W/m² 7,2 °C 14,6 °C 9,7 km/h (2 Bft)
04.11.2017 12:28 14,5 °C 14,6 °C 64 % 1013,6 hPa 0,0 mm 3,4 km/h (1 Bft) W 269 ° 0 min 0,000 mm 1,5 UV-I 130 W/m² 7,8 °C 14,5 °C 4,8 km/h (1 Bft)
04.11.2017 12:29 14,5 °C 14,5 °C 61 % 1013,6 hPa 0,0 mm 1,9 km/h (1 Bft) W 269 ° 0 min 0,000 mm 1,5 UV-I 127 W/m² 7,1 °C 14,5 °C 3,2 km/h (1 Bft)
04.11.2017 12:30 14,6 °C 14,6 °C 63 % 1013,6 hPa 0,0 mm 2,3 km/h (1 Bft) W 269 ° 0 min 0,000 mm 1,5 UV-I 127 W/m² 7,6 °C 14,6 °C 4,8 km/h (1 Bft)
04.11.2017 12:31 14,5 °C 14,6 °C 65 % 1013,6 hPa 0,0 mm 1,0 km/h (0 Bft) W 269 ° 0 min 0,000 mm 1,4 UV-I 123 W/m² 8,0 °C 14,5 °C 3,2 km/h (1 Bft)
04.11.2017 12:32 14,4 °C 14,5 °C 62 % 1013,6 hPa 0,0 mm 0,9 km/h (0 Bft) W 269 ° 0 min 0,000 mm 1,4 UV-I 120 W/m² 7,2 °C 14,4 °C 1,6 km/h (1 Bft)
04.11.2017 12:33 14,4 °C 14,5 °C 66 % 1013,6 hPa 0,0 mm 0,0 km/h (0 Bft) W 269 ° 0 min 0,000 mm 1,4 UV-I 120 W/m² 8,1 °C 14,4 °C 0,0 km/h (0 Bft)
04.11.2017 12:34 14,4 °C 14,4 °C 63 % 1013,6 hPa 0,0 mm 3,1 km/h (1 Bft) W-SW 248 ° 0 min 0,000 mm 1,4 UV-I 120 W/m² 7,4 °C 14,4 °C 4,8 km/h (1 Bft)
04.11.2017 12:35 14,3 °C 14,4 °C 62 % 1013,5 hPa 0,0 mm 2,5 km/h (1 Bft) W-SW 248 ° 0 min 0,000 mm 1,4 UV-I 120 W/m² 7,1 °C 14,3 °C 3,2 km/h (1 Bft)
04.11.2017 12:36 14,3 °C 14,3 °C 63 % 1013,5 hPa 0,0 mm 1,2 km/h (1 Bft) W-SW 238 ° 0 min 0,000 mm 1,4 UV-I 118 W/m² 7,4 °C 14,3 °C 3,2 km/h (1 Bft)
04.11.2017 12:37 14,3 °C 14,3 °C 63 % 1013,5 hPa 0,0 mm 3,2 km/h (1 Bft) W-SW 238 ° 0 min 0,000 mm 1,4 UV-I 118 W/m² 7,4 °C 14,3 °C 4,8 km/h (1 Bft)
04.11.2017 12:39 14,3 °C 14,4 °C 65 % 1013,4 hPa 0,0 mm 1,7 km/h (1 Bft) W-SW 244 ° 0 min 0,000 mm 1,4 UV-I 118 W/m² 7,8 °C 14,3 °C 4,8 km/h (1 Bft)
04.11.2017 12:40 14,4 °C 14,4 °C 65 % 1013,4 hPa 0,0 mm 0,5 km/h (0 Bft) W-SW 244 ° 0 min 0,000 mm 1,4 UV-I 118 W/m² 7,9 °C 14,4 °C 1,6 km/h (1 Bft)
04.11.2017 12:41 14,3 °C 14,4 °C 67 % 1013,5 hPa 0,0 mm 1,9 km/h (1 Bft) SW 228 ° 0 min 0,000 mm 1,4 UV-I 114 W/m² 8,3 °C 14,3 °C 4,8 km/h (1 Bft)
04.11.2017 12:42 14,3 °C 14,3 °C 62 % 1013,5 hPa 0,0 mm 2,3 km/h (1 Bft) SW 228 ° 0 min 0,000 mm 1,4 UV-I 111 W/m² 7,1 °C 14,3 °C 4,8 km/h (1 Bft)
04.11.2017 12:43 14,3 °C 14,3 °C 63 % 1013,5 hPa 0,0 mm 0,6 km/h (0 Bft) SW 228 ° 0 min 0,000 mm 1,4 UV-I 105 W/m² 7,4 °C 14,3 °C 3,2 km/h (1 Bft)
04.11.2017 12:44 14,4 °C 14,4 °C 64 % 1013,4 hPa 0,0 mm 1,3 km/h (1 Bft) SW 228 ° 0 min 0,000 mm 1,4 UV-I 98 W/m² 7,7 °C 14,4 °C 1,6 km/h (1 Bft)
04.11.2017 12:45 14,4 °C 14,4 °C 65 % 1013,4 hPa 0,0 mm 1,7 km/h (1 Bft) SW 228 ° 0 min 0,000 mm 1,4 UV-I 95 W/m² 7,9 °C 14,4 °C 4,8 km/h (1 Bft)
04.11.2017 12:46 14,4 °C 14,4 °C 64 % 1013,5 hPa 0,0 mm 0,0 km/h (0 Bft) SW 228 ° 0 min 0,000 mm 1,4 UV-I 93 W/m² 7,7 °C 14,4 °C 0,0 km/h (0 Bft)
04.11.2017 12:47 14,4 °C 14,4 °C 65 % 1013,4 hPa 0,0 mm 0,7 km/h (0 Bft) W-SW 248 ° 0 min 0,000 mm 1,4 UV-I 91 W/m² 7,9 °C 14,4 °C 4,8 km/h (1 Bft)
04.11.2017 12:48 14,4 °C 14,4 °C 65 % 1013,5 hPa 0,0 mm 6,6 km/h (2 Bft) W 265 ° 0 min 0,000 mm 1,4 UV-I 90 W/m² 7,9 °C 14,4 °C 9,7 km/h (2 Bft)
04.11.2017 12:49 14,5 °C 14,5 °C 64 % 1013,5 hPa 0,0 mm 7,1 km/h (2 Bft) W-SW 258 ° 0 min 0,000 mm 1,4 UV-I 90 W/m² 7,8 °C 14,5 °C 9,7 km/h (2 Bft)
04.11.2017 12:50 14,6 °C 14,6 °C 65 % 1013,4 hPa 0,0 mm 2,2 km/h (1 Bft) W-SW 258 ° 0 min 0,000 mm 1,4 UV-I 88 W/m² 8,1 °C 14,6 °C 4,8 km/h (1 Bft)
04.11.2017 12:51 14,6 °C 14,6 °C 65 % 1013,4 hPa 0,0 mm 1,1 km/h (1 Bft) W 259 ° 0 min 0,000 mm 1,3 UV-I 86 W/m² 8,1 °C 14,6 °C 3,2 km/h (1 Bft)
04.11.2017 12:52 14,6 °C 14,6 °C 62 % 1013,4 hPa 0,0 mm 3,6 km/h (1 Bft) W-SW 250 ° 0 min 0,000 mm 1,3 UV-I 84 W/m² 7,4 °C 14,6 °C 6,4 km/h (2 Bft)
04.11.2017 12:53 14,6 °C 14,6 °C 63 % 1013,4 hPa 0,0 mm 2,6 km/h (1 Bft) W-SW 254 ° 0 min 0,000 mm 1,3 UV-I 84 W/m² 7,6 °C 14,6 °C 4,8 km/h (1 Bft)
04.11.2017 12:54 14,7 °C 14,7 °C 63 % 1013,4 hPa 0,0 mm 3,8 km/h (1 Bft) W-SW 238 ° 0 min 0,000 mm 1,3 UV-I 88 W/m² 7,7 °C 14,7 °C 4,8 km/h (1 Bft)
04.11.2017 12:55 14,7 °C 14,7 °C 62 % 1013,3 hPa 0,0 mm 4,2 km/h (1 Bft) W 265 ° 0 min 0,000 mm 1,3 UV-I 90 W/m² 7,5 °C 14,7 °C 4,8 km/h (1 Bft)
04.11.2017 12:56 14,8 °C 14,8 °C 63 % 1013,4 hPa 0,0 mm 2,6 km/h (1 Bft) W 269 ° 0 min 0,000 mm 1,3 UV-I 90 W/m² 7,8 °C 14,8 °C 6,4 km/h (2 Bft)
04.11.2017 12:57 14,8 °C 14,8 °C 63 % 1013,4 hPa 0,0 mm 1,3 km/h (1 Bft) W 269 ° 0 min 0,000 mm 1,3 UV-I 90 W/m² 7,8 °C 14,8 °C 3,2 km/h (1 Bft)
04.11.2017 12:58 14,8 °C 14,8 °C 65 % 1013,4 hPa 0,0 mm 7,0 km/h (2 Bft) W 267 ° 0 min 0,000 mm 1,3 UV-I 91 W/m² 8,3 °C 14,8 °C 11,3 km/h (2 Bft)
04.11.2017 12:59 14,8 °C 14,8 °C 63 % 1013,4 hPa 0,0 mm 5,6 km/h (1 Bft) W-NW 294 ° 0 min 0,000 mm 1,3 UV-I 93 W/m² 7,8 °C 14,8 °C 6,4 km/h (2 Bft)
04.11.2017 13:00 14,8 °C 14,8 °C 64 % 1013,4 hPa 0,0 mm 2,7 km/h (1 Bft) W-NW 298 ° 0 min 0,000 mm 1,3 UV-I 95 W/m² 8,1 °C 14,8 °C 6,4 km/h (2 Bft)
04.11.2017 13:01 14,8 °C 14,8 °C 64 % 1013,4 hPa 0,0 mm 4,8 km/h (1 Bft) W-SW 252 ° 0 min 0,076 mm 1,3 UV-I 95 W/m² 8,1 °C 14,8 °C 6,4 km/h (2 Bft)
04.11.2017 13:02 14,9 °C 14,9 °C 64 % 1013,4 hPa 0,0 mm 5,5 km/h (1 Bft) W 271 ° 0 min 0,000 mm 1,3 UV-I 98 W/m² 8,2 °C 14,9 °C 6,4 km/h (2 Bft)
04.11.2017 13:03 14,9 °C 14,9 °C 65 % 1013,4 hPa 0,0 mm 9,0 km/h (2 Bft) W-NW 298 ° 0 min 0,000 mm 1,3 UV-I 97 W/m² 8,4 °C 14,9 °C 16,1 km/h (3 Bft)
04.11.2017 13:04 14,9 °C 14,9 °C 62 % 1013,4 hPa 0,0 mm 6,9 km/h (2 Bft) SW 236 ° 0 min 0,000 mm 1,3 UV-I 97 W/m² 7,7 °C 14,9 °C 11,3 km/h (2 Bft)
04.11.2017 13:05 15,0 °C 15,0 °C 63 % 1013,3 hPa 0,0 mm 4,8 km/h (1 Bft) W 260 ° 0 min 0,000 mm 1,3 UV-I 97 W/m² 8,0 °C 15,0 °C 8,0 km/h (2 Bft)
04.11.2017 13:06 15,0 °C 15,0 °C 64 % 1013,3 hPa 0,0 mm 4,8 km/h (1 Bft) W-SW 254 ° 0 min 0,000 mm 1,3 UV-I 97 W/m² 8,2 °C 15,0 °C 9,7 km/h (2 Bft)
04.11.2017 13:07 15,1 °C 15,1 °C 66 % 1013,3 hPa 0,0 mm 4,4 km/h (1 Bft) W 277 ° 0 min 0,000 mm 1,3 UV-I 95 W/m² 8,8 °C 15,1 °C 6,4 km/h (2 Bft)
04.11.2017 13:08 15,1 °C 15,1 °C 63 % 1013,3 hPa 0,0 mm 4,9 km/h (1 Bft) NW 306 ° 0 min 0,000 mm 1,3 UV-I 95 W/m² 8,1 °C 15,1 °C 9,7 km/h (2 Bft)
04.11.2017 13:09 15,1 °C 15,1 °C 63 % 1013,3 hPa 0,0 mm 5,6 km/h (1 Bft) W-NW 301 ° 0 min 0,000 mm 1,3 UV-I 97 W/m² 8,1 °C 15,1 °C 9,7 km/h (2 Bft)
04.11.2017 13:10 15,2 °C 15,2 °C 63 % 1013,3 hPa 0,0 mm 8,4 km/h (2 Bft) W 277 ° 0 min 0,000 mm 1,3 UV-I 97 W/m² 8,2 °C 15,2 °C 11,3 km/h (2 Bft)
04.11.2017 13:11 15,2 °C 15,2 °C 62 % 1013,3 hPa 0,0 mm 6,7 km/h (2 Bft) W 273 ° 0 min 0,000 mm 1,3 UV-I 97 W/m² 8,0 °C 15,2 °C 11,3 km/h (2 Bft)
04.11.2017 13:12 15,2 °C 15,2 °C 62 % 1013,3 hPa 0,0 mm 8,1 km/h (2 Bft) W-NW 288 ° 0 min 0,000 mm 1,3 UV-I 102 W/m² 8,0 °C 15,2 °C 12,9 km/h (3 Bft)
04.11.2017 13:13 15,2 °C 15,2 °C 61 % 1013,3 hPa 0,0 mm 10,1 km/h (2 Bft) W-NW 301 ° 0 min 0,000 mm 1,3 UV-I 102 W/m² 7,7 °C 15,2 °C 12,9 km/h (3 Bft)
04.11.2017 13:14 15,2 °C 15,2 °C 59 % 1013,3 hPa 0,0 mm 10,9 km/h (2 Bft) W-NW 289 ° 0 min 0,000 mm 1,3 UV-I 105 W/m² 7,2 °C 15,2 °C 14,5 km/h (3 Bft)
04.11.2017 13:15 15,2 °C 15,2 °C 61 % 1013,3 hPa 0,0 mm 7,6 km/h (2 Bft) W-NW 292 ° 0 min 0,000 mm 1,3 UV-I 146 W/m² 7,7 °C 15,2 °C 12,9 km/h (3 Bft)
04.11.2017 13:16 15,2 °C 15,2 °C 60 % 1013,3 hPa 0,0 mm 9,8 km/h (2 Bft) W-NW 288 ° 0 min 0,000 mm 1,5 UV-I 221 W/m² 7,5 °C 15,2 °C 14,5 km/h (3 Bft)
04.11.2017 13:17 15,2 °C 15,2 °C 60 % 1013,2 hPa 0,0 mm 6,3 km/h (2 Bft) NW 304 ° 0 min 0,000 mm 1,6 UV-I 257 W/m² 7,5 °C 15,2 °C 9,7 km/h (2 Bft)
04.11.2017 13:18 15,2 °C 15,2 °C 61 % 1013,2 hPa 0,0 mm 4,7 km/h (1 Bft) NW 304 ° 1 min 0,000 mm 1,7 UV-I 308 W/m² 7,7 °C 15,2 °C 6,4 km/h (2 Bft)
04.11.2017 13:19 15,2 °C 15,2 °C 61 % 1013,2 hPa 0,0 mm 3,1 km/h (1 Bft) W-SW 240 ° 0 min 0,000 mm 1,7 UV-I 288 W/m² 7,7 °C 15,2 °C 6,4 km/h (2 Bft)
04.11.2017 13:20 15,2 °C 15,2 °C 62 % 1013,2 hPa 0,0 mm 4,2 km/h (1 Bft) NW 313 ° 1 min 0,000 mm 1,7 UV-I 306 W/m² 8,0 °C 15,2 °C 6,4 km/h (2 Bft)
04.11.2017 13:21 15,2 °C 15,3 °C 61 % 1013,2 hPa 0,0 mm 9,8 km/h (2 Bft) W 261 ° 1 min 0,000 mm 1,7 UV-I 323 W/m² 7,7 °C 15,2 °C 16,1 km/h (3 Bft)
04.11.2017 13:22 15,2 °C 15,2 °C 59 % 1013,2 hPa 0,0 mm 8,3 km/h (2 Bft) W-SW 252 ° 1 min 0,000 mm 1,6 UV-I 292 W/m² 7,2 °C 15,2 °C 12,9 km/h (3 Bft)
04.11.2017 13:23 15,2 °C 15,2 °C 62 % 1013,2 hPa 0,0 mm 5,3 km/h (1 Bft) W 271 ° 0 min 0,000 mm 1,6 UV-I 287 W/m² 8,0 °C 15,2 °C 9,7 km/h (2 Bft)
04.11.2017 13:24 15,2 °C 15,2 °C 64 % 1013,2 hPa 0,0 mm 3,9 km/h (1 Bft) W 275 ° 1 min 0,000 mm 1,6 UV-I 304 W/m² 8,4 °C 15,2 °C 4,8 km/h (1 Bft)
04.11.2017 13:25 15,2 °C 15,2 °C 63 % 1013,2 hPa 0,0 mm 3,9 km/h (1 Bft) W 267 ° 1 min 0,000 mm 1,7 UV-I 309 W/m² 8,2 °C 15,2 °C 6,4 km/h (2 Bft)
04.11.2017 13:26 15,2 °C 15,2 °C 62 % 1013,2 hPa 0,0 mm 4,4 km/h (1 Bft) W 269 ° 1 min 0,000 mm 1,7 UV-I 346 W/m² 8,0 °C 15,2 °C 9,7 km/h (2 Bft)
04.11.2017 13:27 15,2 °C 15,2 °C 63 % 1013,2 hPa 0,0 mm 7,7 km/h (2 Bft) SW 230 ° 1 min 0,000 mm 1,7 UV-I 320 W/m² 8,2 °C 15,2 °C 12,9 km/h (3 Bft)
04.11.2017 13:29 15,2 °C 15,3 °C 62 % 1013,1 hPa 0,0 mm 7,2 km/h (2 Bft) W-NW 288 ° 2 min 0,000 mm 1,8 UV-I 348 W/m² 8,0 °C 15,2 °C 11,3 km/h (2 Bft)
04.11.2017 13:30 15,2 °C 15,2 °C 62 % 1013,1 hPa 0,0 mm 8,5 km/h (2 Bft) W-SW 255 ° 1 min 0,000 mm 1,8 UV-I 371 W/m² 8,0 °C 15,2 °C 11,3 km/h (2 Bft)
04.11.2017 13:31 15,2 °C 15,2 °C 64 % 1013,1 hPa 0,0 mm 7,3 km/h (2 Bft) W 260 ° 1 min 0,000 mm 1,8 UV-I 373 W/m² 8,4 °C 15,2 °C 12,9 km/h (3 Bft)
04.11.2017 13:32 15,2 °C 15,2 °C 62 % 1013,2 hPa 0,0 mm 8,2 km/h (2 Bft) SW 214 ° 1 min 0,000 mm 1,8 UV-I 357 W/m² 8,0 °C 15,2 °C 14,5 km/h (3 Bft)
04.11.2017 13:33 15,2 °C 15,2 °C 61 % 1013,1 hPa 0,0 mm 4,9 km/h (1 Bft) W-SW 256 ° 1 min 0,000 mm 1,7 UV-I 327 W/m² 7,7 °C 15,2 °C 9,7 km/h (2 Bft)
04.11.2017 13:34 15,2 °C 15,2 °C 63 % 1013,2 hPa 0,0 mm 7,6 km/h (2 Bft) W-SW 254 ° 1 min 0,000 mm 1,8 UV-I 350 W/m² 8,2 °C 15,2 °C 11,3 km/h (2 Bft)
04.11.2017 13:35 15,2 °C 15,2 °C 59 % 1013,1 hPa 0,0 mm 7,4 km/h (2 Bft) W-NW 298 ° 1 min 0,000 mm 1,7 UV-I 299 W/m² 7,2 °C 15,2 °C 11,3 km/h (2 Bft)
04.11.2017 13:36 15,2 °C 15,2 °C 60 % 1013,1 hPa 0,0 mm 6,7 km/h (2 Bft) W 270 ° 1 min 0,000 mm 1,7 UV-I 316 W/m² 7,5 °C 15,2 °C 11,3 km/h (2 Bft)
04.11.2017 13:37 15,2 °C 15,2 °C 61 % 1013,1 hPa 0,0 mm 9,1 km/h (2 Bft) W-NW 294 ° 1 min 0,000 mm 1,7 UV-I 348 W/m² 7,7 °C 15,2 °C 14,5 km/h (3 Bft)
04.11.2017 13:38 15,2 °C 15,2 °C 60 % 1013,2 hPa 0,0 mm 8,6 km/h (2 Bft) W-NW 295 ° 1 min 0,000 mm 1,8 UV-I 364 W/m² 7,5 °C 15,2 °C 12,9 km/h (3 Bft)
04.11.2017 13:39 15,2 °C 15,3 °C 60 % 1013,1 hPa 0,0 mm 9,6 km/h (2 Bft) W-SW 254 ° 1 min 0,000 mm 1,7 UV-I 343 W/m² 7,5 °C 15,2 °C 14,5 km/h (3 Bft)
04.11.2017 13:40 15,2 °C 15,2 °C 64 % 1013,1 hPa 0,0 mm 12,4 km/h (3 Bft) W-SW 252 ° 1 min 0,000 mm 1,7 UV-I 364 W/m² 8,4 °C 15,2 °C 14,5 km/h (3 Bft)
04.11.2017 13:41 15,2 °C 15,2 °C 61 % 1013,1 hPa 0,0 mm 6,7 km/h (2 Bft) W 265 ° 1 min 0,000 mm 1,7 UV-I 357 W/m² 7,7 °C 15,2 °C 11,3 km/h (2 Bft)
04.11.2017 13:42 15,2 °C 15,2 °C 62 % 1013,0 hPa 0,0 mm 10,1 km/h (2 Bft) W-SW 256 ° 1 min 0,000 mm 1,8 UV-I 369 W/m² 8,0 °C 15,2 °C 14,5 km/h (3 Bft)
04.11.2017 13:43 15,2 °C 15,2 °C 61 % 1013,0 hPa 0,0 mm 6,2 km/h (2 Bft) W-SW 250 ° 1 min 0,000 mm 1,8 UV-I 373 W/m² 7,7 °C 15,2 °C 11,3 km/h (2 Bft)
04.11.2017 13:44 15,2 °C 15,2 °C 61 % 1013,0 hPa 0,0 mm 7,0 km/h (2 Bft) W-SW 246 ° 1 min 0,000 mm 1,8 UV-I 381 W/m² 7,7 °C 15,2 °C 11,3 km/h (2 Bft)
04.11.2017 13:45 15,2 °C 15,2 °C 62 % 1013,0 hPa 0,0 mm 9,9 km/h (2 Bft) W 262 ° 1 min 0,000 mm 1,8 UV-I 380 W/m² 8,0 °C 15,2 °C 14,5 km/h (3 Bft)
04.11.2017 13:46 15,2 °C 15,2 °C 61 % 1013,0 hPa 0,0 mm 5,6 km/h (1 Bft) W-NW 302 ° 1 min 0,000 mm 1,8 UV-I 376 W/m² 7,7 °C 15,2 °C 6,4 km/h (2 Bft)
04.11.2017 13:47 15,2 °C 15,2 °C 61 % 1013,0 hPa 0,0 mm 4,5 km/h (1 Bft) W 276 ° 1 min 0,000 mm 1,7 UV-I 367 W/m² 7,7 °C 15,2 °C 9,7 km/h (2 Bft)
04.11.2017 13:48 15,2 °C 15,2 °C 61 % 1013,0 hPa 0,0 mm 4,3 km/h (1 Bft) W-NW 301 ° 1 min 0,000 mm 1,7 UV-I 352 W/m² 7,7 °C 15,2 °C 6,4 km/h (2 Bft)
04.11.2017 13:49 15,3 °C 15,3 °C 62 % 1012,9 hPa 0,0 mm 6,5 km/h (2 Bft) W 269 ° 1 min 0,000 mm 1,7 UV-I 327 W/m² 8,1 °C 15,3 °C 12,9 km/h (3 Bft)
04.11.2017 13:50 15,3 °C 15,3 °C 61 % 1013,0 hPa 0,0 mm 5,6 km/h (1 Bft) W 269 ° 0 min 0,000 mm 1,5 UV-I 257 W/m² 7,8 °C 15,3 °C 11,3 km/h (2 Bft)
04.11.2017 13:51 15,3 °C 15,3 °C 61 % 1012,9 hPa 0,0 mm 7,0 km/h (2 Bft) W 270 ° 0 min 0,000 mm 1,6 UV-I 288 W/m² 7,8 °C 15,3 °C 14,5 km/h (3 Bft)
04.11.2017 13:52 15,3 °C 15,3 °C 61 % 1013,0 hPa 0,0 mm 3,5 km/h (1 Bft) W 271 ° 1 min 0,000 mm 1,6 UV-I 330 W/m² 7,8 °C 15,3 °C 11,3 km/h (2 Bft)
04.11.2017 13:53 15,2 °C 15,3 °C 62 % 1013,1 hPa 0,0 mm 7,7 km/h (2 Bft) W-NW 285 ° 1 min 0,000 mm 1,6 UV-I 327 W/m² 8,0 °C 15,2 °C 11,3 km/h (2 Bft)
04.11.2017 13:54 15,2 °C 15,2 °C 63 % 1013,1 hPa 0,0 mm 4,4 km/h (1 Bft) W-NW 285 ° 1 min 0,000 mm 1,6 UV-I 306 W/m² 8,2 °C 15,2 °C 8,0 km/h (2 Bft)
04.11.2017 13:55 15,2 °C 15,2 °C 62 % 1013,0 hPa 0,0 mm 6,9 km/h (2 Bft) W 259 ° 1 min 0,000 mm 1,6 UV-I 302 W/m² 8,0 °C 15,2 °C 11,3 km/h (2 Bft)
04.11.2017 13:56 15,1 °C 15,2 °C 62 % 1013,0 hPa 0,0 mm 5,6 km/h (1 Bft) W-SW 247 ° 1 min 0,000 mm 1,6 UV-I 315 W/m² 7,9 °C 15,1 °C 11,3 km/h (2 Bft)
04.11.2017 13:57 15,1 °C 15,1 °C 61 % 1013,0 hPa 0,0 mm 8,9 km/h (2 Bft) W 270 ° 1 min 0,000 mm 1,6 UV-I 302 W/m² 7,6 °C 15,1 °C 12,9 km/h (3 Bft)
04.11.2017 13:58 15,1 °C 15,1 °C 61 % 1013,0 hPa 0,0 mm 8,3 km/h (2 Bft) W 263 ° 0 min 0,000 mm 1,5 UV-I 274 W/m² 7,6 °C 15,1 °C 12,9 km/h (3 Bft)
04.11.2017 13:59 15,0 °C 15,1 °C 64 % 1013,0 hPa 0,0 mm 11,0 km/h (2 Bft) W-SW 246 ° 0 min 0,000 mm 1,5 UV-I 276 W/m² 8,2 °C 15,0 °C 16,1 km/h (3 Bft)
04.11.2017 14:00 14,9 °C 15,0 °C 62 % 1013,0 hPa 0,0 mm 9,8 km/h (2 Bft) W-SW 245 ° 1 min 0,000 mm 1,5 UV-I 299 W/m² 7,7 °C 14,9 °C 14,5 km/h (3 Bft)
04.11.2017 14:01 14,9 °C 14,9 °C 62 % 1013,0 hPa 0,0 mm 12,5 km/h (3 Bft) S-SW 209 ° 1 min 0,178 mm 1,5 UV-I 304 W/m² 7,7 °C 14,9 °C 17,7 km/h (3 Bft)
04.11.2017 14:02 14,8 °C 14,9 °C 62 % 1013,0 hPa 0,0 mm 7,4 km/h (2 Bft) S-SW 202 ° 0 min 0,000 mm 1,5 UV-I 257 W/m² 7,6 °C 14,8 °C 9,7 km/h (2 Bft)
04.11.2017 14:03 14,8 °C 14,8 °C 61 % 1013,0 hPa 0,0 mm 5,8 km/h (2 Bft) W-NW 302 ° 0 min 0,000 mm 1,3 UV-I 264 W/m² 7,4 °C 14,8 °C 8,0 km/h (2 Bft)
04.11.2017 14:04 14,8 °C 14,8 °C 63 % 1013,0 hPa 0,0 mm 7,1 km/h (2 Bft) W-NW 287 ° 0 min 0,000 mm 1,1 UV-I 264 W/m² 7,8 °C 14,8 °C 17,7 km/h (3 Bft)
04.11.2017 14:05 14,8 °C 14,8 °C 61 % 1013,0 hPa 0,0 mm 12,2 km/h (2 Bft) W 259 ° 0 min 0,000 mm 1,1 UV-I 62 W/m² 7,4 °C 14,8 °C 19,3 km/h (3 Bft)
04.11.2017 14:06 14,7 °C 14,8 °C 61 % 1012,9 hPa 0,0 mm 8,5 km/h (2 Bft) W-NW 290 ° 0 min 0,000 mm 0,0 UV-I 60 W/m² 7,3 °C 14,7 °C 14,5 km/h (3 Bft)
04.11.2017 14:07 14,6 °C 14,7 °C 62 % 1013,0 hPa 0,0 mm 10,0 km/h (2 Bft) W-SW 257 ° 0 min 0,000 mm 1,2 UV-I 121 W/m² 7,4 °C 14,6 °C 16,1 km/h (3 Bft)
04.11.2017 14:08 14,4 °C 14,6 °C 62 % 1012,9 hPa 0,0 mm 9,1 km/h (2 Bft) W 276 ° 0 min 0,000 mm 1,4 UV-I 121 W/m² 7,2 °C 14,4 °C 16,1 km/h (3 Bft)
04.11.2017 14:09 14,3 °C 14,4 °C 64 % 1013,0 hPa 0,0 mm 10,9 km/h (2 Bft) W 271 ° 1 min 0,000 mm 1,4 UV-I 318 W/m² 7,6 °C 14,3 °C 17,7 km/h (3 Bft)
04.11.2017 14:10 14,3 °C 14,3 °C 64 % 1013,0 hPa 0,0 mm 9,7 km/h (2 Bft) SW 227 ° 1 min 0,000 mm 1,4 UV-I 295 W/m² 7,6 °C 14,3 °C 16,1 km/h (3 Bft)
04.11.2017 14:11 14,4 °C 14,4 °C 62 % 1013,0 hPa 0,0 mm 12,5 km/h (3 Bft) W-SW 258 ° 0 min 0,000 mm 1,4 UV-I 279 W/m² 7,2 °C 14,4 °C 17,7 km/h (3 Bft)
04.11.2017 14:12 14,4 °C 14,4 °C 63 % 1012,9 hPa 0,0 mm 10,0 km/h (2 Bft) W-SW 242 ° 1 min 0,000 mm 1,4 UV-I 311 W/m² 7,4 °C 14,4 °C 17,7 km/h (3 Bft)
04.11.2017 14:13 14,4 °C 14,4 °C 64 % 1013,0 hPa 0,0 mm 13,3 km/h (3 Bft) W 273 ° 0 min 0,000 mm 1,3 UV-I 278 W/m² 7,7 °C 14,4 °C 17,7 km/h (3 Bft)
04.11.2017 14:14 14,4 °C 14,4 °C 63 % 1012,9 hPa 0,0 mm 8,8 km/h (2 Bft) W 268 ° 1 min 0,000 mm 1,4 UV-I 306 W/m² 7,4 °C 14,4 °C 12,9 km/h (3 Bft)
04.11.2017 14:15 14,6 °C 14,6 °C 63 % 1013,0 hPa 0,0 mm 6,0 km/h (2 Bft) W 274 ° 1 min 0,000 mm 1,4 UV-I 306 W/m² 7,6 °C 14,6 °C 9,7 km/h (2 Bft)
04.11.2017 14:16 14,6 °C 14,6 °C 65 % 1013,0 hPa 0,0 mm 4,1 km/h (1 Bft) W-SW 255 ° 1 min 0,000 mm 1,4 UV-I 306 W/m² 8,1 °C 14,6 °C 6,4 km/h (2 Bft)
04.11.2017 14:17 14,6 °C 14,6 °C 64 % 1013,0 hPa 0,0 mm 5,6 km/h (1 Bft) W-NW 284 ° 1 min 0,000 mm 1,3 UV-I 297 W/m² 7,9 °C 14,6 °C 12,9 km/h (3 Bft)
04.11.2017 14:18 14,6 °C 14,6 °C 62 % 1013,0 hPa 0,0 mm 6,0 km/h (2 Bft) W 263 ° 1 min 0,000 mm 1,3 UV-I 290 W/m² 7,4 °C 14,6 °C 9,7 km/h (2 Bft)
04.11.2017 14:19 14,7 °C 14,7 °C 64 % 1013,0 hPa 0,0 mm 7,6 km/h (2 Bft) W-SW 252 ° 0 min 0,000 mm 1,3 UV-I 287 W/m² 8,0 °C 14,7 °C 14,5 km/h (3 Bft)
04.11.2017 14:20 14,7 °C 14,7 °C 65 % 1013,0 hPa 0,0 mm 11,1 km/h (2 Bft) W-NW 284 ° 0 min 0,000 mm 1,3 UV-I 264 W/m² 8,2 °C 14,7 °C 19,3 km/h (3 Bft)
04.11.2017 14:21 14,7 °C 14,7 °C 63 % 1013,1 hPa 0,0 mm 7,6 km/h (2 Bft) W 281 ° 0 min 0,000 mm 1,3 UV-I 278 W/m² 7,7 °C 14,7 °C 12,9 km/h (3 Bft)
04.11.2017 14:22 14,7 °C 14,7 °C 62 % 1013,0 hPa 0,0 mm 13,4 km/h (3 Bft) W 263 ° 0 min 0,000 mm 1,3 UV-I 283 W/m² 7,5 °C 14,7 °C 16,1 km/h (3 Bft)
04.11.2017 14:23 14,7 °C 14,7 °C 62 % 1012,9 hPa 0,0 mm 12,5 km/h (3 Bft) W-NW 292 ° 0 min 0,000 mm 1,3 UV-I 288 W/m² 7,5 °C 14,7 °C 19,3 km/h (3 Bft)
04.11.2017 14:24 14,8 °C 14,8 °C 62 % 1013,0 hPa 0,0 mm 6,7 km/h (2 Bft) W-NW 283 ° 1 min 0,000 mm 1,3 UV-I 292 W/m² 7,6 °C 14,8 °C 11,3 km/h (2 Bft)
04.11.2017 14:25 14,8 °C 14,8 °C 62 % 1013,0 hPa 0,0 mm 8,2 km/h (2 Bft) W-NW 284 ° 0 min 0,000 mm 1,3 UV-I 287 W/m² 7,6 °C 14,8 °C 11,3 km/h (2 Bft)
04.11.2017 14:26 14,8 °C 14,8 °C 61 % 1013,0 hPa 0,0 mm 9,9 km/h (2 Bft) W-NW 286 ° 0 min 0,000 mm 1,3 UV-I 285 W/m² 7,4 °C 14,8 °C 12,9 km/h (3 Bft)
04.11.2017 14:27 14,8 °C 14,8 °C 62 % 1013,0 hPa 0,0 mm 5,6 km/h (1 Bft) W 270 ° 0 min 0,000 mm 1,2 UV-I 265 W/m² 7,6 °C 14,8 °C 11,3 km/h (2 Bft)
04.11.2017 14:28 14,8 °C 14,8 °C 62 % 1013,0 hPa 0,0 mm 8,2 km/h (2 Bft) W 276 ° 0 min 0,000 mm 1,2 UV-I 258 W/m² 7,6 °C 14,8 °C 14,5 km/h (3 Bft)
04.11.2017 14:29 14,8 °C 14,8 °C 62 % 1013,0 hPa 0,0 mm 4,4 km/h (1 Bft) W-SW 258 ° 0 min 0,000 mm 1,2 UV-I 276 W/m² 7,6 °C 14,8 °C 9,7 km/h (2 Bft)
04.11.2017 14:30 14,7 °C 14,8 °C 63 % 1013,0 hPa 0,0 mm 11,7 km/h (2 Bft) W-NW 293 ° 0 min 0,000 mm 1,2 UV-I 265 W/m² 7,7 °C 14,7 °C 14,5 km/h (3 Bft)
04.11.2017 14:31 14,7 °C 14,7 °C 62 % 1013,0 hPa 0,0 mm 9,7 km/h (2 Bft) W-NW 284 ° 0 min 0,000 mm 1,2 UV-I 271 W/m² 7,5 °C 14,7 °C 12,9 km/h (3 Bft)
04.11.2017 14:32 14,7 °C 14,7 °C 63 % 1013,0 hPa 0,0 mm 7,8 km/h (2 Bft) W 281 ° 0 min 0,000 mm 1,2 UV-I 272 W/m² 7,7 °C 14,7 °C 12,9 km/h (3 Bft)
04.11.2017 14:34 14,6 °C 14,7 °C 63 % 1012,9 hPa 0,0 mm 4,9 km/h (1 Bft) W-SW 251 ° 0 min 0,000 mm 1,2 UV-I 257 W/m² 7,6 °C 14,6 °C 9,7 km/h (2 Bft)
04.11.2017 14:35 14,4 °C 14,6 °C 64 % 1012,9 hPa 0,0 mm 3,3 km/h (1 Bft) W 259 ° 0 min 0,000 mm 1,1 UV-I 227 W/m² 7,7 °C 14,4 °C 4,8 km/h (1 Bft)
04.11.2017 14:36 14,4 °C 14,5 °C 64 % 1012,9 hPa 0,0 mm 5,8 km/h (2 Bft) W-NW 296 ° 0 min 0,000 mm 1,1 UV-I 211 W/m² 7,7 °C 14,4 °C 9,7 km/h (2 Bft)
04.11.2017 14:37 14,5 °C 14,5 °C 63 % 1013,0 hPa 0,0 mm 4,0 km/h (1 Bft) W 278 ° 0 min 0,000 mm 1,1 UV-I 221 W/m² 7,5 °C 14,5 °C 6,4 km/h (2 Bft)
04.11.2017 14:38 14,6 °C 14,6 °C 63 % 1013,0 hPa 0,0 mm 8,5 km/h (2 Bft) W-NW 286 ° 0 min 0,000 mm 1,1 UV-I 239 W/m² 7,6 °C 14,6 °C 12,9 km/h (3 Bft)
04.11.2017 14:39 14,5 °C 14,6 °C 63 % 1013,0 hPa 0,0 mm 7,5 km/h (2 Bft) NW 317 ° 0 min 0,000 mm 1,1 UV-I 255 W/m² 7,5 °C 14,5 °C 11,3 km/h (2 Bft)
04.11.2017 14:40 14,6 °C 14,6 °C 62 % 1013,0 hPa 0,0 mm 11,9 km/h (2 Bft) W 261 ° 0 min 0,000 mm 1,1 UV-I 248 W/m² 7,4 °C 14,6 °C 16,1 km/h (3 Bft)
04.11.2017 14:41 14,6 °C 14,6 °C 62 % 1013,0 hPa 0,0 mm 11,8 km/h (2 Bft) W-SW 249 ° 0 min 0,000 mm 1,1 UV-I 246 W/m² 7,4 °C 14,6 °C 19,3 km/h (3 Bft)
04.11.2017 14:42 14,6 °C 14,6 °C 62 % 1013,0 hPa 0,0 mm 10,9 km/h (2 Bft) W-NW 298 ° 0 min 0,000 mm 1,0 UV-I 234 W/m² 7,4 °C 14,6 °C 16,1 km/h (3 Bft)
04.11.2017 14:43 14,6 °C 14,6 °C 62 % 1013,0 hPa 0,0 mm 6,7 km/h (2 Bft) W-NW 299 ° 0 min 0,000 mm 1,0 UV-I 223 W/m² 7,4 °C 14,6 °C 11,3 km/h (2 Bft)
04.11.2017 14:44 14,6 °C 14,6 °C 61 % 1013,0 hPa 0,0 mm 11,2 km/h (2 Bft) W-NW 296 ° 0 min 0,000 mm 1,0 UV-I 197 W/m² 7,2 °C 14,6 °C 14,5 km/h (3 Bft)
04.11.2017 14:45 14,5 °C 14,6 °C 61 % 1013,0 hPa 0,0 mm 8,5 km/h (2 Bft) W 273 ° 0 min 0,000 mm 1,0 UV-I 197 W/m² 7,1 °C 14,5 °C 12,9 km/h (3 Bft)
04.11.2017 14:46 14,5 °C 14,6 °C 63 % 1013,0 hPa 0,0 mm 9,2 km/h (2 Bft) W 267 ° 0 min 0,000 mm 1,0 UV-I 229 W/m² 7,5 °C 14,5 °C 17,7 km/h (3 Bft)
04.11.2017 14:47 14,4 °C 14,5 °C 62 % 1013,0 hPa 0,0 mm 8,2 km/h (2 Bft) W 281 ° 0 min 0,000 mm 1,0 UV-I 200 W/m² 7,2 °C 14,4 °C 12,9 km/h (3 Bft)
04.11.2017 14:48 14,3 °C 14,4 °C 62 % 1013,1 hPa 0,0 mm 12,4 km/h (3 Bft) W-SW 258 ° 0 min 0,000 mm 1,0 UV-I 206 W/m² 7,1 °C 14,3 °C 14,5 km/h (3 Bft)
04.11.2017 14:49 14,3 °C 14,3 °C 62 % 1013,1 hPa 0,0 mm 9,1 km/h (2 Bft) W-NW 300 ° 0 min 0,000 mm 1,0 UV-I 223 W/m² 7,1 °C 14,3 °C 11,3 km/h (2 Bft)
04.11.2017 14:50 14,3 °C 14,3 °C 61 % 1013,1 hPa 0,0 mm 10,0 km/h (2 Bft) W 264 ° 0 min 0,000 mm 1,0 UV-I 234 W/m² 6,9 °C 14,3 °C 14,5 km/h (3 Bft)
04.11.2017 14:51 14,3 °C 14,3 °C 62 % 1013,1 hPa 0,0 mm 8,2 km/h (2 Bft) W-NW 284 ° 0 min 0,000 mm 1,0 UV-I 225 W/m² 7,1 °C 14,3 °C 12,9 km/h (3 Bft)
04.11.2017 14:52 14,3 °C 14,3 °C 63 % 1013,1 hPa 0,0 mm 5,4 km/h (1 Bft) W-NW 292 ° 0 min 0,000 mm 1,0 UV-I 225 W/m² 7,4 °C 14,3 °C 9,7 km/h (2 Bft)
04.11.2017 14:53 14,2 °C 14,3 °C 63 % 1013,1 hPa 0,0 mm 5,6 km/h (1 Bft) W 267 ° 0 min 0,000 mm 1,0 UV-I 223 W/m² 7,3 °C 14,2 °C 9,7 km/h (2 Bft)
04.11.2017 14:54 14,1 °C 14,2 °C 64 % 1013,1 hPa 0,0 mm 4,1 km/h (1 Bft) W 271 ° 0 min 0,000 mm 0,9 UV-I 216 W/m² 7,4 °C 14,1 °C 4,8 km/h (1 Bft)
04.11.2017 14:55 14,2 °C 14,2 °C 63 % 1013,1 hPa 0,0 mm 5,7 km/h (1 Bft) NW 314 ° 0 min 0,000 mm 0,9 UV-I 221 W/m² 7,3 °C 14,2 °C 12,9 km/h (3 Bft)
04.11.2017 14:56 14,1 °C 14,2 °C 65 % 1013,1 hPa 0,0 mm 5,9 km/h (2 Bft) W 261 ° 0 min 0,000 mm 0,9 UV-I 216 W/m² 7,6 °C 14,1 °C 11,3 km/h (2 Bft)
04.11.2017 14:57 14,1 °C 14,1 °C 64 % 1013,1 hPa 0,0 mm 10,1 km/h (2 Bft) W-NW 282 ° 0 min 0,000 mm 0,9 UV-I 213 W/m² 7,4 °C 14,1 °C 17,7 km/h (3 Bft)
04.11.2017 14:58 14,1 °C 14,1 °C 63 % 1013,1 hPa 0,0 mm 5,7 km/h (1 Bft) W-NW 301 ° 0 min 0,000 mm 0,9 UV-I 206 W/m² 7,2 °C 14,1 °C 9,7 km/h (2 Bft)
04.11.2017 14:59 14,1 °C 14,1 °C 64 % 1013,1 hPa 0,0 mm 3,7 km/h (1 Bft) W-NW 301 ° 0 min 0,000 mm 0,9 UV-I 155 W/m² 7,4 °C 14,1 °C 8,0 km/h (2 Bft)
04.11.2017 15:00 14,0 °C 14,1 °C 65 % 1013,1 hPa 0,0 mm 1,5 km/h (1 Bft) W-NW 301 ° 0 min 0,152 mm 0,8 UV-I 149 W/m² 7,5 °C 14,0 °C 4,8 km/h (1 Bft)
04.11.2017 15:01 13,9 °C 14,0 °C 65 % 1013,1 hPa 0,0 mm 0,6 km/h (0 Bft) W-NW 298 ° 0 min 0,000 mm 0,8 UV-I 134 W/m² 7,4 °C 13,9 °C 1,6 km/h (1 Bft)
04.11.2017 15:02 13,8 °C 13,9 °C 65 % 1013,1 hPa 0,0 mm 1,1 km/h (1 Bft) W 275 ° 0 min 0,000 mm 0,8 UV-I 102 W/m² 7,3 °C 13,8 °C 4,8 km/h (1 Bft)
04.11.2017 15:04 13,9 °C 13,9 °C 65 % 1013,1 hPa 0,0 mm 2,8 km/h (1 Bft) W-NW 290 ° 0 min 0,000 mm 0,8 UV-I 104 W/m² 7,4 °C 13,9 °C 16,1 km/h (3 Bft)
04.11.2017 15:05 13,9 °C 13,9 °C 64 % 1013,1 hPa 0,0 mm 9,0 km/h (2 Bft) W 269 ° 0 min 0,000 mm 0,8 UV-I 91 W/m² 7,2 °C 13,9 °C 16,1 km/h (3 Bft)
04.11.2017 15:06 14,0 °C 14,0 °C 63 % 1013,1 hPa 0,0 mm 4,9 km/h (1 Bft) W-NW 298 ° 0 min 0,000 mm 0,7 UV-I 70 W/m² 7,1 °C 14,0 °C 12,9 km/h (3 Bft)
04.11.2017 15:07 14,0 °C 14,1 °C 64 % 1013,2 hPa 0,0 mm 0,1 km/h (0 Bft) W-NW 298 ° 0 min 0,000 mm 0,7 UV-I 67 W/m² 7,3 °C 14,0 °C 1,6 km/h (1 Bft)
04.11.2017 15:08 13,9 °C 14,1 °C 66 % 1013,2 hPa 0,0 mm 0,1 km/h (0 Bft) NW 320 ° 0 min 0,000 mm 0,7 UV-I 63 W/m² 7,7 °C 13,9 °C 1,6 km/h (1 Bft)
04.11.2017 15:09 13,8 °C 13,9 °C 65 % 1013,1 hPa 0,0 mm 0,4 km/h (0 Bft) NW 320 ° 0 min 0,000 mm 0,0 UV-I 49 W/m² 7,3 °C 13,8 °C 1,6 km/h (1 Bft)
04.11.2017 15:10 13,8 °C 13,8 °C 65 % 1013,1 hPa 0,0 mm 0,2 km/h (0 Bft) NW 320 ° 0 min 0,000 mm 0,0 UV-I 54 W/m² 7,3 °C 13,8 °C 1,6 km/h (1 Bft)
04.11.2017 15:11 13,8 °C 13,8 °C 65 % 1013,2 hPa 0,0 mm 0,0 km/h (0 Bft) NW 320 ° 0 min 0,000 mm 0,0 UV-I 49 W/m² 7,3 °C 13,8 °C 0,0 km/h (0 Bft)
04.11.2017 15:12 13,7 °C 13,8 °C 65 % 1013,1 hPa 0,0 mm 0,9 km/h (0 Bft) NW 320 ° 0 min 0,000 mm 0,0 UV-I 46 W/m² 7,2 °C 13,7 °C 1,6 km/h (1 Bft)
04.11.2017 15:13 13,7 °C 13,7 °C 64 % 1013,2 hPa 0,0 mm 6,2 km/h (2 Bft) W-NW 303 ° 0 min 0,000 mm 0,0 UV-I 44 W/m² 7,0 °C 13,7 °C 11,3 km/h (2 Bft)
04.11.2017 15:14 13,7 °C 13,8 °C 65 % 1013,1 hPa 0,0 mm 1,6 km/h (1 Bft) W-NW 303 ° 0 min 0,000 mm 0,0 UV-I 42 W/m² 7,2 °C 13,7 °C 4,8 km/h (1 Bft)
04.11.2017 15:15 13,7 °C 13,7 °C 67 % 1013,1 hPa 0,0 mm 0,1 km/h (0 Bft) W-NW 303 ° 0 min 0,000 mm 0,0 UV-I 40 W/m² 7,7 °C 13,7 °C 1,6 km/h (1 Bft)
04.11.2017 15:16 13,6 °C 13,7 °C 67 % 1013,1 hPa 0,0 mm 0,0 km/h (0 Bft) W-NW 303 ° 0 min 0,000 mm 0,0 UV-I 42 W/m² 7,6 °C 13,6 °C 0,0 km/h (0 Bft)
04.11.2017 15:17 13,5 °C 13,6 °C 67 % 1013,1 hPa 0,0 mm 0,6 km/h (0 Bft) W-NW 303 ° 0 min 0,000 mm 0,0 UV-I 42 W/m² 7,5 °C 13,5 °C 3,2 km/h (1 Bft)
04.11.2017 15:18 13,5 °C 13,5 °C 67 % 1013,1 hPa 0,0 mm 2,0 km/h (1 Bft) W-NW 303 ° 0 min 0,000 mm 0,0 UV-I 39 W/m² 7,5 °C 13,5 °C 3,2 km/h (1 Bft)
04.11.2017 15:19 13,5 °C 13,5 °C 66 % 1013,1 hPa 0,0 mm 3,0 km/h (1 Bft) W-SW 254 ° 0 min 0,000 mm 0,0 UV-I 37 W/m² 7,3 °C 13,5 °C 6,4 km/h (2 Bft)
04.11.2017 15:20 13,5 °C 13,6 °C 66 % 1013,1 hPa 0,0 mm 4,6 km/h (1 Bft) W-SW 248 ° 0 min 0,000 mm 0,0 UV-I 35 W/m² 7,3 °C 13,5 °C 6,4 km/h (2 Bft)
04.11.2017 15:21 13,6 °C 13,6 °C 66 % 1013,1 hPa 0,0 mm 3,4 km/h (1 Bft) W-SW 245 ° 0 min 0,000 mm 0,0 UV-I 35 W/m² 7,4 °C 13,6 °C 4,8 km/h (1 Bft)
04.11.2017 15:22 13,5 °C 13,6 °C 67 % 1013,1 hPa 0,0 mm 0,4 km/h (0 Bft) W-SW 245 ° 0 min 0,000 mm 0,0 UV-I 35 W/m² 7,5 °C 13,5 °C 1,6 km/h (1 Bft)
04.11.2017 15:23 13,4 °C 13,5 °C 67 % 1013,0 hPa 0,0 mm 3,1 km/h (1 Bft) S-SW 194 ° 0 min 0,000 mm 0,0 UV-I 35 W/m² 7,4 °C 13,4 °C 6,4 km/h (2 Bft)
04.11.2017 15:24 13,4 °C 13,4 °C 67 % 1013,0 hPa 0,0 mm 4,3 km/h (1 Bft) SO 142 ° 0 min 0,000 mm 0,0 UV-I 35 W/m² 7,4 °C 13,4 °C 8,0 km/h (2 Bft)
04.11.2017 15:25 13,3 °C 13,4 °C 68 % 1013,0 hPa 0,0 mm 0,8 km/h (0 Bft) SO 144 ° 0 min 0,000 mm 0,0 UV-I 35 W/m² 7,5 °C 13,3 °C 3,2 km/h (1 Bft)
04.11.2017 15:26 13,3 °C 13,3 °C 66 % 1013,0 hPa 0,0 mm 1,4 km/h (1 Bft) SO 144 ° 0 min 0,000 mm 0,0 UV-I 35 W/m² 7,1 °C 13,3 °C 4,8 km/h (1 Bft)
04.11.2017 15:27 13,3 °C 13,4 °C 67 % 1013,1 hPa 0,0 mm 2,7 km/h (1 Bft) SO 146 ° 0 min 0,000 mm 0,0 UV-I 35 W/m² 7,3 °C 13,3 °C 4,8 km/h (1 Bft)
04.11.2017 15:28 13,3 °C 13,4 °C 68 % 1013,0 hPa 0,0 mm 0,8 km/h (0 Bft) S-SO 150 ° 0 min 0,000 mm 0,0 UV-I 35 W/m² 7,5 °C 13,3 °C 3,2 km/h (1 Bft)
04.11.2017 15:29 13,3 °C 13,4 °C 69 % 1013,0 hPa 0,0 mm 2,8 km/h (1 Bft) S-SO 153 ° 0 min 0,000 mm 0,0 UV-I 35 W/m² 7,7 °C 13,3 °C 4,8 km/h (1 Bft)
04.11.2017 15:30 13,3 °C 13,3 °C 68 % 1013,0 hPa 0,0 mm 3,3 km/h (1 Bft) S-SO 157 ° 0 min 0,000 mm 0,0 UV-I 35 W/m² 7,5 °C 13,3 °C 4,8 km/h (1 Bft)
04.11.2017 15:31 13,3 °C 13,3 °C 68 % 1013,0 hPa 0,0 mm 2,7 km/h (1 Bft) S-SW 193 ° 0 min 0,000 mm 0,0 UV-I 35 W/m² 7,5 °C 13,3 °C 6,4 km/h (2 Bft)
04.11.2017 15:32 13,3 °C 13,3 °C 68 % 1013,0 hPa 0,0 mm 4,9 km/h (1 Bft) S-SO 167 ° 0 min 0,000 mm 0,0 UV-I 35 W/m² 7,5 °C 13,3 °C 8,0 km/h (2 Bft)
04.11.2017 15:33 13,2 °C 13,3 °C 68 % 1013,0 hPa 0,0 mm 4,5 km/h (1 Bft) S 185 ° 0 min 0,000 mm 0,0 UV-I 35 W/m² 7,4 °C 13,2 °C 8,0 km/h (2 Bft)
04.11.2017 15:34 13,2 °C 13,2 °C 67 % 1013,0 hPa 0,0 mm 3,1 km/h (1 Bft) S 185 ° 0 min 0,000 mm 0,0 UV-I 35 W/m² 7,2 °C 13,2 °C 4,8 km/h (1 Bft)
04.11.2017 15:35 13,3 °C 13,3 °C 67 % 1013,0 hPa 0,0 mm 2,6 km/h (1 Bft) S 185 ° 0 min 0,000 mm 0,0 UV-I 35 W/m² 7,3 °C 13,3 °C 4,8 km/h (1 Bft)
04.11.2017 15:36 13,3 °C 13,3 °C 67 % 1013,0 hPa 0,0 mm 0,0 km/h (0 Bft) S 185 ° 0 min 0,000 mm 0,0 UV-I 35 W/m² 7,3 °C 13,3 °C 0,0 km/h (0 Bft)
04.11.2017 15:37 13,2 °C 13,3 °C 69 % 1013,0 hPa 0,0 mm 0,8 km/h (0 Bft) S 185 ° 0 min 0,000 mm 0,0 UV-I 35 W/m² 7,6 °C 13,2 °C 1,6 km/h (1 Bft)
04.11.2017 15:38 13,1 °C 13,2 °C 69 % 1013,0 hPa 0,0 mm 0,1 km/h (0 Bft) S 185 ° 0 min 0,000 mm 0,0 UV-I 35 W/m² 7,5 °C 13,1 °C 1,6 km/h (1 Bft)
04.11.2017 15:39 13,0 °C 13,1 °C 70 % 1013,0 hPa 0,0 mm 0,0 km/h (0 Bft) S 185 ° 0 min 0,000 mm 0,0 UV-I 35 W/m² 7,7 °C 13,0 °C 0,0 km/h (0 Bft)
04.11.2017 15:40 12,9 °C 13,0 °C 70 % 1013,0 hPa 0,0 mm 0,0 km/h (0 Bft) S 185 ° 0 min 0,000 mm 0,0 UV-I 35 W/m² 7,6 °C 12,9 °C 0,0 km/h (0 Bft)
04.11.2017 15:41 12,8 °C 12,9 °C 70 % 1013,0 hPa 0,0 mm 0,0 km/h (0 Bft) S 185 ° 0 min 0,000 mm 0,0 UV-I 35 W/m² 7,5 °C 12,8 °C 0,0 km/h (0 Bft)
04.11.2017 15:42 12,8 °C 12,8 °C 70 % 1013,0 hPa 0,0 mm 0,0 km/h (0 Bft) S 185 ° 0 min 0,000 mm 0,0 UV-I 35 W/m² 7,5 °C 12,8 °C 0,0 km/h (0 Bft)
04.11.2017 15:43 12,8 °C 12,8 °C 70 % 1013,0 hPa 0,0 mm 0,0 km/h (0 Bft) S 185 ° 0 min 0,000 mm 0,0 UV-I 35 W/m² 7,5 °C 12,8 °C 0,0 km/h (0 Bft)
04.11.2017 15:44 12,8 °C 12,8 °C 70 % 1013,0 hPa 0,0 mm 0,0 km/h (0 Bft) S 185 ° 0 min 0,000 mm 0,0 UV-I 35 W/m² 7,5 °C 12,8 °C 0,0 km/h (0 Bft)
04.11.2017 15:45 12,8 °C 12,8 °C 70 % 1013,0 hPa 0,0 mm 0,3 km/h (0 Bft) S 185 ° 0 min 0,000 mm 0,0 UV-I 35 W/m² 7,5 °C 12,8 °C 1,6 km/h (1 Bft)
04.11.2017 15:46 12,8 °C 12,8 °C 70 % 1013,1 hPa 0,0 mm 0,5 km/h (0 Bft) S 185 ° 0 min 0,000 mm 0,0 UV-I 35 W/m² 7,5 °C 12,8 °C 1,6 km/h (1 Bft)
04.11.2017 15:47 12,8 °C 12,8 °C 70 % 1013,1 hPa 0,0 mm 0,0 km/h (0 Bft) S 185 ° 0 min 0,000 mm 0,0 UV-I 37 W/m² 7,5 °C 12,8 °C 0,0 km/h (0 Bft)
04.11.2017 15:48 12,8 °C 12,8 °C 70 % 1013,1 hPa 0,0 mm 0,0 km/h (0 Bft) S 185 ° 0 min 0,000 mm 0,0 UV-I 37 W/m² 7,5 °C 12,8 °C 0,0 km/h (0 Bft)
04.11.2017 15:49 12,8 °C 12,8 °C 70 % 1013,0 hPa 0,0 mm 0,0 km/h (0 Bft) S 185 ° 0 min 0,000 mm 0,0 UV-I 37 W/m² 7,5 °C 12,8 °C 0,0 km/h (0 Bft)
04.11.2017 15:50 12,8 °C 12,8 °C 70 % 1013,1 hPa 0,0 mm 0,0 km/h (0 Bft) S 185 ° 0 min 0,000 mm 0,0 UV-I 37 W/m² 7,5 °C 12,8 °C 0,0 km/h (0 Bft)
04.11.2017 15:51 12,7 °C 12,8 °C 70 % 1013,1 hPa 0,0 mm 0,0 km/h (0 Bft) S 185 ° 0 min 0,000 mm 0,0 UV-I 39 W/m² 7,4 °C 12,7 °C 0,0 km/h (0 Bft)
04.11.2017 15:52 12,7 °C 12,8 °C 71 % 1013,0 hPa 0,0 mm 1,1 km/h (1 Bft) S 185 ° 0 min 0,000 mm 0,0 UV-I 39 W/m² 7,6 °C 12,7 °C 3,2 km/h (1 Bft)
04.11.2017 15:53 12,7 °C 12,7 °C 71 % 1013,0 hPa 0,0 mm 0,7 km/h (0 Bft) S 185 ° 0 min 0,000 mm 0,0 UV-I 39 W/m² 7,6 °C 12,7 °C 1,6 km/h (1 Bft)
04.11.2017 15:54 12,6 °C 12,7 °C 71 % 1013,0 hPa 0,0 mm 0,6 km/h (0 Bft) S 185 ° 0 min 0,000 mm 0,0 UV-I 39 W/m² 7,5 °C 12,6 °C 1,6 km/h (1 Bft)
04.11.2017 15:55 12,6 °C 12,6 °C 72 % 1013,0 hPa 0,0 mm 0,1 km/h (0 Bft) S 185 ° 0 min 0,000 mm 0,0 UV-I 39 W/m² 7,7 °C 12,6 °C 1,6 km/h (1 Bft)
04.11.2017 15:56 12,5 °C 12,6 °C 71 % 1013,0 hPa 0,0 mm 0,0 km/h (0 Bft) S 185 ° 0 min 0,000 mm 0,0 UV-I 39 W/m² 7,4 °C 12,5 °C 0,0 km/h (0 Bft)
04.11.2017 15:57 12,4 °C 12,5 °C 72 % 1013,0 hPa 0,0 mm 0,0 km/h (0 Bft) S 185 ° 0 min 0,000 mm 0,0 UV-I 40 W/m² 7,5 °C 12,4 °C 0,0 km/h (0 Bft)
04.11.2017 15:58 12,4 °C 12,4 °C 72 % 1013,0 hPa 0,0 mm 0,0 km/h (0 Bft) S 185 ° 0 min 0,000 mm 0,0 UV-I 40 W/m² 7,5 °C 12,4 °C 0,0 km/h (0 Bft)
04.11.2017 15:59 12,4 °C 12,4 °C 73 % 1013,0 hPa 0,0 mm 0,0 km/h (0 Bft) S 185 ° 0 min 0,000 mm 0,0 UV-I 40 W/m² 7,7 °C 12,4 °C 0,0 km/h (0 Bft)
04.11.2017 16:00 12,3 °C 12,4 °C 73 % 1013,0 hPa 0,0 mm 0,0 km/h (0 Bft) S 185 ° 0 min 0,000 mm 0,0 UV-I 40 W/m² 7,6 °C 12,3 °C 0,0 km/h (0 Bft)
04.11.2017 16:01 12,3 °C 12,3 °C 73 % 1013,0 hPa 0,0 mm 0,7 km/h (0 Bft) S 185 ° 0 min 0,025 mm 0,0 UV-I 42 W/m² 7,6 °C 12,3 °C 3,2 km/h (1 Bft)
04.11.2017 16:02 12,2 °C 12,3 °C 73 % 1013,0 hPa 0,0 mm 2,3 km/h (1 Bft) S 185 ° 0 min 0,000 mm 0,0 UV-I 42 W/m² 7,5 °C 12,2 °C 3,2 km/h (1 Bft)
04.11.2017 16:03 12,2 °C 12,2 °C 73 % 1013,0 hPa 0,0 mm 1,8 km/h (1 Bft) S 185 ° 0 min 0,000 mm 0,0 UV-I 44 W/m² 7,5 °C 12,2 °C 3,2 km/h (1 Bft)
04.11.2017 16:04 12,1 °C 12,2 °C 74 % 1013,0 hPa 0,0 mm 2,5 km/h (1 Bft) S 185 ° 0 min 0,000 mm 0,0 UV-I 44 W/m² 7,6 °C 12,1 °C 3,2 km/h (1 Bft)
04.11.2017 16:05 11,9 °C 12,1 °C 74 % 1013,0 hPa 0,0 mm 1,3 km/h (1 Bft) S 185 ° 0 min 0,000 mm 0,0 UV-I 44 W/m² 7,4 °C 11,9 °C 1,6 km/h (1 Bft)
04.11.2017 16:06 11,8 °C 12,0 °C 74 % 1013,1 hPa 0,0 mm 1,6 km/h (1 Bft) S 185 ° 0 min 0,000 mm 0,0 UV-I 44 W/m² 7,3 °C 11,8 °C 3,2 km/h (1 Bft)
04.11.2017 16:07 11,8 °C 11,8 °C 74 % 1013,0 hPa 0,0 mm 1,4 km/h (1 Bft) S 185 ° 0 min 0,000 mm 0,0 UV-I 44 W/m² 7,3 °C 11,8 °C 1,6 km/h (1 Bft)
04.11.2017 16:08 11,9 °C 11,9 °C 74 % 1013,0 hPa 0,0 mm 1,8 km/h (1 Bft) S 185 ° 0 min 0,000 mm 0,0 UV-I 44 W/m² 7,4 °C 11,9 °C 3,2 km/h (1 Bft)
04.11.2017 16:09 12,0 °C 12,0 °C 73 % 1013,0 hPa 0,0 mm 1,9 km/h (1 Bft) S 185 ° 0 min 0,000 mm 0,0 UV-I 44 W/m² 7,3 °C 12,0 °C 3,2 km/h (1 Bft)
04.11.2017 16:10 12,1 °C 12,1 °C 73 % 1013,0 hPa 0,0 mm 0,2 km/h (0 Bft) S 185 ° 0 min 0,000 mm 0,0 UV-I 44 W/m² 7,4 °C 12,1 °C 1,6 km/h (1 Bft)
04.11.2017 16:11 12,1 °C 12,1 °C 73 % 1013,1 hPa 0,0 mm 0,1 km/h (0 Bft) S 185 ° 0 min 0,000 mm 0,0 UV-I 42 W/m² 7,4 °C 12,1 °C 1,6 km/h (1 Bft)
04.11.2017 16:12 12,1 °C 12,2 °C 73 % 1013,0 hPa 0,0 mm 2,7 km/h (1 Bft) S 185 ° 0 min 0,000 mm 0,0 UV-I 42 W/m² 7,4 °C 12,1 °C 3,2 km/h (1 Bft)
04.11.2017 16:13 11,9 °C 12,1 °C 75 % 1013,1 hPa 0,0 mm 3,0 km/h (1 Bft) S 185 ° 0 min 0,000 mm 0,0 UV-I 42 W/m² 7,6 °C 11,9 °C 4,8 km/h (1 Bft)
04.11.2017 16:14 11,8 °C 11,9 °C 75 % 1013,0 hPa 0,0 mm 0,6 km/h (0 Bft) S 185 ° 0 min 0,000 mm 0,0 UV-I 40 W/m² 7,5 °C 11,8 °C 3,2 km/h (1 Bft)
04.11.2017 16:15 11,6 °C 11,8 °C 76 % 1013,0 hPa 0,0 mm 0,7 km/h (0 Bft) S 185 ° 0 min 0,000 mm 0,0 UV-I 39 W/m² 7,5 °C 11,6 °C 3,2 km/h (1 Bft)
04.11.2017 16:16 11,6 °C 11,6 °C 76 % 1013,0 hPa 0,0 mm 5,0 km/h (1 Bft) S 185 ° 0 min 0,000 mm 0,0 UV-I 39 W/m² 7,5 °C 11,6 °C 6,4 km/h (2 Bft)
04.11.2017 16:17 11,6 °C 11,6 °C 76 % 1013,0 hPa 0,0 mm 2,9 km/h (1 Bft) S 185 ° 0 min 0,000 mm 0,0 UV-I 39 W/m² 7,5 °C 11,6 °C 6,4 km/h (2 Bft)
04.11.2017 16:18 11,6 °C 11,6 °C 77 % 1013,0 hPa 0,0 mm 3,2 km/h (1 Bft) S 185 ° 0 min 0,000 mm 0,0 UV-I 35 W/m² 7,7 °C 11,6 °C 4,8 km/h (1 Bft)
04.11.2017 16:19 11,6 °C 11,6 °C 76 % 1013,0 hPa 0,0 mm 4,0 km/h (1 Bft) S 185 ° 0 min 0,000 mm 0,0 UV-I 35 W/m² 7,5 °C 11,6 °C 6,4 km/h (2 Bft)
04.11.2017 16:20 11,6 °C 11,6 °C 76 % 1013,0 hPa 0,0 mm 2,7 km/h (1 Bft) S 185 ° 0 min 0,000 mm 0,0 UV-I 35 W/m² 7,5 °C 11,6 °C 4,8 km/h (1 Bft)
04.11.2017 16:21 11,6 °C 11,6 °C 76 % 1013,0 hPa 0,0 mm 0,7 km/h (0 Bft) S 185 ° 0 min 0,000 mm 0,0 UV-I 32 W/m² 7,5 °C 11,6 °C 3,2 km/h (1 Bft)
04.11.2017 16:22 11,6 °C 11,6 °C 76 % 1013,1 hPa 0,0 mm 2,3 km/h (1 Bft) S 185 ° 0 min 0,000 mm 0,0 UV-I 30 W/m² 7,5 °C 11,6 °C 3,2 km/h (1 Bft)
04.11.2017 16:23 11,6 °C 11,6 °C 76 % 1013,1 hPa 0,0 mm 3,8 km/h (1 Bft) S 185 ° 0 min 0,000 mm 0,0 UV-I 28 W/m² 7,5 °C 11,6 °C 4,8 km/h (1 Bft)
04.11.2017 16:24 11,6 °C 11,6 °C 76 % 1013,1 hPa 0,0 mm 1,5 km/h (1 Bft) S 185 ° 0 min 0,000 mm 0,0 UV-I 28 W/m² 7,5 °C 11,6 °C 3,2 km/h (1 Bft)
04.11.2017 16:25 11,6 °C 11,6 °C 76 % 1013,1 hPa 0,0 mm 1,0 km/h (0 Bft) S 185 ° 0 min 0,000 mm 0,0 UV-I 26 W/m² 7,5 °C 11,6 °C 3,2 km/h (1 Bft)
04.11.2017 16:26 11,6 °C 11,6 °C 76 % 1013,0 hPa 0,0 mm 0,3 km/h (0 Bft) S 185 ° 0 min 0,000 mm 0,0 UV-I 26 W/m² 7,5 °C 11,6 °C 1,6 km/h (1 Bft)
04.11.2017 16:27 11,5 °C 11,6 °C 76 % 1013,1 hPa 0,0 mm 0,4 km/h (0 Bft) S 185 ° 0 min 0,000 mm 0,0 UV-I 23 W/m² 7,4 °C 11,5 °C 1,6 km/h (1 Bft)
04.11.2017 16:28 11,5 °C 11,5 °C 77 % 1013,1 hPa 0,0 mm 0,0 km/h (0 Bft) S 185 ° 0 min 0,000 mm 0,0 UV-I 23 W/m² 7,6 °C 11,5 °C 0,0 km/h (0 Bft)
04.11.2017 16:29 11,5 °C 11,5 °C 76 % 1013,1 hPa 0,0 mm 0,0 km/h (0 Bft) S 185 ° 0 min 0,000 mm 0,0 UV-I 21 W/m² 7,4 °C 11,5 °C 0,0 km/h (0 Bft)
04.11.2017 16:30 11,4 °C 11,5 °C 77 % 1013,1 hPa 0,0 mm 0,0 km/h (0 Bft) S 185 ° 0 min 0,000 mm 0,0 UV-I 19 W/m² 7,5 °C 11,4 °C 0,0 km/h (0 Bft)
04.11.2017 16:31 11,4 °C 11,4 °C 77 % 1013,1 hPa 0,0 mm 0,1 km/h (0 Bft) S 185 ° 0 min 0,000 mm 0,0 UV-I 19 W/m² 7,5 °C 11,4 °C 1,6 km/h (1 Bft)
04.11.2017 16:32 11,4 °C 11,4 °C 77 % 1013,1 hPa 0,0 mm 0,0 km/h (0 Bft) S 185 ° 0 min 0,000 mm 0,0 UV-I 18 W/m² 7,5 °C 11,4 °C 0,0 km/h (0 Bft)
04.11.2017 16:33 11,4 °C 11,4 °C 76 % 1013,1 hPa 0,0 mm 0,0 km/h (0 Bft) S 185 ° 0 min 0,000 mm 0,0 UV-I 16 W/m² 7,3 °C 11,4 °C 0,0 km/h (0 Bft)
04.11.2017 16:34 11,3 °C 11,4 °C 77 % 1013,1 hPa 0,0 mm 0,0 km/h (0 Bft) S 185 ° 0 min 0,000 mm 0,0 UV-I 16 W/m² 7,4 °C 11,3 °C 0,0 km/h (0 Bft)
04.11.2017 16:35 11,1 °C 11,3 °C 77 % 1013,1 hPa 0,0 mm 0,0 km/h (0 Bft) S 185 ° 0 min 0,000 mm 0,0 UV-I 14 W/m² 7,2 °C 11,1 °C 0,0 km/h (0 Bft)
04.11.2017 16:36 10,7 °C 11,1 °C 79 % 1013,1 hPa 0,0 mm 0,0 km/h (0 Bft) S 185 ° 0 min 0,000 mm 0,0 UV-I 14 W/m² 7,2 °C 10,7 °C 0,0 km/h (0 Bft)
04.11.2017 16:37 10,6 °C 10,7 °C 79 % 1013,1 hPa 0,0 mm 0,3 km/h (0 Bft) S 185 ° 0 min 0,000 mm 0,0 UV-I 12 W/m² 7,1 °C 10,6 °C 3,2 km/h (1 Bft)
04.11.2017 16:38 10,4 °C 10,6 °C 79 % 1013,1 hPa 0,0 mm 2,2 km/h (1 Bft) S 183 ° 0 min 0,000 mm 0,0 UV-I 12 W/m² 6,9 °C 10,4 °C 3,2 km/h (1 Bft)
04.11.2017 16:39 10,6 °C 10,6 °C 80 % 1013,1 hPa 0,0 mm 3,0 km/h (1 Bft) S 182 ° 0 min 0,000 mm 0,0 UV-I 11 W/m² 7,3 °C 10,6 °C 4,8 km/h (1 Bft)
04.11.2017 16:40 10,6 °C 10,6 °C 80 % 1013,1 hPa 0,0 mm 1,0 km/h (0 Bft) S 182 ° 0 min 0,000 mm 0,0 UV-I 11 W/m² 7,3 °C 10,6 °C 1,6 km/h (1 Bft)
04.11.2017 16:41 10,6 °C 10,6 °C 80 % 1013,1 hPa 0,0 mm 0,1 km/h (0 Bft) S 182 ° 0 min 0,000 mm 0,0 UV-I 9 W/m² 7,3 °C 10,6 °C 1,6 km/h (1 Bft)
04.11.2017 16:42 10,6 °C 10,6 °C 80 % 1013,1 hPa 0,0 mm 3,9 km/h (1 Bft) S 182 ° 0 min 0,000 mm 0,0 UV-I 9 W/m² 7,3 °C 10,6 °C 6,4 km/h (2 Bft)
04.11.2017 16:43 10,6 °C 10,6 °C 79 % 1013,0 hPa 0,0 mm 2,3 km/h (1 Bft) S 182 ° 0 min 0,000 mm 0,0 UV-I 7 W/m² 7,1 °C 10,6 °C 4,8 km/h (1 Bft)
04.11.2017 16:44 10,6 °C 10,6 °C 79 % 1013,0 hPa 0,0 mm 2,3 km/h (1 Bft) S 182 ° 0 min 0,000 mm 0,0 UV-I 7 W/m² 7,1 °C 10,6 °C 3,2 km/h (1 Bft)
04.11.2017 16:45 10,7 °C 10,7 °C 79 % 1013,1 hPa 0,0 mm 0,0 km/h (0 Bft) S 182 ° 0 min 0,000 mm 0,0 UV-I 7 W/m² 7,2 °C 10,7 °C 0,0 km/h (0 Bft)
04.11.2017 16:46 10,7 °C 10,7 °C 79 % 1013,1 hPa 0,0 mm 0,3 km/h (0 Bft) S 182 ° 0 min 0,000 mm 0,0 UV-I 7 W/m² 7,2 °C 10,7 °C 1,6 km/h (1 Bft)
04.11.2017 16:47 10,7 °C 10,7 °C 79 % 1013,0 hPa 0,0 mm 2,0 km/h (1 Bft) S 182 ° 0 min 0,000 mm 0,0 UV-I 5 W/m² 7,2 °C 10,7 °C 4,8 km/h (1 Bft)
04.11.2017 16:48 10,7 °C 10,7 °C 79 % 1013,1 hPa 0,0 mm 2,5 km/h (1 Bft) S 182 ° 0 min 0,000 mm 0,0 UV-I 5 W/m² 7,2 °C 10,7 °C 3,2 km/h (1 Bft)
04.11.2017 16:49 10,7 °C 10,7 °C 79 % 1013,0 hPa 0,0 mm 1,6 km/h (1 Bft) S 182 ° 0 min 0,000 mm 0,0 UV-I 5 W/m² 7,2 °C 10,7 °C 3,2 km/h (1 Bft)
04.11.2017 16:50 10,7 °C 10,7 °C 79 % 1013,0 hPa 0,0 mm 1,1 km/h (1 Bft) S 182 ° 0 min 0,000 mm 0,0 UV-I 5 W/m² 7,2 °C 10,7 °C 1,6 km/h (1 Bft)
04.11.2017 16:51 10,7 °C 10,7 °C 79 % 1013,0 hPa 0,0 mm 3,1 km/h (1 Bft) S 182 ° 0 min 0,000 mm 0,0 UV-I 5 W/m² 7,2 °C 10,7 °C 3,2 km/h (1 Bft)
04.11.2017 16:52 10,7 °C 10,7 °C 79 % 1013,1 hPa 0,0 mm 0,4 km/h (0 Bft) S 182 ° 0 min 0,000 mm 0,0 UV-I 5 W/m² 7,2 °C 10,7 °C 1,6 km/h (1 Bft)
04.11.2017 16:53 10,6 °C 10,7 °C 79 % 1013,0 hPa 0,0 mm 1,2 km/h (1 Bft) S 182 ° 0 min 0,000 mm 0,0 UV-I 0 W/m² 7,1 °C 10,6 °C 1,6 km/h (1 Bft)
04.11.2017 16:54 10,6 °C 10,7 °C 79 % 1013,1 hPa 0,0 mm 1,8 km/h (1 Bft) S 182 ° 0 min 0,000 mm 0,0 UV-I 0 W/m² 7,1 °C 10,6 °C 3,2 km/h (1 Bft)
04.11.2017 16:55 10,6 °C 10,6 °C 80 % 1013,0 hPa 0,0 mm 1,4 km/h (1 Bft) S 182 ° 0 min 0,000 mm 0,0 UV-I 0 W/m² 7,3 °C 10,6 °C 3,2 km/h (1 Bft)
04.11.2017 16:56 10,5 °C 10,6 °C 80 % 1013,0 hPa 0,0 mm 2,7 km/h (1 Bft) S 182 ° 0 min 0,000 mm 0,0 UV-I 0 W/m² 7,2 °C 10,5 °C 3,2 km/h (1 Bft)
04.11.2017 16:57 10,5 °C 10,5 °C 80 % 1013,0 hPa 0,0 mm 2,3 km/h (1 Bft) S 182 ° 0 min 0,000 mm 0,0 UV-I 0 W/m² 7,2 °C 10,5 °C 4,8 km/h (1 Bft)
04.11.2017 16:58 10,4 °C 10,5 °C 80 % 1013,0 hPa 0,0 mm 1,1 km/h (1 Bft) S 182 ° 0 min 0,000 mm 0,0 UV-I 0 W/m² 7,1 °C 10,4 °C 1,6 km/h (1 Bft)
04.11.2017 16:59 10,4 °C 10,4 °C 80 % 1013,0 hPa 0,0 mm 2,5 km/h (1 Bft) S 182 ° 0 min 0,000 mm 0,0 UV-I 0 W/m² 7,1 °C 10,4 °C 3,2 km/h (1 Bft)
04.11.2017 17:00 10,4 °C 10,4 °C 79 % 1013,0 hPa 0,0 mm 1,5 km/h (1 Bft) S 182 ° 0 min 0,000 mm 0,0 UV-I 0 W/m² 6,9 °C 10,4 °C 3,2 km/h (1 Bft)
04.11.2017 17:01 10,3 °C 10,4 °C 79 % 1013,0 hPa 0,0 mm 0,2 km/h (0 Bft) S 182 ° 0 min 0,026 mm 0,0 UV-I 0 W/m² 6,8 °C 10,3 °C 1,6 km/h (1 Bft)
04.11.2017 17:02 10,3 °C 10,3 °C 79 % 1012,9 hPa 0,0 mm 0,2 km/h (0 Bft) S 182 ° 0 min 0,000 mm 0,0 UV-I 0 W/m² 6,8 °C 10,3 °C 1,6 km/h (1 Bft)
04.11.2017 17:03 10,2 °C 10,3 °C 79 % 1012,9 hPa 0,0 mm 3,7 km/h (1 Bft) S-SW 192 ° 0 min 0,000 mm 0,0 UV-I 0 W/m² 6,7 °C 10,2 °C 6,4 km/h (2 Bft)
04.11.2017 17:04 9,9 °C 10,2 °C 79 % 1013,0 hPa 0,0 mm 5,9 km/h (2 Bft) S-SW 192 ° 0 min 0,000 mm 0,0 UV-I 0 W/m² 6,4 °C 9,4 °C 6,4 km/h (2 Bft)
04.11.2017 17:05 9,8 °C 9,9 °C 81 % 1013,0 hPa 0,0 mm 6,0 km/h (2 Bft) S-SW 192 ° 0 min 0,000 mm 0,0 UV-I 0 W/m² 6,7 °C 9,2 °C 6,4 km/h (2 Bft)
04.11.2017 17:06 9,6 °C 9,8 °C 82 % 1013,0 hPa 0,0 mm 4,3 km/h (1 Bft) S-SW 192 ° 0 min 0,000 mm 0,0 UV-I 0 W/m² 6,7 °C 9,6 °C 6,4 km/h (2 Bft)
04.11.2017 17:07 9,5 °C 9,6 °C 83 % 1013,0 hPa 0,0 mm 2,6 km/h (1 Bft) S-SW 192 ° 0 min 0,000 mm 0,0 UV-I 0 W/m² 6,8 °C 9,5 °C 4,8 km/h (1 Bft)
04.11.2017 17:08 9,4 °C 9,5 °C 83 % 1013,0 hPa 0,0 mm 2,8 km/h (1 Bft) S-SW 192 ° 0 min 0,000 mm 0,0 UV-I 0 W/m² 6,7 °C 9,4 °C 4,8 km/h (1 Bft)
04.11.2017 17:09 9,4 °C 9,4 °C 83 % 1012,9 hPa 0,0 mm 3,7 km/h (1 Bft) S-SW 192 ° 0 min 0,000 mm 0,0 UV-I 0 W/m² 6,7 °C 9,4 °C 4,8 km/h (1 Bft)
04.11.2017 17:10 9,5 °C 9,5 °C 83 % 1013,0 hPa 0,0 mm 2,5 km/h (1 Bft) S-SW 192 ° 0 min 0,000 mm 0,0 UV-I 0 W/m² 6,8 °C 9,5 °C 3,2 km/h (1 Bft)
04.11.2017 17:11 9,5 °C 9,5 °C 83 % 1012,9 hPa 0,0 mm 0,9 km/h (0 Bft) S-SW 192 ° 0 min 0,000 mm 0,0 UV-I 0 W/m² 6,8 °C 9,5 °C 1,6 km/h (1 Bft)
04.11.2017 17:12 9,6 °C 9,6 °C 83 % 1012,9 hPa 0,0 mm 0,0 km/h (0 Bft) S-SW 192 ° 0 min 0,000 mm 0,0 UV-I 0 W/m² 6,9 °C 9,6 °C 0,0 km/h (0 Bft)
04.11.2017 17:13 9,5 °C 9,6 °C 83 % 1012,9 hPa 0,0 mm 0,0 km/h (0 Bft) S-SW 192 ° 0 min 0,000 mm 0,0 UV-I 0 W/m² 6,8 °C 9,5 °C 0,0 km/h (0 Bft)
04.11.2017 17:14 9,4 °C 9,5 °C 83 % 1012,9 hPa 0,0 mm 0,0 km/h (0 Bft) S-SW 192 ° 0 min 0,000 mm 0,0 UV-I 0 W/m² 6,7 °C 9,4 °C 0,0 km/h (0 Bft)
04.11.2017 17:15 9,4 °C 9,4 °C 83 % 1012,8 hPa 0,0 mm 0,0 km/h (0 Bft) S-SW 192 ° 0 min 0,000 mm 0,0 UV-I 0 W/m² 6,7 °C 9,4 °C 0,0 km/h (0 Bft)
04.11.2017 17:16 9,3 °C 9,4 °C 83 % 1012,9 hPa 0,0 mm 0,0 km/h (0 Bft) S-SW 192 ° 0 min 0,000 mm 0,0 UV-I 0 W/m² 6,6 °C 9,3 °C 0,0 km/h (0 Bft)
04.11.2017 17:17 9,3 °C 9,3 °C 84 % 1012,9 hPa 0,0 mm 0,2 km/h (0 Bft) S-SW 192 ° 0 min 0,000 mm 0,0 UV-I 0 W/m² 6,7 °C 9,3 °C 1,6 km/h (1 Bft)
04.11.2017 17:18 9,3 °C 9,3 °C 84 % 1013,0 hPa 0,0 mm 1,4 km/h (1 Bft) S-SW 192 ° 0 min 0,000 mm 0,0 UV-I 0 W/m² 6,7 °C 9,3 °C 3,2 km/h (1 Bft)
04.11.2017 17:19 9,3 °C 9,3 °C 84 % 1013,0 hPa 0,0 mm 0,2 km/h (0 Bft) S-SW 192 ° 0 min 0,000 mm 0,0 UV-I 0 W/m² 6,7 °C 9,3 °C 1,6 km/h (1 Bft)
04.11.2017 17:20 9,3 °C 9,3 °C 84 % 1012,9 hPa 0,0 mm 0,0 km/h (0 Bft) S-SW 192 ° 0 min 0,000 mm 0,0 UV-I 0 W/m² 6,7 °C 9,3 °C 0,0 km/h (0 Bft)
04.11.2017 17:21 9,2 °C 9,3 °C 84 % 1012,9 hPa 0,0 mm 0,0 km/h (0 Bft) S-SW 192 ° 0 min 0,000 mm 0,0 UV-I 0 W/m² 6,6 °C 9,2 °C 0,0 km/h (0 Bft)
04.11.2017 17:22 9,1 °C 9,2 °C 83 % 1012,9 hPa 0,0 mm 0,0 km/h (0 Bft) S-SW 192 ° 0 min 0,000 mm 0,0 UV-I 0 W/m² 6,4 °C 9,1 °C 0,0 km/h (0 Bft)
04.11.2017 17:23 8,8 °C 9,1 °C 83 % 1012,9 hPa 0,0 mm 0,0 km/h (0 Bft) S-SW 192 ° 0 min 0,000 mm 0,0 UV-I 0 W/m² 6,1 °C 8,8 °C 0,0 km/h (0 Bft)
04.11.2017 17:24 8,6 °C 8,8 °C 84 % 1012,9 hPa 0,0 mm 0,0 km/h (0 Bft) S-SW 192 ° 0 min 0,000 mm 0,0 UV-I 0 W/m² 6,1 °C 8,6 °C 0,0 km/h (0 Bft)
04.11.2017 17:25 8,4 °C 8,6 °C 85 % 1012,9 hPa 0,0 mm 0,0 km/h (0 Bft) S-SW 192 ° 0 min 0,000 mm 0,0 UV-I 0 W/m² 6,0 °C 8,4 °C 0,0 km/h (0 Bft)
04.11.2017 17:26 8,3 °C 8,4 °C 85 % 1012,9 hPa 0,0 mm 0,0 km/h (0 Bft) S-SW 192 ° 0 min 0,000 mm 0,0 UV-I 0 W/m² 5,9 °C 8,3 °C 0,0 km/h (0 Bft)
04.11.2017 17:27 8,3 °C 8,3 °C 86 % 1013,0 hPa 0,0 mm 0,0 km/h (0 Bft) S-SW 192 ° 0 min 0,000 mm 0,0 UV-I 0 W/m² 6,1 °C 8,3 °C 0,0 km/h (0 Bft)
04.11.2017 17:28 8,2 °C 8,3 °C 85 % 1013,0 hPa 0,0 mm 0,0 km/h (0 Bft) S-SW 192 ° 0 min 0,000 mm 0,0 UV-I 0 W/m² 5,8 °C 8,2 °C 0,0 km/h (0 Bft)
04.11.2017 17:29 8,2 °C 8,2 °C 86 % 1013,0 hPa 0,0 mm 0,0 km/h (0 Bft) S-SW 192 ° 0 min 0,000 mm 0,0 UV-I 0 W/m² 6,0 °C 8,2 °C 0,0 km/h (0 Bft)
04.11.2017 17:30 8,1 °C 8,2 °C 86 % 1013,0 hPa 0,0 mm 0,0 km/h (0 Bft) S-SW 192 ° 0 min 0,000 mm 0,0 UV-I 0 W/m² 5,9 °C 8,1 °C 0,0 km/h (0 Bft)
04.11.2017 17:31 8,1 °C 8,1 °C 86 % 1013,0 hPa 0,0 mm 0,0 km/h (0 Bft) S-SW 192 ° 0 min 0,000 mm 0,0 UV-I 0 W/m² 5,9 °C 8,1 °C 0,0 km/h (0 Bft)
04.11.2017 17:32 8,1 °C 8,1 °C 87 % 1013,0 hPa 0,0 mm 0,0 km/h (0 Bft) S-SW 192 ° 0 min 0,000 mm 0,0 UV-I 0 W/m² 6,1 °C 8,1 °C 0,0 km/h (0 Bft)
04.11.2017 17:33 8,0 °C 8,1 °C 87 % 1013,0 hPa 0,0 mm 0,0 km/h (0 Bft) S-SW 192 ° 0 min 0,000 mm 0,0 UV-I 0 W/m² 6,0 °C 8,0 °C 0,0 km/h (0 Bft)
04.11.2017 17:34 7,9 °C 8,0 °C 87 % 1012,9 hPa 0,0 mm 0,0 km/h (0 Bft) S-SW 192 ° 0 min 0,000 mm 0,0 UV-I 0 W/m² 5,9 °C 7,9 °C 0,0 km/h (0 Bft)
04.11.2017 17:35 7,9 °C 7,9 °C 87 % 1012,9 hPa 0,0 mm 0,0 km/h (0 Bft) S-SW 192 ° 0 min 0,000 mm 0,0 UV-I 0 W/m² 5,9 °C 7,9 °C 0,0 km/h (0 Bft)
04.11.2017 17:36 7,9 °C 7,9 °C 88 % 1013,0 hPa 0,0 mm 0,0 km/h (0 Bft) S-SW 192 ° 0 min 0,000 mm 0,0 UV-I 0 W/m² 6,0 °C 7,9 °C 0,0 km/h (0 Bft)
04.11.2017 17:37 7,9 °C 8,0 °C 88 % 1012,9 hPa 0,0 mm 0,0 km/h (0 Bft) S-SW 192 ° 0 min 0,000 mm 0,0 UV-I 0 W/m² 6,0 °C 7,9 °C 0,0 km/h (0 Bft)
04.11.2017 17:38 8,0 °C 8,0 °C 88 % 1012,9 hPa 0,0 mm 0,0 km/h (0 Bft) S-SW 192 ° 0 min 0,000 mm 0,0 UV-I 0 W/m² 6,1 °C 8,0 °C 0,0 km/h (0 Bft)
04.11.2017 17:39 8,1 °C 8,1 °C 87 % 1013,0 hPa 0,0 mm 0,0 km/h (0 Bft) S-SW 192 ° 0 min 0,000 mm 0,0 UV-I 0 W/m² 6,1 °C 8,1 °C 0,0 km/h (0 Bft)
04.11.2017 17:40 8,1 °C 8,1 °C 88 % 1012,9 hPa 0,0 mm 0,0 km/h (0 Bft) S-SW 192 ° 0 min 0,000 mm 0,0 UV-I 0 W/m² 6,2 °C 8,1 °C 0,0 km/h (0 Bft)
04.11.2017 17:41 8,2 °C 8,2 °C 88 % 1012,9 hPa 0,0 mm 0,0 km/h (0 Bft) S-SW 192 ° 0 min 0,000 mm 0,0 UV-I 0 W/m² 6,3 °C 8,2 °C 0,0 km/h (0 Bft)
04.11.2017 17:42 8,3 °C 8,3 °C 87 % 1013,0 hPa 0,0 mm 0,0 km/h (0 Bft) S-SW 192 ° 0 min 0,000 mm 0,0 UV-I 0 W/m² 6,3 °C 8,3 °C 0,0 km/h (0 Bft)
04.11.2017 17:43 8,4 °C 8,4 °C 87 % 1012,9 hPa 0,0 mm 0,0 km/h (0 Bft) S-SW 192 ° 0 min 0,000 mm 0,0 UV-I 0 W/m² 6,4 °C 8,4 °C 0,0 km/h (0 Bft)
04.11.2017 17:44 8,4 °C 8,4 °C 87 % 1012,9 hPa 0,0 mm 0,0 km/h (0 Bft) S-SW 192 ° 0 min 0,000 mm 0,0 UV-I 0 W/m² 6,4 °C 8,4 °C 0,0 km/h (0 Bft)
04.11.2017 17:45 8,6 °C 8,6 °C 87 % 1013,0 hPa 0,0 mm 0,0 km/h (0 Bft) S-SW 192 ° 0 min 0,000 mm 0,0 UV-I 0 W/m² 6,6 °C 8,6 °C 0,0 km/h (0 Bft)
04.11.2017 17:46 8,6 °C 8,6 °C 87 % 1013,0 hPa 0,0 mm 0,0 km/h (0 Bft) S-SW 192 ° 0 min 0,000 mm 0,0 UV-I 0 W/m² 6,6 °C 8,6 °C 0,0 km/h (0 Bft)
04.11.2017 17:47 8,7 °C 8,7 °C 86 % 1012,9 hPa 0,0 mm 0,0 km/h (0 Bft) S-SW 192 ° 0 min 0,000 mm 0,0 UV-I 0 W/m² 6,5 °C 8,7 °C 0,0 km/h (0 Bft)
04.11.2017 17:48 8,7 °C 8,8 °C 86 % 1012,9 hPa 0,0 mm 0,0 km/h (0 Bft) S-SW 192 ° 0 min 0,000 mm 0,0 UV-I 0 W/m² 6,5 °C 8,7 °C 0,0 km/h (0 Bft)
04.11.2017 17:49 8,8 °C 8,8 °C 86 % 1012,9 hPa 0,0 mm 0,0 km/h (0 Bft) S-SW 192 ° 0 min 0,000 mm 0,0 UV-I 0 W/m² 6,6 °C 8,8 °C 0,0 km/h (0 Bft)
04.11.2017 17:50 8,8 °C 8,8 °C 86 % 1012,9 hPa 0,0 mm 0,0 km/h (0 Bft) S-SW 192 ° 0 min 0,000 mm 0,0 UV-I 0 W/m² 6,6 °C 8,8 °C 0,0 km/h (0 Bft)
04.11.2017 17:51 8,8 °C 8,8 °C 86 % 1012,9 hPa 0,0 mm 0,0 km/h (0 Bft) S-SW 192 ° 0 min 0,000 mm 0,0 UV-I 0 W/m² 6,6 °C 8,8 °C 0,0 km/h (0 Bft)
04.11.2017 17:52 8,8 °C 8,8 °C 85 % 1012,9 hPa 0,0 mm 0,0 km/h (0 Bft) S-SW 192 ° 0 min 0,000 mm 0,0 UV-I 0 W/m² 6,4 °C 8,8 °C 0,0 km/h (0 Bft)
04.11.2017 17:53 8,8 °C 8,8 °C 86 % 1012,9 hPa 0,0 mm 1,4 km/h (1 Bft) S-SW 196 ° 0 min 0,000 mm 0,0 UV-I 0 W/m² 6,6 °C 8,8 °C 4,8 km/h (1 Bft)
04.11.2017 17:54 8,8 °C 8,8 °C 85 % 1012,9 hPa 0,0 mm 1,6 km/h (1 Bft) S 180 ° 0 min 0,000 mm 0,0 UV-I 0 W/m² 6,4 °C 8,8 °C 4,8 km/h (1 Bft)
04.11.2017 17:55 8,7 °C 8,8 °C 85 % 1012,9 hPa 0,0 mm 0,0 km/h (0 Bft) S 180 ° 0 min 0,000 mm 0,0 UV-I 0 W/m² 6,3 °C 8,7 °C 0,0 km/h (0 Bft)
04.11.2017 17:56 8,7 °C 8,7 °C 85 % 1012,9 hPa 0,0 mm 0,0 km/h (0 Bft) S 180 ° 0 min 0,000 mm 0,0 UV-I 0 W/m² 6,3 °C 8,7 °C 0,0 km/h (0 Bft)
04.11.2017 17:57 8,7 °C 8,7 °C 85 % 1012,9 hPa 0,0 mm 0,0 km/h (0 Bft) S 180 ° 0 min 0,000 mm 0,0 UV-I 0 W/m² 6,3 °C 8,7 °C 0,0 km/h (0 Bft)
04.11.2017 17:58 8,7 °C 8,7 °C 85 % 1012,9 hPa 0,0 mm 0,0 km/h (0 Bft) S 180 ° 0 min 0,000 mm 0,0 UV-I 0 W/m² 6,3 °C 8,7 °C 0,0 km/h (0 Bft)
04.11.2017 17:59 8,6 °C 8,7 °C 86 % 1012,9 hPa 0,0 mm 0,0 km/h (0 Bft) S 180 ° 0 min 0,000 mm 0,0 UV-I 0 W/m² 6,4 °C 8,6 °C 0,0 km/h (0 Bft)
04.11.2017 18:00 8,6 °C 8,6 °C 86 % 1012,9 hPa 0,0 mm 0,0 km/h (0 Bft) S 180 ° 0 min 0,000 mm 0,0 UV-I 0 W/m² 6,4 °C 8,6 °C 0,0 km/h (0 Bft)
04.11.2017 18:01 8,6 °C 8,6 °C 86 % 1012,9 hPa 0,0 mm 0,0 km/h (0 Bft) S 180 ° 0 min 0,000 mm 0,0 UV-I 0 W/m² 6,4 °C 8,6 °C 0,0 km/h (0 Bft)
04.11.2017 18:02 8,6 °C 8,6 °C 86 % 1012,9 hPa 0,0 mm 0,0 km/h (0 Bft) S 180 ° 0 min 0,000 mm 0,0 UV-I 0 W/m² 6,4 °C 8,6 °C 0,0 km/h (0 Bft)
04.11.2017 18:03 8,6 °C 8,6 °C 86 % 1012,8 hPa 0,0 mm 0,0 km/h (0 Bft) S 180 ° 0 min 0,000 mm 0,0 UV-I 0 W/m² 6,4 °C 8,6 °C 0,0 km/h (0 Bft)
04.11.2017 18:04 8,6 °C 8,7 °C 85 % 1012,8 hPa 0,0 mm 0,0 km/h (0 Bft) S 181 ° 0 min 0,000 mm 0,0 UV-I 0 W/m² 6,2 °C 8,6 °C 0,0 km/h (0 Bft)
04.11.2017 18:05 8,6 °C 8,6 °C 84 % 1012,9 hPa 0,0 mm 2,1 km/h (1 Bft) NW 304 ° 0 min 0,000 mm 0,0 UV-I 0 W/m² 6,1 °C 8,6 °C 4,8 km/h (1 Bft)
04.11.2017 18:06 8,6 °C 8,6 °C 85 % 1012,9 hPa 0,0 mm 2,9 km/h (1 Bft) NW 316 ° 0 min 0,000 mm 0,0 UV-I 0 W/m² 6,2 °C 8,6 °C 4,8 km/h (1 Bft)
04.11.2017 18:07 8,6 °C 8,6 °C 85 % 1012,9 hPa 0,0 mm 1,8 km/h (1 Bft) NW 316 ° 0 min 0,000 mm 0,0 UV-I 0 W/m² 6,2 °C 8,6 °C 3,2 km/h (1 Bft)
04.11.2017 18:08 8,4 °C 8,6 °C 85 % 1013,0 hPa 0,0 mm 0,4 km/h (0 Bft) NW 316 ° 0 min 0,000 mm 0,0 UV-I 0 W/m² 6,0 °C 8,4 °C 1,6 km/h (1 Bft)
04.11.2017 18:09 8,4 °C 8,4 °C 85 % 1013,0 hPa 0,0 mm 0,1 km/h (0 Bft) NW 316 ° 0 min 0,000 mm 0,0 UV-I 0 W/m² 6,0 °C 8,4 °C 1,6 km/h (1 Bft)
04.11.2017 18:10 8,3 °C 8,4 °C 85 % 1013,0 hPa 0,0 mm 0,0 km/h (0 Bft) NW 316 ° 0 min 0,000 mm 0,0 UV-I 0 W/m² 5,9 °C 8,3 °C 0,0 km/h (0 Bft)
04.11.2017 18:11 8,3 °C 8,3 °C 86 % 1013,0 hPa 0,0 mm 0,0 km/h (0 Bft) NW 316 ° 0 min 0,000 mm 0,0 UV-I 0 W/m² 6,1 °C 8,3 °C 0,0 km/h (0 Bft)
04.11.2017 18:12 8,3 °C 8,3 °C 86 % 1013,0 hPa 0,0 mm 0,0 km/h (0 Bft) NW 316 ° 0 min 0,000 mm 0,0 UV-I 0 W/m² 6,1 °C 8,3 °C 0,0 km/h (0 Bft)
04.11.2017 18:13 8,3 °C 8,3 °C 86 % 1013,0 hPa 0,0 mm 0,0 km/h (0 Bft) NW 316 ° 0 min 0,000 mm 0,0 UV-I 0 W/m² 6,1 °C 8,3 °C 0,0 km/h (0 Bft)
04.11.2017 18:14 8,3 °C 8,3 °C 87 % 1013,0 hPa 0,0 mm 0,0 km/h (0 Bft) NW 316 ° 0 min 0,000 mm 0,0 UV-I 0 W/m² 6,3 °C 8,3 °C 0,0 km/h (0 Bft)
04.11.2017 18:15 8,4 °C 8,4 °C 86 % 1013,0 hPa 0,0 mm 0,0 km/h (0 Bft) NW 316 ° 0 min 0,000 mm 0,0 UV-I 0 W/m² 6,2 °C 8,4 °C 0,0 km/h (0 Bft)
04.11.2017 18:16 8,4 °C 8,4 °C 86 % 1013,0 hPa 0,0 mm 0,0 km/h (0 Bft) NW 316 ° 0 min 0,000 mm 0,0 UV-I 0 W/m² 6,2 °C 8,4 °C 0,0 km/h (0 Bft)
04.11.2017 18:17 8,4 °C 8,4 °C 86 % 1013,0 hPa 0,0 mm 0,0 km/h (0 Bft) NW 316 ° 0 min 0,000 mm 0,0 UV-I 0 W/m² 6,2 °C 8,4 °C 0,0 km/h (0 Bft)
04.11.2017 18:18 8,4 °C 8,4 °C 86 % 1012,9 hPa 0,0 mm 0,0 km/h (0 Bft) NW 316 ° 0 min 0,000 mm 0,0 UV-I 0 W/m² 6,2 °C 8,4 °C 0,0 km/h (0 Bft)
04.11.2017 18:19 8,4 °C 8,4 °C 87 % 1012,9 hPa 0,0 mm 0,0 km/h (0 Bft) NW 316 ° 0 min 0,000 mm 0,0 UV-I 0 W/m² 6,4 °C 8,4 °C 0,0 km/h (0 Bft)
04.11.2017 18:20 8,4 °C 8,4 °C 87 % 1013,0 hPa 0,0 mm 0,0 km/h (0 Bft) NW 316 ° 0 min 0,000 mm 0,0 UV-I 0 W/m² 6,4 °C 8,4 °C 0,0 km/h (0 Bft)
04.11.2017 18:21 8,4 °C 8,4 °C 86 % 1013,0 hPa 0,0 mm 0,2 km/h (0 Bft) NW 316 ° 0 min 0,000 mm 0,0 UV-I 0 W/m² 6,2 °C 8,4 °C 1,6 km/h (1 Bft)
04.11.2017 18:22 8,4 °C 8,4 °C 86 % 1013,0 hPa 0,0 mm 0,7 km/h (0 Bft) NW 316 ° 0 min 0,000 mm 0,0 UV-I 0 W/m² 6,2 °C 8,4 °C 1,6 km/h (1 Bft)
04.11.2017 18:23 8,4 °C 8,4 °C 86 % 1013,0 hPa 0,0 mm 1,1 km/h (1 Bft) NW 316 ° 0 min 0,000 mm 0,0 UV-I 0 W/m² 6,2 °C 8,4 °C 1,6 km/h (1 Bft)
04.11.2017 18:24 8,4 °C 8,4 °C 86 % 1013,0 hPa 0,0 mm 0,2 km/h (0 Bft) NW 316 ° 0 min 0,000 mm 0,0 UV-I 0 W/m² 6,2 °C 8,4 °C 1,6 km/h (1 Bft)
04.11.2017 18:25 8,3 °C 8,4 °C 86 % 1013,0 hPa 0,0 mm 0,0 km/h (0 Bft) NW 316 ° 0 min 0,000 mm 0,0 UV-I 0 W/m² 6,1 °C 8,3 °C 0,0 km/h (0 Bft)
04.11.2017 18:26 8,2 °C 8,3 °C 85 % 1013,0 hPa 0,0 mm 0,0 km/h (0 Bft) NW 316 ° 0 min 0,000 mm 0,0 UV-I 0 W/m² 5,8 °C 8,2 °C 0,0 km/h (0 Bft)
04.11.2017 18:27 8,0 °C 8,2 °C 85 % 1013,0 hPa 0,0 mm 0,0 km/h (0 Bft) NW 316 ° 0 min 0,000 mm 0,0 UV-I 0 W/m² 5,6 °C 8,0 °C 0,0 km/h (0 Bft)
04.11.2017 18:28 7,8 °C 8,0 °C 85 % 1012,9 hPa 0,0 mm 0,0 km/h (0 Bft) NW 316 ° 0 min 0,000 mm 0,0 UV-I 0 W/m² 5,4 °C 7,8 °C 0,0 km/h (0 Bft)
04.11.2017 18:29 7,7 °C 7,8 °C 85 % 1012,9 hPa 0,0 mm 0,0 km/h (0 Bft) NW 316 ° 0 min 0,000 mm 0,0 UV-I 0 W/m² 5,3 °C 7,7 °C 0,0 km/h (0 Bft)
04.11.2017 18:30 7,5 °C 7,7 °C 85 % 1012,9 hPa 0,0 mm 0,0 km/h (0 Bft) NW 316 ° 0 min 0,000 mm 0,0 UV-I 0 W/m² 5,1 °C 7,5 °C 0,0 km/h (0 Bft)
04.11.2017 18:31 7,3 °C 7,5 °C 86 % 1012,9 hPa 0,0 mm 0,0 km/h (0 Bft) NW 316 ° 0 min 0,000 mm 0,0 UV-I 0 W/m² 5,1 °C 7,3 °C 0,0 km/h (0 Bft)
04.11.2017 18:32 7,2 °C 7,3 °C 86 % 1012,9 hPa 0,0 mm 0,0 km/h (0 Bft) NW 316 ° 0 min 0,000 mm 0,0 UV-I 0 W/m² 5,0 °C 7,2 °C 0,0 km/h (0 Bft)
04.11.2017 18:33 7,2 °C 7,2 °C 87 % 1012,9 hPa 0,0 mm 0,0 km/h (0 Bft) NW 316 ° 0 min 0,000 mm 0,0 UV-I 0 W/m² 5,2 °C 7,2 °C 0,0 km/h (0 Bft)
04.11.2017 18:34 7,2 °C 7,2 °C 88 % 1012,9 hPa 0,0 mm 0,0 km/h (0 Bft) NW 316 ° 0 min 0,000 mm 0,0 UV-I 0 W/m² 5,3 °C 7,2 °C 0,0 km/h (0 Bft)
04.11.2017 18:35 7,2 °C 7,2 °C 88 % 1012,9 hPa 0,0 mm 0,0 km/h (0 Bft) NW 316 ° 0 min 0,000 mm 0,0 UV-I 0 W/m² 5,3 °C 7,2 °C 0,0 km/h (0 Bft)
04.11.2017 18:36 7,2 °C 7,3 °C 89 % 1012,8 hPa 0,0 mm 0,0 km/h (0 Bft) NW 316 ° 0 min 0,000 mm 0,0 UV-I 0 W/m² 5,5 °C 7,2 °C 0,0 km/h (0 Bft)
04.11.2017 18:37 7,2 °C 7,3 °C 88 % 1012,9 hPa 0,0 mm 0,0 km/h (0 Bft) NW 316 ° 0 min 0,000 mm 0,0 UV-I 0 W/m² 5,3 °C 7,2 °C 0,0 km/h (0 Bft)
04.11.2017 18:38 7,2 °C 7,2 °C 88 % 1012,9 hPa 0,0 mm 0,0 km/h (0 Bft) NW 316 ° 0 min 0,000 mm 0,0 UV-I 0 W/m² 5,3 °C 7,2 °C 0,0 km/h (0 Bft)
04.11.2017 18:39 7,2 °C 7,2 °C 89 % 1012,9 hPa 0,0 mm 0,0 km/h (0 Bft) NW 316 ° 0 min 0,000 mm 0,0 UV-I 0 W/m² 5,5 °C 7,2 °C 0,0 km/h (0 Bft)
04.11.2017 18:40 7,2 °C 7,2 °C 88 % 1012,8 hPa 0,0 mm 0,0 km/h (0 Bft) NW 316 ° 0 min 0,000 mm 0,0 UV-I 0 W/m² 5,3 °C 7,2 °C 0,0 km/h (0 Bft)
04.11.2017 18:41 7,2 °C 7,2 °C 88 % 1012,9 hPa 0,0 mm 0,0 km/h (0 Bft) NW 316 ° 0 min 0,000 mm 0,0 UV-I 0 W/m² 5,3 °C 7,2 °C 0,0 km/h (0 Bft)
04.11.2017 18:42 7,2 °C 7,2 °C 88 % 1012,8 hPa 0,0 mm 0,0 km/h (0 Bft) NW 316 ° 0 min 0,000 mm 0,0 UV-I 0 W/m² 5,3 °C 7,2 °C 0,0 km/h (0 Bft)
04.11.2017 18:43 7,1 °C 7,2 °C 87 % 1012,9 hPa 0,0 mm 0,0 km/h (0 Bft) NW 316 ° 0 min 0,000 mm 0,0 UV-I 0 W/m² 5,1 °C 7,1 °C 0,0 km/h (0 Bft)
04.11.2017 18:44 7,1 °C 7,1 °C 87 % 1012,8 hPa 0,0 mm 0,0 km/h (0 Bft) NW 316 ° 0 min 0,000 mm 0,0 UV-I 0 W/m² 5,1 °C 7,1 °C 0,0 km/h (0 Bft)
04.11.2017 18:45 6,9 °C 7,1 °C 88 % 1012,8 hPa 0,0 mm 0,0 km/h (0 Bft) NW 316 ° 0 min 0,000 mm 0,0 UV-I 0 W/m² 5,1 °C 6,9 °C 0,0 km/h (0 Bft)
04.11.2017 18:46 6,9 °C 6,9 °C 88 % 1012,8 hPa 0,0 mm 0,0 km/h (0 Bft) NW 316 ° 0 min 0,000 mm 0,0 UV-I 0 W/m² 5,1 °C 6,9 °C 0,0 km/h (0 Bft)
04.11.2017 18:47 6,8 °C 6,9 °C 88 % 1012,7 hPa 0,0 mm 0,0 km/h (0 Bft) NW 316 ° 0 min 0,000 mm 0,0 UV-I 0 W/m² 5,0 °C 6,8 °C 0,0 km/h (0 Bft)
04.11.2017 18:49 6,8 °C 6,8 °C 88 % 1012,8 hPa 0,0 mm 0,0 km/h (0 Bft) NW 316 ° 0 min 0,000 mm 0,0 UV-I 0 W/m² 5,0 °C 6,8 °C 0,0 km/h (0 Bft)
04.11.2017 18:50 6,7 °C 6,8 °C 88 % 1012,8 hPa 0,0 mm 0,0 km/h (0 Bft) NW 316 ° 0 min 0,000 mm 0,0 UV-I 0 W/m² 4,9 °C 6,7 °C 0,0 km/h (0 Bft)
04.11.2017 18:51 6,7 °C 6,7 °C 89 % 1012,8 hPa 0,0 mm 0,0 km/h (0 Bft) NW 316 ° 0 min 0,000 mm 0,0 UV-I 0 W/m² 5,0 °C 6,7 °C 0,0 km/h (0 Bft)
04.11.2017 18:52 6,7 °C 6,7 °C 89 % 1012,8 hPa 0,0 mm 0,0 km/h (0 Bft) NW 316 ° 0 min 0,000 mm 0,0 UV-I 0 W/m² 5,0 °C 6,7 °C 0,0 km/h (0 Bft)
04.11.2017 18:53 6,8 °C 6,8 °C 90 % 1012,7 hPa 0,0 mm 0,0 km/h (0 Bft) NW 316 ° 0 min 0,000 mm 0,0 UV-I 0 W/m² 5,3 °C 6,8 °C 0,0 km/h (0 Bft)
04.11.2017 18:54 6,9 °C 6,9 °C 90 % 1012,7 hPa 0,0 mm 0,0 km/h (0 Bft) NW 316 ° 0 min 0,000 mm 0,0 UV-I 0 W/m² 5,4 °C 6,9 °C 0,0 km/h (0 Bft)
04.11.2017 18:55 6,9 °C 6,9 °C 90 % 1012,7 hPa 0,0 mm 0,0 km/h (0 Bft) NW 316 ° 0 min 0,000 mm 0,0 UV-I 0 W/m² 5,4 °C 6,9 °C 0,0 km/h (0 Bft)
04.11.2017 18:56 6,9 °C 7,0 °C 89 % 1012,7 hPa 0,0 mm 0,0 km/h (0 Bft) NW 316 ° 0 min 0,000 mm 0,0 UV-I 0 W/m² 5,2 °C 6,9 °C 0,0 km/h (0 Bft)
04.11.2017 18:57 7,1 °C 7,1 °C 90 % 1012,7 hPa 0,0 mm 0,0 km/h (0 Bft) NW 316 ° 0 min 0,000 mm 0,0 UV-I 0 W/m² 5,6 °C 7,1 °C 0,0 km/h (0 Bft)
04.11.2017 18:58 7,3 °C 7,3 °C 89 % 1012,7 hPa 0,0 mm 0,0 km/h (0 Bft) NW 316 ° 0 min 0,000 mm 0,0 UV-I 0 W/m² 5,6 °C 7,3 °C 0,0 km/h (0 Bft)
04.11.2017 18:59 7,4 °C 7,4 °C 89 % 1012,7 hPa 0,0 mm 0,0 km/h (0 Bft) NW 316 ° 0 min 0,000 mm 0,0 UV-I 0 W/m² 5,7 °C 7,4 °C 0,0 km/h (0 Bft)
04.11.2017 19:00 7,6 °C 7,6 °C 88 % 1012,6 hPa 0,0 mm 0,0 km/h (0 Bft) NW 316 ° 0 min 0,000 mm 0,0 UV-I 0 W/m² 5,7 °C 7,6 °C 0,0 km/h (0 Bft)
04.11.2017 19:01 7,7 °C 7,7 °C 88 % 1012,6 hPa 0,0 mm 0,0 km/h (0 Bft) NW 316 ° 0 min 0,000 mm 0,0 UV-I 0 W/m² 5,8 °C 7,7 °C 0,0 km/h (0 Bft)
04.11.2017 19:02 7,7 °C 7,7 °C 86 % 1012,5 hPa 0,0 mm 0,0 km/h (0 Bft) NW 316 ° 0 min 0,000 mm 0,0 UV-I 0 W/m² 5,5 °C 7,7 °C 0,0 km/h (0 Bft)
04.11.2017 19:03 7,6 °C 7,7 °C 85 % 1012,5 hPa 0,0 mm 0,0 km/h (0 Bft) NW 316 ° 0 min 0,000 mm 0,0 UV-I 0 W/m² 5,2 °C 7,6 °C 0,0 km/h (0 Bft)
04.11.2017 19:04 7,3 °C 7,6 °C 85 % 1012,5 hPa 0,0 mm 0,0 km/h (0 Bft) NW 316 ° 0 min 0,000 mm 0,0 UV-I 0 W/m² 4,9 °C 7,3 °C 0,0 km/h (0 Bft)
04.11.2017 19:05 7,2 °C 7,3 °C 85 % 1012,5 hPa 0,0 mm 0,0 km/h (0 Bft) NW 316 ° 0 min 0,000 mm 0,0 UV-I 0 W/m² 4,9 °C 7,2 °C 0,0 km/h (0 Bft)
04.11.2017 19:06 7,2 °C 7,2 °C 85 % 1012,5 hPa 0,0 mm 0,0 km/h (0 Bft) NW 316 ° 0 min 0,000 mm 0,0 UV-I 0 W/m² 4,9 °C 7,2 °C 0,0 km/h (0 Bft)
04.11.2017 19:07 7,1 °C 7,2 °C 85 % 1012,5 hPa 0,0 mm 0,0 km/h (0 Bft) NW 316 ° 0 min 0,000 mm 0,0 UV-I 0 W/m² 4,8 °C 7,1 °C 0,0 km/h (0 Bft)
04.11.2017 19:08 7,0 °C 7,1 °C 85 % 1012,5 hPa 0,0 mm 0,0 km/h (0 Bft) NW 316 ° 0 min 0,000 mm 0,0 UV-I 0 W/m² 4,7 °C 7,0 °C 0,0 km/h (0 Bft)
04.11.2017 19:09 6,8 °C 7,0 °C 85 % 1012,5 hPa 0,0 mm 0,0 km/h (0 Bft) NW 316 ° 0 min 0,000 mm 0,0 UV-I 0 W/m² 4,5 °C 6,8 °C 0,0 km/h (0 Bft)
04.11.2017 19:10 6,6 °C 6,8 °C 85 % 1012,5 hPa 0,0 mm 0,0 km/h (0 Bft) NW 316 ° 0 min 0,000 mm 0,0 UV-I 0 W/m² 4,3 °C 6,6 °C 0,0 km/h (0 Bft)
04.11.2017 19:11 6,3 °C 6,6 °C 85 % 1012,6 hPa 0,0 mm 0,0 km/h (0 Bft) NW 316 ° 0 min 0,000 mm 0,0 UV-I 0 W/m² 4,0 °C 6,3 °C 0,0 km/h (0 Bft)
04.11.2017 19:12 6,1 °C 6,3 °C 86 % 1012,5 hPa 0,0 mm 0,0 km/h (0 Bft) NW 316 ° 0 min 0,000 mm 0,0 UV-I 0 W/m² 3,9 °C 6,1 °C 0,0 km/h (0 Bft)
04.11.2017 19:13 5,9 °C 6,1 °C 87 % 1012,5 hPa 0,0 mm 0,0 km/h (0 Bft) NW 316 ° 0 min 0,000 mm 0,0 UV-I 0 W/m² 3,9 °C 5,9 °C 0,0 km/h (0 Bft)
04.11.2017 19:14 5,8 °C 5,9 °C 89 % 1012,5 hPa 0,0 mm 0,0 km/h (0 Bft) NW 316 ° 0 min 0,000 mm 0,0 UV-I 0 W/m² 4,1 °C 5,8 °C 0,0 km/h (0 Bft)
04.11.2017 19:15 5,8 °C 5,8 °C 89 % 1012,5 hPa 0,0 mm 0,0 km/h (0 Bft) NW 316 ° 0 min 0,000 mm 0,0 UV-I 0 W/m² 4,1 °C 5,8 °C 0,0 km/h (0 Bft)
04.11.2017 19:16 5,9 °C 5,9 °C 90 % 1012,5 hPa 0,0 mm 0,0 km/h (0 Bft) NW 316 ° 0 min 0,000 mm 0,0 UV-I 0 W/m² 4,4 °C 5,9 °C 0,0 km/h (0 Bft)
04.11.2017 19:17 5,9 °C 5,9 °C 90 % 1012,5 hPa 0,0 mm 0,0 km/h (0 Bft) NW 316 ° 0 min 0,000 mm 0,0 UV-I 0 W/m² 4,4 °C 5,9 °C 0,0 km/h (0 Bft)
04.11.2017 19:18 5,9 °C 5,9 °C 90 % 1012,4 hPa 0,0 mm 0,0 km/h (0 Bft) NW 316 ° 0 min 0,000 mm 0,0 UV-I 0 W/m² 4,4 °C 5,9 °C 0,0 km/h (0 Bft)
04.11.2017 19:19 5,8 °C 5,9 °C 90 % 1012,5 hPa 0,0 mm 0,0 km/h (0 Bft) NW 316 ° 0 min 0,000 mm 0,0 UV-I 0 W/m² 4,3 °C 5,8 °C 0,0 km/h (0 Bft)
04.11.2017 19:20 5,8 °C 5,8 °C 89 % 1012,4 hPa 0,0 mm 0,0 km/h (0 Bft) NW 316 ° 0 min 0,000 mm 0,0 UV-I 0 W/m² 4,1 °C 5,8 °C 0,0 km/h (0 Bft)
04.11.2017 19:21 5,7 °C 5,8 °C 89 % 1012,4 hPa 0,0 mm 0,0 km/h (0 Bft) NW 316 ° 0 min 0,000 mm 0,0 UV-I 0 W/m² 4,0 °C 5,7 °C 0,0 km/h (0 Bft)
04.11.2017 19:22 5,6 °C 5,7 °C 89 % 1012,4 hPa 0,0 mm 0,0 km/h (0 Bft) NW 316 ° 0 min 0,000 mm 0,0 UV-I 0 W/m² 3,9 °C 5,6 °C 0,0 km/h (0 Bft)
04.11.2017 19:23 5,4 °C 5,6 °C 89 % 1012,5 hPa 0,0 mm 0,0 km/h (0 Bft) NW 316 ° 0 min 0,000 mm 0,0 UV-I 0 W/m² 3,7 °C 5,4 °C 0,0 km/h (0 Bft)
04.11.2017 19:24 5,3 °C 5,4 °C 89 % 1012,5 hPa 0,0 mm 0,0 km/h (0 Bft) NW 316 ° 0 min 0,000 mm 0,0 UV-I 0 W/m² 3,6 °C 5,3 °C 0,0 km/h (0 Bft)
04.11.2017 19:25 5,1 °C 5,3 °C 89 % 1012,5 hPa 0,0 mm 0,0 km/h (0 Bft) NW 316 ° 0 min 0,000 mm 0,0 UV-I 0 W/m² 3,4 °C 5,1 °C 0,0 km/h (0 Bft)
04.11.2017 19:26 5,0 °C 5,1 °C 90 % 1012,5 hPa 0,0 mm 0,0 km/h (0 Bft) NW 316 ° 0 min 0,000 mm 0,0 UV-I 0 W/m² 3,5 °C 5,0 °C 0,0 km/h (0 Bft)
04.11.2017 19:27 4,9 °C 5,0 °C 90 % 1012,5 hPa 0,0 mm 0,0 km/h (0 Bft) NW 316 ° 0 min 0,000 mm 0,0 UV-I 0 W/m² 3,4 °C 4,9 °C 0,0 km/h (0 Bft)
04.11.2017 19:28 4,9 °C 4,9 °C 90 % 1012,5 hPa 0,0 mm 0,0 km/h (0 Bft) NW 316 ° 0 min 0,000 mm 0,0 UV-I 0 W/m² 3,4 °C 4,9 °C 0,0 km/h (0 Bft)
04.11.2017 19:29 4,9 °C 4,9 °C 90 % 1012,4 hPa 0,0 mm 0,0 km/h (0 Bft) NW 316 ° 0 min 0,000 mm 0,0 UV-I 0 W/m² 3,4 °C 4,9 °C 0,0 km/h (0 Bft)
04.11.2017 19:30 4,8 °C 4,9 °C 91 % 1012,5 hPa 0,0 mm 0,0 km/h (0 Bft) NW 316 ° 0 min 0,000 mm 0,0 UV-I 0 W/m² 3,5 °C 4,8 °C 0,0 km/h (0 Bft)
04.11.2017 19:31 4,8 °C 4,8 °C 91 % 1012,4 hPa 0,0 mm 0,0 km/h (0 Bft) NW 316 ° 0 min 0,000 mm 0,0 UV-I 0 W/m² 3,5 °C 4,8 °C 0,0 km/h (0 Bft)
04.11.2017 19:32 4,8 °C 4,8 °C 91 % 1012,5 hPa 0,0 mm 0,0 km/h (0 Bft) NW 316 ° 0 min 0,000 mm 0,0 UV-I 0 W/m² 3,5 °C 4,8 °C 0,0 km/h (0 Bft)
04.11.2017 19:33 4,7 °C 4,8 °C 91 % 1012,5 hPa 0,0 mm 0,0 km/h (0 Bft) NW 316 ° 0 min 0,000 mm 0,0 UV-I 0 W/m² 3,4 °C 4,7 °C 0,0 km/h (0 Bft)
04.11.2017 19:34 4,7 °C 4,7 °C 91 % 1012,4 hPa 0,0 mm 0,0 km/h (0 Bft) NW 316 ° 0 min 0,000 mm 0,0 UV-I 0 W/m² 3,4 °C 4,7 °C 0,0 km/h (0 Bft)
04.11.2017 19:35 4,7 °C 4,7 °C 91 % 1012,4 hPa 0,0 mm 0,0 km/h (0 Bft) NW 316 ° 0 min 0,000 mm 0,0 UV-I 0 W/m² 3,4 °C 4,7 °C 0,0 km/h (0 Bft)
04.11.2017 19:36 4,7 °C 4,7 °C 91 % 1012,5 hPa 0,0 mm 0,0 km/h (0 Bft) NW 316 ° 0 min 0,000 mm 0,0 UV-I 0 W/m² 3,4 °C 4,7 °C 0,0 km/h (0 Bft)
04.11.2017 19:37 4,7 °C 4,7 °C 92 % 1012,5 hPa 0,0 mm 0,0 km/h (0 Bft) NW 316 ° 0 min 0,000 mm 0,0 UV-I 0 W/m² 3,5 °C 4,7 °C 0,0 km/h (0 Bft)
04.11.2017 19:38 4,7 °C 4,7 °C 92 % 1012,4 hPa 0,0 mm 0,0 km/h (0 Bft) NW 316 ° 0 min 0,000 mm 0,0 UV-I 0 W/m² 3,5 °C 4,7 °C 0,0 km/h (0 Bft)
04.11.2017 19:39 4,7 °C 4,7 °C 92 % 1012,4 hPa 0,0 mm 0,0 km/h (0 Bft) NW 316 ° 0 min 0,000 mm 0,0 UV-I 0 W/m² 3,5 °C 4,7 °C 0,0 km/h (0 Bft)
04.11.2017 19:40 4,7 °C 4,7 °C 92 % 1012,4 hPa 0,0 mm 0,0 km/h (0 Bft) NW 316 ° 0 min 0,000 mm 0,0 UV-I 0 W/m² 3,5 °C 4,7 °C 0,0 km/h (0 Bft)
04.11.2017 19:41 4,8 °C 4,8 °C 92 % 1012,4 hPa 0,0 mm 0,0 km/h (0 Bft) NW 316 ° 0 min 0,000 mm 0,0 UV-I 0 W/m² 3,6 °C 4,8 °C 0,0 km/h (0 Bft)
04.11.2017 19:42 4,8 °C 4,8 °C 92 % 1012,4 hPa 0,0 mm 0,0 km/h (0 Bft) NW 316 ° 0 min 0,000 mm 0,0 UV-I 0 W/m² 3,6 °C 4,8 °C 0,0 km/h (0 Bft)
04.11.2017 19:43 4,9 °C 4,9 °C 92 % 1012,4 hPa 0,0 mm 0,0 km/h (0 Bft) NW 316 ° 0 min 0,000 mm 0,0 UV-I 0 W/m² 3,7 °C 4,9 °C 0,0 km/h (0 Bft)
04.11.2017 19:44 4,9 °C 4,9 °C 92 % 1012,4 hPa 0,0 mm 0,0 km/h (0 Bft) NW 316 ° 0 min 0,000 mm 0,0 UV-I 0 W/m² 3,7 °C 4,9 °C 0,0 km/h (0 Bft)
04.11.2017 19:45 5,0 °C 5,0 °C 92 % 1012,4 hPa 0,0 mm 0,0 km/h (0 Bft) NW 316 ° 0 min 0,000 mm 0,0 UV-I 0 W/m² 3,8 °C 5,0 °C 0,0 km/h (0 Bft)
04.11.2017 19:46 5,0 °C 5,1 °C 92 % 1012,4 hPa 0,0 mm 0,0 km/h (0 Bft) NW 316 ° 0 min 0,000 mm 0,0 UV-I 0 W/m² 3,8 °C 5,0 °C 0,0 km/h (0 Bft)
04.11.2017 19:47 5,1 °C 5,1 °C 92 % 1012,4 hPa 0,0 mm 0,0 km/h (0 Bft) NW 316 ° 0 min 0,000 mm 0,0 UV-I 0 W/m² 3,9 °C 5,1 °C 0,0 km/h (0 Bft)
04.11.2017 19:49 5,1 °C 5,1 °C 92 % 1012,3 hPa 0,0 mm 0,0 km/h (0 Bft) NW 316 ° 0 min 0,000 mm 0,0 UV-I 0 W/m² 3,9 °C 5,1 °C 0,0 km/h (0 Bft)
04.11.2017 19:50 5,2 °C 5,2 °C 92 % 1012,3 hPa 0,0 mm 0,0 km/h (0 Bft) NW 316 ° 0 min 0,000 mm 0,0 UV-I 0 W/m² 4,0 °C 5,2 °C 0,0 km/h (0 Bft)
04.11.2017 19:51 5,2 °C 5,2 °C 92 % 1012,3 hPa 0,0 mm 0,0 km/h (0 Bft) NW 316 ° 0 min 0,000 mm 0,0 UV-I 0 W/m² 4,0 °C 5,2 °C 0,0 km/h (0 Bft)
04.11.2017 19:52 5,2 °C 5,2 °C 91 % 1012,4 hPa 0,0 mm 0,0 km/h (0 Bft) NW 316 ° 0 min 0,000 mm 0,0 UV-I 0 W/m² 3,9 °C 5,2 °C 0,0 km/h (0 Bft)
04.11.2017 19:53 5,2 °C 5,2 °C 91 % 1012,3 hPa 0,0 mm 0,0 km/h (0 Bft) NW 316 ° 0 min 0,000 mm 0,0 UV-I 0 W/m² 3,9 °C 5,2 °C 0,0 km/h (0 Bft)
04.11.2017 19:54 5,2 °C 5,2 °C 91 % 1012,3 hPa 0,0 mm 0,0 km/h (0 Bft) NW 316 ° 0 min 0,000 mm 0,0 UV-I 0 W/m² 3,9 °C 5,2 °C 0,0 km/h (0 Bft)
04.11.2017 19:55 5,1 °C 5,2 °C 91 % 1012,3 hPa 0,0 mm 0,0 km/h (0 Bft) NW 316 ° 0 min 0,000 mm 0,0 UV-I 0 W/m² 3,8 °C 5,1 °C 0,0 km/h (0 Bft)
04.11.2017 19:56 5,1 °C 5,1 °C 91 % 1012,4 hPa 0,0 mm 0,0 km/h (0 Bft) NW 316 ° 0 min 0,000 mm 0,0 UV-I 0 W/m² 3,8 °C 5,1 °C 0,0 km/h (0 Bft)
04.11.2017 19:57 5,1 °C 5,1 °C 91 % 1012,3 hPa 0,0 mm 0,0 km/h (0 Bft) NW 316 ° 0 min 0,000 mm 0,0 UV-I 0 W/m² 3,8 °C 5,1 °C 0,0 km/h (0 Bft)
04.11.2017 19:58 5,0 °C 5,1 °C 91 % 1012,3 hPa 0,0 mm 0,0 km/h (0 Bft) NW 316 ° 0 min 0,000 mm 0,0 UV-I 0 W/m² 3,7 °C 5,0 °C 0,0 km/h (0 Bft)
04.11.2017 19:59 4,9 °C 5,0 °C 91 % 1012,4 hPa 0,0 mm 0,0 km/h (0 Bft) NW 316 ° 0 min 0,000 mm 0,0 UV-I 0 W/m² 3,6 °C 4,9 °C 0,0 km/h (0 Bft)
04.11.2017 20:00 4,9 °C 4,9 °C 91 % 1012,3 hPa 0,0 mm 0,0 km/h (0 Bft) NW 316 ° 0 min 0,000 mm 0,0 UV-I 0 W/m² 3,6 °C 4,9 °C 0,0 km/h (0 Bft)
04.11.2017 20:01 4,9 °C 5,0 °C 91 % 1012,4 hPa 0,0 mm 0,0 km/h (0 Bft) NW 316 ° 0 min 0,000 mm 0,0 UV-I 0 W/m² 3,6 °C 4,9 °C 0,0 km/h (0 Bft)
04.11.2017 20:02 4,9 °C 4,9 °C 91 % 1012,4 hPa 0,0 mm 0,0 km/h (0 Bft) NW 316 ° 0 min 0,000 mm 0,0 UV-I 0 W/m² 3,6 °C 4,9 °C 0,0 km/h (0 Bft)
04.11.2017 20:03 5,0 °C 5,0 °C 91 % 1012,3 hPa 0,0 mm 0,0 km/h (0 Bft) NW 316 ° 0 min 0,000 mm 0,0 UV-I 0 W/m² 3,7 °C 5,0 °C 0,0 km/h (0 Bft)
04.11.2017 20:04 5,0 °C 5,1 °C 91 % 1012,4 hPa 0,0 mm 0,0 km/h (0 Bft) NW 316 ° 0 min 0,000 mm 0,0 UV-I 0 W/m² 3,7 °C 5,0 °C 0,0 km/h (0 Bft)
04.11.2017 20:05 5,1 °C 5,1 °C 92 % 1012,4 hPa 0,0 mm 0,0 km/h (0 Bft) NW 316 ° 0 min 0,000 mm 0,0 UV-I 0 W/m² 3,9 °C 5,1 °C 0,0 km/h (0 Bft)
04.11.2017 20:06 5,1 °C 5,1 °C 92 % 1012,4 hPa 0,0 mm 0,0 km/h (0 Bft) NW 316 ° 0 min 0,000 mm 0,0 UV-I 0 W/m² 3,9 °C 5,1 °C 0,0 km/h (0 Bft)
04.11.2017 20:07 5,2 °C 5,2 °C 92 % 1012,4 hPa 0,0 mm 0,0 km/h (0 Bft) NW 316 ° 0 min 0,000 mm 0,0 UV-I 0 W/m² 4,0 °C 5,2 °C 0,0 km/h (0 Bft)
04.11.2017 20:08 5,2 °C 5,2 °C 92 % 1012,4 hPa 0,0 mm 0,0 km/h (0 Bft) NW 316 ° 0 min 0,000 mm 0,0 UV-I 0 W/m² 4,0 °C 5,2 °C 0,0 km/h (0 Bft)
04.11.2017 20:09 5,2 °C 5,3 °C 92 % 1012,4 hPa 0,0 mm 0,0 km/h (0 Bft) NW 316 ° 0 min 0,000 mm 0,0 UV-I 0 W/m² 4,0 °C 5,2 °C 0,0 km/h (0 Bft)
04.11.2017 20:10 5,3 °C 5,3 °C 91 % 1012,5 hPa 0,0 mm 0,0 km/h (0 Bft) NW 316 ° 0 min 0,000 mm 0,0 UV-I 0 W/m² 4,0 °C 5,3 °C 0,0 km/h (0 Bft)
04.11.2017 20:11 5,3 °C 5,3 °C 91 % 1012,5 hPa 0,0 mm 0,0 km/h (0 Bft) NW 316 ° 0 min 0,000 mm 0,0 UV-I 0 W/m² 4,0 °C 5,3 °C 0,0 km/h (0 Bft)
04.11.2017 20:12 5,4 °C 5,4 °C 91 % 1012,4 hPa 0,0 mm 0,0 km/h (0 Bft) NW 316 ° 0 min 0,000 mm 0,0 UV-I 0 W/m² 4,1 °C 5,4 °C 0,0 km/h (0 Bft)
04.11.2017 20:13 5,3 °C 5,4 °C 91 % 1012,4 hPa 0,0 mm 1,1 km/h (1 Bft) W-NW 288 ° 0 min 0,000 mm 0,0 UV-I 0 W/m² 4,0 °C 5,3 °C 3,2 km/h (1 Bft)
04.11.2017 20:14 5,3 °C 5,3 °C 91 % 1012,3 hPa 0,0 mm 0,0 km/h (0 Bft) W-NW 288 ° 0 min 0,000 mm 0,0 UV-I 0 W/m² 4,0 °C 5,3 °C 0,0 km/h (0 Bft)
04.11.2017 20:15 5,3 °C 5,3 °C 91 % 1012,4 hPa 0,0 mm 0,0 km/h (0 Bft) W-NW 288 ° 0 min 0,000 mm 0,0 UV-I 0 W/m² 4,0 °C 5,3 °C 0,0 km/h (0 Bft)
04.11.2017 20:16 5,4 °C 5,4 °C 91 % 1012,4 hPa 0,0 mm 0,0 km/h (0 Bft) W-NW 288 ° 0 min 0,000 mm 0,0 UV-I 0 W/m² 4,1 °C 5,4 °C 0,0 km/h (0 Bft)
04.11.2017 20:17 5,4 °C 5,4 °C 91 % 1012,4 hPa 0,0 mm 0,0 km/h (0 Bft) W-NW 288 ° 0 min 0,000 mm 0,0 UV-I 0 W/m² 4,1 °C 5,4 °C 0,0 km/h (0 Bft)
04.11.2017 20:18 5,6 °C 5,6 °C 91 % 1012,4 hPa 0,0 mm 0,0 km/h (0 Bft) W-NW 288 ° 0 min 0,000 mm 0,0 UV-I 0 W/m² 4,2 °C 5,6 °C 0,0 km/h (0 Bft)
04.11.2017 20:19 5,4 °C 5,6 °C 89 % 1012,3 hPa 0,0 mm 0,0 km/h (0 Bft) W-NW 288 ° 0 min 0,000 mm 0,0 UV-I 0 W/m² 3,7 °C 5,4 °C 0,0 km/h (0 Bft)
04.11.2017 20:20 5,3 °C 5,4 °C 89 % 1012,3 hPa 0,0 mm 0,0 km/h (0 Bft) W-NW 288 ° 0 min 0,000 mm 0,0 UV-I 0 W/m² 3,6 °C 5,3 °C 0,0 km/h (0 Bft)
04.11.2017 20:21 5,3 °C 5,3 °C 90 % 1012,3 hPa 0,0 mm 0,0 km/h (0 Bft) W-NW 288 ° 0 min 0,000 mm 0,0 UV-I 0 W/m² 3,8 °C 5,3 °C 0,0 km/h (0 Bft)
04.11.2017 20:22 5,3 °C 5,3 °C 90 % 1012,3 hPa 0,0 mm 0,0 km/h (0 Bft) W-NW 288 ° 0 min 0,000 mm 0,0 UV-I 0 W/m² 3,8 °C 5,3 °C 0,0 km/h (0 Bft)
04.11.2017 20:23 5,3 °C 5,3 °C 90 % 1012,3 hPa 0,0 mm 0,0 km/h (0 Bft) W-NW 288 ° 0 min 0,000 mm 0,0 UV-I 0 W/m² 3,8 °C 5,3 °C 0,0 km/h (0 Bft)
04.11.2017 20:24 5,2 °C 5,3 °C 90 % 1012,3 hPa 0,0 mm 0,0 km/h (0 Bft) W-NW 288 ° 0 min 0,000 mm 0,0 UV-I 0 W/m² 3,7 °C 5,2 °C 0,0 km/h (0 Bft)
04.11.2017 20:25 5,2 °C 5,2 °C 90 % 1012,4 hPa 0,0 mm 0,0 km/h (0 Bft) W-NW 288 ° 0 min 0,000 mm 0,0 UV-I 0 W/m² 3,7 °C 5,2 °C 0,0 km/h (0 Bft)
04.11.2017 20:26 5,3 °C 5,3 °C 90 % 1012,3 hPa 0,0 mm 0,0 km/h (0 Bft) W-NW 288 ° 0 min 0,000 mm 0,0 UV-I 0 W/m² 3,8 °C 5,3 °C 0,0 km/h (0 Bft)
04.11.2017 20:27 5,3 °C 5,3 °C 90 % 1012,3 hPa 0,0 mm 0,4 km/h (0 Bft) W 277 ° 0 min 0,000 mm 0,0 UV-I 0 W/m² 3,8 °C 5,3 °C 3,2 km/h (1 Bft)
04.11.2017 20:28 5,3 °C 5,3 °C 90 % 1012,3 hPa 0,0 mm 1,9 km/h (1 Bft) W 272 ° 0 min 0,000 mm 0,0 UV-I 0 W/m² 3,8 °C 5,3 °C 3,2 km/h (1 Bft)
04.11.2017 20:29 5,4 °C 5,4 °C 90 % 1012,3 hPa 0,0 mm 1,8 km/h (1 Bft) W 272 ° 0 min 0,000 mm 0,0 UV-I 0 W/m² 3,9 °C 5,4 °C 3,2 km/h (1 Bft)
04.11.2017 20:30 5,4 °C 5,4 °C 90 % 1012,3 hPa 0,0 mm 2,7 km/h (1 Bft) W 269 ° 0 min 0,000 mm 0,0 UV-I 0 W/m² 3,9 °C 5,4 °C 3,2 km/h (1 Bft)
04.11.2017 20:31 5,4 °C 5,4 °C 90 % 1012,3 hPa 0,0 mm 1,6 km/h (1 Bft) W 269 ° 0 min 0,000 mm 0,0 UV-I 0 W/m² 3,9 °C 5,4 °C 1,6 km/h (1 Bft)
04.11.2017 20:32 5,6 °C 5,6 °C 90 % 1012,3 hPa 0,0 mm 0,7 km/h (0 Bft) W 269 ° 0 min 0,000 mm 0,0 UV-I 0 W/m² 4,1 °C 5,6 °C 1,6 km/h (1 Bft)
04.11.2017 20:33 5,7 °C 5,7 °C 90 % 1012,3 hPa 0,0 mm 0,1 km/h (0 Bft) W 269 ° 0 min 0,000 mm 0,0 UV-I 0 W/m² 4,2 °C 5,7 °C 1,6 km/h (1 Bft)
04.11.2017 20:34 5,7 °C 5,7 °C 90 % 1012,4 hPa 0,0 mm 0,1 km/h (0 Bft) W 269 ° 0 min 0,000 mm 0,0 UV-I 0 W/m² 4,2 °C 5,7 °C 1,6 km/h (1 Bft)
04.11.2017 20:35 5,7 °C 5,8 °C 90 % 1012,4 hPa 0,0 mm 0,0 km/h (0 Bft) W 269 ° 0 min 0,000 mm 0,0 UV-I 0 W/m² 4,2 °C 5,7 °C 0,0 km/h (0 Bft)
04.11.2017 20:36 5,7 °C 5,7 °C 89 % 1012,5 hPa 0,0 mm 0,0 km/h (0 Bft) W 269 ° 0 min 0,000 mm 0,0 UV-I 0 W/m² 4,0 °C 5,7 °C 0,0 km/h (0 Bft)
04.11.2017 20:37 5,6 °C 5,7 °C 88 % 1012,4 hPa 0,0 mm 0,0 km/h (0 Bft) W 269 ° 0 min 0,000 mm 0,0 UV-I 0 W/m² 3,8 °C 5,6 °C 0,0 km/h (0 Bft)
04.11.2017 20:38 5,3 °C 5,6 °C 88 % 1012,4 hPa 0,0 mm 0,0 km/h (0 Bft) W 269 ° 0 min 0,000 mm 0,0 UV-I 0 W/m² 3,5 °C 5,3 °C 0,0 km/h (0 Bft)
04.11.2017 20:39 5,2 °C 5,3 °C 88 % 1012,5 hPa 0,0 mm 0,0 km/h (0 Bft) W 269 ° 0 min 0,000 mm 0,0 UV-I 0 W/m² 3,4 °C 5,2 °C 0,0 km/h (0 Bft)
04.11.2017 20:40 5,1 °C 5,2 °C 89 % 1012,5 hPa 0,0 mm 0,1 km/h (0 Bft) W 269 ° 0 min 0,000 mm 0,0 UV-I 0 W/m² 3,4 °C 5,1 °C 1,6 km/h (1 Bft)
04.11.2017 20:41 5,0 °C 5,1 °C 89 % 1012,4 hPa 0,0 mm 0,0 km/h (0 Bft) W 269 ° 0 min 0,000 mm 0,0 UV-I 0 W/m² 3,3 °C 5,0 °C 0,0 km/h (0 Bft)
04.11.2017 20:42 5,1 °C 5,1 °C 90 % 1012,4 hPa 0,0 mm 0,1 km/h (0 Bft) W 269 ° 0 min 0,000 mm 0,0 UV-I 0 W/m² 3,6 °C 5,1 °C 1,6 km/h (1 Bft)
04.11.2017 20:43 5,2 °C 5,2 °C 90 % 1012,4 hPa 0,0 mm 2,3 km/h (1 Bft) W 259 ° 0 min 0,000 mm 0,0 UV-I 0 W/m² 3,7 °C 5,2 °C 3,2 km/h (1 Bft)
04.11.2017 20:44 5,2 °C 5,2 °C 90 % 1012,4 hPa 0,0 mm 1,1 km/h (1 Bft) W 259 ° 0 min 0,000 mm 0,0 UV-I 0 W/m² 3,7 °C 5,2 °C 3,2 km/h (1 Bft)
04.11.2017 20:45 5,2 °C 5,2 °C 90 % 1012,4 hPa 0,0 mm 0,0 km/h (0 Bft) W 259 ° 0 min 0,000 mm 0,0 UV-I 0 W/m² 3,7 °C 5,2 °C 0,0 km/h (0 Bft)
04.11.2017 20:46 5,2 °C 5,2 °C 90 % 1012,3 hPa 0,0 mm 0,0 km/h (0 Bft) W 259 ° 0 min 0,000 mm 0,0 UV-I 0 W/m² 3,7 °C 5,2 °C 0,0 km/h (0 Bft)
04.11.2017 20:47 5,1 °C 5,2 °C 89 % 1012,3 hPa 0,0 mm 0,0 km/h (0 Bft) W 259 ° 0 min 0,000 mm 0,0 UV-I 0 W/m² 3,4 °C 5,1 °C 0,0 km/h (0 Bft)
04.11.2017 20:49 4,9 °C 5,1 °C 90 % 1012,3 hPa 0,0 mm 0,0 km/h (0 Bft) W 259 ° 0 min 0,000 mm 0,0 UV-I 0 W/m² 3,4 °C 4,9 °C 0,0 km/h (0 Bft)
04.11.2017 20:50 4,9 °C 4,9 °C 90 % 1012,3 hPa 0,0 mm 0,0 km/h (0 Bft) W 259 ° 0 min 0,000 mm 0,0 UV-I 0 W/m² 3,4 °C 4,9 °C 0,0 km/h (0 Bft)
04.11.2017 20:51 5,1 °C 5,1 °C 91 % 1012,3 hPa 0,0 mm 3,7 km/h (1 Bft) S-SW 212 ° 0 min 0,000 mm 0,0 UV-I 0 W/m² 3,8 °C 5,1 °C 6,4 km/h (2 Bft)
04.11.2017 20:52 5,3 °C 5,3 °C 91 % 1012,3 hPa 0,0 mm 5,8 km/h (2 Bft) S-SW 201 ° 0 min 0,000 mm 0,0 UV-I 0 W/m² 4,0 °C 4,1 °C 6,4 km/h (2 Bft)
04.11.2017 20:53 5,3 °C 5,3 °C 90 % 1012,4 hPa 0,0 mm 8,3 km/h (2 Bft) S-SW 211 ° 0 min 0,000 mm 0,0 UV-I 0 W/m² 3,8 °C 3,4 °C 11,3 km/h (2 Bft)
04.11.2017 20:54 5,4 °C 5,4 °C 90 % 1012,4 hPa 0,0 mm 7,1 km/h (2 Bft) S-SW 212 ° 0 min 0,000 mm 0,0 UV-I 0 W/m² 3,9 °C 3,8 °C 9,7 km/h (2 Bft)
04.11.2017 20:55 5,5 °C 5,5 °C 90 % 1012,4 hPa 0,0 mm 4,6 km/h (1 Bft) S-SW 196 ° 0 min 0,000 mm 0,0 UV-I 0 W/m² 4,0 °C 4,8 °C 6,4 km/h (2 Bft)
04.11.2017 20:56 5,6 °C 5,6 °C 89 % 1012,3 hPa 0,0 mm 5,1 km/h (1 Bft) S-SW 196 ° 0 min 0,000 mm 0,0 UV-I 0 W/m² 3,9 °C 4,7 °C 6,4 km/h (2 Bft)
04.11.2017 20:57 5,6 °C 5,6 °C 89 % 1012,4 hPa 0,0 mm 5,2 km/h (1 Bft) S-SW 199 ° 0 min 0,000 mm 0,0 UV-I 0 W/m² 3,9 °C 4,7 °C 6,4 km/h (2 Bft)
04.11.2017 20:58 5,6 °C 5,6 °C 89 % 1012,4 hPa 0,0 mm 6,5 km/h (2 Bft) S 188 ° 0 min 0,000 mm 0,0 UV-I 0 W/m² 3,9 °C 4,3 °C 9,7 km/h (2 Bft)
04.11.2017 20:59 5,6 °C 5,6 °C 89 % 1012,3 hPa 0,0 mm 6,2 km/h (2 Bft) S 188 ° 0 min 0,000 mm 0,0 UV-I 0 W/m² 3,9 °C 4,3 °C 8,0 km/h (2 Bft)
04.11.2017 21:00 5,6 °C 5,6 °C 88 % 1012,3 hPa 0,0 mm 6,1 km/h (2 Bft) S 184 ° 0 min 0,000 mm 0,0 UV-I 0 W/m² 3,8 °C 4,4 °C 6,4 km/h (2 Bft)
04.11.2017 21:01 5,6 °C 5,6 °C 88 % 1012,3 hPa 0,0 mm 4,0 km/h (1 Bft) S 184 ° 0 min 0,000 mm 0,0 UV-I 0 W/m² 3,8 °C 5,6 °C 6,4 km/h (2 Bft)
04.11.2017 21:02 5,7 °C 5,7 °C 88 % 1012,3 hPa 0,0 mm 3,6 km/h (1 Bft) S 184 ° 0 min 0,000 mm 0,0 UV-I 0 W/m² 3,9 °C 5,7 °C 4,8 km/h (1 Bft)
04.11.2017 21:03 5,7 °C 5,7 °C 88 % 1012,3 hPa 0,0 mm 3,8 km/h (1 Bft) S 184 ° 0 min 0,000 mm 0,0 UV-I 0 W/m² 3,9 °C 5,7 °C 4,8 km/h (1 Bft)
04.11.2017 21:04 5,8 °C 5,8 °C 88 % 1012,3 hPa 0,0 mm 3,9 km/h (1 Bft) S 184 ° 0 min 0,000 mm 0,0 UV-I 0 W/m² 4,0 °C 5,8 °C 6,4 km/h (2 Bft)
04.11.2017 21:05 5,8 °C 5,8 °C 88 % 1012,3 hPa 0,0 mm 3,2 km/h (1 Bft) S 184 ° 0 min 0,000 mm 0,0 UV-I 0 W/m² 4,0 °C 5,8 °C 4,8 km/h (1 Bft)
04.11.2017 21:06 5,8 °C 5,9 °C 88 % 1012,3 hPa 0,0 mm 3,3 km/h (1 Bft) S 184 ° 0 min 0,000 mm 0,0 UV-I 0 W/m² 4,0 °C 5,8 °C 6,4 km/h (2 Bft)
04.11.2017 21:07 5,8 °C 5,9 °C 88 % 1012,3 hPa 0,0 mm 2,8 km/h (1 Bft) S 184 ° 0 min 0,000 mm 0,0 UV-I 0 W/m² 4,0 °C 5,8 °C 4,8 km/h (1 Bft)
04.11.2017 21:08 5,8 °C 5,9 °C 88 % 1012,3 hPa 0,0 mm 4,0 km/h (1 Bft) S 184 ° 0 min 0,000 mm 0,0 UV-I 0 W/m² 4,0 °C 5,8 °C 4,8 km/h (1 Bft)
04.11.2017 21:09 5,9 °C 5,9 °C 88 % 1012,3 hPa 0,0 mm 3,8 km/h (1 Bft) S 184 ° 0 min 0,000 mm 0,0 UV-I 0 W/m² 4,1 °C 5,9 °C 4,8 km/h (1 Bft)
04.11.2017 21:10 5,9 °C 5,9 °C 88 % 1012,3 hPa 0,0 mm 2,7 km/h (1 Bft) S 184 ° 0 min 0,000 mm 0,0 UV-I 0 W/m² 4,1 °C 5,9 °C 4,8 km/h (1 Bft)
04.11.2017 21:11 5,9 °C 5,9 °C 88 % 1012,3 hPa 0,0 mm 3,5 km/h (1 Bft) S 184 ° 0 min 0,000 mm 0,0 UV-I 0 W/m² 4,1 °C 5,9 °C 4,8 km/h (1 Bft)
04.11.2017 21:12 5,9 °C 5,9 °C 88 % 1012,3 hPa 0,0 mm 2,7 km/h (1 Bft) S 184 ° 0 min 0,000 mm 0,0 UV-I 0 W/m² 4,1 °C 5,9 °C 4,8 km/h (1 Bft)
04.11.2017 21:13 5,9 °C 5,9 °C 87 % 1012,3 hPa 0,0 mm 2,5 km/h (1 Bft) S 184 ° 0 min 0,000 mm 0,0 UV-I 0 W/m² 3,9 °C 5,9 °C 4,8 km/h (1 Bft)
04.11.2017 21:14 5,9 °C 5,9 °C 87 % 1012,3 hPa 0,0 mm 1,7 km/h (1 Bft) S 184 ° 0 min 0,000 mm 0,0 UV-I 0 W/m² 3,9 °C 5,9 °C 4,8 km/h (1 Bft)
04.11.2017 21:15 5,9 °C 5,9 °C 87 % 1012,3 hPa 0,0 mm 0,7 km/h (0 Bft) S 184 ° 0 min 0,000 mm 0,0 UV-I 0 W/m² 3,9 °C 5,9 °C 1,6 km/h (1 Bft)
04.11.2017 21:16 5,9 °C 5,9 °C 87 % 1012,3 hPa 0,0 mm 1,5 km/h (1 Bft) S 184 ° 0 min 0,000 mm 0,0 UV-I 0 W/m² 3,9 °C 5,9 °C 3,2 km/h (1 Bft)
04.11.2017 21:17 5,9 °C 5,9 °C 87 % 1012,3 hPa 0,0 mm 1,5 km/h (1 Bft) S 184 ° 0 min 0,000 mm 0,0 UV-I 0 W/m² 3,9 °C 5,9 °C 3,2 km/h (1 Bft)
04.11.2017 21:18 5,9 °C 5,9 °C 87 % 1012,3 hPa 0,0 mm 2,1 km/h (1 Bft) S 184 ° 0 min 0,000 mm 0,0 UV-I 0 W/m² 3,9 °C 5,9 °C 3,2 km/h (1 Bft)
04.11.2017 21:19 5,8 °C 5,9 °C 87 % 1012,3 hPa 0,0 mm 1,4 km/h (1 Bft) S 184 ° 0 min 0,000 mm 0,0 UV-I 0 W/m² 3,8 °C 5,8 °C 3,2 km/h (1 Bft)
04.11.2017 21:20 5,8 °C 5,8 °C 87 % 1012,3 hPa 0,0 mm 3,2 km/h (1 Bft) S 183 ° 0 min 0,000 mm 0,0 UV-I 0 W/m² 3,8 °C 5,8 °C 4,8 km/h (1 Bft)
04.11.2017 21:21 5,8 °C 5,8 °C 87 % 1012,3 hPa 0,0 mm 4,7 km/h (1 Bft) S 182 ° 0 min 0,000 mm 0,0 UV-I 0 W/m² 3,8 °C 5,1 °C 6,4 km/h (2 Bft)
04.11.2017 21:22 5,8 °C 5,8 °C 87 % 1012,3 hPa 0,0 mm 4,6 km/h (1 Bft) S 182 ° 0 min 0,000 mm 0,0 UV-I 0 W/m² 3,8 °C 5,1 °C 4,8 km/h (1 Bft)
04.11.2017 21:23 5,8 °C 5,8 °C 87 % 1012,3 hPa 0,0 mm 4,2 km/h (1 Bft) S 182 ° 0 min 0,000 mm 0,0 UV-I 0 W/m² 3,8 °C 5,8 °C 4,8 km/h (1 Bft)
04.11.2017 21:24 5,9 °C 5,9 °C 87 % 1012,3 hPa 0,0 mm 4,0 km/h (1 Bft) S 182 ° 0 min 0,000 mm 0,0 UV-I 0 W/m² 3,9 °C 5,9 °C 6,4 km/h (2 Bft)
04.11.2017 21:25 5,9 °C 5,9 °C 87 % 1012,3 hPa 0,0 mm 4,9 km/h (1 Bft) S 182 ° 0 min 0,000 mm 0,0 UV-I 0 W/m² 3,9 °C 5,1 °C 6,4 km/h (2 Bft)
04.11.2017 21:26 5,9 °C 5,9 °C 87 % 1012,3 hPa 0,0 mm 4,2 km/h (1 Bft) S 178 ° 0 min 0,000 mm 0,0 UV-I 0 W/m² 3,9 °C 5,9 °C 4,8 km/h (1 Bft)
04.11.2017 21:27 6,0 °C 6,0 °C 87 % 1012,3 hPa 0,0 mm 4,3 km/h (1 Bft) S 178 ° 0 min 0,000 mm 0,0 UV-I 0 W/m² 4,0 °C 6,0 °C 6,4 km/h (2 Bft)
04.11.2017 21:28 6,0 °C 6,0 °C 87 % 1012,3 hPa 0,0 mm 3,2 km/h (1 Bft) S 178 ° 0 min 0,000 mm 0,0 UV-I 0 W/m² 4,0 °C 6,0 °C 4,8 km/h (1 Bft)
04.11.2017 21:29 6,1 °C 6,1 °C 87 % 1012,3 hPa 0,0 mm 4,4 km/h (1 Bft) S 178 ° 0 min 0,000 mm 0,0 UV-I 0 W/m² 4,1 °C 6,1 °C 6,4 km/h (2 Bft)
04.11.2017 21:30 6,1 °C 6,1 °C 86 % 1012,2 hPa 0,0 mm 3,3 km/h (1 Bft) S 178 ° 0 min 0,000 mm 0,0 UV-I 0 W/m² 3,9 °C 6,1 °C 4,8 km/h (1 Bft)
04.11.2017 21:31 6,1 °C 6,1 °C 86 % 1012,2 hPa 0,0 mm 2,4 km/h (1 Bft) S 178 ° 0 min 0,000 mm 0,0 UV-I 0 W/m² 3,9 °C 6,1 °C 3,2 km/h (1 Bft)
04.11.2017 21:32 6,1 °C 6,1 °C 86 % 1012,3 hPa 0,0 mm 1,8 km/h (1 Bft) S 178 ° 0 min 0,000 mm 0,0 UV-I 0 W/m² 3,9 °C 6,1 °C 4,8 km/h (1 Bft)
04.11.2017 21:33 6,1 °C 6,1 °C 86 % 1012,3 hPa 0,0 mm 3,0 km/h (1 Bft) S 178 ° 0 min 0,000 mm 0,0 UV-I 0 W/m² 3,9 °C 6,1 °C 4,8 km/h (1 Bft)
04.11.2017 21:34 6,1 °C 6,1 °C 86 % 1012,3 hPa 0,0 mm 3,8 km/h (1 Bft) S 178 ° 0 min 0,000 mm 0,0 UV-I 0 W/m² 3,9 °C 6,1 °C 6,4 km/h (2 Bft)
04.11.2017 21:35 6,2 °C 6,2 °C 86 % 1012,3 hPa 0,0 mm 5,8 km/h (2 Bft) S 178 ° 0 min 0,000 mm 0,0 UV-I 0 W/m² 4,0 °C 5,2 °C 6,4 km/h (2 Bft)
04.11.2017 21:36 6,2 °C 6,2 °C 86 % 1012,3 hPa 0,0 mm 5,9 km/h (2 Bft) S 178 ° 0 min 0,000 mm 0,0 UV-I 0 W/m² 4,0 °C 5,1 °C 8,0 km/h (2 Bft)
04.11.2017 21:37 6,2 °C 6,2 °C 86 % 1012,3 hPa 0,0 mm 5,1 km/h (1 Bft) S 178 ° 0 min 0,000 mm 0,0 UV-I 0 W/m² 4,0 °C 5,4 °C 8,0 km/h (2 Bft)
04.11.2017 21:38 6,1 °C 6,2 °C 86 % 1012,2 hPa 0,0 mm 5,7 km/h (1 Bft) S 171 ° 0 min 0,000 mm 0,0 UV-I 0 W/m² 3,9 °C 5,1 °C 9,7 km/h (2 Bft)
04.11.2017 21:39 6,1 °C 6,1 °C 86 % 1012,3 hPa 0,0 mm 6,6 km/h (2 Bft) S 171 ° 0 min 0,000 mm 0,0 UV-I 0 W/m² 3,9 °C 4,8 °C 8,0 km/h (2 Bft)
04.11.2017 21:40 6,0 °C 6,1 °C 86 % 1012,3 hPa 0,0 mm 6,6 km/h (2 Bft) S 171 ° 0 min 0,000 mm 0,0 UV-I 0 W/m² 3,8 °C 4,7 °C 8,0 km/h (2 Bft)
04.11.2017 21:41 6,0 °C 6,0 °C 86 % 1012,2 hPa 0,0 mm 7,5 km/h (2 Bft) S 171 ° 0 min 0,000 mm 0,0 UV-I 0 W/m² 3,8 °C 4,4 °C 9,7 km/h (2 Bft)
04.11.2017 21:42 6,0 °C 6,1 °C 86 % 1012,2 hPa 0,0 mm 6,8 km/h (2 Bft) S 171 ° 0 min 0,000 mm 0,0 UV-I 0 W/m² 3,8 °C 4,6 °C 8,0 km/h (2 Bft)
04.11.2017 21:43 6,0 °C 6,1 °C 86 % 1012,2 hPa 0,0 mm 7,5 km/h (2 Bft) S 171 ° 0 min 0,000 mm 0,0 UV-I 0 W/m² 3,8 °C 4,4 °C 8,0 km/h (2 Bft)
04.11.2017 21:44 6,0 °C 6,1 °C 86 % 1012,2 hPa 0,0 mm 8,0 km/h (2 Bft) S 171 ° 0 min 0,000 mm 0,0 UV-I 0 W/m² 3,8 °C 4,3 °C 9,7 km/h (2 Bft)
04.11.2017 21:45 6,0 °C 6,1 °C 86 % 1012,2 hPa 0,0 mm 8,4 km/h (2 Bft) S 178 ° 0 min 0,000 mm 0,0 UV-I 0 W/m² 3,8 °C 4,2 °C 9,7 km/h (2 Bft)
04.11.2017 21:46 6,0 °C 6,0 °C 86 % 1012,2 hPa 0,0 mm 7,1 km/h (2 Bft) S 176 ° 0 min 0,000 mm 0,0 UV-I 0 W/m² 3,8 °C 4,5 °C 11,3 km/h (2 Bft)
04.11.2017 21:47 5,9 °C 6,0 °C 86 % 1012,2 hPa 0,0 mm 6,9 km/h (2 Bft) S 176 ° 0 min 0,000 mm 0,0 UV-I 0 W/m² 3,7 °C 4,5 °C 8,0 km/h (2 Bft)
04.11.2017 21:48 5,9 °C 5,9 °C 86 % 1012,2 hPa 0,0 mm 5,5 km/h (1 Bft) S 176 ° 0 min 0,000 mm 0,0 UV-I 0 W/m² 3,7 °C 4,9 °C 8,0 km/h (2 Bft)
04.11.2017 21:49 5,9 °C 5,9 °C 86 % 1012,2 hPa 0,0 mm 4,9 km/h (1 Bft) S 176 ° 0 min 0,000 mm 0,0 UV-I 0 W/m² 3,7 °C 5,1 °C 6,4 km/h (2 Bft)
04.11.2017 21:50 5,9 °C 5,9 °C 86 % 1012,2 hPa 0,0 mm 5,7 km/h (1 Bft) S-SW 205 ° 0 min 0,000 mm 0,0 UV-I 0 W/m² 3,7 °C 4,9 °C 9,7 km/h (2 Bft)
04.11.2017 21:51 5,9 °C 5,9 °C 86 % 1012,2 hPa 0,0 mm 8,4 km/h (2 Bft) S-SW 200 ° 0 min 0,000 mm 0,0 UV-I 0 W/m² 3,7 °C 4,1 °C 12,9 km/h (3 Bft)
04.11.2017 21:52 6,1 °C 6,1 °C 86 % 1012,2 hPa 0,0 mm 7,8 km/h (2 Bft) S 183 ° 0 min 0,000 mm 0,0 UV-I 0 W/m² 3,9 °C 4,5 °C 9,7 km/h (2 Bft)
04.11.2017 21:53 6,1 °C 6,1 °C 86 % 1012,2 hPa 0,0 mm 6,0 km/h (2 Bft) S 173 ° 0 min 0,000 mm 0,0 UV-I 0 W/m² 3,9 °C 5,0 °C 9,7 km/h (2 Bft)
04.11.2017 21:54 6,2 °C 6,2 °C 86 % 1012,2 hPa 0,0 mm 5,7 km/h (1 Bft) S 180 ° 0 min 0,000 mm 0,0 UV-I 0 W/m² 4,0 °C 5,2 °C 9,7 km/h (2 Bft)
04.11.2017 21:55 6,2 °C 6,2 °C 86 % 1012,2 hPa 0,0 mm 6,4 km/h (2 Bft) S 182 ° 0 min 0,000 mm 0,0 UV-I 0 W/m² 4,0 °C 5,0 °C 9,7 km/h (2 Bft)
04.11.2017 21:56 6,3 °C 6,3 °C 85 % 1012,2 hPa 0,0 mm 5,7 km/h (1 Bft) S 175 ° 0 min 0,000 mm 0,0 UV-I 0 W/m² 4,0 °C 5,3 °C 8,0 km/h (2 Bft)
04.11.2017 21:57 6,3 °C 6,3 °C 85 % 1012,2 hPa 0,0 mm 5,4 km/h (1 Bft) S 180 ° 0 min 0,000 mm 0,0 UV-I 0 W/m² 4,0 °C 5,4 °C 8,0 km/h (2 Bft)
04.11.2017 21:58 6,3 °C 6,3 °C 85 % 1012,2 hPa 0,0 mm 5,2 km/h (1 Bft) S 182 ° 0 min 0,000 mm 0,0 UV-I 0 W/m² 4,0 °C 5,5 °C 8,0 km/h (2 Bft)
04.11.2017 21:59 6,3 °C 6,3 °C 85 % 1012,2 hPa 0,0 mm 4,3 km/h (1 Bft) S 182 ° 0 min 0,000 mm 0,0 UV-I 0 W/m² 4,0 °C 6,3 °C 8,0 km/h (2 Bft)
04.11.2017 22:00 6,4 °C 6,4 °C 85 % 1012,2 hPa 0,0 mm 3,6 km/h (1 Bft) S 182 ° 0 min 0,000 mm 0,0 UV-I 0 W/m² 4,1 °C 6,4 °C 4,8 km/h (1 Bft)
04.11.2017 22:01 6,3 °C 6,4 °C 85 % 1012,2 hPa 0,0 mm 3,4 km/h (1 Bft) S 182 ° 0 min 0,000 mm 0,0 UV-I 0 W/m² 4,0 °C 6,3 °C 4,8 km/h (1 Bft)
04.11.2017 22:02 6,3 °C 6,3 °C 84 % 1012,2 hPa 0,0 mm 4,0 km/h (1 Bft) S-SW 192 ° 0 min 0,000 mm 0,0 UV-I 0 W/m² 3,8 °C 6,3 °C 6,4 km/h (2 Bft)
04.11.2017 22:03 6,2 °C 6,3 °C 85 % 1012,3 hPa 0,0 mm 4,7 km/h (1 Bft) S 191 ° 0 min 0,000 mm 0,0 UV-I 0 W/m² 3,9 °C 5,6 °C 6,4 km/h (2 Bft)
04.11.2017 22:04 6,1 °C 6,2 °C 85 % 1012,2 hPa 0,0 mm 5,8 km/h (2 Bft) S 182 ° 0 min 0,000 mm 0,0 UV-I 0 W/m² 3,8 °C 5,1 °C 8,0 km/h (2 Bft)
04.11.2017 22:05 6,1 °C 6,1 °C 86 % 1012,2 hPa 0,0 mm 6,0 km/h (2 Bft) S 184 ° 0 min 0,000 mm 0,0 UV-I 0 W/m² 3,9 °C 5,0 °C 8,0 km/h (2 Bft)
04.11.2017 22:06 6,1 °C 6,1 °C 86 % 1012,1 hPa 0,0 mm 6,2 km/h (2 Bft) S 184 ° 0 min 0,000 mm 0,0 UV-I 0 W/m² 3,9 °C 4,9 °C 8,0 km/h (2 Bft)
04.11.2017 22:07 6,1 °C 6,1 °C 85 % 1012,1 hPa 0,0 mm 6,1 km/h (2 Bft) S 182 ° 0 min 0,000 mm 0,0 UV-I 0 W/m² 3,8 °C 5,0 °C 8,0 km/h (2 Bft)
04.11.2017 22:08 6,1 °C 6,1 °C 85 % 1012,1 hPa 0,0 mm 5,9 km/h (2 Bft) S 182 ° 0 min 0,000 mm 0,0 UV-I 0 W/m² 3,8 °C 5,0 °C 8,0 km/h (2 Bft)
04.11.2017 22:09 6,1 °C 6,1 °C 85 % 1012,1 hPa 0,0 mm 6,4 km/h (2 Bft) S 189 ° 0 min 0,000 mm 0,0 UV-I 0 W/m² 3,8 °C 4,9 °C 8,0 km/h (2 Bft)
04.11.2017 22:10 6,1 °C 6,1 °C 85 % 1012,1 hPa 0,0 mm 5,1 km/h (1 Bft) S 182 ° 0 min 0,000 mm 0,0 UV-I 0 W/m² 3,8 °C 5,3 °C 9,7 km/h (2 Bft)
04.11.2017 22:11 5,9 °C 6,1 °C 85 % 1012,1 hPa 0,0 mm 3,4 km/h (1 Bft) S 182 ° 0 min 0,000 mm 0,0 UV-I 0 W/m² 3,6 °C 5,9 °C 4,8 km/h (1 Bft)
04.11.2017 22:12 5,9 °C 5,9 °C 85 % 1012,1 hPa 0,0 mm 4,0 km/h (1 Bft) S 182 ° 0 min 0,000 mm 0,0 UV-I 0 W/m² 3,6 °C 5,9 °C 6,4 km/h (2 Bft)
04.11.2017 22:13 5,9 °C 5,9 °C 86 % 1012,0 hPa 0,0 mm 5,5 km/h (1 Bft) S 173 ° 0 min 0,000 mm 0,0 UV-I 0 W/m² 3,7 °C 4,9 °C 8,0 km/h (2 Bft)
04.11.2017 22:14 6,0 °C 6,0 °C 86 % 1012,0 hPa 0,0 mm 5,8 km/h (2 Bft) S 173 ° 0 min 0,000 mm 0,0 UV-I 0 W/m² 3,8 °C 4,9 °C 9,7 km/h (2 Bft)
04.11.2017 22:15 6,1 °C 6,1 °C 86 % 1012,0 hPa 0,0 mm 4,4 km/h (1 Bft) S 173 ° 0 min 0,000 mm 0,0 UV-I 0 W/m² 3,9 °C 6,1 °C 4,8 km/h (1 Bft)
04.11.2017 22:16 6,1 °C 6,1 °C 86 % 1012,0 hPa 0,0 mm 4,2 km/h (1 Bft) S 173 ° 0 min 0,000 mm 0,0 UV-I 0 W/m² 3,9 °C 6,1 °C 8,0 km/h (2 Bft)
04.11.2017 22:17 6,2 °C 6,2 °C 85 % 1011,9 hPa 0,0 mm 4,0 km/h (1 Bft) S 173 ° 0 min 0,000 mm 0,0 UV-I 0 W/m² 3,9 °C 6,2 °C 4,8 km/h (1 Bft)
04.11.2017 22:18 6,2 °C 6,2 °C 85 % 1011,9 hPa 0,0 mm 4,1 km/h (1 Bft) S 173 ° 0 min 0,000 mm 0,0 UV-I 0 W/m² 3,9 °C 6,2 °C 8,0 km/h (2 Bft)
04.11.2017 22:19 6,2 °C 6,2 °C 85 % 1011,9 hPa 0,0 mm 2,5 km/h (1 Bft) S 173 ° 0 min 0,000 mm 0,0 UV-I 0 W/m² 3,9 °C 6,2 °C 4,8 km/h (1 Bft)
04.11.2017 22:20 6,2 °C 6,2 °C 85 % 1011,9 hPa 0,0 mm 3,3 km/h (1 Bft) S 173 ° 0 min 0,000 mm 0,0 UV-I 0 W/m² 3,9 °C 6,2 °C 4,8 km/h (1 Bft)
04.11.2017 22:21 6,2 °C 6,2 °C 85 % 1011,9 hPa 0,0 mm 4,0 km/h (1 Bft) S 173 ° 0 min 0,000 mm 0,0 UV-I 0 W/m² 3,9 °C 6,2 °C 8,0 km/h (2 Bft)
04.11.2017 22:22 6,1 °C 6,2 °C 85 % 1011,9 hPa 0,0 mm 3,8 km/h (1 Bft) S 173 ° 0 min 0,000 mm 0,0 UV-I 0 W/m² 3,8 °C 6,1 °C 4,8 km/h (1 Bft)
04.11.2017 22:23 6,1 °C 6,1 °C 85 % 1011,9 hPa 0,0 mm 1,8 km/h (1 Bft) S 173 ° 0 min 0,000 mm 0,0 UV-I 0 W/m² 3,8 °C 6,1 °C 3,2 km/h (1 Bft)
04.11.2017 22:24 6,1 °C 6,1 °C 85 % 1011,8 hPa 0,0 mm 1,8 km/h (1 Bft) S 173 ° 0 min 0,000 mm 0,0 UV-I 0 W/m² 3,8 °C 6,1 °C 3,2 km/h (1 Bft)
04.11.2017 22:25 6,1 °C 6,1 °C 86 % 1011,8 hPa 0,0 mm 2,7 km/h (1 Bft) S 173 ° 0 min 0,000 mm 0,0 UV-I 0 W/m² 3,9 °C 6,1 °C 4,8 km/h (1 Bft)
04.11.2017 22:26 6,1 °C 6,1 °C 86 % 1011,8 hPa 0,0 mm 2,8 km/h (1 Bft) S 173 ° 0 min 0,000 mm 0,0 UV-I 0 W/m² 3,9 °C 6,1 °C 4,8 km/h (1 Bft)
04.11.2017 22:27 6,2 °C 6,2 °C 86 % 1011,8 hPa 0,0 mm 3,0 km/h (1 Bft) S 173 ° 0 min 0,000 mm 0,0 UV-I 0 W/m² 4,0 °C 6,2 °C 4,8 km/h (1 Bft)
04.11.2017 22:28 6,2 °C 6,2 °C 85 % 1011,7 hPa 0,0 mm 2,1 km/h (1 Bft) S 173 ° 0 min 0,000 mm 0,0 UV-I 0 W/m² 3,9 °C 6,2 °C 3,2 km/h (1 Bft)
04.11.2017 22:29 6,2 °C 6,2 °C 85 % 1011,7 hPa 0,0 mm 1,8 km/h (1 Bft) S 173 ° 0 min 0,000 mm 0,0 UV-I 0 W/m² 3,9 °C 6,2 °C 3,2 km/h (1 Bft)
04.11.2017 22:30 6,2 °C 6,3 °C 85 % 1011,7 hPa 0,0 mm 1,5 km/h (1 Bft) S 173 ° 0 min 0,000 mm 0,0 UV-I 0 W/m² 3,9 °C 6,2 °C 3,2 km/h (1 Bft)
04.11.2017 22:31 6,3 °C 6,3 °C 85 % 1011,7 hPa 0,0 mm 0,1 km/h (0 Bft) S 173 ° 0 min 0,000 mm 0,0 UV-I 0 W/m² 4,0 °C 6,3 °C 1,6 km/h (1 Bft)
04.11.2017 22:32 6,3 °C 6,3 °C 85 % 1011,6 hPa 0,0 mm 0,0 km/h (0 Bft) S 173 ° 0 min 0,000 mm 0,0 UV-I 0 W/m² 4,0 °C 6,3 °C 0,0 km/h (0 Bft)
04.11.2017 22:33 6,3 °C 6,3 °C 84 % 1011,6 hPa 0,0 mm 0,0 km/h (0 Bft) S 173 ° 0 min 0,000 mm 0,0 UV-I 0 W/m² 3,8 °C 6,3 °C 0,0 km/h (0 Bft)
04.11.2017 22:34 6,3 °C 6,3 °C 84 % 1011,6 hPa 0,0 mm 0,0 km/h (0 Bft) S 173 ° 0 min 0,000 mm 0,0 UV-I 0 W/m² 3,8 °C 6,3 °C 0,0 km/h (0 Bft)
04.11.2017 22:35 6,4 °C 6,4 °C 84 % 1011,6 hPa 0,0 mm 0,4 km/h (0 Bft) S 173 ° 0 min 0,000 mm 0,0 UV-I 0 W/m² 3,9 °C 6,4 °C 1,6 km/h (1 Bft)
04.11.2017 22:36 6,4 °C 6,4 °C 84 % 1011,6 hPa 0,0 mm 1,0 km/h (0 Bft) S 173 ° 0 min 0,000 mm 0,0 UV-I 0 W/m² 3,9 °C 6,4 °C 3,2 km/h (1 Bft)
04.11.2017 22:37 6,4 °C 6,4 °C 84 % 1011,6 hPa 0,0 mm 0,0 km/h (0 Bft) S 173 ° 0 min 0,000 mm 0,0 UV-I 0 W/m² 3,9 °C 6,4 °C 0,0 km/h (0 Bft)
04.11.2017 22:38 6,4 °C 6,4 °C 84 % 1011,6 hPa 0,0 mm 0,1 km/h (0 Bft) S 173 ° 0 min 0,000 mm 0,0 UV-I 0 W/m² 3,9 °C 6,4 °C 1,6 km/h (1 Bft)
04.11.2017 22:39 6,3 °C 6,4 °C 83 % 1011,6 hPa 0,0 mm 0,0 km/h (0 Bft) S 173 ° 0 min 0,000 mm 0,0 UV-I 0 W/m² 3,6 °C 6,3 °C 0,0 km/h (0 Bft)
04.11.2017 22:40 6,2 °C 6,3 °C 83 % 1011,6 hPa 0,0 mm 0,0 km/h (0 Bft) S 173 ° 0 min 0,000 mm 0,0 UV-I 0 W/m² 3,5 °C 6,2 °C 0,0 km/h (0 Bft)
04.11.2017 22:41 5,9 °C 6,2 °C 84 % 1011,6 hPa 0,0 mm 0,0 km/h (0 Bft) S 173 ° 0 min 0,000 mm 0,0 UV-I 0 W/m² 3,4 °C 5,9 °C 0,0 km/h (0 Bft)
04.11.2017 22:42 5,8 °C 5,9 °C 85 % 1011,5 hPa 0,0 mm 0,0 km/h (0 Bft) S 173 ° 0 min 0,000 mm 0,0 UV-I 0 W/m² 3,5 °C 5,8 °C 0,0 km/h (0 Bft)
04.11.2017 22:43 5,6 °C 5,8 °C 85 % 1011,5 hPa 0,0 mm 0,0 km/h (0 Bft) S 173 ° 0 min 0,000 mm 0,0 UV-I 0 W/m² 3,3 °C 5,6 °C 0,0 km/h (0 Bft)
04.11.2017 22:44 5,5 °C 5,6 °C 86 % 1011,5 hPa 0,0 mm 0,0 km/h (0 Bft) S 173 ° 0 min 0,000 mm 0,0 UV-I 0 W/m² 3,3 °C 5,5 °C 0,0 km/h (0 Bft)
04.11.2017 22:45 5,4 °C 5,5 °C 86 % 1011,5 hPa 0,0 mm 0,0 km/h (0 Bft) S 173 ° 0 min 0,000 mm 0,0 UV-I 0 W/m² 3,3 °C 5,4 °C 0,0 km/h (0 Bft)
04.11.2017 22:46 5,3 °C 5,4 °C 87 % 1011,5 hPa 0,0 mm 0,0 km/h (0 Bft) S 173 ° 0 min 0,000 mm 0,0 UV-I 0 W/m² 3,3 °C 5,3 °C 0,0 km/h (0 Bft)
04.11.2017 22:47 5,3 °C 5,3 °C 87 % 1011,5 hPa 0,0 mm 0,0 km/h (0 Bft) S 173 ° 0 min 0,000 mm 0,0 UV-I 0 W/m² 3,3 °C 5,3 °C 0,0 km/h (0 Bft)
04.11.2017 22:48 5,2 °C 5,3 °C 87 % 1011,5 hPa 0,0 mm 0,0 km/h (0 Bft) S 173 ° 0 min 0,000 mm 0,0 UV-I 0 W/m² 3,2 °C 5,2 °C 0,0 km/h (0 Bft)
04.11.2017 22:49 5,2 °C 5,2 °C 87 % 1011,5 hPa 0,0 mm 0,0 km/h (0 Bft) S 173 ° 0 min 0,000 mm 0,0 UV-I 0 W/m² 3,2 °C 5,2 °C 0,0 km/h (0 Bft)
04.11.2017 22:50 5,1 °C 5,2 °C 87 % 1011,5 hPa 0,0 mm 0,0 km/h (0 Bft) S 173 ° 0 min 0,000 mm 0,0 UV-I 0 W/m² 3,1 °C 5,1 °C 0,0 km/h (0 Bft)
04.11.2017 22:51 5,1 °C 5,1 °C 87 % 1011,5 hPa 0,0 mm 0,0 km/h (0 Bft) S 173 ° 0 min 0,000 mm 0,0 UV-I 0 W/m² 3,1 °C 5,1 °C 0,0 km/h (0 Bft)
04.11.2017 22:52 5,1 °C 5,1 °C 87 % 1011,4 hPa 0,0 mm 0,0 km/h (0 Bft) S 173 ° 0 min 0,000 mm 0,0 UV-I 0 W/m² 3,1 °C 5,1 °C 0,0 km/h (0 Bft)
04.11.2017 22:53 5,1 °C 5,1 °C 88 % 1011,4 hPa 0,0 mm 0,0 km/h (0 Bft) S 173 ° 0 min 0,000 mm 0,0 UV-I 0 W/m² 3,3 °C 5,1 °C 0,0 km/h (0 Bft)
04.11.2017 22:54 5,1 °C 5,1 °C 88 % 1011,3 hPa 0,0 mm 0,0 km/h (0 Bft) S 173 ° 0 min 0,000 mm 0,0 UV-I 0 W/m² 3,3 °C 5,1 °C 0,0 km/h (0 Bft)
04.11.2017 22:55 5,1 °C 5,1 °C 88 % 1011,4 hPa 0,0 mm 0,3 km/h (0 Bft) S 173 ° 0 min 0,000 mm 0,0 UV-I 0 W/m² 3,3 °C 5,1 °C 1,6 km/h (1 Bft)
04.11.2017 22:56 5,1 °C 5,1 °C 88 % 1011,4 hPa 0,0 mm 0,0 km/h (0 Bft) S 173 ° 0 min 0,000 mm 0,0 UV-I 0 W/m² 3,3 °C 5,1 °C 0,0 km/h (0 Bft)
04.11.2017 22:57 5,0 °C 5,1 °C 88 % 1011,4 hPa 0,0 mm 0,0 km/h (0 Bft) S 173 ° 0 min 0,000 mm 0,0 UV-I 0 W/m² 3,2 °C 5,0 °C 0,0 km/h (0 Bft)
04.11.2017 22:58 5,1 °C 5,1 °C 88 % 1011,4 hPa 0,0 mm 0,0 km/h (0 Bft) S 173 ° 0 min 0,000 mm 0,0 UV-I 0 W/m² 3,3 °C 5,1 °C 0,0 km/h (0 Bft)
04.11.2017 22:59 5,1 °C 5,1 °C 88 % 1011,4 hPa 0,0 mm 0,0 km/h (0 Bft) S 173 ° 0 min 0,000 mm 0,0 UV-I 0 W/m² 3,3 °C 5,1 °C 0,0 km/h (0 Bft)
04.11.2017 23:00 5,2 °C 5,2 °C 88 % 1011,4 hPa 0,0 mm 0,0 km/h (0 Bft) S 173 ° 0 min 0,000 mm 0,0 UV-I 0 W/m² 3,4 °C 5,2 °C 0,0 km/h (0 Bft)
04.11.2017 23:01 5,3 °C 5,3 °C 88 % 1011,3 hPa 0,0 mm 0,0 km/h (0 Bft) S 173 ° 0 min 0,000 mm 0,0 UV-I 0 W/m² 3,5 °C 5,3 °C 0,0 km/h (0 Bft)
04.11.2017 23:02 5,4 °C 5,4 °C 88 % 1011,4 hPa 0,0 mm 0,0 km/h (0 Bft) S 173 ° 0 min 0,000 mm 0,0 UV-I 0 W/m² 3,6 °C 5,4 °C 0,0 km/h (0 Bft)
04.11.2017 23:03 5,6 °C 5,6 °C 87 % 1011,4 hPa 0,0 mm 0,0 km/h (0 Bft) S 173 ° 0 min 0,000 mm 0,0 UV-I 0 W/m² 3,6 °C 5,6 °C 0,0 km/h (0 Bft)
04.11.2017 23:04 5,7 °C 5,7 °C 86 % 1011,3 hPa 0,0 mm 0,0 km/h (0 Bft) S 173 ° 0 min 0,000 mm 0,0 UV-I 0 W/m² 3,5 °C 5,7 °C 0,0 km/h (0 Bft)
04.11.2017 23:05 5,8 °C 5,8 °C 86 % 1011,3 hPa 0,0 mm 0,0 km/h (0 Bft) S 173 ° 0 min 0,000 mm 0,0 UV-I 0 W/m² 3,6 °C 5,8 °C 0,0 km/h (0 Bft)
04.11.2017 23:06 5,9 °C 5,9 °C 85 % 1011,3 hPa 0,0 mm 0,0 km/h (0 Bft) S 173 ° 0 min 0,000 mm 0,0 UV-I 0 W/m² 3,6 °C 5,9 °C 0,0 km/h (0 Bft)
04.11.2017 23:07 5,9 °C 5,9 °C 85 % 1011,2 hPa 0,0 mm 0,0 km/h (0 Bft) S 173 ° 0 min 0,000 mm 0,0 UV-I 0 W/m² 3,6 °C 5,9 °C 0,0 km/h (0 Bft)
04.11.2017 23:08 5,9 °C 5,9 °C 84 % 1011,2 hPa 0,0 mm 0,0 km/h (0 Bft) S 173 ° 0 min 0,000 mm 0,0 UV-I 0 W/m² 3,4 °C 5,9 °C 0,0 km/h (0 Bft)
04.11.2017 23:09 5,9 °C 5,9 °C 84 % 1011,3 hPa 0,0 mm 0,0 km/h (0 Bft) S 173 ° 0 min 0,000 mm 0,0 UV-I 0 W/m² 3,4 °C 5,9 °C 0,0 km/h (0 Bft)
04.11.2017 23:10 6,1 °C 6,1 °C 84 % 1011,2 hPa 0,0 mm 0,0 km/h (0 Bft) S 173 ° 0 min 0,000 mm 0,0 UV-I 0 W/m² 3,6 °C 6,1 °C 0,0 km/h (0 Bft)
04.11.2017 23:11 6,1 °C 6,1 °C 84 % 1011,2 hPa 0,0 mm 0,0 km/h (0 Bft) S 173 ° 0 min 0,000 mm 0,0 UV-I 0 W/m² 3,6 °C 6,1 °C 0,0 km/h (0 Bft)
04.11.2017 23:12 6,2 °C 6,2 °C 83 % 1011,2 hPa 0,0 mm 0,0 km/h (0 Bft) S 173 ° 0 min 0,000 mm 0,0 UV-I 0 W/m² 3,5 °C 6,2 °C 0,0 km/h (0 Bft)
04.11.2017 23:13 6,2 °C 6,2 °C 83 % 1011,2 hPa 0,0 mm 0,0 km/h (0 Bft) S 173 ° 0 min 0,000 mm 0,0 UV-I 0 W/m² 3,5 °C 6,2 °C 0,0 km/h (0 Bft)
04.11.2017 23:14 6,2 °C 6,2 °C 83 % 1011,1 hPa 0,0 mm 0,0 km/h (0 Bft) S 173 ° 0 min 0,000 mm 0,0 UV-I 0 W/m² 3,5 °C 6,2 °C 0,0 km/h (0 Bft)
04.11.2017 23:15 6,2 °C 6,2 °C 83 % 1011,1 hPa 0,0 mm 0,0 km/h (0 Bft) S 173 ° 0 min 0,000 mm 0,0 UV-I 0 W/m² 3,5 °C 6,2 °C 0,0 km/h (0 Bft)
04.11.2017 23:16 6,2 °C 6,2 °C 83 % 1011,1 hPa 0,0 mm 0,0 km/h (0 Bft) S 173 ° 0 min 0,000 mm 0,0 UV-I 0 W/m² 3,5 °C 6,2 °C 0,0 km/h (0 Bft)
04.11.2017 23:17 6,0 °C 6,2 °C 83 % 1011,1 hPa 0,0 mm 0,0 km/h (0 Bft) S 173 ° 0 min 0,000 mm 0,0 UV-I 0 W/m² 3,3 °C 6,0 °C 0,0 km/h (0 Bft)
04.11.2017 23:18 5,8 °C 6,0 °C 84 % 1011,2 hPa 0,0 mm 0,0 km/h (0 Bft) S 173 ° 0 min 0,000 mm 0,0 UV-I 0 W/m² 3,3 °C 5,8 °C 0,0 km/h (0 Bft)
04.11.2017 23:19 5,7 °C 5,8 °C 84 % 1011,1 hPa 0,0 mm 0,0 km/h (0 Bft) S 173 ° 0 min 0,000 mm 0,0 UV-I 0 W/m² 3,2 °C 5,7 °C 0,0 km/h (0 Bft)
04.11.2017 23:20 5,5 °C 5,7 °C 85 % 1011,1 hPa 0,0 mm 0,0 km/h (0 Bft) S 173 ° 0 min 0,000 mm 0,0 UV-I 0 W/m² 3,2 °C 5,5 °C 0,0 km/h (0 Bft)
04.11.2017 23:21 5,3 °C 5,5 °C 85 % 1011,1 hPa 0,0 mm 0,0 km/h (0 Bft) S 173 ° 0 min 0,000 mm 0,0 UV-I 0 W/m² 3,0 °C 5,3 °C 0,0 km/h (0 Bft)
04.11.2017 23:22 5,2 °C 5,3 °C 85 % 1011,1 hPa 0,0 mm 0,0 km/h (0 Bft) S 173 ° 0 min 0,000 mm 0,0 UV-I 0 W/m² 2,9 °C 5,2 °C 0,0 km/h (0 Bft)
04.11.2017 23:23 5,2 °C 5,2 °C 86 % 1011,1 hPa 0,0 mm 0,0 km/h (0 Bft) S 173 ° 0 min 0,000 mm 0,0 UV-I 0 W/m² 3,1 °C 5,2 °C 0,0 km/h (0 Bft)
04.11.2017 23:24 5,1 °C 5,2 °C 86 % 1011,2 hPa 0,0 mm 0,0 km/h (0 Bft) S 173 ° 0 min 0,000 mm 0,0 UV-I 0 W/m² 3,0 °C 5,1 °C 0,0 km/h (0 Bft)
04.11.2017 23:25 5,1 °C 5,1 °C 86 % 1011,1 hPa 0,0 mm 0,0 km/h (0 Bft) S 173 ° 0 min 0,000 mm 0,0 UV-I 0 W/m² 3,0 °C 5,1 °C 0,0 km/h (0 Bft)
04.11.2017 23:26 5,1 °C 5,1 °C 86 % 1011,1 hPa 0,0 mm 0,0 km/h (0 Bft) S 173 ° 0 min 0,000 mm 0,0 UV-I 0 W/m² 3,0 °C 5,1 °C 0,0 km/h (0 Bft)
04.11.2017 23:27 5,0 °C 5,1 °C 86 % 1011,1 hPa 0,0 mm 0,0 km/h (0 Bft) S 173 ° 0 min 0,000 mm 0,0 UV-I 0 W/m² 2,9 °C 5,0 °C 0,0 km/h (0 Bft)
04.11.2017 23:28 5,0 °C 5,1 °C 86 % 1011,1 hPa 0,0 mm 0,0 km/h (0 Bft) S 173 ° 0 min 0,000 mm 0,0 UV-I 0 W/m² 2,9 °C 5,0 °C 0,0 km/h (0 Bft)
04.11.2017 23:29 5,0 °C 5,1 °C 86 % 1011,1 hPa 0,0 mm 0,0 km/h (0 Bft) S 173 ° 0 min 0,000 mm 0,0 UV-I 0 W/m² 2,9 °C 5,0 °C 0,0 km/h (0 Bft)
04.11.2017 23:30 5,0 °C 5,1 °C 86 % 1011,1 hPa 0,0 mm 0,0 km/h (0 Bft) S 173 ° 0 min 0,000 mm 0,0 UV-I 0 W/m² 2,9 °C 5,0 °C 0,0 km/h (0 Bft)
04.11.2017 23:31 5,1 °C 5,1 °C 86 % 1011,1 hPa 0,0 mm 0,0 km/h (0 Bft) S 173 ° 0 min 0,000 mm 0,0 UV-I 0 W/m² 3,0 °C 5,1 °C 0,0 km/h (0 Bft)
04.11.2017 23:32 5,1 °C 5,1 °C 86 % 1011,1 hPa 0,0 mm 0,0 km/h (0 Bft) S 173 ° 0 min 0,000 mm 0,0 UV-I 0 W/m² 3,0 °C 5,1 °C 0,0 km/h (0 Bft)
04.11.2017 23:33 5,0 °C 5,1 °C 86 % 1011,1 hPa 0,0 mm 0,0 km/h (0 Bft) S 173 ° 0 min 0,000 mm 0,0 UV-I 0 W/m² 2,9 °C 5,0 °C 0,0 km/h (0 Bft)
04.11.2017 23:34 5,0 °C 5,1 °C 86 % 1011,0 hPa 0,0 mm 0,0 km/h (0 Bft) S 173 ° 0 min 0,000 mm 0,0 UV-I 0 W/m² 2,9 °C 5,0 °C 0,0 km/h (0 Bft)
04.11.2017 23:35 4,9 °C 5,0 °C 86 % 1011,1 hPa 0,0 mm 0,0 km/h (0 Bft) S 173 ° 0 min 0,000 mm 0,0 UV-I 0 W/m² 2,8 °C 4,9 °C 0,0 km/h (0 Bft)
04.11.2017 23:36 4,9 °C 4,9 °C 86 % 1011,0 hPa 0,0 mm 0,0 km/h (0 Bft) S 173 ° 0 min 0,000 mm 0,0 UV-I 0 W/m² 2,8 °C 4,9 °C 0,0 km/h (0 Bft)
04.11.2017 23:37 4,8 °C 4,9 °C 86 % 1011,0 hPa 0,0 mm 0,0 km/h (0 Bft) S 173 ° 0 min 0,000 mm 0,0 UV-I 0 W/m² 2,7 °C 4,8 °C 0,0 km/h (0 Bft)
04.11.2017 23:38 4,7 °C 4,8 °C 85 % 1010,9 hPa 0,0 mm 0,0 km/h (0 Bft) S 173 ° 0 min 0,000 mm 0,0 UV-I 0 W/m² 2,4 °C 4,7 °C 0,0 km/h (0 Bft)
04.11.2017 23:39 4,6 °C 4,7 °C 86 % 1010,9 hPa 0,0 mm 0,0 km/h (0 Bft) S 173 ° 0 min 0,000 mm 0,0 UV-I 0 W/m² 2,5 °C 4,6 °C 0,0 km/h (0 Bft)
04.11.2017 23:40 4,4 °C 4,6 °C 86 % 1010,9 hPa 0,0 mm 0,0 km/h (0 Bft) S 173 ° 0 min 0,000 mm 0,0 UV-I 0 W/m² 2,3 °C 4,4 °C 0,0 km/h (0 Bft)
04.11.2017 23:41 4,4 °C 4,4 °C 87 % 1010,9 hPa 0,0 mm 0,0 km/h (0 Bft) S 173 ° 0 min 0,000 mm 0,0 UV-I 0 W/m² 2,4 °C 4,4 °C 0,0 km/h (0 Bft)
04.11.2017 23:42 4,3 °C 4,4 °C 88 % 1010,9 hPa 0,0 mm 0,0 km/h (0 Bft) S 173 ° 0 min 0,000 mm 0,0 UV-I 0 W/m² 2,5 °C 4,3 °C 0,0 km/h (0 Bft)
04.11.2017 23:43 4,3 °C 4,3 °C 88 % 1010,9 hPa 0,0 mm 0,0 km/h (0 Bft) S 173 ° 0 min 0,000 mm 0,0 UV-I 0 W/m² 2,5 °C 4,3 °C 0,0 km/h (0 Bft)
04.11.2017 23:44 4,3 °C 4,4 °C 88 % 1010,9 hPa 0,0 mm 0,0 km/h (0 Bft) S 173 ° 0 min 0,000 mm 0,0 UV-I 0 W/m² 2,5 °C 4,3 °C 0,0 km/h (0 Bft)
04.11.2017 23:45 4,4 °C 4,4 °C 89 % 1010,9 hPa 0,0 mm 0,0 km/h (0 Bft) S 173 ° 0 min 0,000 mm 0,0 UV-I 0 W/m² 2,7 °C 4,4 °C 0,0 km/h (0 Bft)
04.11.2017 23:46 4,4 °C 4,4 °C 88 % 1010,9 hPa 0,0 mm 0,0 km/h (0 Bft) S 173 ° 0 min 0,000 mm 0,0 UV-I 0 W/m² 2,6 °C 4,4 °C 0,0 km/h (0 Bft)
04.11.2017 23:47 4,4 °C 4,4 °C 88 % 1010,9 hPa 0,0 mm 0,0 km/h (0 Bft) S 173 ° 0 min 0,000 mm 0,0 UV-I 0 W/m² 2,6 °C 4,4 °C 0,0 km/h (0 Bft)
04.11.2017 23:48 4,3 °C 4,4 °C 88 % 1010,9 hPa 0,0 mm 0,0 km/h (0 Bft) S 173 ° 0 min 0,000 mm 0,0 UV-I 0 W/m² 2,5 °C 4,3 °C 0,0 km/h (0 Bft)
04.11.2017 23:49 4,3 °C 4,3 °C 88 % 1010,9 hPa 0,0 mm 0,0 km/h (0 Bft) S 173 ° 0 min 0,000 mm 0,0 UV-I 0 W/m² 2,5 °C 4,3 °C 0,0 km/h (0 Bft)
04.11.2017 23:50 4,3 °C 4,3 °C 89 % 1010,9 hPa 0,0 mm 0,0 km/h (0 Bft) S 173 ° 0 min 0,000 mm 0,0 UV-I 0 W/m² 2,7 °C 4,3 °C 0,0 km/h (0 Bft)
04.11.2017 23:51 4,2 °C 4,3 °C 89 % 1010,9 hPa 0,0 mm 0,0 km/h (0 Bft) S 173 ° 0 min 0,000 mm 0,0 UV-I 0 W/m² 2,6 °C 4,2 °C 0,0 km/h (0 Bft)
04.11.2017 23:53 4,2 °C 4,2 °C 89 % 1010,8 hPa 0,0 mm 0,0 km/h (0 Bft) S 173 ° 0 min 0,000 mm 0,0 UV-I 0 W/m² 2,6 °C 4,2 °C 0,0 km/h (0 Bft)
04.11.2017 23:54 4,1 °C 4,2 °C 88 % 1010,7 hPa 0,0 mm 0,0 km/h (0 Bft) S 173 ° 0 min 0,000 mm 0,0 UV-I 0 W/m² 2,3 °C 4,1 °C 0,0 km/h (0 Bft)
04.11.2017 23:55 4,1 °C 4,2 °C 89 % 1010,7 hPa 0,0 mm 0,0 km/h (0 Bft) S 173 ° 0 min 0,000 mm 0,0 UV-I 0 W/m² 2,5 °C 4,1 °C 0,0 km/h (0 Bft)
04.11.2017 23:57 4,1 °C 4,2 °C 89 % 1010,7 hPa 0,0 mm 0,0 km/h (0 Bft) S 173 ° 0 min 0,000 mm 0,0 UV-I 0 W/m² 2,5 °C 4,1 °C 0,0 km/h (0 Bft)
04.11.2017 23:58 4,0 °C 4,1 °C 89 % 1010,7 hPa 0,0 mm 0,0 km/h (0 Bft) S 173 ° 0 min 0,000 mm 0,0 UV-I 0 W/m² 2,4 °C 4,0 °C 0,0 km/h (0 Bft)
_ Min-Zeit 01:32 01:48 13:35 23:58 - 23:58 - - - - - - 01:32 01:32 23:58
Minimum _ 0,8 °C 0,9 °C 59 % 1010,7 hPa - 0,0 km/h (0 Bft) - - - - - - 0,1 °C 0,8 °C 0,0 km/h (0 Bft)
_ Max-Zeit 13:52 13:53 07:31 09:28 08:18 14:22 - - 13:29 14:01 13:46 13:44 11:42 13:52 14:41
Maximum _ 15,3 °C 15,3 °C 96 % 1015,0 hPa 0,2 mm 13,4 km/h
W (3 Bft)
- - 2 min 0,178 mm 1,8 UV-I 381 W/m² 9,2 °C 15,3 °C 19,3 km/h
W-SW (3 Bft)
Durchschnitt _ 6,6 °C 6,7 °C 86 % 1013,3 hPa #0,2 mm 1,3 km/h (1 Bft) S - #47 min. #0,686 mm 1,3 UV-I 51 W/m² 4,2 °C 6,6 °C 2,2 km/h (1 Bft)